# Wetter Temperatur Luftdruck Luftfeuchtigkeit Sichtweite Windgeschwindigkeit Windrichtung Zeit
1 Fog 16 1020 93 6000 4.1 140 12:41 14.10.2019
2 Drizzle 14 1020 100 6000 4.1 130 12:21 14.10.2019
3 -273 0 0 0 0 0 11:55 14.10.2019
4 Mist 13 1020 93 3200 3.6 120 11:54 14.10.2019
5 Mist 13 1020 93 3200 3.6 120 11:36 14.10.2019
6 Fog 12 1020 93 1200 4.1 130 11:18 14.10.2019
7 Fog 13 1020 100 600 4.1 140 10:43 14.10.2019
8 Fog 12 1020 100 400 3.6 140 10:21 14.10.2019
9 Fog 12 1020 100 350 3.6 140 09:57 14.10.2019
10 Rain 12 1020 100 350 3.6 140 09:38 14.10.2019
11 Rain 11 1020 100 400 3.1 130 09:19 14.10.2019
12 Fog 11 1020 100 350 3.1 120 08:47 14.10.2019
13 Fog 10 1020 93 350 3.1 140 08:23 14.10.2019
14 Rain 10 1019 100 400 3.1 130 07:44 14.10.2019
15 Fog 10 1019 100 400 2.1 110 07:21 14.10.2019
16 -273 0 0 0 0 0 06:55 14.10.2019
17 Fog 10 1019 100 400 1.5 120 06:27 14.10.2019
18 Rain 10 1019 100 350 1 0 05:51 14.10.2019
19 Fog 10 1019 100 450 1 0 04:51 14.10.2019
20 Fog 10 1019 93 2000 0.5 0 03:48 14.10.2019
21 Mist 10 1019 93 3200 1 0 03:22 14.10.2019
22 Fog 10 1020 100 400 2.1 260 01:46 14.10.2019
23 Rain 10 1020 100 500 0.5 0 01:18 14.10.2019
24 Rain 10 1020 93 500 1.5 160 00:36 14.10.2019
25 Rain 10 1020 93 500 1.5 160 00:18 14.10.2019
26 Fog 10 1020 100 500 1.5 170 23:40 13.10.2019
27 Fog 10 1020 100 1100 1 0 23:19 13.10.2019
28 -273 0 0 0 0 0 22:54 13.10.2019
29 Fog 10 1020 93 450 1.5 180 22:36 13.10.2019
30 Fog 10 1020 100 600 1.5 190 22:18 13.10.2019
31 Fog 10 1020 100 600 1.5 190 22:18 13.10.2019
32 Fog 11 1020 100 450 1.5 180 21:55 13.10.2019
33 Fog 11 1021 93 10000 2.1 40 21:36 13.10.2019
34 Fog 11 1020 93 400 1.5 160 21:18 13.10.2019
35 Fog 11 1020 100 500 2.6 220 20:55 13.10.2019
36 Fog 12 1020 100 500 2.6 220 20:36 13.10.2019
37 Mist 12 1021 93 5000 3.1 150 20:18 13.10.2019
38 -273 0 0 0 0 0 19:54 13.10.2019
39 Clouds 12 1020 93 6000 4.6 160 19:36 13.10.2019
40 Clouds 13 1020 93 9000 3.6 140 19:18 13.10.2019
41 Clear 14 1020 82 10000 4.1 130 18:39 13.10.2019
42 Clear 15 1020 82 10000 3.1 140 18:20 13.10.2019
43 Clear 15 1020 82 10000 3.1 140 18:20 13.10.2019
44 Clear 15 1020 82 10000 3.1 140 17:59 13.10.2019
45 Clear 16 1020 82 10000 3.6 140 17:41 13.10.2019
46 Clear 16 1020 77 10000 4.1 150 17:22 13.10.2019
47 Clear 17 1020 77 10000 3.1 140 16:43 13.10.2019
48 Clouds 17 1021 72 10000 3.6 160 16:19 13.10.2019
49 Clouds 17 1021 72 10000 3.6 160 16:19 13.10.2019
50 Clouds 17 1021 77 10000 4.1 160 15:57 13.10.2019
51 Clouds 17 1021 77 10000 4.1 160 15:57 13.10.2019
52 Clouds 17 1021 77 10000 4.1 160 15:39 13.10.2019
53 Clouds 17 1021 77 10000 5.1 150 15:20 13.10.2019
54 Clouds 17 1021 77 10000 5.1 150 15:20 13.10.2019
55 Clouds 17 1021 77 10000 3.6 160 14:57 13.10.2019
56 Clouds 17 1021 77 10000 3.6 160 14:39 13.10.2019
57 Clouds 17 1021 82 10000 4.1 150 14:20 13.10.2019
58 Clouds 17 1021 82 10000 4.1 130 13:55 13.10.2019
59 Clouds 17 1021 82 10000 4.1 130 13:37 13.10.2019
60 Clouds 17 1021 82 10000 4.1 130 13:37 13.10.2019
61 Clouds 16 1021 82 10000 3.6 180 13:18 13.10.2019
62 Mist 15 1021 87 8000 2.6 170 12:55 13.10.2019
63 Mist 14 1021 87 8000 2.6 170 12:36 13.10.2019
64 Mist 13 1022 87 7000 2.1 200 12:18 13.10.2019
65 Mist 13 1022 87 6000 2.1 180 11:54 13.10.2019
66 Mist 12 1022 87 6000 2.1 180 11:36 13.10.2019
67 Mist 12 1021 93 4500 2.1 180 11:18 13.10.2019
68 -273 0 0 0 0 0 10:40 13.10.2019
69 Fog 12 1021 100 1200 1 0 10:22 13.10.2019
70 Fog 12 1021 100 1200 1 0 10:22 13.10.2019
71 Fog 10 1021 100 350 1.5 40 09:40 13.10.2019
72 Fog 10 1021 100 300 1 0 09:21 13.10.2019
73 Fog 9 1021 100 1200 1 20 08:57 13.10.2019
74 Fog 9 1021 100 1200 1 20 08:37 13.10.2019
75 Fog 9 1020 100 2300 0.5 0 08:18 13.10.2019
76 Fog 9 1020 93 1300 0.5 0 07:45 13.10.2019
77 Fog 9 1020 93 1300 0.5 0 07:45 13.10.2019
78 Fog 9 1020 100 900 1 0 06:58 13.10.2019
79 Rain 9 1020 93 500 1 0 06:31 13.10.2019
80 Rain 9 1020 100 600 1 0 05:34 13.10.2019
81 Rain 9 1020 100 600 1 0 05:34 13.10.2019
82 Rain 8 1019 100 900 1 0 04:46 13.10.2019
83 Rain 8 1019 100 1400 2.6 170 03:39 13.10.2019
84 Fog 8 1020 93 4500 2.6 160 02:39 13.10.2019
85 Mist 8 1020 100 4500 2.1 130 01:53 13.10.2019
86 Fog 8 1020 93 4500 1.5 110 01:26 13.10.2019
87 Fog 8 1020 93 4500 2.1 100 00:46 13.10.2019
88 Fog 9 1019 93 4500 2.1 110 00:21 13.10.2019
89 Fog 9 1019 100 900 1.5 120 23:55 12.10.2019
90 Fog 9 1019 100 900 1.5 120 23:36 12.10.2019
91 Fog 9 1020 93 6000 1.5 120 23:18 12.10.2019
92 Fog 9 1020 93 10000 1.5 160 22:56 12.10.2019
93 Fog 9 1020 93 10000 1.5 160 22:37 12.10.2019
94 Fog 9 1019 100 7000 2.1 140 22:19 12.10.2019
95 Clear 10 1019 93 10000 2.1 100 21:42 12.10.2019
96 Clear 10 1019 93 10000 2.1 110 21:24 12.10.2019
97 Clear 10 1019 93 10000 2.1 110 20:58 12.10.2019
98 Clear 10 1019 93 10000 2.1 110 20:58 12.10.2019
99 Clear 10 1019 93 10000 2.1 110 20:39 12.10.2019
100 Clear 10 1019 87 10000 2.1 120 20:21 12.10.2019
101 Clear 11 1019 87 10000 1 110 19:37 12.10.2019
102 Clear 12 1019 87 10000 2.1 120 19:19 12.10.2019
103 Clear 12 1019 82 10000 3.1 130 18:56 12.10.2019
104 Clear 13 1019 82 10000 3.1 130 18:37 12.10.2019
105 Clear 14 1019 76 10000 2.1 120 18:19 12.10.2019
106 Clear 14 1019 76 10000 3.6 140 17:42 12.10.2019
107 Clear 16 1019 76 10000 3.6 150 17:19 12.10.2019
108 Clear 16 1020 76 10000 4.6 160 16:54 12.10.2019
109 Clear 16 1020 76 10000 4.6 160 16:54 12.10.2019
110 Clear 16 1020 76 10000 4.6 160 16:36 12.10.2019
111 Clouds 16 1020 82 10000 4.6 150 16:18 12.10.2019
112 Clouds 16 1020 81 10000 4.6 150 15:40 12.10.2019
113 Clouds 17 1020 81 10000 4.1 150 15:22 12.10.2019
114 Clouds 17 1020 81 10000 3.6 150 14:43 12.10.2019
115 Clouds 16 1021 87 10000 4.1 150 14:22 12.10.2019
116 Clouds 17 1021 93 10000 4.6 140 13:57 12.10.2019
117 Clouds 16 1021 93 10000 4.6 140 13:38 12.10.2019
118 Clouds 16 1021 93 10000 4.6 130 13:20 12.10.2019
119 Clouds 15 1021 93 10000 4.6 150 12:39 12.10.2019
120 Clouds 13 1021 93 8000 4.1 140 12:21 12.10.2019
121 Mist 12 1021 93 7000 3.6 110 11:58 12.10.2019
122 Mist 12 1021 93 7000 3.6 110 11:39 12.10.2019
123 Mist 12 1021 93 4500 4.1 120 11:19 12.10.2019
124 Mist 12 1021 100 4000 3.6 120 10:43 12.10.2019
125 Mist 11 1021 93 3000 3.6 110 10:23 12.10.2019
126 Fog 10 1021 100 2000 2.6 120 09:58 12.10.2019
127 Fog 10 1021 100 2000 2.6 120 09:39 12.10.2019
128 Fog 9 1020 100 900 3.1 120 09:21 12.10.2019
129 Fog 9 1020 100 700 3.6 140 08:57 12.10.2019
130 Fog 9 1020 100 700 3.6 140 08:57 12.10.2019
131 Fog 9 1020 100 700 3.6 140 08:57 12.10.2019
132 Fog 9 1020 100 700 3.6 140 08:57 12.10.2019
133 Fog 8 1020 100 700 3.6 140 08:37 12.10.2019
134 Fog 8 1019 93 600 3.6 120 08:18 12.10.2019
135 Fog 8 1019 93 600 3.1 130 07:34 12.10.2019
136 Mist 8 1019 100 1400 2.6 120 06:51 12.10.2019
137 Fog 8 1019 100 1400 2.1 120 05:47 12.10.2019
138 Mist 8 1019 93 3000 3.1 120 05:22 12.10.2019
139 Fog 8 1019 100 3400 1 0 04:24 12.10.2019
140 Clouds 8 1019 93 9000 1 130 03:30 12.10.2019
141 Clear 9 1019 93 10000 2.1 130 01:45 12.10.2019
142 Clear 9 1019 93 10000 3.1 160 01:21 12.10.2019
143 Clear 9 1019 93 10000 3.1 150 00:42 12.10.2019
144 Clear 10 1019 93 10000 3.6 160 23:59 11.10.2019
145 Clear 10 1019 93 10000 3.6 160 23:40 11.10.2019
146 Clear 11 1019 87 10000 3.1 160 23:20 11.10.2019
147 Clear 11 1019 87 10000 4.6 150 22:41 11.10.2019
148 Clear 11 1019 87 10000 4.6 150 22:21 11.10.2019
149 Clear 12 1019 87 10000 4.6 140 21:57 11.10.2019
150 Clear 12 1019 87 10000 4.6 140 21:39 11.10.2019
151 Clear 12 1019 87 10000 4.6 150 21:20 11.10.2019
152 Clear 13 1019 82 10000 5.1 150 20:44 11.10.2019
153 Clear 13 1019 76 10000 4.6 150 20:26 11.10.2019
154 Clear 13 1019 76 10000 4.6 150 19:58 11.10.2019
155 Clear 14 1019 67 10000 4.6 140 19:39 11.10.2019
156 Clear 14 1019 62 10000 5.1 150 19:18 11.10.2019
157 Clear 14 1019 62 10000 5.7 150 18:58 11.10.2019
158 Clear 16 1019 62 10000 5.7 150 18:38 11.10.2019
159 Clear 17 1019 55 10000 6.2 160 18:19 11.10.2019
160 Clear 16 1019 55 10000 6.2 160 18:19 11.10.2019
161 Clear 17 1020 45 10000 7.2 170 17:58 11.10.2019
162 Clear 18 1020 45 10000 7.2 170 17:38 11.10.2019
163 Clear 18 1020 42 10000 7.2 180 17:19 11.10.2019
164 Clear 19 1020 42 10000 7.2 170 16:56 11.10.2019
165 Clear 19 1020 42 10000 7.2 170 16:37 11.10.2019
166 Clear 19 1020 40 10000 6.7 180 16:19 11.10.2019
167 Clear 19 1020 37 10000 6.2 180 15:41 11.10.2019
168 Clear 19 1020 37 10000 6.2 180 15:41 11.10.2019
169 Clear 19 1021 35 10000 6.2 190 15:20 11.10.2019
170 Clear 19 1022 37 10000 5.7 190 14:58 11.10.2019
171 Clear 19 1022 37 10000 5.7 190 14:38 11.10.2019
172 Clouds 19 1022 40 10000 4.6 190 14:19 11.10.2019
173 Clear 19 1022 42 10000 5.7 170 13:44 11.10.2019
174 Clear 19 1023 42 10000 6.2 190 13:25 11.10.2019
175 Rain 18 1023 52 10000 2.6 170 12:57 11.10.2019
176 Rain 18 1023 52 10000 2.6 170 12:38 11.10.2019
177 Rain 17 1024 55 10000 1.5 140 12:20 11.10.2019
178 Rain 17 1024 55 10000 1.5 140 11:58 11.10.2019
179 Clear 16 1024 55 10000 2.6 150 11:38 11.10.2019
180 Clear 16 1024 58 10000 1.5 160 11:20 11.10.2019
181 -273 0 0 0 0 0 10:54 11.10.2019
182 Clear 15 1024 62 10000 3.1 170 10:36 11.10.2019
183 Clear 14 1024 66 10000 2.6 180 10:18 11.10.2019
184 Clear 12 1024 76 10000 2.6 140 09:41 11.10.2019
185 Clear 11 1024 81 10000 2.6 180 09:20 11.10.2019
186 Clear 10 1024 87 10000 3.1 150 08:56 11.10.2019
187 Clear 9 1024 87 10000 3.1 150 08:38 11.10.2019
188 Clear 8 1024 87 10000 2.1 140 08:20 11.10.2019
189 Fog 8 1024 81 10000 1.5 0 07:51 11.10.2019
190 Fog 8 1024 81 10000 1.5 0 07:33 11.10.2019
191 Clear 7 1023 87 10000 3.6 160 06:49 11.10.2019
192 Clear 8 1023 87 10000 4.1 170 06:25 11.10.2019
193 Clear 8 1023 87 10000 4.6 180 05:46 11.10.2019
194 Clear 8 1023 81 10000 2.6 210 05:27 11.10.2019
195 Clear 8 1023 81 10000 3.1 260 04:47 11.10.2019
196 Clouds 9 1023 76 10000 2.6 230 02:59 11.10.2019
197 Clear 10 1022 71 10000 3.1 260 00:54 11.10.2019
198 Clear 10 1022 71 10000 3.1 260 00:30 11.10.2019
199 Clear 10 1022 66 10000 4.1 260 23:57 10.10.2019
200 Clear 10 1022 66 10000 4.1 260 23:38 10.10.2019
201 Clear 10 1022 66 10000 3.6 240 23:18 10.10.2019
202 Clear 10 1022 66 10000 3.1 230 22:54 10.10.2019
203 Clear 10 1022 66 10000 3.1 230 22:36 10.10.2019
204 Clear 10 1021 71 10000 2.1 220 22:18 10.10.2019
205 Clear 10 1021 71 10000 2.1 230 21:42 10.10.2019
206 Clear 10 1021 66 10000 4.1 240 21:22 10.10.2019
207 Clear 10 1020 66 10000 4.6 250 20:57 10.10.2019
208 Clear 11 1020 66 10000 4.6 250 20:39 10.10.2019
209 Clear 11 1020 66 10000 4.6 260 20:19 10.10.2019
210 Clear 11 1020 66 10000 4.6 260 20:19 10.10.2019
211 Clear 11 1019 62 10000 5.7 260 19:55 10.10.2019
212 Clear 11 1019 62 10000 5.7 260 19:37 10.10.2019
213 Rain 12 1019 62 10000 6.7 270 19:19 10.10.2019
214 Rain 12 1018 58 10000 7.2 270 18:42 10.10.2019
215 Rain 13 1017 71 0 7.2 230 18:20 10.10.2019
216 Rain 14 1017 58 10000 10.3 280 17:58 10.10.2019
217 Rain 14 1017 58 10000 10.3 280 17:39 10.10.2019
218 Rain 15 1017 51 10000 11.3 270 17:18 10.10.2019
219 Rain 15 1017 51 10000 11.3 270 17:18 10.10.2019
220 Rain 15 1017 51 10000 10.3 270 16:55 10.10.2019
221 Rain 15 1017 51 10000 10.3 270 16:37 10.10.2019
222 Rain 15 1017 55 10000 10.8 290 16:18 10.10.2019
223 Rain 16 1016 42 10000 8.2 270 15:39 10.10.2019
224 Clouds 16 1016 39 10000 9.8 260 15:21 10.10.2019
225 Clouds 17 1016 42 10000 10.3 270 14:56 10.10.2019
226 Clouds 17 1016 42 10000 10.3 270 14:37 10.10.2019
227 Clouds 17 1016 42 10000 7.7 270 14:19 10.10.2019
228 Clouds 17 1016 45 10000 5.7 240 13:55 10.10.2019
229 Clouds 17 1016 45 10000 5.7 240 13:37 10.10.2019
230 Clouds 17 1017 51 10000 5.1 270 13:18 10.10.2019
231 Clouds 16 1017 51 10000 4.6 280 12:42 10.10.2019
232 Clouds 16 1017 51 10000 5.1 300 12:20 10.10.2019
233 Clouds 16 1017 51 10000 4.6 300 11:58 10.10.2019
234 Clouds 15 1017 51 10000 4.6 300 11:39 10.10.2019
235 Clouds 15 1017 51 10000 5.7 300 11:19 10.10.2019
236 Clouds 15 1017 51 10000 5.7 270 10:46 10.10.2019
237 Clouds 14 1016 54 10000 2.6 280 10:27 10.10.2019
238 Clouds 14 1016 54 10000 2.6 280 09:59 10.10.2019
239 Clouds 13 1016 66 10000 1 0 09:41 10.10.2019
240 Clouds 12 1016 66 10000 1.5 50 09:23 10.10.2019
241 Clouds 11 1016 71 10000 1.5 140 08:59 10.10.2019
242 Clouds 11 1016 71 10000 1.5 140 08:39 10.10.2019
243 Clouds 10 1015 66 10000 4.1 310 08:19 10.10.2019
244 Clouds 10 1015 62 10000 2.1 240 07:47 10.10.2019
245 Clouds 10 1015 76 10000 0.5 0 07:25 10.10.2019
246 Clouds 10 1015 76 10000 1.5 70 06:55 10.10.2019
247 Clouds 10 1015 76 10000 1.5 70 06:36 10.10.2019
248 Clouds 10 1015 66 10000 0.5 0 05:39 10.10.2019
249 Clear 10 1014 66 10000 2.6 240 05:18 10.10.2019
250 Clouds 10 1014 62 10000 3.6 260 04:34 10.10.2019
251 Clear 11 1014 62 10000 2.1 240 02:19 10.10.2019
252 Clear 11 1014 66 10000 4.1 290 01:36 10.10.2019
253 Clear 11 1014 66 10000 4.1 290 01:18 10.10.2019
254 Clear 11 1014 71 10000 6.2 280 00:25 10.10.2019
255 Clouds 11 1014 71 10000 6.7 280 23:42 09.10.2019
256 Clouds 11 1014 76 10000 8.7 280 23:23 09.10.2019
257 Clouds 11 1014 76 10000 8.7 280 22:59 09.10.2019
258 Rain 11 1014 76 10000 9.3 280 22:41 09.10.2019
259 Rain 11 1014 76 10000 10.3 280 22:22 09.10.2019
260 Rain 11 1014 76 10000 10.3 280 22:22 09.10.2019
261 Rain 11 1014 82 10000 5.1 300 21:56 09.10.2019
262 Rain 11 1014 82 10000 5.1 300 21:38 09.10.2019
263 Rain 12 1013 87 10000 5.1 310 21:18 09.10.2019
264 Rain 12 1013 87 10000 7.2 310 20:54 09.10.2019
265 Rain 12 1013 87 10000 7.2 310 20:36 09.10.2019
266 Rain 12 1012 93 5000 9.8 320 20:18 09.10.2019
267 Rain 13 1011 72 8000 7.2 280 19:43 09.10.2019
268 Rain 13 1010 72 10000 1.5 350 19:22 09.10.2019
269 Clouds 14 1010 72 10000 1 0 18:39 09.10.2019
270 Rain 14 1010 67 10000 1 0 18:21 09.10.2019
271 Clouds 15 1010 67 10000 1 0 17:58 09.10.2019
272 Clouds 15 1010 67 10000 1 0 17:40 09.10.2019
273 Clouds 15 1010 67 10000 3.6 150 17:22 09.10.2019
274 Clouds 15 1011 67 10000 4.1 130 16:57 09.10.2019
275 Clouds 15 1011 67 10000 4.1 130 16:39 09.10.2019
276 Clouds 15 1011 67 10000 4.1 130 16:39 09.10.2019
277 Clouds 15 1011 63 10000 3.6 120 16:20 09.10.2019
278 Clouds 15 1011 63 10000 3.6 120 16:20 09.10.2019
279 Clouds 16 1011 63 10000 3.6 130 15:56 09.10.2019
280 Clouds 16 1011 63 10000 3.6 130 15:37 09.10.2019
281 Clouds 16 1012 63 10000 3.6 130 15:19 09.10.2019
282 Clouds 16 1012 67 10000 3.6 120 14:45 09.10.2019
283 Clouds 16 1013 67 10000 4.1 140 14:19 09.10.2019
284 Clouds 16 1013 63 10000 3.6 130 14:00 09.10.2019
285 Clouds 16 1013 63 10000 3.6 130 13:38 09.10.2019
286 Clouds 16 1013 63 10000 3.6 130 13:38 09.10.2019
287 Clouds 16 1013 67 10000 3.1 120 13:18 09.10.2019
288 Clouds 15 1014 67 10000 3.1 120 12:44 09.10.2019
289 Clouds 15 1014 71 10000 3.6 110 12:23 09.10.2019
290 Clouds 15 1014 71 10000 3.6 110 12:23 09.10.2019
291 Clouds 14 1014 71 10000 2.6 130 11:58 09.10.2019
292 Clouds 14 1014 71 10000 2.6 130 11:40 09.10.2019
293 Clouds 14 1013 71 10000 2.6 90 11:20 09.10.2019
294 Clouds 14 1014 71 10000 2.1 110 10:59 09.10.2019
295 Clouds 13 1014 71 10000 2.1 110 10:40 09.10.2019
296 Clouds 13 1014 76 10000 2.6 110 10:19 09.10.2019
297 Clouds 13 1014 76 10000 2.6 110 10:19 09.10.2019
298 Clouds 12 1014 76 10000 3.1 110 09:43 09.10.2019
299 Clear 11 1013 76 10000 3.6 90 09:21 09.10.2019
300 Clear 11 1013 76 10000 3.6 90 08:58 09.10.2019
301 Clear 11 1013 76 10000 2.6 120 08:39 09.10.2019
302 Clear 10 1013 76 10000 3.1 100 08:19 09.10.2019
303 Clear 10 1013 76 10000 2.1 80 07:47 09.10.2019
304 Clear 10 1012 76 10000 2.1 50 07:25 09.10.2019
305 Clouds 10 1012 76 10000 2.1 100 06:58 09.10.2019
306 Clear 10 1012 76 10000 4.1 140 06:35 09.10.2019
307 Clear 10 1011 76 10000 4.1 130 05:53 09.10.2019
308 Clear 11 1011 76 10000 4.6 140 04:56 09.10.2019
309 Clear 11 1011 76 10000 3.1 140 03:48 09.10.2019
310 Clear 11 1012 71 10000 3.6 130 02:27 09.10.2019
311 Clear 11 1012 76 10000 4.1 130 01:39 09.10.2019
312 Clear 11 1012 76 10000 2.1 140 01:18 09.10.2019
313 Clear 11 1012 76 10000 4.1 150 00:41 09.10.2019
314 Clear 11 1012 71 10000 3.6 150 00:23 09.10.2019
315 Clear 11 1013 66 10000 5.1 150 23:58 08.10.2019
316 Clear 11 1013 66 10000 5.1 150 23:38 08.10.2019
317 Clear 12 1013 66 10000 4.1 150 23:18 08.10.2019
318 Clear 12 1013 66 10000 5.1 150 22:55 08.10.2019
319 Clear 12 1013 62 10000 4.6 150 22:36 08.10.2019
320 Clear 13 1013 62 10000 4.6 150 22:18 08.10.2019
321 Rain 12 1013 62 10000 3.6 150 21:55 08.10.2019
322 Rain 13 1013 62 10000 3.6 150 21:36 08.10.2019
323 Clear 13 1014 62 10000 3.6 140 21:18 08.10.2019
324 Clear 13 1014 62 10000 4.6 150 20:55 08.10.2019
325 Clear 13 1014 62 10000 4.6 150 20:55 08.10.2019
326 Clear 13 1014 62 10000 4.6 150 20:36 08.10.2019
327 Clear 13 1013 54 10000 6.7 160 20:18 08.10.2019
328 Clear 13 1014 50 10000 8.7 160 19:54 08.10.2019
329 Clear 13 1014 50 10000 8.7 160 19:36 08.10.2019
330 Clear 14 1014 50 10000 8.7 160 19:36 08.10.2019
331 Clear 14 1013 54 10000 6.7 160 19:18 08.10.2019
332 Rain 14 1013 51 10000 9.8 170 18:41 08.10.2019
333 Clear 14 1013 54 10000 10.3 160 18:23 08.10.2019
334 Clear 15 1013 51 10000 9.8 160 17:57 08.10.2019
335 Clear 15 1013 51 10000 9.8 160 17:57 08.10.2019
336 Clear 15 1013 51 10000 9.8 160 17:39 08.10.2019
337 Clear 15 1014 51 10000 9.8 160 17:19 08.10.2019
338 Clear 15 1014 48 10000 10.3 160 16:56 08.10.2019
339 Clear 15 1014 48 10000 10.3 160 16:37 08.10.2019
340 Clear 16 1015 48 10000 9.3 160 16:18 08.10.2019
341 Clear 16 1015 48 10000 9.8 160 15:38 08.10.2019
342 Clear 16 1015 45 10000 8.7 160 15:20 08.10.2019
343 Clear 16 1016 48 10000 8.7 160 14:56 08.10.2019
344 Clear 16 1016 48 10000 8.7 160 14:37 08.10.2019
345 Clear 16 1016 44 10000 7.7 160 14:19 08.10.2019
346 Clear 15 1017 47 10000 7.7 150 13:55 08.10.2019
347 Clear 15 1017 47 10000 7.7 150 13:37 08.10.2019
348 Clear 14 1017 47 10000 7.7 150 13:18 08.10.2019
349 Clear 14 1017 47 10000 7.7 150 13:18 08.10.2019
350 Clear 14 1017 58 10000 7.2 150 12:41 08.10.2019
351 Clear 13 1018 66 10000 6.2 140 12:20 08.10.2019
352 Clear 12 1018 71 10000 7.2 140 11:57 08.10.2019
353 Clear 12 1018 71 10000 7.2 140 11:57 08.10.2019
354 Clear 11 1018 71 10000 7.2 140 11:38 08.10.2019
355 Clear 10 1019 70 10000 5.7 140 11:20 08.10.2019
356 Clouds 10 1019 81 10000 3.6 140 10:42 08.10.2019
357 Clear 9 1019 81 10000 4.1 130 10:23 08.10.2019
358 Mist 8 1020 86 10000 3.6 150 09:59 08.10.2019
359 Fog 7 1020 86 10000 3.6 150 09:40 08.10.2019
360 Clear 6 1020 93 10000 2.1 140 09:22 08.10.2019
361 Mist 4 1020 93 10000 2.1 160 08:45 08.10.2019
362 Fog 3 1020 93 10000 2.1 150 08:25 08.10.2019
363 Fog 2 1020 67 10000 2.6 140 07:57 08.10.2019
364 Fog 2 1020 67 10000 2.6 140 07:38 08.10.2019
365 Fog 2 1020 67 10000 3.1 150 07:19 08.10.2019
366 Fog 2 1020 67 10000 2.6 160 06:45 08.10.2019
367 Fog 2 1020 88 10000 3.1 180 06:21 08.10.2019
368 Clear 2 1020 88 10000 4.1 170 05:43 08.10.2019
369 Clear 2 1020 88 10000 4.1 170 05:43 08.10.2019
370 Clear 2 1020 86 10000 2.6 160 05:19 08.10.2019
371 Clear 2 1021 88 10000 2.6 160 03:31 08.10.2019
372 Clear 2 1021 88 10000 2.1 170 02:42 08.10.2019
373 Clear 3 1021 93 10000 2.1 160 01:58 08.10.2019
374 Clear 3 1021 93 10000 2.1 160 01:40 08.10.2019
375 Clear 3 1021 93 10000 1.5 150 00:56 08.10.2019
376 Clear 3 1021 93 10000 1.5 170 00:25 08.10.2019
377 Clear 3 1021 86 10000 2.1 180 23:56 07.10.2019
378 Clear 4 1021 86 10000 2.1 180 23:37 07.10.2019
379 Clear 4 1021 86 10000 2.1 160 23:19 07.10.2019
380 Clear 4 1021 80 10000 2.1 170 22:54 07.10.2019
381 Clear 4 1021 80 10000 2.1 170 22:36 07.10.2019
382 Clear 5 1020 75 10000 2.1 250 22:18 07.10.2019
383 Clear 5 1020 70 10000 1.5 230 21:54 07.10.2019
384 Clear 5 1020 70 10000 1.5 230 21:36 07.10.2019
385 Clear 5 1020 70 10000 1 0 21:18 07.10.2019
386 Clear 5 1020 70 10000 1 0 21:18 07.10.2019
387 Clear 5 1020 61 10000 1 0 20:54 07.10.2019
388 Clear 6 1020 61 10000 1 0 20:36 07.10.2019
389 Clear 6 1020 81 0 0.5 120 20:18 07.10.2019
390 Clear 6 1020 61 10000 1 0 19:41 07.10.2019
391 Clear 7 1020 65 10000 1.5 360 19:20 07.10.2019
392 Clouds 8 1020 66 10000 2.1 360 18:59 07.10.2019
393 Clouds 8 1020 66 10000 2.1 360 18:59 07.10.2019
394 Clouds 9 1020 66 10000 2.1 360 18:40 07.10.2019
395 Clouds 9 1019 57 10000 2.1 10 18:19 07.10.2019
396 Clouds 11 1019 57 10000 2.6 330 17:56 07.10.2019
397 Clouds 11 1019 57 10000 2.6 330 17:38 07.10.2019
398 Clouds 12 1019 53 10000 3.1 330 17:18 07.10.2019
399 Clouds 12 1019 53 10000 2.6 330 16:44 07.10.2019
400 Clouds 12 1019 50 10000 2.1 360 16:25 07.10.2019
401 Clear 12 1019 50 0 1 190 15:57 07.10.2019
402 Clouds 12 1019 57 10000 2.1 360 15:38 07.10.2019
403 Clouds 12 1019 57 10000 2.6 20 15:20 07.10.2019
404 Clouds 12 1019 61 10000 2.1 20 14:41 07.10.2019
405 Clouds 11 1019 61 10000 2.1 20 14:22 07.10.2019
406 Clouds 11 1019 61 10000 1 0 13:44 07.10.2019
407 Clouds 11 1019 66 10000 1.5 90 13:21 07.10.2019
408 Clouds 11 1019 66 10000 1 0 12:57 07.10.2019
409 Clouds 11 1019 66 10000 1 0 12:57 07.10.2019
410 Clouds 10 1019 66 10000 1 0 12:39 07.10.2019
411 Clouds 10 1019 70 10000 1 0 12:20 07.10.2019
412 Clouds 10 1019 70 10000 1 0 11:59 07.10.2019
413 Clouds 9 1019 70 10000 1 0 11:39 07.10.2019
414 Clouds 9 1019 70 10000 1 0 11:20 07.10.2019
415 Clouds 8 1019 81 10000 0.5 0 10:43 07.10.2019
416 Clouds 8 1019 81 10000 1.5 350 10:23 07.10.2019
417 Clouds 7 1018 81 10000 1.5 350 09:58 07.10.2019
418 Clouds 6 1018 81 10000 1.5 350 09:38 07.10.2019
419 Clouds 6 1018 81 10000 1.5 360 09:20 07.10.2019
420 Clouds 5 1018 86 10000 1.5 350 08:43 07.10.2019
421 Clouds 5 1017 86 10000 2.6 20 08:20 07.10.2019
422 Clouds 5 1017 86 10000 1.5 20 07:49 07.10.2019
423 Clouds 5 1016 86 10000 2.1 20 07:28 07.10.2019
424 Clouds 5 1016 86 10000 3.1 20 06:58 07.10.2019
425 Clouds 5 1016 86 10000 3.1 20 06:39 07.10.2019
426 Clouds 5 1016 86 10000 2.1 10 06:19 07.10.2019
427 Rain 5 1015 86 10000 0.5 0 05:26 07.10.2019
428 Rain 5 1015 86 10000 1 30 04:50 07.10.2019
429 Rain 6 1015 81 10000 2.1 30 03:48 07.10.2019
430 Rain 6 1015 81 10000 1.5 40 03:30 07.10.2019
431 Rain 6 1015 81 10000 1.5 40 03:30 07.10.2019
432 Rain 6 1015 81 10000 2.1 20 02:39 07.10.2019
433 Clouds 6 1015 81 10000 2.1 50 02:19 07.10.2019
434 Rain 6 1016 81 10000 2.1 50 01:24 07.10.2019
435 Rain 6 1016 81 10000 1.5 60 00:53 07.10.2019
436 Rain 6 1016 81 10000 1.5 60 00:26 07.10.2019
437 Clouds 7 1016 81 10000 1.5 60 23:59 06.10.2019
438 Clear 7 1016 87 10000 2.1 50 23:40 06.10.2019
439 Clear 7 1016 81 10000 2.1 40 23:20 06.10.2019
440 Clear 7 1016 81 10000 1 20 22:57 06.10.2019
441 Clear 7 1016 81 10000 1 20 22:39 06.10.2019
442 Clear 7 1016 75 10000 0.5 0 22:20 06.10.2019
443 Clear 7 1016 81 10000 1.5 40 21:55 06.10.2019
444 Clear 7 1016 81 10000 1.5 40 21:37 06.10.2019
445 Clear 7 1016 75 10000 1 90 21:18 06.10.2019
446 Clear 7 1016 75 10000 1 90 21:18 06.10.2019
447 Clear 8 1016 70 10000 3.1 60 20:55 06.10.2019
448 Clear 8 1016 70 10000 3.1 60 20:36 06.10.2019
449 Clear 8 1017 75 10000 3.1 60 20:18 06.10.2019
450 Clouds 8 1017 75 10000 2.6 60 19:55 06.10.2019
451 Clouds 8 1017 75 10000 2.6 60 19:36 06.10.2019
452 Clouds 8 1017 75 10000 2.6 60 19:18 06.10.2019
453 Clouds 9 1017 70 10000 2.1 60 18:55 06.10.2019
454 Clouds 9 1017 70 10000 2.1 60 18:36 06.10.2019
455 Clouds 10 1017 66 10000 2.1 50 18:18 06.10.2019
456 Clouds 10 1017 66 10000 2.1 50 18:18 06.10.2019
457 Clouds 10 1017 66 10000 2.1 50 18:18 06.10.2019
458 Clouds 10 1017 66 10000 2.1 50 18:18 06.10.2019
459 Clouds 11 1017 66 10000 3.1 80 17:42 06.10.2019
460 Clouds 11 1017 62 10000 4.1 60 17:20 06.10.2019
461 Clouds 11 1017 62 10000 4.1 60 17:20 06.10.2019
462 Clouds 11 1017 57 10000 3.6 50 16:56 06.10.2019
463 Clouds 12 1017 57 10000 3.6 50 16:37 06.10.2019
464 Clouds 12 1017 57 10000 3.6 50 16:37 06.10.2019
465 Clouds 12 1018 57 10000 3.6 40 16:18 06.10.2019
466 Clouds 12 1018 58 10000 3.6 10 15:43 06.10.2019
467 Clouds 12 1018 62 10000 4.6 40 15:21 06.10.2019
468 Clouds 12 1018 58 10000 4.6 20 14:56 06.10.2019
469 Clouds 13 1018 58 10000 4.6 20 14:38 06.10.2019
470 Clouds 12 1018 62 10000 5.1 30 14:19 06.10.2019
471 Clouds 13 1018 58 10000 4.1 10 13:42 06.10.2019
472 Clouds 12 1019 58 10000 4.1 350 13:24 06.10.2019
473 Clouds 12 1019 62 10000 4.1 360 12:59 06.10.2019
474 Clouds 12 1019 62 10000 4.1 360 12:41 06.10.2019
475 Clouds 12 1019 62 10000 5.1 350 12:21 06.10.2019
476 Clouds 12 1019 66 10000 5.1 340 11:59 06.10.2019
477 Clouds 11 1019 66 10000 5.1 340 11:41 06.10.2019
478 Clouds 11 1019 66 10000 5.1 10 11:23 06.10.2019
479 Clouds 11 1019 71 10000 5.1 360 10:55 06.10.2019
480 Clouds 11 1019 71 10000 5.1 360 10:37 06.10.2019
481 Clouds 10 1019 76 10000 5.7 350 10:19 06.10.2019
482 Clouds 10 1019 76 10000 4.6 350 09:41 06.10.2019
483 Clouds 10 1019 76 10000 4.6 350 09:41 06.10.2019
484 Clouds 9 1019 76 10000 5.7 340 09:19 06.10.2019
485 Clear 9 1019 76 10000 4.6 330 08:48 06.10.2019
486 Clear 9 1019 76 10000 4.6 330 08:48 06.10.2019
487 Clear 8 1019 81 10000 4.6 310 08:22 06.10.2019
488 Rain 8 1018 81 10000 5.1 320 07:58 06.10.2019
489 Rain 8 1018 81 10000 5.1 320 07:39 06.10.2019
490 Clouds 7 1018 81 10000 5.7 340 06:50 06.10.2019
491 Clouds 8 1018 81 10000 6.7 320 05:41 06.10.2019
492 Clouds 8 1018 81 10000 6.7 320 05:41 06.10.2019
493 Clouds 8 1017 81 10000 5.7 320 04:35 06.10.2019
494 Clouds 8 1016 76 10000 4.6 320 02:53 06.10.2019
495 Clouds 9 1016 70 10000 6.7 320 02:30 06.10.2019
496 Clouds 9 1016 76 10000 7.2 320 01:48 06.10.2019
497 Clouds 9 1015 76 10000 8.2 320 01:30 06.10.2019
498 Clouds 9 1015 76 10000 8.7 320 00:59 06.10.2019
499 Clouds 9 1015 76 10000 8.7 320 00:59 06.10.2019
500 Clouds 9 1014 81 10000 9.8 320 00:33 06.10.2019
501 Rain 9 1014 81 10000 9.8 320 23:59 05.10.2019
502 Rain 9 1014 81 10000 9.8 320 23:40 05.10.2019
503 Rain 9 1014 81 10000 9.8 320 23:40 05.10.2019
504 Rain 9 1014 76 10000 9.3 320 23:19 05.10.2019
505 Clouds 9 1013 76 10000 11.3 310 22:54 05.10.2019
506 Rain 9 1013 76 10000 10.8 300 22:36 05.10.2019
507 Rain 9 1013 76 10000 10.8 300 22:18 05.10.2019
508 Rain 9 1012 76 10000 11.3 300 21:41 05.10.2019
509 Rain 9 1012 76 10000 11.3 300 21:41 05.10.2019
510 Rain 10 1012 76 10000 11.3 300 21:22 05.10.2019
511 Rain 10 1011 81 10000 12.3 300 20:57 05.10.2019
512 Rain 10 1011 81 10000 12.3 300 20:39 05.10.2019
513 Rain 10 1011 81 10000 12.3 300 20:19 05.10.2019
514 Rain 10 1010 81 10000 12.3 290 19:55 05.10.2019
515 Rain 10 1010 81 10000 12.3 290 19:36 05.10.2019
516 Rain 10 1010 71 10000 11.3 300 19:18 05.10.2019
517 Rain 11 1009 66 10000 12.3 300 18:54 05.10.2019
518 Clouds 11 1009 66 10000 12.3 300 18:36 05.10.2019
519 Clouds 11 1008 71 10000 7.2 290 18:18 05.10.2019
520 Rain 11 1008 66 10000 7.2 300 17:40 05.10.2019
521 Rain 11 1008 81 10000 6.7 280 17:21 05.10.2019
522 Rain 12 1007 81 10000 6.2 280 16:55 05.10.2019
523 Rain 12 1007 81 10000 6.2 280 16:36 05.10.2019
524 Rain 12 1007 87 7000 7.7 300 16:18 05.10.2019
525 Rain 12 1006 76 10000 5.7 220 15:55 05.10.2019
526 Rain 12 1006 76 10000 5.7 220 15:36 05.10.2019
527 Rain 13 1006 72 10000 6.2 240 15:18 05.10.2019
528 Rain 13 1006 67 10000 6.7 250 14:41 05.10.2019
529 Rain 13 1006 72 10000 5.1 240 14:20 05.10.2019
530 Rain 13 1006 76 10000 5.7 230 13:43 05.10.2019
531 Rain 13 1006 82 10000 4.6 220 13:25 05.10.2019
532 Rain 14 1007 82 10000 5.1 200 12:58 05.10.2019
533 Rain 13 1007 82 10000 5.1 200 12:40 05.10.2019
534 Rain 13 1007 81 10000 4.1 220 12:18 05.10.2019
535 Rain 13 1007 81 10000 4.6 210 11:39 05.10.2019
536 Rain 12 1007 81 10000 4.6 220 11:20 05.10.2019
537 Rain 12 1007 76 10000 4.6 220 10:55 05.10.2019
538 Rain 12 1007 76 10000 4.6 220 10:37 05.10.2019
539 Rain 12 1007 76 10000 4.6 200 10:18 05.10.2019
540 Rain 12 1007 76 10000 4.1 230 09:40 05.10.2019
541 Rain 11 1007 76 10000 4.6 230 09:22 05.10.2019
542 Rain 11 1007 76 10000 5.1 240 08:42 05.10.2019
543 Rain 11 1007 71 10000 6.7 250 08:22 05.10.2019
544 Rain 11 1007 66 10000 5.7 250 07:59 05.10.2019
545 Rain 11 1007 66 10000 5.7 250 07:39 05.10.2019
546 Rain 11 1007 71 10000 4.6 250 07:20 05.10.2019
547 Rain 11 1007 71 10000 5.1 240 06:50 05.10.2019
548 Rain 11 1007 71 10000 3.6 240 06:18 05.10.2019
549 Rain 10 1007 87 10000 2.6 150 04:44 05.10.2019
550 Rain 10 1008 71 10000 2.6 250 03:30 05.10.2019
551 Rain 10 1008 76 10000 2.6 270 01:59 05.10.2019
552 Clear 10 1008 81 10000 2.6 170 01:24 05.10.2019
553 Rain 10 1008 76 10000 1.5 150 00:46 05.10.2019
554 Rain 10 1008 76 10000 1.5 150 00:46 05.10.2019
555 Rain 10 1008 76 10000 2.6 140 00:27 05.10.2019
556 Rain 10 1008 76 10000 2.1 120 23:46 04.10.2019
557 Rain 10 1009 71 10000 0.5 0 23:28 04.10.2019
558 Rain 10 1009 66 10000 0.5 0 22:59 04.10.2019
559 Rain 10 1009 66 10000 0.5 0 22:41 04.10.2019
560 Rain 11 1009 66 10000 1.5 150 22:23 04.10.2019
561 Clouds 11 1009 66 10000 3.6 160 21:58 04.10.2019
562 Clouds 11 1009 66 10000 3.6 160 21:39 04.10.2019
563 Clouds 11 1009 66 10000 4.1 150 21:21 04.10.2019
564 Clouds 11 1009 58 10000 4.6 150 20:57 04.10.2019
565 Clouds 11 1009 58 10000 4.6 150 20:39 04.10.2019
566 Clouds 11 1009 58 10000 5.1 150 20:21 04.10.2019
567 Clouds 11 1009 58 10000 5.1 150 20:20 04.10.2019
568 Clouds 12 1009 58 10000 4.6 150 19:54 04.10.2019
569 Clouds 12 1009 58 10000 4.6 150 19:36 04.10.2019
570 Clouds 12 1009 58 10000 3.6 130 19:18 04.10.2019
571 Clouds 13 1009 58 10000 3.6 130 18:39 04.10.2019
572 Clouds 13 1009 50 10000 3.1 120 18:19 04.10.2019
573 Clouds 14 1009 50 10000 4.1 130 17:57 04.10.2019
574 Clouds 14 1009 50 10000 4.1 130 17:38 04.10.2019
575 Clouds 14 1010 50 10000 5.1 130 17:20 04.10.2019
576 Clouds 15 1010 50 10000 6.2 130 16:55 04.10.2019
577 Clouds 15 1010 50 10000 6.2 130 16:36 04.10.2019
578 Clouds 15 1010 50 10000 5.1 140 16:18 04.10.2019
579 Clouds 15 1011 50 10000 4.6 150 15:55 04.10.2019
580 Clouds 15 1011 50 10000 4.6 150 15:36 04.10.2019
581 Clouds 15 1011 47 10000 5.1 140 15:18 04.10.2019
582 Clouds 15 1012 51 10000 4.6 140 14:42 04.10.2019
583 Clouds 15 1012 50 10000 3.1 130 14:22 04.10.2019
584 Clouds 15 1012 50 10000 2.6 120 13:59 04.10.2019
585 Clouds 15 1012 50 10000 2.6 120 13:40 04.10.2019
586 Clouds 14 1013 50 10000 1 0 13:19 04.10.2019
587 Clouds 14 1014 50 10000 1.5 70 12:45 04.10.2019
588 Clouds 14 1014 54 10000 1 0 12:27 04.10.2019
589 Clouds 14 1014 54 10000 1 0 12:27 04.10.2019
590 Clouds 14 1014 58 10000 1.5 20 11:55 04.10.2019
591 Clouds 14 1014 58 10000 1.5 20 11:55 04.10.2019
592 Clouds 14 1014 58 10000 1.5 20 11:37 04.10.2019
593 Clouds 13 1015 62 10000 1.5 310 11:18 04.10.2019
594 Clouds 12 1015 62 10000 2.1 280 10:39 04.10.2019
595 Clouds 11 1015 62 10000 2.1 260 10:20 04.10.2019
596 Clouds 11 1015 62 10000 2.1 260 10:20 04.10.2019
597 Clouds 11 1015 66 10000 1 0 09:44 04.10.2019
598 Clouds 10 1015 71 10000 2.1 210 09:26 04.10.2019
599 Clouds 10 1015 71 10000 2.1 210 09:26 04.10.2019
600 Clouds 9 1015 71 10000 2.1 170 08:55 04.10.2019
601 Clouds 9 1015 71 10000 2.1 170 08:37 04.10.2019
602 Clouds 8 1015 71 10000 2.6 270 08:18 04.10.2019
603 Clouds 8 1016 71 10000 3.6 280 07:42 04.10.2019
604 Clouds 8 1016 71 10000 3.1 280 07:20 04.10.2019
605 Clouds 8 1016 71 10000 3.6 290 06:41 04.10.2019
606 Clouds 8 1016 71 10000 2.1 280 06:23 04.10.2019
607 Clouds 8 1015 71 10000 2.1 320 05:23 04.10.2019
608 Clouds 8 1015 71 10000 3.6 300 04:54 04.10.2019
609 Clouds 9 1015 76 10000 2.6 320 03:43 04.10.2019
610 Clouds 8 1016 71 10000 3.6 300 02:53 04.10.2019
611 Clouds 8 1016 71 10000 3.6 300 02:53 04.10.2019
612 Clouds 9 1016 66 10000 5.7 300 01:55 04.10.2019
613 Clouds 9 1016 66 10000 6.7 300 01:29 04.10.2019
614 Clouds 9 1016 66 10000 5.7 300 00:56 04.10.2019
615 Clouds 9 1016 71 10000 5.1 310 23:55 03.10.2019
616 Clouds 10 1016 71 10000 5.1 310 23:36 03.10.2019
617 Rain 10 1016 76 10000 6.7 310 23:18 03.10.2019
618 Rain 10 1016 76 10000 6.7 310 23:18 03.10.2019
619 Clouds 9 1016 71 10000 6.2 300 22:55 03.10.2019
620 Clouds 9 1016 71 10000 6.2 300 22:36 03.10.2019
621 Clouds 9 1016 71 10000 5.1 300 22:18 03.10.2019
622 Clouds 10 1016 66 10000 7.2 300 21:54 03.10.2019
623 Clouds 10 1016 66 10000 7.2 300 21:36 03.10.2019
624 Clouds 10 1016 71 10000 7.7 300 21:18 03.10.2019
625 Rain 10 1016 76 10000 6.2 310 20:41 03.10.2019
626 Rain 10 1016 66 10000 8.2 300 20:23 03.10.2019
627 Rain 10 1016 66 10000 8.2 300 19:59 03.10.2019
628 Clear 10 1016 62 10000 6.2 290 19:41 03.10.2019
629 Clear 10 1016 58 10000 6.7 280 19:22 03.10.2019
630 Rain 11 1015 58 10000 8.2 280 18:58 03.10.2019
631 Rain 11 1015 58 10000 8.2 280 18:38 03.10.2019
632 Clear 11 1015 58 10000 8.2 280 18:19 03.10.2019
633 Clear 11 1015 58 10000 8.2 280 18:19 03.10.2019
634 Clouds 12 1015 58 10000 8.7 290 17:55 03.10.2019
635 Clouds 11 1015 58 10000 8.7 290 17:55 03.10.2019
636 Clouds 12 1015 58 10000 8.7 290 17:37 03.10.2019
637 Clouds 12 1015 58 10000 7.7 290 17:18 03.10.2019
638 Rain 12 1015 58 10000 6.7 290 16:41 03.10.2019
639 Clouds 12 1015 62 10000 5.7 290 16:23 03.10.2019
640 Clouds 12 1015 62 10000 6.2 300 15:55 03.10.2019
641 Clouds 12 1015 62 10000 6.2 300 15:37 03.10.2019
642 Clouds 12 1015 62 10000 7.7 300 15:18 03.10.2019
643 Clouds 12 1016 62 10000 8.2 290 14:43 03.10.2019
644 Clouds 12 1016 58 10000 9.3 300 14:24 03.10.2019
645 Clouds 11 1015 58 10000 8.7 300 13:56 03.10.2019
646 Clouds 11 1015 58 10000 8.7 300 13:56 03.10.2019
647 Clouds 12 1015 58 10000 8.7 300 13:38 03.10.2019
648 Clouds 11 1016 58 10000 9.3 300 13:19 03.10.2019
649 -273 0 0 0 0 0 12:55 03.10.2019
650 Clouds 12 1015 58 10000 9.3 300 12:55 03.10.2019
651 Clouds 11 1015 58 10000 9.3 300 12:36 03.10.2019
652 Clouds 11 1016 58 10000 8.7 290 12:18 03.10.2019
653 Clouds 11 1015 62 10000 8.2 300 11:40 03.10.2019
654 Clouds 11 1015 62 10000 9.3 300 11:22 03.10.2019
655 Clouds 11 1015 62 10000 8.7 300 10:58 03.10.2019
656 Clouds 11 1015 62 10000 8.7 300 10:58 03.10.2019
657 Clouds 11 1015 62 10000 8.7 300 10:39 03.10.2019
658 Clouds 11 1015 66 10000 8.7 310 10:18 03.10.2019
659 Clouds 10 1015 66 10000 7.2 300 09:57 03.10.2019
660 Clouds 10 1015 66 10000 7.2 300 09:39 03.10.2019
661 Clouds 10 1015 66 10000 5.1 310 09:20 03.10.2019
662 Clouds 9 1014 70 10000 6.2 320 08:44 03.10.2019
663 Clouds 9 1014 70 10000 6.7 310 08:26 03.10.2019
664 Clouds 8 1014 75 10000 4.6 320 07:57 03.10.2019
665 Clouds 8 1013 70 10000 6.2 320 07:38 03.10.2019
666 Clouds 8 1013 70 10000 6.2 320 07:19 03.10.2019
667 Clouds 8 1013 70 10000 8.7 310 06:46 03.10.2019
668 Clouds 8 1013 70 10000 6.2 310 06:20 03.10.2019
669 Clouds 8 1013 70 10000 8.2 310 05:43 03.10.2019
670 Clouds 8 1013 76 10000 8.2 310 04:51 03.10.2019
671 Clouds 9 1013 71 10000 7.7 310 04:25 03.10.2019
672 Clear 9 1012 71 10000 8.7 310 03:23 03.10.2019
673 Clouds 9 1012 71 10000 11.3 310 02:37 03.10.2019
674 Rain 9 1011 71 10000 9.8 320 01:51 03.10.2019
675 Clear 9 1011 71 10000 9.8 320 01:32 03.10.2019
676 Clouds 9 1010 71 10000 9.8 320 00:47 03.10.2019
677 Clouds 9 1010 76 10000 8.7 320 00:18 03.10.2019
678 Clouds 10 1009 81 10000 7.7 320 23:43 02.10.2019
679 Rain 10 1009 81 10000 7.2 330 23:21 02.10.2019
680 Rain 11 1008 81 10000 7.7 320 22:44 02.10.2019
681 Rain 11 1008 81 10000 7.7 320 22:44 02.10.2019
682 Rain 12 1007 87 10000 6.2 320 22:22 02.10.2019
683 Rain 12 1006 87 10000 3.6 250 21:57 02.10.2019
684 Rain 12 1006 87 10000 3.6 250 21:38 02.10.2019
685 Rain 13 1006 93 10000 3.1 190 21:20 02.10.2019
686 Rain 13 1006 93 10000 3.1 190 21:20 02.10.2019
687 Rain 13 1006 93 10000 3.6 180 20:57 02.10.2019
688 Rain 13 1006 93 10000 3.6 180 20:38 02.10.2019
689 Rain 13 1006 87 10000 3.1 190 20:20 02.10.2019
690 Rain 13 1006 87 10000 3.1 190 20:20 02.10.2019
691 Rain 13 1006 87 10000 2.6 190 19:55 02.10.2019
692 Rain 13 1006 87 10000 2.6 190 19:54 02.10.2019
693 Rain 13 1006 87 10000 2.6 190 19:54 02.10.2019
694 Rain 13 1006 87 10000 2.6 190 19:54 02.10.2019
695 Rain 13 1006 87 10000 2.6 190 19:54 02.10.2019
696 Rain 13 1006 87 10000 2.1 220 19:36 02.10.2019
697 Rain 13 1006 87 10000 2.6 190 19:36 02.10.2019
698 Rain 13 1006 87 10000 2.1 220 19:18 02.10.2019
699 Rain 13 1006 87 10000 2.6 240 18:55 02.10.2019
700 Rain 14 1006 87 10000 2.6 240 18:36 02.10.2019
701 Rain 14 1006 87 10000 3.6 260 18:18 02.10.2019
702 Rain 14 1006 87 10000 4.6 270 17:42 02.10.2019
703 Rain 14 1006 82 10000 4.1 270 17:21 02.10.2019
704 Rain 14 1006 82 10000 4.1 270 17:21 02.10.2019
705 Rain 14 1006 82 10000 5.1 280 16:58 02.10.2019
706 Rain 14 1006 82 10000 5.1 280 16:39 02.10.2019
707 Rain 14 1006 87 10000 6.7 280 16:20 02.10.2019
708 Rain 14 1006 87 10000 6.7 280 15:56 02.10.2019
709 Rain 15 1006 87 10000 5.1 290 15:37 02.10.2019
710 Rain 15 1005 87 10000 2.6 320 15:18 02.10.2019
711 Rain 15 1006 87 10000 5.1 290 15:18 02.10.2019
712 Rain 15 1006 87 10000 5.1 290 14:45 02.10.2019
713 Rain 15 1006 87 10000 5.1 290 14:27 02.10.2019
714 Rain 15 1006 82 10000 4.6 270 13:58 02.10.2019
715 Rain 16 1006 87 10000 4.6 270 13:40 02.10.2019
716 Rain 16 1006 87 10000 5.7 280 13:21 02.10.2019
717 Rain 16 1006 87 10000 5.7 280 12:54 02.10.2019
718 Rain 16 1006 82 10000 7.2 290 12:36 02.10.2019
719 Rain 15 1006 82 10000 7.2 290 12:18 02.10.2019
720 Rain 16 1005 63 10000 6.7 310 11:41 02.10.2019
721 Rain 16 1005 63 10000 6.7 310 11:21 02.10.2019
722 Rain 17 1005 59 10000 5.1 290 10:40 02.10.2019
723 Rain 17 1005 59 10000 5.1 290 10:19 02.10.2019
724 Clear 17 1004 68 10000 3.6 310 09:42 02.10.2019
725 Clear 17 1004 68 10000 3.6 310 09:20 02.10.2019
726 Clear 16 1004 87 10000 1.5 140 08:57 02.10.2019
727 Clear 16 1004 93 10000 1 0 08:39 02.10.2019
728 Clear 15 1004 93 10000 1 0 08:20 02.10.2019
729 Clear 15 1003 100 10000 1.5 330 07:55 02.10.2019
730 Clear 14 1003 100 10000 1 0 07:37 02.10.2019
731 Clear 14 1003 100 10000 1 0 07:37 02.10.2019
732 Clear 14 1004 93 10000 1.5 330 07:18 02.10.2019
733 Clouds 14 1004 93 10000 1.5 330 06:28 02.10.2019
734 Clouds 14 1004 93 10000 1.5 350 05:51 02.10.2019
735 Clouds 13 1004 93 10000 3.1 310 05:22 02.10.2019
736 Clear 12 1003 87 10000 0.5 0 04:18 02.10.2019
737 Clear 12 1004 87 10000 0.5 0 03:50 02.10.2019
738 Clear 13 1004 87 10000 1 0 02:38 02.10.2019
739 Clear 13 1004 87 10000 1.5 0 02:20 02.10.2019
740 Clear 14 1004 82 10000 3.1 120 00:55 02.10.2019
741 Clear 14 1004 82 10000 4.6 140 00:30 02.10.2019
742 Clear 15 1005 82 10000 3.6 140 23:59 01.10.2019
743 Clear 15 1005 77 10000 3.6 140 23:41 01.10.2019
744 Clear 15 1005 77 10000 3.6 140 23:22 01.10.2019
745 Clear 15 1005 77 10000 4.1 130 22:58 01.10.2019
746 Clear 15 1005 77 10000 4.1 130 22:58 01.10.2019
747 Clear 15 1005 77 10000 3.6 150 22:38 01.10.2019
748 Clear 16 1005 77 10000 3.6 150 22:18 01.10.2019
749 Clear 17 1006 68 10000 4.1 160 21:43 01.10.2019
750 Clear 17 1006 68 10000 4.1 160 21:24 01.10.2019
751 Clear 18 1006 68 10000 4.1 160 20:59 01.10.2019
752 Clear 18 1006 68 10000 4.6 160 20:39 01.10.2019
753 Clear 18 1006 68 10000 4.6 160 20:21 01.10.2019
754 Clear 19 1006 63 10000 5.1 150 19:59 01.10.2019
755 Clear 19 1006 56 10000 4.1 160 19:41 01.10.2019
756 Clear 19 1006 56 10000 4.1 160 19:23 01.10.2019
757 Clear 21 1006 49 10000 5.7 170 18:58 01.10.2019
758 Clear 21 1006 46 10000 7.2 170 18:38 01.10.2019
759 Clear 23 1006 44 10000 8.2 170 18:19 01.10.2019
760 -273 0 0 0 0 0 17:54 01.10.2019
761 Clear 24 1007 44 10000 8.2 170 17:36 01.10.2019
762 Clear 24 1007 44 10000 8.2 170 17:36 01.10.2019
763 Clear 24 1007 44 10000 8.2 170 17:18 01.10.2019
764 Clear 25 1007 38 10000 8.2 160 16:41 01.10.2019
765 Clear 25 1007 38 10000 8.2 160 16:41 01.10.2019
766 Clear 25 1008 41 10000 7.7 160 16:22 01.10.2019
767 Clear 25 1008 41 10000 7.7 160 15:59 01.10.2019
768 Clear 25 1008 41 10000 7.7 170 15:40 01.10.2019
769 Clear 25 1008 38 10000 8.2 170 15:21 01.10.2019
770 -273 0 0 0 0 0 14:41 01.10.2019
771 Clear 24 1009 38 10000 7.7 150 14:20 01.10.2019
772 Clear 24 1009 38 10000 7.7 150 14:20 01.10.2019
773 Clear 24 1009 38 10000 6.7 170 13:57 01.10.2019
774 Clear 24 1010 38 10000 8.2 180 13:38 01.10.2019
775 Clear 23 1010 37 10000 8.7 170 13:19 01.10.2019
776 Clear 23 1010 37 10000 8.7 170 12:56 01.10.2019
777 Clear 23 1011 40 10000 9.3 170 12:38 01.10.2019
778 Clear 21 1011 43 10000 9.8 170 12:18 01.10.2019
779 Clear 20 1011 43 10000 9.8 170 11:57 01.10.2019
780 Clear 21 1011 43 10000 9.8 170 11:57 01.10.2019
781 Clouds 20 1012 45 10000 10.3 170 11:37 01.10.2019
782 -273 0 0 0 0 0 11:18 01.10.2019
783 Clouds 19 1012 48 10000 9.3 170 10:48 01.10.2019
784 Clouds 17 1012 52 10000 7.2 170 10:28 01.10.2019
785 Clear 16 1013 59 10000 4.6 140 09:47 01.10.2019
786 Clear 14 1013 67 10000 4.1 130 09:27 01.10.2019
787 Clear 12 1013 81 10000 3.6 160 08:46 01.10.2019
788 Clear 10 1013 81 10000 3.6 160 08:28 01.10.2019
789 Clear 10 1014 81 10000 3.6 170 07:59 01.10.2019
790 Clear 9 1014 76 10000 1.5 60 07:41 01.10.2019
791 Clear 9 1014 76 10000 1 0 07:20 01.10.2019
792 Clear 9 1014 76 10000 2.6 170 06:43 01.10.2019
793 Clear 9 1014 76 10000 2.6 170 06:18 01.10.2019
794 Clear 10 1014 71 10000 3.6 310 05:45 01.10.2019
795 Clear 10 1015 66 10000 2.6 290 04:46 01.10.2019
796 Clear 11 1015 66 10000 2.6 240 03:58 01.10.2019
797 Clear 12 1015 54 10000 3.1 300 02:24 01.10.2019
798 Clear 13 1014 54 10000 4.6 310 01:57 01.10.2019
799 Clear 13 1015 54 10000 4.6 280 00:53 01.10.2019
800 Clear 14 1015 51 10000 5.1 280 00:26 01.10.2019
801 Clear 14 1015 51 10000 4.6 280 23:55 30.09.2019
802 Clear 14 1015 51 10000 4.1 280 23:37 30.09.2019
803 Clear 14 1015 51 10000 4.1 280 23:18 30.09.2019
804 Clear 14 1014 48 10000 5.1 280 22:42 30.09.2019
805 Clear 15 1014 48 10000 5.1 280 22:23 30.09.2019
806 Clear 15 1013 48 10000 4.6 300 21:56 30.09.2019
807 Clear 15 1013 45 10000 5.1 300 21:37 30.09.2019
808 Clear 16 1013 45 10000 5.1 300 21:19 30.09.2019
809 Clear 16 1013 39 10000 6.7 280 20:55 30.09.2019
810 Clear 16 1013 39 10000 6.7 280 20:55 30.09.2019
811 Clear 16 1012 39 10000 7.2 280 20:36 30.09.2019
812 Clear 17 1012 45 0 5.1 280 20:18 30.09.2019
813 Clear 17 1012 37 10000 7.7 280 19:54 30.09.2019
814 Clear 18 1012 34 10000 6.2 280 19:36 30.09.2019
815 Clear 18 1011 34 10000 7.2 300 19:18 30.09.2019
816 Clear 19 1011 32 10000 6.7 310 18:41 30.09.2019
817 Clear 19 1011 32 10000 6.7 310 18:21 30.09.2019
818 Clear 20 1011 32 10000 10.3 300 17:57 30.09.2019
819 Clear 20 1010 30 10000 11.8 310 17:39 30.09.2019
820 Clear 20 1010 30 10000 11.8 310 17:20 30.09.2019
821 Clear 20 1010 30 10000 12.3 300 16:55 30.09.2019
822 Clouds 20 1010 35 0 13.9 260 16:36 30.09.2019
823 Clear 21 1010 28 10000 11.8 270 16:18 30.09.2019
824 Clear 21 1010 28 10000 11.8 270 16:18 30.09.2019
825 Clear 21 1009 27 10000 15.4 280 15:54 30.09.2019
826 Clear 21 1009 31 10000 13.9 270 15:36 30.09.2019
827 Clear 22 1009 33 10000 17 280 15:18 30.09.2019
828 Clear 22 1009 33 10000 17 280 14:54 30.09.2019
829 Clouds 22 1009 35 10000 14.4 270 14:36 30.09.2019
830 Clouds 22 1008 37 10000 14.4 290 14:18 30.09.2019
831 Clouds 22 1009 43 10000 11.3 280 13:43 30.09.2019
832 Clouds 22 1009 43 10000 11.3 280 13:22 30.09.2019
833 Clouds 22 1009 43 10000 12.3 270 12:57 30.09.2019
834 Clouds 22 1007 46 10000 10.8 270 12:39 30.09.2019
835 Clouds 22 1007 46 10000 10.8 270 12:19 30.09.2019
836 Clouds 22 1007 49 10000 12.9 270 11:43 30.09.2019
837 Clear 22 1007 43 10000 11.3 270 11:22 30.09.2019
838 Clear 22 1007 43 10000 11.3 270 10:59 30.09.2019
839 Clear 22 1007 43 10000 9.8 280 10:38 30.09.2019
840 Clear 22 1007 43 10000 9.8 280 10:19 30.09.2019
841 Clear 22 1007 43 10000 9.8 270 09:58 30.09.2019
842 Clear 21 1006 43 10000 12.3 260 09:39 30.09.2019
843 Clear 21 1006 43 10000 12.3 260 09:19 30.09.2019
844 Clear 21 1005 40 10000 10.8 260 08:46 30.09.2019
845 Clear 21 1005 43 10000 8.7 280 08:27 30.09.2019
846 Clouds 20 1005 43 10000 10.8 270 07:44 30.09.2019
847 Clear 20 1005 43 10000 7.7 270 07:44 30.09.2019
848 Clear 20 1005 43 10000 7.7 270 07:25 30.09.2019
849 Mist 19 1005 72 10000 4.6 200 06:50 30.09.2019
850 Rain 18 1004 77 10000 4.1 200 06:31 30.09.2019
851 Rain 18 1005 87 10000 4.6 160 05:46 30.09.2019
852 Clear 17 1005 87 10000 3.1 160 03:33 30.09.2019
853 Clear 17 1005 87 10000 3.6 160 02:46 30.09.2019
854 Clear 16 1006 87 10000 1.5 180 01:35 30.09.2019
855 Clear 16 1006 82 10000 1 0 00:42 30.09.2019
856 Clear 16 1006 87 10000 2.1 170 00:21 30.09.2019
857 Clear 16 1006 87 10000 2.1 170 23:46 29.09.2019
858 Clear 16 1006 82 10000 3.1 180 23:23 29.09.2019
859 Clear 16 1006 82 10000 2.6 180 22:59 29.09.2019
860 Clear 16 1006 77 10000 3.6 160 22:40 29.09.2019
861 Clear 16 1006 77 10000 3.6 160 22:22 29.09.2019
862 Clear 16 1006 77 10000 4.1 170 21:57 29.09.2019
863 Clear 16 1007 82 10000 4.6 170 21:37 29.09.2019
864 Clear 17 1007 82 10000 4.6 170 21:19 29.09.2019
865 Clear 17 1007 82 10000 5.1 160 20:45 29.09.2019
866 Clear 18 1007 77 10000 5.1 160 20:20 29.09.2019
867 Clear 18 1007 72 10000 6.2 160 19:59 29.09.2019
868 Clear 18 1008 72 10000 5.1 160 19:38 29.09.2019
869 Clear 19 1008 68 10000 4.6 160 19:19 29.09.2019
870 Clear 20 1008 68 10000 4.6 160 18:56 29.09.2019
871 Clear 20 1008 64 10000 6.7 160 18:38 29.09.2019
872 Clear 21 1009 60 10000 6.2 160 18:19 29.09.2019
873 Clear 21 1009 60 10000 6.2 160 18:19 29.09.2019
874 Clear 22 1009 60 10000 6.2 160 17:58 29.09.2019
875 Clear 22 1009 56 10000 7.2 150 17:40 29.09.2019
876 Clear 23 1009 56 10000 7.2 150 17:20 29.09.2019
877 Clear 23 1009 60 10000 6.2 140 16:59 29.09.2019
878 Clear 23 1010 56 10000 6.7 150 16:40 29.09.2019
879 Clear 23 1011 53 10000 6.2 150 16:19 29.09.2019
880 Clear 24 1011 53 10000 6.2 150 15:57 29.09.2019
881 Clear 23 1011 53 10000 6.7 160 15:36 29.09.2019
882 Clear 23 1011 53 10000 7.2 160 15:18 29.09.2019
883 Clear 23 1011 53 10000 7.2 160 14:55 29.09.2019
884 Clear 24 1012 49 10000 7.2 170 14:36 29.09.2019
885 Clear 23 1012 53 10000 7.2 170 14:18 29.09.2019
886 Clear 23 1012 53 10000 7.2 170 14:18 29.09.2019
887 Clear 23 1013 49 10000 7.2 170 13:42 29.09.2019
888 Clear 22 1014 53 10000 6.7 160 13:19 29.09.2019
889 Clear 22 1014 53 10000 6.7 160 12:58 29.09.2019
890 Clear 22 1014 56 10000 6.7 180 12:40 29.09.2019
891 Clear 21 1014 56 10000 6.7 180 12:21 29.09.2019
892 Clear 20 1015 56 10000 3.6 160 11:58 29.09.2019
893 Clear 20 1015 63 10000 3.1 170 11:40 29.09.2019
894 Clear 19 1015 63 10000 3.1 170 11:19 29.09.2019
895 Clear 19 1015 68 10000 2.6 170 10:57 29.09.2019
896 Clear 19 1015 68 10000 2.6 170 10:57 29.09.2019
897 Clear 18 1016 77 10000 3.1 170 10:37 29.09.2019
898 Clear 17 1016 77 10000 3.1 170 10:19 29.09.2019
899 Clear 16 1016 77 10000 2.6 200 09:47 29.09.2019
900 Clear 14 1016 77 10000 2.6 200 09:21 29.09.2019
901 Clear 14 1016 82 10000 1.5 170 08:59 29.09.2019
902 Clear 13 1016 82 10000 1.5 170 08:59 29.09.2019
903 Clear 13 1016 87 10000 2.1 180 08:41 29.09.2019
904 Clear 12 1016 87 10000 2.1 180 08:21 29.09.2019
905 Clear 11 1016 87 10000 3.1 170 07:43 29.09.2019
906 Clear 11 1016 87 10000 2.6 180 07:25 29.09.2019
907 Clear 11 1016 93 10000 2.6 160 06:46 29.09.2019
908 Clear 11 1017 87 10000 1 180 05:47 29.09.2019
909 Clear 11 1017 93 10000 2.1 170 04:41 29.09.2019
910 Clear 11 1017 93 10000 2.1 170 04:23 29.09.2019
911 Rain 12 1018 87 10000 2.1 160 02:55 29.09.2019
912 Rain 12 1018 87 10000 3.1 170 02:19 29.09.2019
913 Clear 12 1018 72 10000 3.1 230 01:40 29.09.2019
914 Clear 13 1018 93 10000 2.1 220 00:55 29.09.2019
915 Clear 13 1018 93 10000 2.6 220 00:36 29.09.2019
916 Clear 13 1018 93 10000 2.1 230 00:18 29.09.2019
917 Clouds 13 1018 87 0 1 300 23:37 28.09.2019
918 Clouds 14 1018 87 0 1 300 23:18 28.09.2019
919 Clear 13 1018 87 10000 3.6 200 22:40 28.09.2019
920 Clear 13 1018 82 10000 3.1 200 22:21 28.09.2019
921 Clear 13 1018 82 10000 3.1 200 21:57 28.09.2019
922 Clear 13 1018 93 10000 1.5 100 21:39 28.09.2019
923 Clear 14 1018 93 10000 1.5 100 21:21 28.09.2019
924 Clear 14 1018 87 10000 2.1 180 20:57 28.09.2019
925 Clear 14 1018 87 10000 2.1 180 20:57 28.09.2019
926 Clouds 14 1017 87 10000 3.6 220 20:38 28.09.2019
927 Clouds 14 1017 87 10000 3.6 220 20:19 28.09.2019
928 Clouds 15 1017 87 10000 4.1 200 19:56 28.09.2019
929 Rain 15 1017 87 10000 4.6 200 19:38 28.09.2019
930 Rain 15 1017 87 10000 4.6 200 19:19 28.09.2019
931 Clouds 16 1017 87 10000 3.6 190 18:54 28.09.2019
932 Rain 16 1017 87 10000 3.6 180 18:36 28.09.2019
933 Rain 16 1018 87 10000 2.1 160 18:18 28.09.2019
934 Rain 17 1018 87 10000 2.1 160 17:54 28.09.2019
935 Rain 17 1018 87 10000 3.6 190 17:36 28.09.2019
936 Rain 17 1018 82 10000 3.1 230 17:18 28.09.2019
937 Rain 17 1018 82 10000 3.6 240 16:41 28.09.2019
938 Rain 17 1018 82 10000 3.6 240 16:22 28.09.2019
939 Rain 17 1018 82 10000 2.1 240 15:41 28.09.2019
940 Rain 16 1018 82 10000 2.1 240 15:23 28.09.2019
941 Clouds 16 1018 88 10000 2.6 300 14:56 28.09.2019
942 Rain 16 1018 88 10000 2.1 300 14:38 28.09.2019
943 Rain 16 1018 88 10000 2.1 300 14:38 28.09.2019
944 Rain 16 1018 88 10000 2.6 320 14:20 28.09.2019
945 Rain 16 1018 88 10000 2.6 320 13:56 28.09.2019
946 Rain 16 1018 87 10000 2.1 300 13:37 28.09.2019
947 Rain 16 1018 87 10000 2.6 320 13:19 28.09.2019
948 Rain 16 1018 87 10000 2.6 340 12:40 28.09.2019
949 Rain 16 1018 87 10000 2.6 340 12:19 28.09.2019
950 Rain 16 1018 82 10000 2.6 310 11:55 28.09.2019
951 Rain 16 1017 87 10000 3.6 280 11:36 28.09.2019
952 Rain 16 1017 87 10000 3.6 280 11:18 28.09.2019
953 Clouds 16 1017 82 10000 4.1 270 10:40 28.09.2019
954 Rain 16 1017 82 10000 4.1 270 10:20 28.09.2019
955 Rain 16 1017 82 10000 4.1 270 09:54 28.09.2019
956 Rain 16 1017 87 10000 4.1 300 09:36 28.09.2019
957 Rain 16 1017 87 10000 4.1 300 09:18 28.09.2019
958 Rain 15 1016 82 10000 5.7 290 08:42 28.09.2019
959 Rain 15 1016 87 10000 3.1 300 08:23 28.09.2019
960 Rain 15 1016 87 0 3.1 230 07:45 28.09.2019
961 Rain 15 1016 87 10000 3.1 300 07:45 28.09.2019
962 Rain 15 1016 87 0 3.1 230 07:21 28.09.2019
963 Rain 15 1015 72 10000 2.1 320 06:55 28.09.2019
964 Rain 15 1015 93 0 5.1 220 06:31 28.09.2019
965 Rain 16 1015 87 10000 0.5 0 05:55 28.09.2019
966 Clear 16 1015 68 10000 2.1 220 05:20 28.09.2019
967 Clear 16 1015 77 10000 2.1 330 04:39 28.09.2019
968 Clouds 16 1015 72 10000 3.1 320 03:58 28.09.2019
969 Clear 16 1015 77 10000 2.1 0 03:23 28.09.2019
970 Clear 16 1015 77 10000 1 0 02:56 28.09.2019
971 Clear 16 1015 77 10000 1.5 0 02:32 28.09.2019
972 Clear 16 1015 82 10000 1 0 01:49 28.09.2019
973 Clear 16 1015 77 10000 1.5 250 01:26 28.09.2019
974 Clear 16 1014 82 10000 1.5 90 00:58 28.09.2019
975 Clear 16 1014 77 10000 2.1 100 00:38 28.09.2019
976 Clear 16 1014 77 10000 2.1 100 00:18 28.09.2019
977 Rain 16 1014 63 10000 1.5 230 23:37 27.09.2019
978 Rain 17 1014 63 10000 1.5 230 23:19 27.09.2019
979 Rain 17 1014 67 10000 2.1 190 22:47 27.09.2019
980 Rain 17 1014 77 10000 2.1 160 22:20 27.09.2019
981 Clear 17 1013 72 10000 3.1 160 21:58 27.09.2019
982 Clear 17 1013 68 10000 4.6 160 21:39 27.09.2019
983 Clear 18 1013 68 10000 4.1 150 21:20 27.09.2019
984 Clear 18 1013 68 10000 4.1 150 20:58 27.09.2019
985 Clear 18 1013 68 10000 4.1 150 20:58 27.09.2019
986 Clear 18 1013 64 10000 3.6 140 20:40 27.09.2019
987 Clear 18 1013 64 10000 3.6 140 20:19 27.09.2019
988 Clear 19 1012 60 10000 4.6 150 19:57 27.09.2019
989 Clear 19 1012 60 10000 5.1 150 19:38 27.09.2019
990 Clear 20 1013 56 10000 5.1 150 19:19 27.09.2019
991 Clear 21 1013 53 10000 5.1 140 18:41 27.09.2019
992 Clear 21 1013 53 10000 5.1 140 18:23 27.09.2019
993 Clear 22 1013 49 10000 6.7 150 17:56 27.09.2019
994 Clear 22 1013 49 10000 6.7 150 17:56 27.09.2019
995 Clear 22 1013 53 10000 6.2 150 17:37 27.09.2019
996 Clear 23 1013 53 10000 6.2 150 17:19 27.09.2019
997 Clear 23 1013 50 10000 5.1 140 16:57 27.09.2019
998 Clear 23 1013 53 10000 5.1 130 16:37 27.09.2019
999 Clear 23 1013 53 10000 5.1 130 16:18 27.09.2019
1000 Clear 23 1014 53 10000 5.1 140 16:18 27.09.2019
1001 Clear 23 1014 53 10000 5.1 140 15:45 27.09.2019
1002 Clear 23 1014 53 10000 4.6 140 15:21 27.09.2019
1003 Clear 23 1015 56 10000 4.1 140 14:58 27.09.2019
1004 Clear 23 1015 60 10000 4.1 140 14:40 27.09.2019
1005 Clear 22 1015 60 10000 3.6 130 14:21 27.09.2019
1006 Clear 22 1015 60 10000 3.6 130 13:57 27.09.2019
1007 Clear 22 1016 64 10000 3.1 140 13:39 27.09.2019
1008 Clear 22 1016 64 10000 3.1 140 13:21 27.09.2019
1009 Clear 21 1016 64 10000 3.6 150 12:54 27.09.2019
1010 Rain 21 1016 72 10000 2.6 180 12:23 27.09.2019
1011 Rain 20 1016 64 10000 3.6 180 11:58 27.09.2019
1012 Rain 20 1016 68 10000 3.1 170 11:38 27.09.2019
1013 Clear 19 1016 68 10000 3.1 170 11:19 27.09.2019
1014 Clear 19 1016 68 10000 3.1 170 11:19 27.09.2019
1015 Clouds 18 1017 77 10000 2.6 180 10:43 27.09.2019
1016 Clouds 18 1017 77 10000 2.6 180 10:22 27.09.2019
1017 Clouds 17 1017 82 10000 3.6 170 09:58 27.09.2019
1018 Rain 16 1017 87 10000 3.6 170 09:40 27.09.2019
1019 Rain 15 1017 87 10000 3.6 150 09:19 27.09.2019
1020 Rain 15 1017 87 10000 3.6 150 08:42 27.09.2019
1021 Rain 14 1017 82 10000 2.1 230 08:21 27.09.2019
1022 Rain 14 1017 77 10000 2.6 250 07:57 27.09.2019
1023 Rain 13 1017 77 10000 2.1 250 07:39 27.09.2019
1024 Rain 14 1017 77 10000 2.1 250 07:19 27.09.2019
1025 Rain 13 1016 82 10000 2.1 170 06:40 27.09.2019
1026 Rain 13 1016 82 10000 2.1 170 06:21 27.09.2019
1027 Clouds 13 1016 82 10000 2.6 180 05:47 27.09.2019
1028 Clouds 13 1016 82 10000 2.6 180 05:29 27.09.2019
1029 Clear 13 1017 93 10000 2.1 150 03:40 27.09.2019
1030 Clear 12 1017 87 10000 2.6 180 01:56 27.09.2019
1031 Clear 12 1017 93 10000 3.1 160 01:32 27.09.2019
1032 Clear 12 1017 76 10000 3.1 250 00:44 27.09.2019
1033 Clear 13 1016 93 0 0.5 200 23:58 26.09.2019
1034 Clear 13 1016 93 0 0.5 200 23:40 26.09.2019
1035 Clear 13 1016 93 0 0.5 200 23:20 26.09.2019
1036 Clear 13 1016 72 10000 3.1 230 22:58 26.09.2019
1037 Clear 13 1016 82 10000 3.1 200 22:40 26.09.2019
1038 Clear 13 1016 82 10000 3.1 200 22:19 26.09.2019
1039 Clear 13 1016 77 10000 3.1 230 21:59 26.09.2019
1040 Clear 14 1016 77 10000 3.1 240 21:38 26.09.2019
1041 Clear 14 1016 77 10000 3.1 240 21:38 26.09.2019
1042 Clouds 14 1016 72 10000 2.6 270 21:20 26.09.2019
1043 Clouds 14 1016 72 10000 2.6 270 20:59 26.09.2019
1044 Clouds 14 1016 72 10000 2.6 270 20:59 26.09.2019
1045 Rain 15 1015 87 0 1 220 20:40 26.09.2019
1046 Rain 15 1015 87 0 1 220 20:21 26.09.2019
1047 Clouds 15 1015 63 10000 3.1 270 19:59 26.09.2019
1048 Clouds 16 1015 59 10000 2.1 250 19:40 26.09.2019
1049 Clouds 16 1015 59 10000 2.1 250 19:18 26.09.2019
1050 Clouds 17 1015 59 10000 4.1 280 18:57 26.09.2019
1051 Clouds 18 1015 59 10000 4.1 280 18:37 26.09.2019
1052 Clouds 18 1015 59 10000 7.2 290 18:18 26.09.2019
1053 Clouds 19 1014 56 10000 3.1 320 17:38 26.09.2019
1054 Clouds 19 1014 56 10000 3.1 320 17:38 26.09.2019
1055 Clouds 19 1014 56 10000 3.1 320 17:19 26.09.2019
1056 Clouds 19 1014 56 10000 3.6 310 16:58 26.09.2019
1057 Clouds 19 1014 52 10000 6.2 310 16:39 26.09.2019
1058 Clouds 19 1014 52 10000 6.2 310 16:20 26.09.2019
1059 Clouds 20 1014 56 10000 3.1 330 15:57 26.09.2019
1060 Clouds 20 1014 59 10000 6.2 300 15:37 26.09.2019
1061 Clouds 20 1014 56 10000 4.1 330 15:18 26.09.2019
1062 Clouds 20 1014 59 10000 3.6 340 14:41 26.09.2019
1063 Clouds 20 1014 59 10000 3.6 340 14:23 26.09.2019
1064 Clouds 20 1014 55 10000 3.6 330 13:58 26.09.2019
1065 Clouds 20 1014 55 10000 3.6 330 13:58 26.09.2019
1066 Clouds 20 1014 55 10000 3.6 330 13:58 26.09.2019
1067 Clouds 19 1014 59 10000 3.1 340 13:40 26.09.2019
1068 Clouds 20 1014 59 10000 3.1 340 13:19 26.09.2019
1069 Clouds 19 1014 63 10000 3.6 340 12:56 26.09.2019
1070 Clouds 19 1014 63 10000 4.6 310 12:38 26.09.2019
1071 Clouds 19 1014 63 10000 4.6 310 12:19 26.09.2019
1072 Clouds 18 1014 67 10000 4.1 310 11:42 26.09.2019
1073 Clouds 18 1014 67 10000 5.1 290 11:21 26.09.2019
1074 Clouds 17 1014 67 10000 5.1 290 10:55 26.09.2019
1075 Clouds 17 1014 67 10000 6.2 280 10:37 26.09.2019
1076 Clouds 17 1014 67 10000 6.2 280 10:19 26.09.2019
1077 Clouds 16 1014 67 10000 6.2 280 10:19 26.09.2019
1078 Rain 15 1013 63 10000 6.7 280 09:43 26.09.2019
1079 Rain 15 1013 63 10000 6.7 280 09:25 26.09.2019
1080 Clouds 15 1013 67 10000 5.7 290 08:56 26.09.2019
1081 Clouds 14 1013 67 10000 4.6 290 08:38 26.09.2019
1082 Clouds 14 1013 72 10000 5.1 290 08:19 26.09.2019
1083 Clear 13 1012 76 10000 3.1 290 07:41 26.09.2019
1084 Clear 13 1012 76 10000 3.1 290 07:20 26.09.2019
1085 Clear 13 1012 72 10000 5.7 290 06:43 26.09.2019
1086 Clear 13 1012 72 10000 5.7 290 06:25 26.09.2019
1087 Clear 13 1012 67 10000 6.7 280 05:44 26.09.2019
1088 Clear 13 1012 67 10000 6.7 280 05:24 26.09.2019
1089 Clear 13 1011 76 10000 2.6 240 02:50 26.09.2019
1090 Clear 13 1011 82 10000 2.6 200 01:53 26.09.2019
1091 Clear 13 1011 82 10000 2.6 200 01:53 26.09.2019
1092 Clear 13 1011 76 10000 3.6 230 01:28 26.09.2019
1093 Clear 14 1011 72 10000 4.6 230 00:55 26.09.2019
1094 Clear 14 1011 77 10000 5.1 230 00:37 26.09.2019
1095 Clear 14 1011 77 10000 5.1 230 23:57 25.09.2019
1096 Clear 14 1011 82 10000 4.6 230 23:38 25.09.2019
1097 Rain 14 1011 77 10000 4.6 220 23:18 25.09.2019
1098 Rain 15 1011 82 10000 3.1 220 22:41 25.09.2019
1099 Rain 15 1011 82 10000 3.1 220 22:20 25.09.2019
1100 Rain 15 1011 72 10000 3.1 260 21:57 25.09.2019
1101 Clear 15 1011 72 10000 3.1 240 21:39 25.09.2019
1102 Clear 15 1011 72 10000 3.1 240 21:19 25.09.2019
1103 Rain 16 1011 77 10000 2.6 230 20:58 25.09.2019
1104 Rain 16 1011 82 10000 3.6 260 20:39 25.09.2019
1105 Rain 16 1011 82 10000 3.6 260 20:21 25.09.2019
1106 Rain 16 1010 77 10000 3.1 240 19:54 25.09.2019
1107 Rain 16 1010 77 10000 3.1 210 19:36 25.09.2019
1108 Clouds 17 1010 72 10000 3.6 200 19:18 25.09.2019
1109 -273 0 0 0 0 0 18:54 25.09.2019
1110 Clouds 18 1010 68 10000 2.1 230 18:36 25.09.2019
1111 Clouds 18 1010 68 10000 2.1 230 18:18 25.09.2019
1112 Clouds 19 1010 56 10000 4.1 270 17:38 25.09.2019
1113 Rain 19 1010 52 10000 5.1 270 17:19 25.09.2019
1114 Rain 19 1010 56 10000 5.7 280 16:46 25.09.2019
1115 Rain 19 1010 56 10000 5.7 280 16:27 25.09.2019
1116 Clouds 20 1010 52 10000 6.2 270 15:59 25.09.2019
1117 Clouds 20 1010 49 10000 6.7 280 15:41 25.09.2019
1118 Clouds 20 1010 49 10000 6.7 280 15:23 25.09.2019
1119 Clouds 20 1010 52 10000 5.1 280 14:57 25.09.2019
1120 Clouds 20 1010 52 10000 6.7 290 14:39 25.09.2019
1121 Clouds 20 1010 52 10000 6.7 290 14:39 25.09.2019
1122 Clouds 20 1010 52 10000 6.7 290 14:21 25.09.2019
1123 Rain 19 1010 60 10000 5.1 280 13:41 25.09.2019
1124 Rain 19 1010 60 10000 5.1 280 13:41 25.09.2019
1125 Rain 19 1010 60 10000 5.1 280 13:23 25.09.2019
1126 Clouds 19 1010 60 10000 5.7 280 12:59 25.09.2019
1127 Rain 19 1010 60 10000 3.1 270 12:39 25.09.2019
1128 Rain 19 1010 60 10000 3.1 270 12:21 25.09.2019
1129 Clouds 18 1010 64 10000 2.1 250 11:55 25.09.2019
1130 Clouds 18 1010 68 10000 3.1 250 11:36 25.09.2019
1131 Clouds 18 1010 68 10000 3.1 250 11:18 25.09.2019
1132 Clouds 18 1010 82 10000 3.1 180 10:43 25.09.2019
1133 Clouds 18 1010 82 10000 3.1 180 10:24 25.09.2019
1134 Clouds 17 1010 82 10000 1.5 180 09:57 25.09.2019
1135 Clouds 16 1010 87 10000 2.1 190 09:37 25.09.2019
1136 Clouds 16 1010 87 10000 2.1 190 09:19 25.09.2019
1137 Rain 15 1010 87 10000 2.6 190 08:44 25.09.2019
1138 Rain 14 1010 87 10000 2.6 190 08:21 25.09.2019
1139 Rain 14 1010 93 10000 2.1 180 07:57 25.09.2019
1140 Clouds 14 1010 93 10000 2.1 160 07:38 25.09.2019
1141 Clouds 13 1010 93 10000 2.1 160 07:20 25.09.2019
1142 Rain 13 1010 93 10000 2.1 140 06:43 25.09.2019
1143 Rain 13 1010 93 10000 2.1 140 06:22 25.09.2019
1144 Clouds 13 1010 87 10000 1 0 05:31 25.09.2019
1145 Clouds 13 1010 93 10000 1.5 320 04:54 25.09.2019
1146 Clouds 14 1010 82 10000 0.5 0 02:19 25.09.2019
1147 Clouds 14 1010 77 10000 2.1 140 00:46 25.09.2019
1148 Clouds 14 1010 77 10000 2.1 140 00:26 25.09.2019
1149 Clouds 14 1011 72 10000 2.6 160 23:58 24.09.2019
1150 Clouds 14 1011 72 10000 2.1 170 23:39 24.09.2019
1151 Clouds 15 1011 72 10000 2.1 170 23:20 24.09.2019
1152 Clouds 15 1011 72 10000 2.1 180 22:39 24.09.2019
1153 Clouds 15 1011 72 10000 1.5 150 22:21 24.09.2019
1154 Clouds 15 1011 72 10000 1.5 150 21:58 24.09.2019
1155 Clouds 15 1011 72 10000 1.5 150 21:58 24.09.2019
1156 Clouds 15 1011 68 10000 1.5 120 21:37 24.09.2019
1157 Clouds 16 1011 82 0 1 220 21:19 24.09.2019
1158 Clouds 16 1011 82 0 1 220 20:58 24.09.2019
1159 Clouds 16 1011 63 10000 1 0 20:40 24.09.2019
1160 Clouds 16 1011 63 10000 1 0 20:22 24.09.2019
1161 Clouds 16 1011 63 10000 1.5 180 19:57 24.09.2019
1162 Clouds 16 1011 63 10000 1.5 180 19:57 24.09.2019
1163 Clouds 17 1011 63 10000 1.5 150 19:39 24.09.2019
1164 Clouds 17 1011 60 10000 2.1 120 19:18 24.09.2019
1165 Clouds 18 1011 60 10000 2.1 120 18:55 24.09.2019
1166 Clouds 19 1011 52 10000 2.6 60 18:36 24.09.2019
1167 Clear 19 1011 56 10000 1.5 310 18:18 24.09.2019
1168 Clear 20 1011 56 10000 1.5 310 17:54 24.09.2019
1169 Clouds 20 1011 56 10000 1 0 17:36 24.09.2019
1170 Clouds 20 1012 56 10000 1.5 0 17:18 24.09.2019
1171 Clear 21 1012 56 10000 1.5 20 16:41 24.09.2019
1172 Clear 21 1012 56 10000 1.5 20 16:19 24.09.2019
1173 Clouds 21 1012 53 10000 2.6 330 15:57 24.09.2019
1174 Clouds 21 1012 56 10000 2.6 320 15:37 24.09.2019
1175 Clouds 21 1013 52 10000 3.1 330 15:19 24.09.2019
1176 Clouds 21 1013 52 10000 4.1 310 14:37 24.09.2019
1177 Clouds 21 1013 52 10000 4.1 310 14:18 24.09.2019
1178 Clouds 21 1013 52 10000 4.1 310 14:18 24.09.2019
1179 Clouds 20 1014 56 10000 5.1 320 13:41 24.09.2019
1180 Clouds 20 1014 63 10000 5.7 320 13:21 24.09.2019
1181 Clouds 20 1014 60 10000 4.6 310 12:42 24.09.2019
1182 Clouds 19 1014 60 10000 4.6 310 12:21 24.09.2019
1183 Clouds 19 1014 63 10000 5.1 320 11:58 24.09.2019
1184 Clouds 19 1014 68 10000 4.6 310 11:40 24.09.2019
1185 Clouds 18 1015 72 10000 3.6 320 11:21 24.09.2019
1186 Clouds 17 1015 77 10000 3.6 310 10:40 24.09.2019
1187 Clouds 17 1015 77 10000 4.1 320 10:22 24.09.2019
1188 Clouds 16 1015 77 10000 4.1 320 09:58 24.09.2019
1189 Clouds 16 1015 77 10000 4.1 320 09:58 24.09.2019
1190 Clouds 16 1015 72 10000 4.1 320 09:40 24.09.2019
1191 Clouds 15 1015 77 10000 5.1 310 09:19 24.09.2019
1192 Clouds 15 1015 77 10000 5.1 310 08:55 24.09.2019
1193 Clouds 15 1015 82 10000 3.6 310 08:37 24.09.2019
1194 Clouds 14 1015 87 10000 2.1 330 08:18 24.09.2019
1195 Clouds 14 1015 82 10000 2.6 310 07:42 24.09.2019
1196 Clouds 13 1014 87 10000 2.6 330 07:24 24.09.2019
1197 Clouds 13 1014 87 10000 2.6 330 06:48 24.09.2019
1198 Clouds 13 1014 87 10000 2.1 330 06:28 24.09.2019
1199 Clouds 13 1014 82 10000 3.1 330 05:51 24.09.2019
1200 Clouds 13 1014 82 10000 6.7 300 05:18 24.09.2019
1201 Clouds 13 1014 82 10000 6.7 300 05:18 24.09.2019
1202 Clear 14 1014 82 10000 5.1 300 03:43 24.09.2019
1203 Clouds 14 1014 87 10000 4.1 310 02:46 24.09.2019
1204 Clouds 14 1015 87 10000 2.1 360 01:50 24.09.2019
1205 Clouds 14 1015 77 10000 4.1 300 00:43 24.09.2019
1206 Clouds 15 1015 77 10000 4.1 300 00:23 24.09.2019
1207 Clouds 15 1015 77 10000 4.1 310 23:56 23.09.2019
1208 Clouds 15 1015 82 0 6.2 220 23:37 23.09.2019
1209 Clouds 15 1015 72 10000 3.6 300 23:19 23.09.2019
1210 Clouds 15 1015 72 10000 2.6 330 22:39 23.09.2019
1211 Clouds 15 1015 72 10000 2.6 330 22:20 23.09.2019
1212 Clouds 15 1015 72 10000 2.6 320 21:57 23.09.2019
1213 Clouds 15 1015 77 10000 2.1 330 21:38 23.09.2019
1214 Clouds 16 1015 77 10000 2.6 330 21:19 23.09.2019
1215 Clouds 16 1014 72 10000 4.1 310 20:41 23.09.2019
1216 Clouds 16 1014 72 10000 4.6 310 20:20 23.09.2019
1217 Clouds 16 1014 72 10000 4.1 310 20:20 23.09.2019
1218 Clouds 16 1014 72 10000 4.6 310 19:59 23.09.2019
1219 Clouds 16 1014 72 10000 4.1 310 19:39 23.09.2019
1220 Clouds 16 1013 68 10000 5.7 300 19:21 23.09.2019
1221 Clouds 17 1013 68 10000 5.7 300 18:55 23.09.2019
1222 Clouds 17 1013 68 10000 5.7 300 18:55 23.09.2019
1223 Clouds 17 1013 64 10000 5.7 310 18:36 23.09.2019
1224 Clouds 17 1013 64 10000 5.7 310 18:36 23.09.2019
1225 Clouds 18 1013 64 10000 5.7 310 18:18 23.09.2019
1226 Clouds 18 1013 64 10000 4.6 310 17:55 23.09.2019
1227 Clouds 18 1013 64 10000 4.6 310 17:54 23.09.2019
1228 Clouds 18 1013 64 10000 5.7 310 17:36 23.09.2019
1229 Clouds 18 1013 64 10000 5.7 310 17:36 23.09.2019
1230 Clouds 19 1013 64 10000 5.7 310 17:18 23.09.2019
1231 Clouds 19 1013 64 10000 3.6 330 16:39 23.09.2019
1232 Clouds 20 1013 64 10000 3.6 330 16:21 23.09.2019
1233 Clouds 20 1013 60 10000 3.6 320 15:59 23.09.2019
1234 Clouds 20 1013 56 10000 2.1 360 15:40 23.09.2019
1235 Clouds 20 1013 56 10000 2.6 30 15:19 23.09.2019
1236 Clouds 20 1013 56 10000 2.6 30 14:58 23.09.2019
1237 Clouds 20 1013 60 10000 2.1 30 14:37 23.09.2019
1238 Clouds 20 1013 60 10000 2.1 30 14:19 23.09.2019
1239 Clouds 20 1013 56 10000 2.6 10 13:42 23.09.2019
1240 Clouds 20 1013 56 10000 2.6 10 13:19 23.09.2019
1241 Clouds 20 1014 59 10000 2.6 360 12:59 23.09.2019
1242 Clouds 20 1014 59 10000 1.5 100 12:40 23.09.2019
1243 Clouds 19 1014 59 10000 1.5 100 12:21 23.09.2019
1244 Clouds 19 1014 63 10000 1.5 40 11:45 23.09.2019
1245 Clouds 18 1014 63 10000 1.5 40 11:27 23.09.2019
1246 Clouds 18 1013 63 10000 1 0 10:57 23.09.2019
1247 Clear 17 1013 63 10000 1 0 10:39 23.09.2019
1248 Clear 16 1013 63 10000 1 0 10:20 23.09.2019
1249 Clear 15 1013 82 10000 1 0 09:40 23.09.2019
1250 Clear 15 1013 82 10000 1 0 09:40 23.09.2019
1251 Clouds 15 1013 76 0 1 220 09:40 23.09.2019
1252 Clear 15 1013 82 10000 1 0 09:21 23.09.2019
1253 Clear 14 1012 82 10000 1 40 08:58 23.09.2019
1254 Clear 13 1012 81 10000 0.5 0 08:38 23.09.2019
1255 Clear 12 1012 81 10000 1 100 08:18 23.09.2019
1256 Clear 11 1012 81 10000 0.5 0 07:33 23.09.2019
1257 Clear 11 1012 81 10000 1.5 80 06:53 23.09.2019
1258 Clear 11 1012 81 10000 1.5 90 06:20 23.09.2019
1259 Clear 12 1012 81 10000 1.5 110 05:23 23.09.2019
1260 Clear 12 1012 81 10000 2.1 110 04:56 23.09.2019
1261 Clear 12 1012 76 10000 1.5 100 03:56 23.09.2019
1262 Clear 13 1012 67 10000 2.6 120 01:25 23.09.2019
1263 Clear 13 1012 67 10000 1.5 120 00:24 23.09.2019
1264 Clear 14 1012 62 10000 3.6 130 23:58 22.09.2019
1265 Clear 14 1012 62 10000 3.6 130 23:58 22.09.2019
1266 Clear 14 1012 62 10000 4.1 140 23:39 22.09.2019
1267 Clear 14 1012 62 10000 4.1 140 23:21 22.09.2019
1268 Clear 14 1012 58 10000 3.6 150 22:54 22.09.2019
1269 Clear 15 1012 55 10000 4.1 140 22:36 22.09.2019
1270 Clear 15 1012 55 10000 4.1 140 22:18 22.09.2019
1271 Clear 15 1012 51 10000 4.6 130 21:42 22.09.2019
1272 Clear 15 1012 51 10000 4.6 130 21:20 22.09.2019
1273 Clear 16 1012 51 10000 5.1 140 20:44 22.09.2019
1274 Clear 16 1013 48 10000 5.7 130 20:26 22.09.2019
1275 Clear 16 1013 48 10000 5.7 140 19:57 22.09.2019
1276 Clear 17 1013 45 10000 5.7 130 19:39 22.09.2019
1277 Clear 17 1013 45 10000 5.7 130 19:39 22.09.2019
1278 Clear 17 1013 45 10000 5.7 130 19:20 22.09.2019
1279 Clear 17 1013 45 10000 6.2 140 18:57 22.09.2019
1280 Clear 18 1013 42 10000 6.7 140 18:37 22.09.2019
1281 Clear 18 1013 42 10000 6.7 140 18:18 22.09.2019
1282 Clear 19 1013 37 10000 8.2 140 17:45 22.09.2019
1283 Clear 20 1013 37 10000 8.2 140 17:26 22.09.2019
1284 Clear 20 1014 37 10000 9.3 150 16:57 22.09.2019
1285 Clear 20 1014 37 10000 9.3 150 16:39 22.09.2019
1286 Clear 20 1014 35 10000 9.8 140 16:20 22.09.2019
1287 Clear 20 1014 37 10000 9.8 140 15:45 22.09.2019
1288 Clear 21 1014 37 10000 9.8 140 15:26 22.09.2019
1289 Clear 21 1015 37 10000 9.3 150 14:55 22.09.2019
1290 Clear 20 1015 37 10000 10.3 140 14:37 22.09.2019
1291 Clear 20 1015 37 10000 10.8 150 14:18 22.09.2019
1292 Clear 20 1016 37 10000 11.3 140 13:42 22.09.2019
1293 Clear 20 1016 37 10000 11.3 140 13:24 22.09.2019
1294 Clear 20 1016 37 10000 9.3 140 12:57 22.09.2019
1295 Clear 20 1016 37 10000 9.3 140 12:57 22.09.2019
1296 Clear 19 1017 36 10000 8.7 140 12:39 22.09.2019
1297 Clear 19 1017 36 10000 8.7 140 12:19 22.09.2019
1298 Clear 18 1017 42 10000 8.2 130 11:56 22.09.2019
1299 Clear 18 1017 44 10000 8.7 130 11:37 22.09.2019
1300 Clear 17 1017 47 10000 8.7 130 11:18 22.09.2019
1301 Clear 16 1018 50 10000 8.2 130 10:42 22.09.2019
1302 Clear 16 1018 50 10000 8.2 130 10:42 22.09.2019
1303 Clear 16 1018 50 10000 8.2 130 10:20 22.09.2019
1304 -273 0 0 0 0 0 09:54 22.09.2019
1305 Clear 14 1018 58 10000 7.2 130 09:36 22.09.2019
1306 Clear 13 1018 58 10000 7.2 130 09:18 22.09.2019
1307 Clear 12 1018 66 10000 6.7 130 08:42 22.09.2019
1308 Clear 11 1018 66 10000 6.7 130 08:22 22.09.2019
1309 Clear 10 1018 70 10000 6.2 130 07:46 22.09.2019
1310 Clear 10 1018 70 10000 6.2 130 07:26 22.09.2019
1311 Clear 9 1018 66 10000 7.7 140 06:58 22.09.2019
1312 Clear 9 1018 66 10000 7.2 140 06:37 22.09.2019
1313 Clear 10 1019 66 10000 7.7 130 05:18 22.09.2019
1314 Clear 10 1020 66 10000 5.1 120 02:45 22.09.2019
1315 Clear 11 1020 66 10000 4.6 120 02:24 22.09.2019
1316 Clear 11 1021 66 10000 4.1 120 01:43 22.09.2019
1317 Clear 11 1021 62 10000 5.1 130 00:54 22.09.2019
1318 Clear 11 1021 58 10000 5.7 140 00:32 22.09.2019
1319 Clear 12 1021 62 10000 4.1 140 23:54 21.09.2019
1320 Clear 12 1022 58 10000 4.1 140 23:36 21.09.2019
1321 Clear 12 1022 54 10000 5.1 140 22:57 21.09.2019
1322 Clear 12 1022 54 10000 5.7 140 22:36 21.09.2019
1323 Clear 12 1022 54 10000 5.7 140 22:18 21.09.2019
1324 Clear 13 1022 51 10000 5.1 140 21:41 21.09.2019
1325 Clear 14 1022 51 10000 5.1 130 21:19 21.09.2019
1326 Clear 14 1022 51 10000 5.1 130 20:56 21.09.2019
1327 Clear 14 1022 51 10000 5.1 130 20:37 21.09.2019
1328 Clear 14 1022 51 10000 5.1 130 20:18 21.09.2019
1329 Clear 14 1022 51 10000 5.1 130 20:18 21.09.2019
1330 Clear 15 1022 42 10000 4.6 130 19:46 21.09.2019
1331 Clear 16 1022 42 10000 4.6 130 19:21 21.09.2019
1332 Clear 17 1022 39 10000 7.2 130 18:42 21.09.2019
1333 Clear 18 1022 39 10000 7.2 130 18:22 21.09.2019
1334 Clear 19 1023 39 10000 7.2 140 17:44 21.09.2019
1335 Clear 19 1023 39 10000 7.2 140 17:24 21.09.2019
1336 Clear 20 1023 39 10000 7.2 140 16:58 21.09.2019
1337 Clear 20 1023 39 10000 7.7 140 16:40 21.09.2019
1338 Clear 20 1023 39 10000 7.7 140 16:20 21.09.2019
1339 Clear 20 1024 39 10000 7.2 130 15:45 21.09.2019
1340 Clear 20 1024 39 10000 7.2 130 15:23 21.09.2019
1341 Clear 20 1024 42 10000 7.7 140 14:50 21.09.2019
1342 Clear 20 1024 42 10000 7.7 140 14:32 21.09.2019
1343 Clear 19 1025 42 10000 7.2 140 13:57 21.09.2019
1344 Clear 19 1025 42 10000 7.7 130 13:39 21.09.2019
1345 Clear 19 1025 45 10000 7.7 140 13:20 21.09.2019
1346 Clear 19 1025 45 10000 7.7 140 12:55 21.09.2019
1347 Clear 17 1026 44 10000 7.7 140 12:37 21.09.2019
1348 Clear 17 1026 48 10000 7.2 130 12:19 21.09.2019
1349 Clear 16 1026 51 10000 6.7 140 11:43 21.09.2019
1350 Clear 16 1026 51 10000 6.7 140 11:24 21.09.2019
1351 Clear 14 1026 58 10000 4.1 120 10:45 21.09.2019
1352 Clear 13 1026 58 10000 4.1 120 10:25 21.09.2019
1353 Clear 12 1026 66 10000 3.6 110 09:59 21.09.2019
1354 Clear 11 1026 71 10000 2.6 100 09:39 21.09.2019
1355 Clear 9 1026 70 10000 2.1 130 09:20 21.09.2019
1356 Clear 8 1026 81 10000 1 0 08:52 21.09.2019
1357 Mist 7 1026 81 10000 1 0 08:28 21.09.2019
1358 Fog 5 1026 86 10000 1.5 170 07:42 21.09.2019
1359 Fog 4 1026 86 10000 1.5 170 07:24 21.09.2019
1360 Fog 4 1026 86 10000 1 0 06:58 21.09.2019
1361 Fog 4 1026 86 10000 2.1 160 06:33 21.09.2019
1362 Clear 5 1026 86 10000 2.1 170 05:36 21.09.2019
1363 Clear 5 1026 86 10000 2.1 170 05:36 21.09.2019
1364 Clear 5 1027 86 10000 1 190 04:37 21.09.2019
1365 Clear 5 1027 86 10000 2.1 190 03:22 21.09.2019
1366 Clear 6 1027 86 10000 1.5 190 02:21 21.09.2019
1367 Clear 6 1027 81 10000 2.1 190 01:46 21.09.2019
1368 Clear 7 1027 81 10000 2.6 170 00:52 21.09.2019
1369 Clear 7 1027 75 10000 2.1 180 00:20 21.09.2019
1370 Clear 7 1028 70 10000 2.1 170 23:48 20.09.2019
1371 Clear 7 1028 70 10000 2.1 170 23:29 20.09.2019
1372 Clear 8 1027 66 10000 1.5 180 22:43 20.09.2019
1373 Clear 8 1027 66 10000 1.5 180 22:24 20.09.2019
1374 Clear 9 1027 61 10000 2.1 180 21:57 20.09.2019
1375 Clear 9 1027 57 10000 1.5 150 21:39 20.09.2019
1376 Clear 10 1027 47 10000 1 0 21:20 20.09.2019
1377 Clear 10 1027 47 10000 1 0 20:58 20.09.2019
1378 Clouds 10 1027 66 0 1 120 20:39 20.09.2019
1379 Clear 11 1027 44 10000 1 330 20:19 20.09.2019
1380 Clear 11 1027 44 10000 1 0 20:19 20.09.2019
1381 Clear 12 1027 44 10000 1 330 19:55 20.09.2019
1382 Clear 12 1026 47 10000 1.5 330 19:36 20.09.2019
1383 Clear 13 1026 41 10000 1.5 330 19:18 20.09.2019
1384 Clear 15 1026 41 10000 2.1 330 18:38 20.09.2019
1385 Clear 16 1027 38 10000 3.1 340 18:18 20.09.2019
1386 Clear 16 1027 41 10000 2.6 330 17:47 20.09.2019
1387 Clear 17 1027 41 10000 2.6 330 17:27 20.09.2019
1388 Clear 17 1027 39 10000 1.5 0 16:57 20.09.2019
1389 Clear 17 1027 39 10000 2.1 300 16:37 20.09.2019
1390 Clear 17 1027 41 10000 2.1 360 16:18 20.09.2019
1391 Clear 17 1027 44 10000 3.1 360 15:41 20.09.2019
1392 Clear 17 1027 44 10000 3.1 360 15:41 20.09.2019
1393 Clear 17 1027 44 10000 3.1 360 15:22 20.09.2019
1394 Clouds 17 1027 41 10000 2.6 0 14:55 20.09.2019
1395 Clouds 17 1027 41 10000 2.6 0 14:36 20.09.2019
1396 Clear 16 1027 38 10000 3.1 300 14:18 20.09.2019
1397 Clear 17 1027 38 10000 3.1 300 14:18 20.09.2019
1398 Clouds 17 1028 44 10000 4.1 330 13:41 20.09.2019
1399 Clouds 16 1028 44 10000 4.1 330 13:22 20.09.2019
1400 Clouds 16 1029 50 10000 2.1 340 12:41 20.09.2019
1401 Clear 16 1029 51 0 2.6 250 12:22 20.09.2019
1402 Clouds 15 1029 50 10000 1.5 340 11:52 20.09.2019
1403 Clouds 15 1029 58 10000 2.1 0 11:27 20.09.2019
1404 Clouds 14 1029 58 10000 2.1 10 10:59 20.09.2019
1405 Clouds 13 1029 62 10000 2.6 340 10:41 20.09.2019
1406 Clear 12 1029 62 10000 3.6 330 10:22 20.09.2019
1407 Clouds 13 1029 62 10000 2.6 340 10:22 20.09.2019
1408 Clear 11 1029 71 0 1 200 09:38 20.09.2019
1409 Clear 9 1029 70 10000 2.1 350 09:19 20.09.2019
1410 Clear 8 1029 70 10000 2.1 350 08:48 20.09.2019
1411 Clear 7 1028 81 10000 1.5 360 08:29 20.09.2019
1412 Clear 6 1028 80 10000 1 30 07:59 20.09.2019
1413 Clear 5 1028 75 10000 1.4 281.815 07:41 20.09.2019
1414 Clear 4 1028 75 10000 1.46 279.643 07:23 20.09.2019
1415 Clear 4 1028 80 10000 1 0 06:43 20.09.2019
1416 Clear 5 1028 80 10000 1 0 06:19 20.09.2019
1417 Clear 5 1028 77 10000 1.5 180 04:58 20.09.2019
1418 Clear 6 1028 75 10000 1 0 03:29 20.09.2019
1419 Clear 6 1028 75 10000 1 0 03:29 20.09.2019
1420 Clear 6 1028 61 10000 2.6 300 02:39 20.09.2019
1421 Clear 7 1028 66 10000 3.1 310 01:43 20.09.2019
1422 Clear 7 1028 57 10000 3.6 300 00:43 20.09.2019
1423 Clear 8 1028 57 10000 3.6 310 23:56 19.09.2019
1424 Clear 8 1028 57 10000 4.1 320 23:38 19.09.2019
1425 Clear 8 1028 57 10000 4.1 310 23:18 19.09.2019
1426 Clear 8 1028 57 10000 3.6 310 22:40 19.09.2019
1427 Clear 9 1028 57 10000 4.1 330 22:22 19.09.2019
1428 Clear 9 1028 57 10000 4.1 330 21:57 19.09.2019
1429 Clear 9 1027 57 10000 3.6 320 21:39 19.09.2019
1430 Clear 10 1027 53 10000 3.6 340 21:19 19.09.2019
1431 Clear 10 1027 53 10000 3.6 340 20:57 19.09.2019
1432 Clear 11 1027 53 10000 3.6 340 20:39 19.09.2019
1433 Clear 11 1027 53 10000 3.6 340 20:19 19.09.2019
1434 Clear 12 1026 50 10000 3.1 340 19:54 19.09.2019
1435 Clear 12 1026 47 10000 4.1 350 19:36 19.09.2019
1436 Clear 13 1026 44 10000 4.1 350 19:18 19.09.2019
1437 Clear 14 1026 41 10000 4.6 340 18:41 19.09.2019
1438 Clear 15 1026 41 10000 4.6 340 18:22 19.09.2019
1439 Clear 15 1026 38 10000 6.2 330 17:43 19.09.2019
1440 Clear 16 1026 38 10000 6.2 330 17:24 19.09.2019
1441 Clear 16 1026 38 10000 5.7 340 16:59 19.09.2019
1442 Clear 16 1026 38 10000 5.7 340 16:59 19.09.2019
1443 Clear 16 1026 45 10000 6.2 340 16:40 19.09.2019
1444 Clear 16 1026 45 10000 6.2 340 16:40 19.09.2019
1445 Clear 17 1026 45 10000 6.2 340 16:20 19.09.2019
1446 Clear 17 1026 36 10000 6.2 340 15:41 19.09.2019
1447 Clouds 16 1026 38 10000 6.2 310 15:22 19.09.2019
1448 Clouds 16 1026 38 10000 6.2 310 14:58 19.09.2019
1449 Clouds 17 1026 36 10000 7.2 310 14:39 19.09.2019
1450 Clouds 16 1026 41 10000 8.2 320 14:20 19.09.2019
1451 Clouds 16 1026 41 10000 5.1 340 13:40 19.09.2019
1452 Clouds 16 1026 44 10000 4.6 320 13:22 19.09.2019
1453 Clouds 16 1026 44 10000 4.6 320 12:59 19.09.2019
1454 Clouds 16 1026 44 10000 4.1 340 12:36 19.09.2019
1455 Clouds 15 1026 50 10000 4.1 340 12:18 19.09.2019
1456 Clouds 15 1027 50 10000 5.1 330 11:41 19.09.2019
1457 Clouds 14 1026 54 10000 4.1 360 11:22 19.09.2019
1458 Clouds 14 1026 54 10000 4.1 360 10:58 19.09.2019
1459 Clouds 14 1026 58 10000 4.1 340 10:39 19.09.2019
1460 Clouds 13 1026 58 10000 4.1 340 10:21 19.09.2019
1461 Clear 13 1026 58 10000 4.6 330 10:21 19.09.2019
1462 Clear 13 1026 58 10000 4.6 330 09:56 19.09.2019
1463 Clear 12 1026 62 10000 4.6 330 09:38 19.09.2019
1464 Clear 11 1026 62 10000 2.6 320 09:19 19.09.2019
1465 Clear 10 1025 81 10000 2.6 150 08:49 19.09.2019
1466 Clear 9 1025 81 10000 2.6 150 08:23 19.09.2019
1467 Clear 8 1025 81 10000 0.5 0 07:44 19.09.2019
1468 Clear 8 1025 80 10000 2.6 170 07:22 19.09.2019
1469 Clear 7 1025 86 10000 2.1 170 06:54 19.09.2019
1470 Clear 8 1024 75 10000 1 0 06:32 19.09.2019
1471 Clear 8 1024 86 10000 2.1 170 05:53 19.09.2019
1472 Clear 8 1024 81 10000 1.5 170 05:34 19.09.2019
1473 Clear 8 1024 81 10000 1.5 170 05:34 19.09.2019
1474 Clear 8 1024 87 10000 2.6 160 04:18 19.09.2019
1475 Clear 9 1024 81 10000 2.1 170 03:19 19.09.2019
1476 Clear 9 1024 57 10000 2.6 260 01:36 19.09.2019
1477 Clear 9 1024 53 10000 2.1 260 00:53 19.09.2019
1478 Clear 9 1024 50 10000 2.6 260 00:27 19.09.2019
1479 Clear 9 1024 61 10000 2.1 220 23:57 18.09.2019
1480 Clear 9 1024 70 0 1 230 23:36 18.09.2019
1481 Clear 9 1024 57 10000 3.1 200 23:18 18.09.2019
1482 Clear 9 1024 57 10000 2.1 310 22:38 18.09.2019
1483 Clear 9 1024 50 10000 2.1 340 22:19 18.09.2019
1484 Clear 9 1024 50 10000 2.1 340 21:57 18.09.2019
1485 Clear 9 1023 57 10000 2.1 360 21:39 18.09.2019
1486 Clear 10 1023 43 10000 1.5 350 21:18 18.09.2019
1487 Clear 11 1023 43 10000 1.5 350 20:57 18.09.2019
1488 Clear 11 1023 43 10000 1.5 350 20:57 18.09.2019
1489 Clear 11 1023 47 10000 1.5 350 20:38 18.09.2019
1490 Clear 11 1023 47 10000 1.5 350 20:20 18.09.2019
1491 Clear 12 1022 41 10000 1.5 360 20:20 18.09.2019
1492 Clear 12 1022 41 10000 1.5 360 19:56 18.09.2019
1493 Clear 13 1022 59 10000 2.6 350 19:37 18.09.2019
1494 Clear 14 1022 36 10000 3.1 360 19:18 18.09.2019
1495 Clear 16 1022 59 10000 3.1 340 18:54 18.09.2019
1496 Clear 16 1022 59 10000 3.1 340 18:36 18.09.2019
1497 Clear 17 1022 27 10000 4.6 330 18:18 18.09.2019
1498 Clear 17 1022 25 10000 4.6 330 17:54 18.09.2019
1499 Clear 17 1022 25 10000 4.6 330 17:36 18.09.2019
1500 Clear 18 1022 25 10000 5.1 340 17:18 18.09.2019
1501 Clear 18 1022 27 10000 5.1 330 16:42 18.09.2019
1502 Clear 18 1022 27 10000 5.1 330 16:22 18.09.2019
1503 Clear 18 1022 35 10000 6.2 320 15:57 18.09.2019
1504 Clear 18 1022 29 10000 6.2 320 15:39 18.09.2019
1505 Clear 18 1022 29 10000 6.2 320 15:20 18.09.2019
1506 Clear 18 1023 33 10000 5.7 310 14:58 18.09.2019
1507 Clear 18 1023 33 10000 6.7 320 14:40 18.09.2019
1508 Clear 17 1023 33 10000 6.7 320 14:21 18.09.2019
1509 Clear 18 1023 36 10000 5.7 330 13:58 18.09.2019
1510 Clear 17 1023 36 10000 6.2 320 13:38 18.09.2019
1511 Clouds 17 1023 41 10000 6.7 310 13:18 18.09.2019
1512 Clouds 16 1023 41 10000 7.2 310 12:44 18.09.2019
1513 Clouds 16 1023 41 10000 7.2 310 12:26 18.09.2019
1514 Clouds 15 1023 47 10000 8.7 310 11:40 18.09.2019
1515 Clouds 15 1023 47 10000 8.7 310 11:20 18.09.2019
1516 Clouds 15 1023 47 10000 6.7 320 10:58 18.09.2019
1517 Clouds 14 1023 50 10000 8.2 320 10:39 18.09.2019
1518 Clouds 14 1023 50 10000 8.2 320 10:20 18.09.2019
1519 Clouds 14 1023 50 10000 8.2 320 10:20 18.09.2019
1520 Clouds 13 1023 54 10000 9.3 320 09:57 18.09.2019
1521 Clouds 13 1023 58 10000 8.7 320 09:37 18.09.2019
1522 Clouds 13 1023 58 10000 8.7 320 09:37 18.09.2019
1523 Clouds 12 1022 58 10000 5.1 320 09:19 18.09.2019
1524 Clouds 12 1022 62 10000 5.7 320 08:41 18.09.2019
1525 Clouds 11 1022 62 10000 5.7 320 08:23 18.09.2019
1526 Clear 10 1021 61 10000 4.6 330 07:45 18.09.2019
1527 Clear 10 1021 61 10000 4.6 330 07:26 18.09.2019
1528 Clear 10 1021 53 10000 5.7 330 06:55 18.09.2019
1529 Clear 10 1021 53 10000 5.7 330 06:55 18.09.2019
1530 Clear 11 1021 50 10000 7.2 330 06:29 18.09.2019
1531 Clear 11 1020 47 10000 7.7 330 05:40 18.09.2019
1532 Clear 12 1019 66 10000 4.6 330 04:20 18.09.2019
1533 Clouds 14 1017 63 10000 6.2 320 02:41 18.09.2019
1534 Clouds 14 1017 63 10000 5.7 310 01:50 18.09.2019
1535 Clear 14 1017 63 10000 6.7 300 00:58 18.09.2019
1536 Clouds 15 1016 72 10000 3.6 290 00:34 18.09.2019
1537 Clear 15 1016 67 10000 6.2 280 23:59 17.09.2019
1538 Clear 15 1016 67 10000 6.7 280 23:40 17.09.2019
1539 Clear 15 1016 67 10000 6.7 280 23:21 17.09.2019
1540 Clouds 15 1016 77 0 3.1 250 22:42 17.09.2019
1541 Clouds 15 1016 77 0 3.1 250 22:42 17.09.2019
1542 Clouds 15 1016 77 0 3.1 250 22:23 17.09.2019
1543 Clouds 15 1016 82 0 2.1 250 21:55 17.09.2019
1544 Clouds 15 1016 82 0 2.1 250 21:54 17.09.2019
1545 Clear 15 1015 68 10000 6.7 300 21:36 17.09.2019
1546 Rain 16 1015 82 0 2.1 230 21:18 17.09.2019
1547 Rain 16 1015 82 0 2.1 230 20:57 17.09.2019
1548 Clear 16 1014 77 10000 3.1 300 20:39 17.09.2019
1549 Clear 16 1014 77 10000 3.1 300 20:21 17.09.2019
1550 Clear 16 1014 82 10000 4.1 330 19:58 17.09.2019
1551 Clouds 17 1014 77 10000 3.1 340 19:39 17.09.2019
1552 Clouds 17 1013 72 10000 2.6 310 19:19 17.09.2019
1553 Clouds 18 1014 72 10000 2.6 320 18:55 17.09.2019
1554 Clouds 19 1014 72 10000 2.6 320 18:36 17.09.2019
1555 Clouds 19 1014 72 10000 2.6 320 18:18 17.09.2019
1556 Clouds 19 1014 72 10000 3.1 350 17:44 17.09.2019
1557 Clouds 19 1014 72 10000 3.1 350 17:19 17.09.2019
1558 Clouds 19 1014 72 10000 4.6 330 16:56 17.09.2019
1559 Clouds 19 1014 72 10000 4.1 330 16:37 17.09.2019
1560 Clouds 18 1015 72 10000 3.1 340 16:19 17.09.2019
1561 Clouds 18 1015 72 10000 4.6 350 15:39 17.09.2019
1562 Clouds 17 1015 72 10000 4.6 350 15:20 17.09.2019
1563 Clouds 17 1015 67 10000 4.1 350 14:56 17.09.2019
1564 Clouds 17 1016 63 10000 4.1 360 14:37 17.09.2019
1565 Clouds 17 1016 63 10000 4.1 360 14:19 17.09.2019
1566 Clouds 17 1016 63 10000 4.1 10 13:43 17.09.2019
1567 Clouds 17 1016 63 10000 4.1 10 13:25 17.09.2019
1568 Rain 16 1016 67 10000 5.1 10 12:59 17.09.2019
1569 Clouds 17 1016 72 10000 5.1 360 12:38 17.09.2019
1570 Rain 17 1017 63 10000 6.7 350 12:19 17.09.2019
1571 Rain 17 1017 63 10000 6.7 350 12:19 17.09.2019
1572 Rain 17 1016 68 10000 6.2 360 11:44 17.09.2019
1573 Rain 17 1016 68 10000 6.2 360 11:25 17.09.2019
1574 Rain 17 1016 68 10000 5.7 350 10:57 17.09.2019
1575 Clouds 18 1016 68 10000 5.7 330 10:39 17.09.2019
1576 Clouds 18 1016 68 10000 5.7 330 10:20 17.09.2019
1577 Clouds 18 1016 72 10000 3.6 320 09:43 17.09.2019
1578 Clouds 18 1015 72 10000 3.6 340 09:23 17.09.2019
1579 Clouds 18 1015 72 10000 3.6 340 08:57 17.09.2019
1580 Clouds 18 1015 72 10000 2.1 350 08:38 17.09.2019
1581 Clouds 18 1015 72 10000 2.1 350 08:19 17.09.2019
1582 Clear 17 1015 72 10000 2.1 340 07:42 17.09.2019
1583 Clear 17 1015 72 10000 2.1 340 07:24 17.09.2019
1584 Clear 17 1015 68 10000 1.5 350 06:51 17.09.2019
1585 Clear 17 1015 68 10000 1.5 350 06:25 17.09.2019
1586 Clear 17 1015 63 10000 2.6 330 05:51 17.09.2019
1587 Clear 18 1015 59 10000 2.6 310 04:32 17.09.2019
1588 Clear 18 1015 56 10000 3.1 310 03:34 17.09.2019
1589 Clear 18 1015 60 10000 3.1 260 02:39 17.09.2019
1590 Clouds 18 1015 60 10000 3.6 270 01:49 17.09.2019
1591 Clear 19 1015 68 10000 0.5 0 00:46 17.09.2019
1592 Clouds 19 1016 82 0 1 250 23:41 16.09.2019
1593 Clear 19 1015 72 10000 1.5 10 23:20 16.09.2019
1594 Clear 19 1015 72 10000 1.5 10 22:58 16.09.2019
1595 Clouds 19 1016 72 0 1 230 22:40 16.09.2019
1596 Clear 19 1015 56 10000 3.1 300 22:21 16.09.2019
1597 Clouds 19 1016 72 0 1 230 22:21 16.09.2019
1598 Clear 19 1015 56 10000 3.1 300 21:56 16.09.2019
1599 Clouds 20 1015 68 0 1 200 21:38 16.09.2019
1600 Clear 20 1015 60 10000 2.1 360 21:19 16.09.2019
1601 Clear 21 1015 50 10000 3.1 260 20:42 16.09.2019
1602 Clear 21 1015 50 10000 3.1 260 20:23 16.09.2019
1603 Clear 21 1015 47 10000 4.1 260 19:58 16.09.2019
1604 Clear 22 1015 41 10000 4.6 270 19:39 16.09.2019
1605 Clear 22 1015 41 10000 5.1 280 19:20 16.09.2019
1606 Clear 23 1015 41 10000 5.1 280 18:56 16.09.2019
1607 Clear 24 1016 41 10000 6.2 280 18:37 16.09.2019
1608 Clear 24 1016 44 10000 2.6 330 18:18 16.09.2019
1609 Clear 25 1016 47 10000 3.1 330 17:42 16.09.2019
1610 Clear 25 1016 47 10000 3.1 330 17:24 16.09.2019
1611 Clear 26 1016 50 10000 3.6 350 16:57 16.09.2019
1612 Clear 26 1016 44 10000 3.1 330 16:38 16.09.2019
1613 Clear 26 1016 44 10000 3.1 330 16:20 16.09.2019
1614 Clear 26 1017 50 10000 4.6 340 15:55 16.09.2019
1615 Clear 26 1017 50 10000 4.6 330 15:37 16.09.2019
1616 Clear 26 1017 50 10000 4.6 330 15:18 16.09.2019
1617 Clear 26 1017 47 10000 3.1 350 14:43 16.09.2019
1618 Clear 26 1017 47 10000 3.1 350 14:23 16.09.2019
1619 Clear 26 1018 47 10000 3.6 340 13:58 16.09.2019
1620 Clear 26 1018 50 10000 4.6 330 13:38 16.09.2019
1621 Clouds 25 1019 53 10000 5.1 330 13:20 16.09.2019
1622 Clouds 25 1019 56 10000 4.1 320 12:43 16.09.2019
1623 Clouds 24 1019 56 10000 4.1 320 12:24 16.09.2019
1624 Clouds 24 1019 56 10000 5.1 320 11:55 16.09.2019
1625 Clouds 24 1019 56 10000 5.1 320 11:55 16.09.2019
1626 Clouds 23 1019 60 10000 3.6 330 11:37 16.09.2019
1627 Clouds 23 1019 60 10000 3.6 330 11:37 16.09.2019
1628 Clouds 22 1019 73 10000 4.1 350 11:19 16.09.2019
1629 Clouds 21 1020 82 10000 3.1 350 10:38 16.09.2019
1630 Clouds 20 1019 82 10000 2.6 10 10:19 16.09.2019
1631 Clouds 21 1020 82 10000 3.1 350 10:19 16.09.2019
1632 Clouds 20 1019 82 10000 2.6 10 09:57 16.09.2019
1633 Clouds 19 1019 88 10000 1 140 09:38 16.09.2019
1634 Clouds 18 1019 88 10000 1 140 09:19 16.09.2019
1635 Clear 17 1019 87 10000 3.1 160 08:44 16.09.2019
1636 Clear 16 1019 87 10000 3.1 160 08:25 16.09.2019
1637 Clear 15 1019 93 10000 2.1 170 07:56 16.09.2019
1638 Fog 15 1019 93 10000 2.6 180 07:37 16.09.2019
1639 Fog 14 1019 93 10000 2.6 170 07:18 16.09.2019
1640 Fog 14 1019 93 10000 2.6 170 06:43 16.09.2019
1641 Clear 13 1019 93 10000 2.6 170 06:25 16.09.2019
1642 Clear 13 1019 93 10000 2.6 170 05:44 16.09.2019
1643 Clear 14 1019 93 10000 2.6 170 05:26 16.09.2019
1644 Clear 14 1020 93 10000 2.6 170 03:52 16.09.2019
1645 Clear 14 1020 87 10000 2.6 170 01:57 16.09.2019
1646 Clear 15 1020 82 10000 3.1 240 00:44 16.09.2019
1647 Clear 15 1020 82 10000 3.1 240 00:25 16.09.2019
1648 Clear 15 1020 77 10000 2.1 230 23:41 15.09.2019
1649 Clear 16 1020 77 10000 1 0 23:21 15.09.2019
1650 Clear 16 1020 72 10000 2.1 180 22:43 15.09.2019
1651 Clear 16 1020 72 10000 2.1 180 22:23 15.09.2019
1652 Clear 16 1020 77 10000 1 0 21:59 15.09.2019
1653 Clear 17 1020 72 10000 2.1 110 21:40 15.09.2019
1654 Clear 17 1020 72 10000 2.1 110 21:22 15.09.2019
1655 Clear 18 1020 68 10000 1.5 90 20:59 15.09.2019
1656 Clear 18 1021 68 10000 1.5 130 20:41 15.09.2019
1657 Clear 18 1021 68 10000 1.5 130 20:23 15.09.2019
1658 Clear 20 1021 60 10000 3.1 150 19:46 15.09.2019
1659 Clear 20 1021 60 10000 3.1 150 19:26 15.09.2019
1660 Clear 21 1021 53 10000 4.1 140 18:55 15.09.2019
1661 Clear 23 1021 56 10000 4.1 150 18:36 15.09.2019
1662 Clear 23 1022 50 10000 3.1 150 18:18 15.09.2019
1663 Clear 24 1022 50 10000 2.1 150 17:41 15.09.2019
1664 Clear 24 1022 50 10000 2.1 150 17:21 15.09.2019
1665 Clear 24 1022 50 10000 2.1 150 17:21 15.09.2019
1666 Clear 24 1023 50 10000 2.1 130 16:55 15.09.2019
1667 Clear 24 1023 47 10000 3.1 150 16:37 15.09.2019
1668 Clear 24 1023 47 10000 3.1 150 16:18 15.09.2019
1669 Clear 24 1023 47 10000 3.1 150 16:18 15.09.2019
1670 Clear 24 1024 49 10000 2.6 130 15:41 15.09.2019
1671 Clear 24 1024 49 10000 2.6 130 15:41 15.09.2019
1672 Clear 24 1024 49 10000 2.6 130 15:21 15.09.2019
1673 Clear 24 1024 53 10000 2.6 170 14:59 15.09.2019
1674 Clear 23 1025 49 10000 2.6 160 14:40 15.09.2019
1675 Clouds 23 1025 52 10000 3.1 140 14:22 15.09.2019
1676 Clouds 23 1025 52 10000 3.1 140 13:47 15.09.2019
1677 Clear 22 1025 52 10000 2.6 150 13:25 15.09.2019
1678 Clear 22 1026 49 10000 3.1 130 12:58 15.09.2019
1679 Clear 21 1026 49 10000 3.1 160 12:40 15.09.2019
1680 Clear 20 1026 48 10000 3.1 120 12:20 15.09.2019
1681 Clear 20 1027 55 10000 3.6 130 11:43 15.09.2019
1682 Clear 19 1027 55 10000 3.6 130 11:23 15.09.2019
1683 Clear 18 1027 59 10000 4.1 130 10:59 15.09.2019
1684 Clear 18 1027 59 10000 3.6 120 10:40 15.09.2019
1685 Clear 16 1027 62 10000 3.1 110 10:21 15.09.2019
1686 Clear 15 1028 76 10000 1 0 09:43 15.09.2019
1687 Clear 14 1028 76 10000 1 0 09:21 15.09.2019
1688 Clouds 13 1028 81 10000 1.5 100 08:59 15.09.2019
1689 Clouds 13 1028 81 10000 1.5 100 08:59 15.09.2019
1690 Clouds 12 1028 87 10000 1.5 150 08:40 15.09.2019
1691 Clouds 11 1028 93 10000 1.5 170 08:19 15.09.2019
1692 Clouds 10 1028 93 10000 1.5 170 07:46 15.09.2019
1693 Clouds 9 1028 93 10000 1 0 06:46 15.09.2019
1694 Clouds 9 1028 93 10000 1.5 140 06:27 15.09.2019
1695 Clear 10 1029 87 10000 1.5 130 03:24 15.09.2019
1696 Clear 11 1029 76 10000 1.5 240 02:23 15.09.2019
1697 Clear 11 1030 76 10000 2.1 340 01:37 15.09.2019
1698 Clear 11 1030 81 10000 1.5 330 00:58 15.09.2019
1699 Clear 12 1030 76 10000 2.1 330 00:37 15.09.2019
1700 Clear 12 1030 76 10000 1.5 360 00:19 15.09.2019
1701 Clear 12 1030 76 10000 1.5 360 23:56 14.09.2019
1702 Clear 13 1030 71 10000 1 30 23:38 14.09.2019
1703 Clear 13 1030 71 10000 1 30 23:19 14.09.2019
1704 Clear 13 1030 67 10000 2.1 50 22:58 14.09.2019
1705 Clear 13 1030 67 10000 2.1 40 22:38 14.09.2019
1706 Clear 14 1030 72 10000 1 60 22:19 14.09.2019
1707 Clear 15 1030 67 10000 2.1 30 21:40 14.09.2019
1708 Clear 15 1030 67 10000 2.1 30 21:21 14.09.2019
1709 Clear 15 1030 63 10000 1.5 70 20:59 14.09.2019
1710 Clear 15 1029 63 10000 2.1 50 20:40 14.09.2019
1711 Clear 16 1029 63 10000 2.1 50 20:22 14.09.2019
1712 Clouds 17 1029 59 10000 2.6 50 19:51 14.09.2019
1713 Clouds 18 1029 59 10000 2.1 360 19:23 14.09.2019
1714 Clouds 19 1029 52 10000 2.1 360 18:58 14.09.2019
1715 Clouds 20 1029 56 10000 2.6 10 18:39 14.09.2019
1716 Clouds 20 1030 49 10000 3.1 340 18:20 14.09.2019
1717 Clouds 21 1030 49 10000 3.6 350 17:55 14.09.2019
1718 Clouds 21 1030 49 10000 3.6 350 17:37 14.09.2019
1719 Clouds 21 1030 49 10000 3.6 350 17:18 14.09.2019
1720 Clouds 21 1030 52 10000 3.6 340 16:42 14.09.2019
1721 Clouds 22 1031 52 10000 4.6 360 16:21 14.09.2019
1722 Clouds 22 1031 52 10000 4.6 350 15:42 14.09.2019
1723 Clouds 21 1031 52 10000 4.6 350 15:23 14.09.2019
1724 Clouds 21 1031 52 10000 4.6 360 14:58 14.09.2019
1725 Clouds 21 1031 49 10000 4.6 330 14:39 14.09.2019
1726 Clouds 21 1031 49 10000 4.6 330 14:18 14.09.2019
1727 Clouds 21 1031 52 10000 4.1 360 13:47 14.09.2019
1728 Clouds 21 1032 56 10000 4.1 340 13:47 14.09.2019
1729 Clouds 21 1031 52 10000 4.1 360 13:47 14.09.2019
1730 Clouds 21 1032 56 10000 4.1 340 13:22 14.09.2019
1731 Clouds 20 1032 56 10000 4.6 340 12:47 14.09.2019
1732 Clouds 20 1032 56 10000 4.6 340 12:25 14.09.2019
1733 Clouds 19 1033 59 10000 5.1 360 11:42 14.09.2019
1734 Clouds 19 1033 59 10000 5.1 360 11:42 14.09.2019
1735 Clouds 19 1033 68 10000 5.1 360 11:21 14.09.2019
1736 Clouds 19 1033 68 10000 5.1 360 10:57 14.09.2019
1737 Clouds 19 1033 72 10000 3.6 360 10:36 14.09.2019
1738 Clouds 19 1033 72 10000 3.6 360 10:36 14.09.2019
1739 Clouds 19 1033 72 10000 3.6 360 10:36 14.09.2019
1740 Clouds 18 1033 72 10000 3.6 360 10:18 14.09.2019
1741 Clouds 18 1032 72 10000 3.6 350 09:56 14.09.2019
1742 Clear 17 1032 72 10000 4.6 350 09:37 14.09.2019
1743 Clear 17 1032 72 10000 4.6 350 09:18 14.09.2019
1744 Clouds 17 1032 77 10000 4.1 340 08:41 14.09.2019
1745 Clouds 16 1032 77 10000 4.1 340 08:23 14.09.2019
1746 Clear 16 1031 82 10000 4.6 340 07:44 14.09.2019
1747 Clear 16 1031 82 10000 4.6 340 07:44 14.09.2019
1748 Clear 16 1031 82 10000 4.6 340 07:26 14.09.2019
1749 Clouds 16 1031 82 10000 3.6 340 06:39 14.09.2019
1750 Clouds 17 1030 82 10000 3.1 350 05:57 14.09.2019
1751 Clouds 17 1030 77 10000 2.1 340 04:44 14.09.2019
1752 Clear 16 1030 82 10000 2.1 20 03:38 14.09.2019
1753 Clear 16 1030 82 10000 1.5 10 02:51 14.09.2019
1754 Clear 17 1030 72 10000 1 0 01:47 14.09.2019
1755 Clear 17 1030 72 10000 1 0 01:21 14.09.2019
1756 Clear 18 1030 68 10000 3.1 310 00:56 14.09.2019
1757 Clear 18 1030 68 10000 1 330 00:37 14.09.2019
1758 Clear 18 1030 68 10000 2.1 330 00:18 14.09.2019
1759 Clear 19 1030 64 10000 3.1 300 23:38 13.09.2019
1760 Clear 19 1030 64 10000 2.6 320 23:19 13.09.2019
1761 Clear 20 1030 64 10000 2.6 320 22:56 13.09.2019
1762 Clear 20 1029 64 10000 2.6 330 22:37 13.09.2019
1763 Clear 20 1029 64 10000 2.6 330 22:19 13.09.2019
1764 Clear 21 1029 60 10000 3.1 330 21:41 13.09.2019
1765 Clear 21 1029 60 10000 3.6 330 21:20 13.09.2019
1766 Clear 21 1029 60 10000 3.6 330 20:58 13.09.2019
1767 Clear 21 1029 60 10000 3.6 330 20:58 13.09.2019
1768 Clear 21 1029 60 10000 3.6 340 20:39 13.09.2019
1769 Clear 21 1029 60 10000 3.6 340 20:21 13.09.2019
1770 Clear 22 1029 56 10000 3.6 330 19:56 13.09.2019
1771 Clear 22 1029 53 10000 3.1 310 19:37 13.09.2019
1772 Clear 22 1029 56 10000 3.1 320 19:19 13.09.2019
1773 Clear 23 1029 50 10000 3.6 320 18:55 13.09.2019
1774 Clear 23 1029 50 10000 3.6 320 18:36 13.09.2019
1775 Clear 24 1029 50 10000 3.6 320 18:18 13.09.2019
1776 Clouds 24 1029 53 10000 4.6 300 17:38 13.09.2019
1777 Clouds 24 1029 53 10000 4.6 300 17:19 13.09.2019
1778 Clouds 25 1029 53 10000 4.6 320 16:41 13.09.2019
1779 Clear 25 1029 47 10000 5.7 320 16:21 13.09.2019
1780 Clear 25 1029 47 10000 5.7 320 15:47 13.09.2019
1781 Clear 25 1029 47 10000 4.6 330 15:28 13.09.2019
1782 Clear 25 1029 50 10000 3.6 320 14:59 13.09.2019
1783 Clear 25 1029 53 10000 5.1 320 14:41 13.09.2019
1784 Clear 25 1029 53 10000 5.1 320 14:41 13.09.2019
1785 Clear 25 1029 53 10000 5.1 320 14:22 13.09.2019
1786 Clear 25 1029 53 10000 5.1 320 14:22 13.09.2019
1787 Clear 25 1030 53 10000 3.6 330 13:54 13.09.2019
1788 Clear 25 1030 53 10000 4.1 330 13:36 13.09.2019
1789 Clouds 25 1030 53 10000 3.6 330 13:18 13.09.2019
1790 Clouds 25 1030 53 10000 3.6 330 13:18 13.09.2019
1791 Clouds 24 1030 56 10000 2.1 330 12:41 13.09.2019
1792 Clouds 23 1030 56 10000 3.1 310 12:22 13.09.2019
1793 Clouds 23 1030 56 10000 3.1 310 11:55 13.09.2019
1794 Clouds 23 1031 60 10000 2.1 340 11:55 13.09.2019
1795 Clouds 23 1031 60 10000 2.1 340 11:19 13.09.2019
1796 Clear 22 1031 64 10000 1.5 350 10:40 13.09.2019
1797 Clear 20 1031 60 10000 1 0 10:19 13.09.2019
1798 Clear 20 1031 60 10000 1 0 09:46 13.09.2019
1799 Clear 19 1030 64 10000 1.5 110 09:25 13.09.2019
1800 Clear 18 1030 72 10000 1 140 08:59 13.09.2019
1801 Clear 17 1030 77 10000 1 0 08:40 13.09.2019
1802 Clear 16 1030 87 10000 1.5 180 08:21 13.09.2019
1803 Clear 16 1030 87 10000 1.5 180 07:52 13.09.2019
1804 Clear 15 1030 87 10000 2.1 170 07:34 13.09.2019
1805 Clear 15 1030 82 10000 1 170 06:48 13.09.2019
1806 Clear 16 1030 82 10000 1 180 05:49 13.09.2019
1807 Clear 16 1030 82 10000 1 220 04:59 13.09.2019
1808 Clear 14 1030 82 10000 2.6 160 03:40 13.09.2019
1809 Clear 15 1030 82 10000 2.6 190 02:21 13.09.2019
1810 Clear 15 1030 82 10000 2.6 190 01:59 13.09.2019
1811 Clear 15 1030 82 10000 3.1 180 01:34 13.09.2019
1812 Clear 15 1030 67 10000 1.5 270 00:58 13.09.2019
1813 Clear 15 1030 63 10000 3.1 290 00:23 13.09.2019
1814 Rain 16 1031 77 0 1 240 23:40 12.09.2019
1815 Rain 16 1030 59 10000 3.6 290 23:20 12.09.2019
1816 Clear 16 1030 59 10000 3.6 290 22:43 12.09.2019
1817 Clear 16 1030 59 10000 4.1 290 22:24 12.09.2019
1818 Clear 16 1030 59 10000 3.6 280 21:58 12.09.2019
1819 Clear 17 1030 72 0 2.1 230 21:39 12.09.2019
1820 Clear 17 1030 56 10000 4.6 270 21:20 12.09.2019
1821 Clear 17 1030 56 10000 4.6 270 20:57 12.09.2019
1822 Clear 18 1030 52 10000 4.1 280 20:39 12.09.2019
1823 Clouds 18 1030 68 0 2.1 220 20:20 12.09.2019
1824 Clear 18 1030 49 10000 5.1 290 19:56 12.09.2019
1825 Clear 19 1030 46 10000 6.2 280 19:36 12.09.2019
1826 Clear 20 1029 49 10000 7.2 290 19:18 12.09.2019
1827 Clear 21 1029 49 10000 7.2 300 18:38 12.09.2019
1828 Clear 21 1029 49 10000 7.2 300 18:20 12.09.2019
1829 Clear 22 1029 46 10000 7.7 280 17:59 12.09.2019
1830 Clear 22 1029 46 10000 7.2 310 17:39 12.09.2019
1831 Clear 22 1029 44 10000 7.2 280 17:19 12.09.2019
1832 Clear 22 1030 41 10000 6.2 280 16:42 12.09.2019
1833 Clear 23 1030 41 10000 6.2 280 16:22 12.09.2019
1834 Clear 23 1030 43 10000 6.7 280 15:59 12.09.2019
1835 Clouds 23 1030 44 10000 5.7 280 15:39 12.09.2019
1836 Clouds 23 1030 44 10000 5.7 280 15:21 12.09.2019
1837 Clouds 23 1030 44 10000 5.7 290 14:45 12.09.2019
1838 Clouds 23 1030 49 10000 5.1 310 14:21 12.09.2019
1839 Rain 23 1030 49 10000 5.1 310 13:54 12.09.2019
1840 Rain 23 1030 49 10000 5.1 320 13:36 12.09.2019
1841 Rain 23 1030 53 10000 5.1 320 13:18 12.09.2019
1842 Rain 23 1030 53 10000 5.1 320 13:18 12.09.2019
1843 Rain 23 1030 53 10000 5.1 320 12:41 12.09.2019
1844 Rain 22 1030 53 10000 4.6 310 12:18 12.09.2019
1845 Rain 22 1030 52 10000 5.1 320 11:55 12.09.2019
1846 Rain 22 1030 52 10000 5.1 320 11:36 12.09.2019
1847 Rain 22 1030 52 10000 5.1 320 11:18 12.09.2019
1848 Rain 21 1030 60 10000 5.1 310 10:43 12.09.2019
1849 Rain 20 1030 60 10000 5.1 310 10:24 12.09.2019
1850 Clear 19 1029 68 10000 6.2 300 09:44 12.09.2019
1851 Clear 19 1029 68 10000 6.2 300 09:44 12.09.2019
1852 Rain 17 1029 72 10000 5.1 300 09:21 12.09.2019
1853 Rain 17 1029 72 10000 5.1 300 08:58 12.09.2019
1854 Rain 17 1028 68 10000 6.7 300 08:39 12.09.2019
1855 Clouds 16 1028 72 10000 5.7 300 08:21 12.09.2019
1856 Clear 15 1028 72 10000 5.7 290 07:39 12.09.2019
1857 Clear 14 1028 72 10000 5.7 290 07:19 12.09.2019
1858 Clouds 14 1028 72 10000 5.1 290 06:50 12.09.2019
1859 Clear 14 1027 77 10000 4.1 290 06:50 12.09.2019
1860 Clear 14 1027 77 10000 4.1 290 06:19 12.09.2019
1861 Clear 14 1027 77 10000 3.6 300 05:48 12.09.2019
1862 Clear 14 1027 77 10000 2.6 280 05:29 12.09.2019
1863 Clear 13 1026 93 10000 2.6 200 04:35 12.09.2019
1864 Clear 14 1026 87 10000 2.6 180 01:48 12.09.2019
1865 Clear 14 1026 87 10000 1.5 200 01:30 12.09.2019
1866 Clear 14 1026 72 10000 2.6 260 00:59 12.09.2019
1867 Clear 14 1026 72 10000 3.1 260 00:41 12.09.2019
1868 Clear 14 1025 67 10000 2.6 260 00:23 12.09.2019
1869 Clear 14 1025 67 10000 2.6 250 23:41 11.09.2019
1870 Clear 15 1025 67 10000 2.6 250 23:21 11.09.2019
1871 Clear 15 1025 72 10000 1 180 22:56 11.09.2019
1872 Clear 15 1025 77 10000 1.5 130 22:37 11.09.2019
1873 Clear 15 1025 77 10000 1.5 130 22:18 11.09.2019
1874 Clear 15 1024 72 10000 1 100 21:42 11.09.2019
1875 Clear 16 1024 72 10000 1 100 21:24 11.09.2019
1876 Clear 16 1024 63 10000 1 100 20:57 11.09.2019
1877 Clear 16 1024 63 10000 1 100 20:57 11.09.2019
1878 Clear 17 1024 63 10000 1.5 90 20:39 11.09.2019
1879 Clear 17 1023 56 10000 2.1 120 20:19 11.09.2019
1880 Clear 17 1023 56 10000 2.1 120 19:58 11.09.2019
1881 Clear 18 1023 52 10000 1.5 120 19:39 11.09.2019
1882 Clear 18 1023 52 10000 1.5 120 19:39 11.09.2019
1883 Clear 19 1023 49 10000 2.6 130 19:21 11.09.2019
1884 Clear 20 1023 49 10000 2.6 130 18:56 11.09.2019
1885 Clear 21 1023 46 10000 3.1 130 18:38 11.09.2019
1886 Rain 22 1023 46 10000 3.6 130 18:19 11.09.2019
1887 Rain 22 1023 46 10000 3.6 130 18:19 11.09.2019
1888 Rain 22 1023 46 10000 3.6 130 17:55 11.09.2019
1889 Rain 23 1023 43 10000 4.1 150 17:37 11.09.2019
1890 Rain 23 1023 43 10000 4.6 120 17:18 11.09.2019
1891 Rain 23 1023 43 10000 5.1 130 16:42 11.09.2019
1892 Rain 24 1023 43 10000 5.1 130 16:23 11.09.2019
1893 Rain 24 1023 43 10000 5.1 130 16:23 11.09.2019
1894 Rain 24 1023 46 10000 5.7 140 15:47 11.09.2019
1895 Rain 23 1023 46 10000 5.7 140 15:47 11.09.2019
1896 Rain 23 1023 46 10000 5.7 140 15:24 11.09.2019
1897 Rain 23 1023 49 10000 5.1 130 14:59 11.09.2019
1898 Rain 23 1023 49 10000 5.7 140 14:41 11.09.2019
1899 Rain 23 1023 49 10000 5.7 140 14:21 11.09.2019
1900 Rain 23 1023 53 10000 5.7 140 13:59 11.09.2019
1901 Rain 23 1023 56 10000 5.7 120 13:37 11.09.2019
1902 Rain 23 1024 56 10000 5.1 130 13:19 11.09.2019
1903 Rain 21 1024 60 10000 5.7 140 12:44 11.09.2019
1904 Rain 21 1024 60 10000 5.7 140 12:23 11.09.2019
1905 Rain 20 1024 60 10000 5.7 130 11:59 11.09.2019
1906 Clear 20 1024 63 10000 5.1 130 11:39 11.09.2019
1907 Clear 19 1024 63 10000 5.1 130 11:21 11.09.2019
1908 Clear 18 1023 68 10000 5.1 120 10:55 11.09.2019
1909 Clear 18 1023 72 10000 4.1 120 10:37 11.09.2019
1910 Clear 17 1023 77 10000 4.6 120 10:19 11.09.2019
1911 Clear 16 1023 72 10000 4.6 120 09:38 11.09.2019
1912 Clear 15 1023 72 10000 4.6 120 09:19 11.09.2019
1913 Mist 13 1022 82 10000 1.5 120 08:42 11.09.2019
1914 Fog 12 1022 82 10000 1.5 110 08:22 11.09.2019
1915 Fog 12 1022 82 10000 1.5 110 07:59 11.09.2019
1916 Fog 11 1022 87 10000 1 0 07:39 11.09.2019
1917 Fog 10 1021 82 10000 2.1 110 07:21 11.09.2019
1918 Fog 10 1021 82 10000 2.6 110 06:44 11.09.2019
1919 Clear 10 1022 93 10000 2.1 40 06:21 11.09.2019
1920 Clear 10 1021 87 10000 1.5 110 05:35 11.09.2019
1921 Clear 11 1021 87 10000 2.1 120 04:59 11.09.2019
1922 Clear 11 1021 87 10000 3.6 150 04:21 11.09.2019
1923 Clear 11 1022 87 10000 3.1 40 03:29 11.09.2019
1924 Clear 12 1021 76 10000 2.6 130 02:32 11.09.2019
1925 Clear 12 1021 76 10000 2.6 150 01:33 11.09.2019
1926 Clear 13 1021 76 10000 3.1 150 00:40 11.09.2019
1927 Clear 13 1020 77 10000 3.1 140 00:20 11.09.2019
1928 Clear 13 1020 77 10000 2.6 140 23:40 10.09.2019
1929 Clear 13 1020 77 10000 2.6 140 23:22 10.09.2019
1930 Clear 13 1020 77 10000 3.1 130 22:57 10.09.2019
1931 Clear 14 1020 72 10000 2.6 120 22:37 10.09.2019
1932 Clear 14 1020 72 10000 3.1 120 22:19 10.09.2019
1933 Clear 15 1020 72 10000 3.1 120 21:55 10.09.2019
1934 Clear 15 1019 72 10000 3.1 120 21:36 10.09.2019
1935 Clear 15 1019 67 10000 3.1 120 21:18 10.09.2019
1936 Clear 15 1019 67 10000 3.1 120 21:18 10.09.2019
1937 Clear 16 1019 67 10000 3.1 120 20:56 10.09.2019
1938 Clouds 16 1019 63 10000 3.6 130 20:37 10.09.2019
1939 Clouds 16 1019 63 10000 3.6 130 20:18 10.09.2019
1940 Clouds 17 1019 63 10000 4.1 130 19:55 10.09.2019
1941 Clouds 17 1019 63 10000 4.1 130 19:55 10.09.2019
1942 Clouds 18 1019 59 10000 3.6 140 19:36 10.09.2019
1943 Clouds 18 1019 56 10000 5.1 140 19:18 10.09.2019
1944 Clouds 18 1019 56 10000 5.1 140 19:18 10.09.2019
1945 Clouds 19 1018 56 10000 6.2 140 18:45 10.09.2019
1946 Clouds 20 1018 56 10000 6.2 140 18:23 10.09.2019
1947 Clouds 21 1018 56 10000 7.2 140 17:59 10.09.2019
1948 Clouds 21 1018 52 10000 6.7 140 17:40 10.09.2019
1949 Clouds 21 1018 56 10000 7.2 140 17:20 10.09.2019
1950 Clouds 21 1018 56 10000 7.2 140 16:57 10.09.2019
1951 Clouds 21 1018 52 10000 7.7 140 16:38 10.09.2019
1952 Clouds 21 1018 52 10000 7.7 140 16:19 10.09.2019
1953 Clouds 21 1019 56 10000 8.2 150 15:44 10.09.2019
1954 Clouds 21 1019 56 10000 8.2 150 15:23 10.09.2019
1955 Clouds 21 1019 56 10000 7.7 150 14:59 10.09.2019
1956 Clouds 21 1019 56 10000 7.7 150 14:59 10.09.2019
1957 Clouds 21 1019 56 10000 9.3 150 14:39 10.09.2019
1958 Clouds 21 1019 56 10000 9.3 150 14:21 10.09.2019
1959 Clouds 20 1019 56 10000 8.2 160 13:48 10.09.2019
1960 Clouds 20 1019 56 10000 8.2 160 13:24 10.09.2019
1961 Clouds 20 1019 59 10000 8.2 150 12:55 10.09.2019
1962 Clouds 20 1019 59 10000 7.2 150 12:37 10.09.2019
1963 Clouds 19 1019 68 10000 6.2 140 12:18 10.09.2019
1964 Clouds 18 1019 72 10000 5.7 130 11:42 10.09.2019
1965 Clouds 17 1019 72 10000 4.6 130 11:22 10.09.2019
1966 Clouds 17 1019 72 10000 4.6 130 10:59 10.09.2019
1967 Clouds 17 1019 72 10000 3.1 120 10:37 10.09.2019
1968 Clouds 15 1019 82 10000 2.1 110 10:18 10.09.2019
1969 Clear 14 1019 82 10000 2.1 120 09:44 10.09.2019
1970 Clear 13 1018 81 10000 1.5 140 09:20 10.09.2019
1971 Clear 12 1018 87 10000 1 0 08:56 10.09.2019
1972 Clear 11 1018 87 10000 1 0 08:38 10.09.2019
1973 Clear 10 1018 93 10000 1.5 130 08:19 10.09.2019
1974 Clear 9 1018 87 10000 1 170 07:43 10.09.2019
1975 Clear 9 1018 93 10000 2.1 160 07:25 10.09.2019
1976 Fog 9 1018 81 10000 2.6 180 06:46 10.09.2019
1977 Fog 9 1018 81 10000 2.6 180 06:28 10.09.2019
1978 Clear 10 1017 87 10000 4.1 170 04:38 10.09.2019
1979 Clear 11 1017 71 10000 2.1 240 02:44 10.09.2019
1980 Clear 11 1017 76 10000 3.1 220 02:22 10.09.2019
1981 Clear 11 1017 76 10000 3.1 220 01:52 10.09.2019
1982 Clear 11 1017 76 10000 3.1 220 01:52 10.09.2019
1983 Clear 11 1017 76 10000 3.1 220 01:52 10.09.2019
1984 Clear 11 1017 76 10000 3.1 220 01:52 10.09.2019
1985 Clear 11 1017 76 10000 2.6 210 01:23 10.09.2019
1986 Clear 12 1016 67 10000 4.1 270 00:43 10.09.2019
1987 Clear 12 1016 67 10000 4.1 270 00:23 10.09.2019
1988 Clear 12 1016 67 10000 4.6 260 23:41 09.09.2019
1989 Clouds 13 1016 71 10000 5.7 260 23:19 09.09.2019
1990 Clouds 13 1016 71 10000 5.7 260 22:55 09.09.2019
1991 Clouds 13 1016 67 10000 5.1 270 22:37 09.09.2019
1992 Clouds 13 1016 67 10000 5.1 260 22:19 09.09.2019
1993 Clouds 13 1015 67 10000 6.2 280 21:56 09.09.2019
1994 Clouds 14 1015 67 10000 6.2 280 21:37 09.09.2019
1995 Clouds 14 1015 67 10000 6.7 270 21:19 09.09.2019
1996 Clouds 14 1015 67 10000 6.7 270 20:55 09.09.2019
1997 Clouds 14 1014 67 10000 6.2 270 20:37 09.09.2019
1998 Clouds 14 1014 67 10000 6.2 280 20:18 09.09.2019
1999 Clouds 14 1014 67 10000 6.2 280 19:56 09.09.2019
2000 Clouds 14 1014 67 10000 6.2 280 19:38 09.09.2019
2001 Clouds 14 1013 63 10000 7.2 280 19:19 09.09.2019
2002 Clouds 14 1013 63 10000 7.2 280 19:19 09.09.2019
2003 Clouds 15 1013 63 10000 8.2 280 18:56 09.09.2019
2004 Clouds 15 1013 63 10000 8.2 280 18:37 09.09.2019
2005 Clouds 15 1012 59 10000 9.3 280 18:19 09.09.2019
2006 Clouds 16 1012 59 10000 9.3 280 17:56 09.09.2019
2007 Clouds 16 1012 59 10000 9.3 280 17:38 09.09.2019
2008 Rain 16 1012 59 10000 9.3 280 17:20 09.09.2019
2009 Clouds 16 1012 55 10000 8.7 270 16:41 09.09.2019
2010 Rain 16 1012 55 10000 8.7 290 16:21 09.09.2019
2011 Rain 16 1012 55 10000 8.7 290 15:57 09.09.2019
2012 Rain 16 1012 55 10000 8.7 290 15:57 09.09.2019
2013 Rain 16 1012 55 10000 8.7 290 15:57 09.09.2019
2014 Rain 16 1012 55 10000 8.7 290 15:57 09.09.2019
2015 Rain 16 1012 55 10000 5.1 300 15:39 09.09.2019
2016 Rain 16 1012 55 10000 5.1 290 15:21 09.09.2019
2017 Rain 16 1012 55 10000 5.1 290 14:58 09.09.2019
2018 Clouds 16 1012 55 10000 7.2 280 14:40 09.09.2019
2019 Clouds 17 1012 52 10000 6.2 290 14:21 09.09.2019
2020 Clouds 17 1012 55 10000 6.2 280 13:55 09.09.2019
2021 Clouds 17 1012 55 10000 6.2 280 13:36 09.09.2019
2022 Clouds 17 1012 55 10000 6.2 290 13:18 09.09.2019
2023 Clouds 17 1012 59 10000 6.2 290 12:42 09.09.2019
2024 Clouds 16 1012 59 10000 6.7 290 12:22 09.09.2019
2025 Clouds 16 1012 59 10000 6.7 290 11:59 09.09.2019
2026 Clouds 16 1011 63 10000 5.7 300 11:40 09.09.2019
2027 Clouds 15 1011 67 10000 5.1 270 11:18 09.09.2019
2028 Clouds 15 1011 71 10000 6.2 280 10:42 09.09.2019
2029 Clouds 14 1011 71 10000 6.2 280 10:24 09.09.2019
2030 Clouds 14 1011 71 10000 6.2 280 10:24 09.09.2019
2031 Clouds 13 1011 71 10000 5.7 280 09:59 09.09.2019
2032 Rain 13 1011 76 10000 6.2 280 09:40 09.09.2019
2033 Rain 12 1011 76 10000 6.7 280 09:21 09.09.2019
2034 Rain 12 1011 76 10000 6.7 280 08:55 09.09.2019
2035 Rain 12 1011 87 10000 6.2 290 08:37 09.09.2019
2036 Rain 12 1010 87 10000 6.7 300 08:18 09.09.2019
2037 Rain 11 1010 93 10000 6.2 290 07:40 09.09.2019
2038 Rain 11 1010 93 10000 5.1 300 07:20 09.09.2019
2039 Rain 11 1011 93 7000 6.2 290 06:50 09.09.2019
2040 Rain 12 1010 87 10000 5.1 300 05:56 09.09.2019
2041 Rain 14 1012 93 9000 3.1 180 03:21 09.09.2019
2042 Rain 15 1011 87 10000 2.6 100 02:41 09.09.2019
2043 Rain 16 1011 93 6000 1.5 30 01:24 09.09.2019
2044 Rain 16 1012 93 7000 3.1 70 00:24 09.09.2019
2045 Rain 16 1013 93 10000 3.6 80 23:55 08.09.2019
2046 Rain 16 1013 93 7000 2.6 80 23:37 08.09.2019
2047 Rain 16 1014 93 8000 2.1 100 23:19 08.09.2019
2048 Rain 15 1014 87 10000 2.6 60 22:40 08.09.2019
2049 Rain 16 1014 87 10000 2.1 40 22:22 08.09.2019
2050 Rain 16 1015 87 10000 2.1 130 21:58 08.09.2019
2051 Rain 16 1015 87 10000 2.1 130 21:40 08.09.2019
2052 Rain 16 1015 87 10000 2.1 130 21:22 08.09.2019
2053 Clouds 16 1015 82 10000 1 70 20:54 08.09.2019
2054 Clouds 16 1015 82 10000 1 70 20:36 08.09.2019
2055 Clouds 16 1015 77 10000 1.5 110 20:18 08.09.2019
2056 Clouds 16 1015 77 10000 1.5 110 20:18 08.09.2019
2057 Clouds 16 1015 77 10000 1.5 110 20:18 08.09.2019
2058 Clouds 16 1015 77 10000 2.1 110 19:39 08.09.2019
2059 Clouds 17 1015 77 10000 3.1 110 19:21 08.09.2019
2060 Clouds 17 1015 77 10000 3.1 110 18:58 08.09.2019
2061 Clouds 18 1015 68 10000 4.1 110 18:39 08.09.2019
2062 Clouds 18 1016 63 10000 4.1 110 18:19 08.09.2019
2063 Clouds 18 1016 63 10000 4.1 110 17:58 08.09.2019
2064 Clouds 18 1015 63 10000 3.6 120 17:37 08.09.2019
2065 Clouds 19 1016 63 10000 3.6 120 17:18 08.09.2019
2066 Clouds 19 1016 63 10000 3.6 120 16:56 08.09.2019
2067 Clouds 19 1016 63 10000 3.6 120 16:37 08.09.2019
2068 Clouds 19 1016 68 10000 2.1 80 16:19 08.09.2019
2069 Clouds 19 1017 68 10000 2.6 110 15:42 08.09.2019
2070 Clouds 19 1016 63 10000 2.1 70 15:22 08.09.2019
2071 Clouds 18 1016 63 10000 2.1 70 14:59 08.09.2019
2072 Clouds 19 1016 63 10000 3.1 20 14:39 08.09.2019
2073 Clouds 19 1016 63 10000 3.1 20 14:39 08.09.2019
2074 Clouds 19 1016 63 10000 3.1 20 14:21 08.09.2019
2075 Clouds 19 1017 63 10000 2.1 20 13:57 08.09.2019
2076 Clouds 18 1017 67 10000 2.1 0 13:39 08.09.2019
2077 Clouds 18 1017 67 10000 2.1 0 13:21 08.09.2019
2078 Clouds 18 1017 72 10000 2.1 20 12:55 08.09.2019
2079 Rain 18 1017 72 10000 2.1 20 12:37 08.09.2019
2080 Rain 17 1017 72 10000 2.1 360 12:18 08.09.2019
2081 Rain 17 1018 82 10000 2.1 350 11:56 08.09.2019
2082 Clouds 17 1018 82 10000 2.1 350 11:37 08.09.2019
2083 Clouds 16 1018 77 10000 2.6 330 11:18 08.09.2019
2084 Rain 16 1018 82 10000 3.6 320 10:42 08.09.2019
2085 Rain 15 1018 82 10000 3.6 320 10:23 08.09.2019
2086 Rain 15 1017 87 10000 3.6 320 09:56 08.09.2019
2087 Rain 14 1018 87 10000 3.6 300 09:37 08.09.2019
2088 Clouds 14 1018 87 10000 3.1 290 09:19 08.09.2019
2089 Rain 13 1017 93 10000 1.5 310 08:39 08.09.2019
2090 Rain 13 1018 93 10000 1.5 320 08:19 08.09.2019
2091 Rain 13 1018 93 10000 1.5 310 07:43 08.09.2019
2092 Rain 13 1018 93 10000 3.6 320 07:22 08.09.2019
2093 Rain 13 1018 93 10000 3.6 320 06:57 08.09.2019
2094 Rain 13 1017 93 10000 3.1 310 06:38 08.09.2019
2095 Rain 13 1017 93 10000 3.6 310 05:40 08.09.2019
2096 Rain 13 1017 93 10000 4.6 300 04:59 08.09.2019
2097 Rain 13 1017 87 10000 5.1 300 03:23 08.09.2019
2098 Rain 13 1017 87 10000 5.7 300 02:48 08.09.2019
2099 Rain 14 1017 87 10000 6.2 310 01:54 08.09.2019
2100 Rain 14 1017 87 10000 6.2 310 01:29 08.09.2019
2101 Rain 14 1018 82 10000 4.6 290 00:49 08.09.2019
2102 Rain 14 1018 82 10000 4.6 290 00:30 08.09.2019
2103 Rain 14 1017 87 10000 5.7 300 23:57 07.09.2019
2104 Rain 14 1018 87 10000 4.1 290 23:37 07.09.2019
2105 Rain 14 1018 87 10000 4.6 300 23:18 07.09.2019
2106 Rain 14 1018 87 10000 4.6 300 22:43 07.09.2019
2107 Rain 14 1018 87 10000 4.6 300 22:25 07.09.2019
2108 Rain 14 1018 87 10000 5.1 280 21:56 07.09.2019
2109 Rain 14 1018 87 10000 4.1 300 21:38 07.09.2019
2110 Rain 14 1018 87 10000 4.1 300 21:20 07.09.2019
2111 Rain 14 1017 93 10000 4.6 300 20:40 07.09.2019
2112 Rain 14 1017 93 10000 4.6 300 20:21 07.09.2019
2113 Rain 14 1017 93 10000 4.6 300 19:57 07.09.2019
2114 Rain 14 1017 87 10000 6.7 280 19:38 07.09.2019
2115 Rain 15 1018 87 10000 3.6 270 19:19 07.09.2019
2116 Rain 15 1018 87 6000 4.6 270 18:58 07.09.2019
2117 Rain 15 1018 87 6000 4.6 270 18:58 07.09.2019
2118 Rain 15 1018 87 6000 4.6 270 18:39 07.09.2019
2119 Rain 15 1017 93 10000 4.1 300 18:20 07.09.2019
2120 Rain 15 1017 93 10000 4.1 300 17:59 07.09.2019
2121 Rain 15 1017 93 7000 3.6 310 17:39 07.09.2019
2122 Rain 15 1017 93 10000 3.1 300 17:18 07.09.2019
2123 Rain 15 1017 93 10000 3.1 300 16:56 07.09.2019
2124 Rain 15 1017 93 7000 4.1 290 16:38 07.09.2019
2125 Rain 15 1017 93 5000 3.1 300 16:18 07.09.2019
2126 Rain 15 1017 87 8000 4.6 310 15:44 07.09.2019
2127 Rain 15 1017 93 10000 4.1 300 15:25 07.09.2019
2128 Rain 15 1017 93 10000 4.1 300 14:56 07.09.2019
2129 Rain 16 1017 93 10000 3.1 300 14:36 07.09.2019
2130 Rain 15 1017 87 10000 2.1 310 14:18 07.09.2019
2131 Rain 16 1017 93 4500 2.1 330 13:56 07.09.2019
2132 Rain 16 1017 93 4500 2.1 330 13:37 07.09.2019
2133 Rain 15 1017 93 4500 2.1 320 13:18 07.09.2019
2134 Rain 15 1017 87 8000 1 0 12:43 07.09.2019
2135 Rain 15 1017 87 8000 1 0 12:24 07.09.2019
2136 Rain 15 1017 87 5000 1 0 11:41 07.09.2019
2137 Rain 15 1017 87 5000 1 0 11:22 07.09.2019
2138 Rain 15 1017 93 6000 1 40 10:58 07.09.2019
2139 Rain 15 1017 93 6000 0.5 0 10:37 07.09.2019
2140 Rain 15 1017 93 6000 0.5 0 10:19 07.09.2019
2141 Rain 15 1017 93 4500 1 50 09:43 07.09.2019
2142 Rain 15 1017 93 4500 2.1 50 09:23 07.09.2019
2143 Rain 15 1017 100 4000 2.1 30 08:57 07.09.2019
2144 Rain 15 1017 100 4000 2.1 30 08:36 07.09.2019
2145 Rain 15 1017 100 4000 2.1 50 08:18 07.09.2019
2146 Rain 14 1017 93 7000 1.5 50 07:43 07.09.2019
2147 Rain 14 1017 93 7000 1.5 50 07:22 07.09.2019
2148 Rain 14 1017 93 10000 0.5 0 06:43 07.09.2019
2149 Clouds 14 1017 93 10000 0.5 0 05:41 07.09.2019
2150 Clouds 14 1017 93 10000 0.5 0 05:41 07.09.2019
2151 Rain 14 1018 93 8000 2.6 320 04:26 07.09.2019
2152 Rain 14 1018 93 8000 2.6 310 03:41 07.09.2019
2153 Rain 14 1018 93 10000 3.1 310 02:31 07.09.2019
2154 Rain 15 1019 87 10000 3.1 320 01:33 07.09.2019
2155 Rain 15 1019 82 10000 3.1 330 00:55 07.09.2019
2156 Rain 15 1019 87 10000 2.6 280 00:36 07.09.2019
2157 Rain 15 1019 93 10000 1.5 350 00:18 07.09.2019
2158 Rain 15 1019 87 10000 2.1 10 23:38 06.09.2019
2159 Rain 15 1019 87 10000 2.1 10 23:38 06.09.2019
2160 Rain 15 1019 87 10000 2.1 10 23:38 06.09.2019
2161 Rain 15 1019 87 10000 2.1 350 23:20 06.09.2019
2162 Rain 16 1019 87 10000 2.1 350 22:57 06.09.2019
2163 Rain 16 1020 82 10000 1.5 360 22:37 06.09.2019
2164 Rain 16 1020 82 10000 2.6 30 22:19 06.09.2019
2165 Rain 16 1020 82 10000 2.6 30 21:56 06.09.2019
2166 Clouds 16 1020 82 10000 2.6 50 21:37 06.09.2019
2167 Rain 16 1019 82 10000 2.1 20 21:19 06.09.2019
2168 Clouds 16 1019 87 10000 1.5 10 20:54 06.09.2019
2169 Clouds 16 1019 87 10000 1.5 10 20:36 06.09.2019
2170 Rain 17 1020 82 10000 1 50 20:18 06.09.2019
2171 Rain 17 1020 82 10000 2.1 80 19:41 06.09.2019
2172 Rain 17 1020 82 10000 2.1 80 19:23 06.09.2019
2173 Rain 18 1020 72 10000 1 0 18:56 06.09.2019
2174 Rain 18 1020 72 10000 1 0 18:38 06.09.2019
2175 Rain 18 1020 77 10000 2.1 330 18:19 06.09.2019
2176 Rain 18 1020 77 10000 3.1 300 17:40 06.09.2019
2177 Rain 19 1021 72 10000 2.6 230 17:21 06.09.2019
2178 Rain 19 1021 72 10000 2.6 230 16:58 06.09.2019
2179 Rain 19 1021 52 10000 1 0 16:38 06.09.2019
2180 Clouds 20 1021 52 10000 2.6 350 16:18 06.09.2019
2181 Clouds 20 1021 49 10000 4.1 360 15:41 06.09.2019
2182 Clouds 20 1021 49 10000 4.1 360 15:41 06.09.2019
2183 Clouds 20 1021 49 10000 4.1 360 15:22 06.09.2019
2184 Clouds 20 1021 52 10000 4.6 10 14:48 06.09.2019
2185 Clouds 20 1022 49 10000 4.1 360 14:20 06.09.2019
2186 Clouds 20 1022 49 10000 5.1 360 13:44 06.09.2019
2187 Clouds 20 1022 49 10000 5.1 360 13:24 06.09.2019
2188 Clear 20 1022 49 10000 5.7 20 12:59 06.09.2019
2189 Clear 20 1022 49 10000 5.7 20 12:59 06.09.2019
2190 Clear 19 1022 49 10000 5.7 360 12:37 06.09.2019
2191 Clear 18 1022 55 10000 7.2 350 12:18 06.09.2019
2192 Clear 18 1022 59 10000 6.2 330 11:41 06.09.2019
2193 Clear 18 1022 63 10000 5.1 330 11:23 06.09.2019
2194 Clear 18 1022 63 10000 6.2 320 10:57 06.09.2019
2195 Clear 17 1022 63 10000 6.2 320 10:39 06.09.2019
2196 Clear 17 1022 63 10000 6.7 320 10:19 06.09.2019
2197 Clear 16 1022 67 10000 5.7 320 09:40 06.09.2019
2198 Clouds 16 1022 77 10000 5.7 310 09:21 06.09.2019
2199 Clouds 16 1022 77 10000 5.7 310 08:57 06.09.2019
2200 Rain 15 1022 72 10000 6.2 310 08:38 06.09.2019
2201 Rain 15 1022 77 10000 5.7 310 08:20 06.09.2019
2202 Rain 15 1022 82 10000 6.7 310 07:45 06.09.2019
2203 Rain 15 1022 82 10000 6.7 310 07:26 06.09.2019
2204 Clouds 15 1022 82 10000 7.2 310 06:56 06.09.2019
2205 Rain 15 1021 87 10000 6.7 300 05:58 06.09.2019
2206 Rain 16 1021 87 10000 6.7 300 05:27 06.09.2019
2207 Rain 16 1021 77 10000 7.2 300 04:41 06.09.2019
2208 Rain 16 1020 72 10000 7.7 300 03:45 06.09.2019
2209 Clear 17 1019 60 10000 6.7 310 01:51 06.09.2019
2210 Clear 18 1018 56 10000 8.2 310 00:38 06.09.2019
2211 Clear 19 1018 52 10000 7.7 310 23:44 05.09.2019
2212 Clear 19 1018 52 10000 7.7 310 23:25 05.09.2019
2213 Clear 19 1017 52 10000 7.2 310 22:55 05.09.2019
2214 Clear 19 1017 52 10000 6.2 310 22:55 05.09.2019
2215 Clear 20 1017 52 10000 6.2 310 22:37 05.09.2019
2216 Clear 20 1017 52 10000 5.7 310 22:19 05.09.2019
2217 Clear 20 1017 52 10000 5.7 310 21:56 05.09.2019
2218 Clear 20 1016 52 10000 4.6 320 21:37 05.09.2019
2219 Clear 20 1016 49 10000 6.2 320 21:19 05.09.2019
2220 Clear 20 1016 49 10000 6.2 320 20:55 05.09.2019
2221 Clear 20 1015 49 10000 5.7 320 20:36 05.09.2019
2222 Clear 21 1015 47 10000 7.7 310 20:18 05.09.2019
2223 Clear 22 1014 44 10000 5.7 300 19:42 05.09.2019
2224 Clear 22 1014 44 10000 5.7 300 19:23 05.09.2019
2225 Clear 24 1014 44 10000 3.6 320 18:57 05.09.2019
2226 Clear 24 1014 44 10000 3.6 320 18:39 05.09.2019
2227 Clear 25 1014 36 10000 1 0 18:19 05.09.2019
2228 Clear 25 1014 39 10000 2.1 340 17:42 05.09.2019
2229 Clear 25 1014 39 10000 2.1 340 17:23 05.09.2019
2230 Clear 26 1014 36 10000 2.1 340 16:58 05.09.2019
2231 Clear 26 1014 39 10000 2.6 60 16:40 05.09.2019
2232 Clear 26 1014 44 10000 2.6 60 16:20 05.09.2019
2233 Clear 26 1014 44 10000 2.6 60 15:57 05.09.2019
2234 Clear 26 1014 41 10000 3.1 50 15:38 05.09.2019
2235 Clear 26 1015 44 10000 3.1 50 15:18 05.09.2019
2236 Clouds 26 1015 47 10000 3.1 40 14:43 05.09.2019
2237 Clouds 26 1015 47 10000 3.1 20 14:21 05.09.2019
2238 Clouds 26 1015 47 10000 2.6 10 13:44 05.09.2019
2239 Clouds 26 1015 47 10000 2.6 10 13:44 05.09.2019
2240 Clouds 26 1015 47 10000 2.6 10 13:23 05.09.2019
2241 Clouds 25 1015 53 10000 2.1 0 12:59 05.09.2019
2242 Clouds 25 1015 56 10000 2.6 30 12:41 05.09.2019
2243 Clouds 24 1015 56 10000 1.5 60 12:21 05.09.2019
2244 Clear 23 1015 56 10000 1.5 0 11:44 05.09.2019
2245 Clear 23 1015 60 10000 1 0 11:20 05.09.2019
2246 Clear 22 1015 60 10000 1 0 10:55 05.09.2019
2247 Clear 21 1015 59 10000 1 0 10:36 05.09.2019
2248 Clear 20 1015 63 10000 1 0 10:18 05.09.2019
2249 Clear 19 1015 72 10000 1.5 140 09:40 05.09.2019
2250 Clear 16 1015 77 10000 2.6 150 09:20 05.09.2019
2251 Clear 16 1015 77 10000 2.6 150 08:55 05.09.2019
2252 Clear 15 1015 87 10000 2.6 150 08:37 05.09.2019
2253 Clear 14 1015 87 10000 2.6 150 08:19 05.09.2019
2254 Clear 13 1015 87 10000 1.5 150 07:42 05.09.2019
2255 Clear 12 1015 81 10000 1 10 07:23 05.09.2019
2256 Clear 12 1015 76 10000 1 0 06:44 05.09.2019
2257 Clear 11 1014 82 10000 3.6 200 06:22 05.09.2019
2258 Clear 11 1014 87 10000 2.1 190 05:42 05.09.2019
2259 Clear 11 1014 87 10000 2.1 190 05:23 05.09.2019
2260 Clear 12 1014 76 10000 2.1 170 04:30 05.09.2019
2261 Clear 12 1014 82 10000 0.5 0 03:47 05.09.2019
2262 Clear 12 1014 76 10000 3.1 160 02:57 05.09.2019
2263 Clear 13 1014 67 10000 2.1 160 02:28 05.09.2019
2264 Clear 13 1016 82 10000 2.1 40 01:54 05.09.2019
2265 Clear 14 1016 76 10000 2.1 10 00:56 05.09.2019
2266 Clear 15 1016 76 10000 2.1 10 00:37 05.09.2019
2267 Clear 15 1016 76 10000 2.6 20 00:18 05.09.2019
2268 Clear 15 1015 63 10000 4.1 150 23:40 04.09.2019
2269 Clear 15 1015 63 10000 4.1 150 23:22 04.09.2019
2270 Clear 16 1016 59 10000 3.6 130 22:49 04.09.2019
2271 Clear 16 1016 59 10000 3.6 130 22:21 04.09.2019
2272 Clear 16 1016 55 10000 3.6 130 21:57 04.09.2019
2273 Clear 17 1016 52 10000 3.6 130 21:38 04.09.2019
2274 Clear 18 1016 52 10000 3.6 120 21:19 04.09.2019
2275 Clear 18 1016 52 10000 4.1 130 20:55 04.09.2019
2276 Clear 18 1016 52 10000 4.1 130 20:36 04.09.2019
2277 Clear 19 1016 46 10000 4.1 140 20:18 04.09.2019
2278 Clear 21 1016 46 10000 4.1 140 19:40 04.09.2019
2279 Clear 20 1016 46 10000 4.1 140 19:40 04.09.2019
2280 Clear 21 1016 43 10000 5.1 140 19:21 04.09.2019
2281 Clear 22 1017 43 10000 5.1 140 18:55 04.09.2019
2282 Clear 22 1017 43 10000 5.1 140 18:36 04.09.2019
2283 Clear 23 1017 40 10000 5.7 140 18:18 04.09.2019
2284 Clear 23 1017 38 10000 5.7 140 17:41 04.09.2019
2285 Clear 24 1017 38 10000 5.7 140 17:22 04.09.2019
2286 Clear 24 1018 38 10000 5.7 140 16:56 04.09.2019
2287 Clear 24 1018 38 10000 5.7 140 16:38 04.09.2019
2288 Clear 24 1018 40 10000 5.1 130 16:19 04.09.2019
2289 Clear 24 1019 38 10000 5.1 160 15:40 04.09.2019
2290 Clear 24 1019 35 10000 4.6 150 15:22 04.09.2019
2291 Clear 24 1019 35 10000 4.6 150 15:22 04.09.2019
2292 Clear 24 1019 35 10000 4.6 150 14:58 04.09.2019
2293 Clear 24 1020 33 10000 5.1 150 14:38 04.09.2019
2294 Clear 24 1020 35 10000 4.1 130 14:20 04.09.2019
2295 Clear 24 1020 35 10000 4.1 130 13:58 04.09.2019
2296 Clear 24 1020 37 10000 3.6 150 13:39 04.09.2019
2297 Clear 24 1020 37 10000 3.6 150 13:21 04.09.2019
2298 Clear 23 1021 40 10000 2.6 130 12:44 04.09.2019
2299 Clear 22 1021 40 10000 2.6 130 12:26 04.09.2019
2300 Clear 22 1022 46 10000 3.1 150 11:58 04.09.2019
2301 Clear 22 1022 49 10000 2.1 150 11:38 04.09.2019
2302 Clear 21 1022 49 10000 2.1 150 11:19 04.09.2019
2303 Clear 21 1022 52 10000 2.1 130 10:56 04.09.2019
2304 Clear 20 1022 59 10000 2.1 150 10:36 04.09.2019
2305 Clear 19 1022 67 10000 1.5 130 10:18 04.09.2019
2306 Clear 18 1022 72 10000 1 0 09:44 04.09.2019
2307 Clear 16 1022 76 10000 1 0 09:20 04.09.2019
2308 Clear 14 1022 71 10000 1 0 08:42 04.09.2019
2309 Fog 12 1022 87 10000 2.1 170 08:24 04.09.2019
2310 Fog 11 1022 93 10000 1.5 170 07:58 04.09.2019
2311 Fog 11 1022 93 10000 1.5 170 07:35 04.09.2019
2312 Fog 10 1023 87 10000 2.1 170 06:53 04.09.2019
2313 Fog 10 1023 87 10000 2.1 170 06:33 04.09.2019
2314 Clear 11 1023 87 10000 1.5 160 04:54 04.09.2019
2315 Clear 10 1023 87 10000 1.5 160 04:22 04.09.2019
2316 Clear 11 1023 81 10000 1 210 02:50 04.09.2019
2317 Clear 12 1023 87 10000 0.5 0 01:20 04.09.2019
2318 Clear 12 1023 76 10000 0.5 0 00:41 04.09.2019
2319 Clear 13 1023 76 10000 0.5 0 00:23 04.09.2019
2320 Clear 13 1023 76 10000 0.5 0 23:51 03.09.2019
2321 Clear 13 1023 63 10000 2.6 300 23:27 03.09.2019
2322 Clear 14 1023 77 0 1.14 246.61 22:43 03.09.2019
2323 Clear 14 1023 77 0 1.14 246.61 22:24 03.09.2019
2324 Clear 15 1023 55 10000 2.1 310 21:59 03.09.2019
2325 Clear 15 1023 55 10000 2.1 310 21:38 03.09.2019
2326 Clear 16 1023 55 10000 2.1 340 21:20 03.09.2019
2327 Clear 16 1023 55 10000 2.1 340 20:59 03.09.2019
2328 Clear 16 1023 52 10000 1.5 350 20:40 03.09.2019
2329 Clear 17 1023 45 10000 2.1 350 20:21 03.09.2019
2330 Clear 18 1023 45 10000 2.1 350 19:55 03.09.2019
2331 Clear 19 1023 45 10000 2.1 350 19:36 03.09.2019
2332 Clear 20 1023 49 10000 2.1 340 19:18 03.09.2019
2333 Clear 21 1022 37 10000 4.1 350 18:42 03.09.2019
2334 Clear 21 1022 37 10000 4.1 350 18:24 03.09.2019
2335 Clear 22 1022 37 10000 4.1 350 17:56 03.09.2019
2336 Clear 22 1022 35 10000 4.1 340 17:38 03.09.2019
2337 Clear 22 1023 35 10000 6.2 340 17:19 03.09.2019
2338 Clear 22 1023 35 10000 6.7 330 16:43 03.09.2019
2339 Clear 22 1023 35 10000 6.7 350 16:23 03.09.2019
2340 Clear 22 1023 35 10000 6.7 350 15:59 03.09.2019
2341 Clear 22 1023 37 10000 6.7 340 15:39 03.09.2019
2342 Clear 22 1023 35 10000 6.7 340 15:20 03.09.2019
2343 Clear 22 1024 37 10000 7.2 330 14:57 03.09.2019
2344 Clear 22 1024 37 10000 7.2 330 14:39 03.09.2019
2345 Clear 22 1024 37 10000 7.2 330 14:20 03.09.2019
2346 Clear 22 1023 40 10000 7.2 340 13:56 03.09.2019
2347 Clear 22 1024 37 10000 7.7 340 13:37 03.09.2019
2348 Clouds 21 1024 37 10000 7.7 330 13:19 03.09.2019
2349 Clouds 21 1024 52 10000 6.2 350 12:48 03.09.2019
2350 Clouds 20 1024 52 10000 6.2 350 12:29 03.09.2019
2351 Clouds 20 1024 63 10000 6.2 340 11:58 03.09.2019
2352 Clouds 20 1024 63 10000 6.2 340 11:38 03.09.2019
2353 Clouds 19 1024 68 10000 5.1 350 11:19 03.09.2019
2354 Clouds 19 1024 68 10000 5.1 350 10:54 03.09.2019
2355 Clouds 18 1024 72 10000 5.7 330 10:36 03.09.2019
2356 Clouds 17 1024 77 10000 4.6 330 10:18 03.09.2019
2357 Clouds 17 1024 77 10000 4.6 330 10:18 03.09.2019
2358 Clouds 17 1024 77 10000 4.1 330 09:41 03.09.2019
2359 Clouds 16 1024 77 10000 4.1 330 09:41 03.09.2019
2360 Clouds 16 1024 77 10000 4.1 330 09:23 03.09.2019
2361 Clouds 14 1024 87 10000 3.1 320 08:41 03.09.2019
2362 Clouds 14 1024 87 10000 3.1 320 08:22 03.09.2019
2363 Clouds 13 1023 87 10000 3.6 330 07:57 03.09.2019
2364 Clouds 13 1023 87 10000 4.1 330 07:37 03.09.2019
2365 Clouds 12 1023 87 10000 4.1 330 07:37 03.09.2019
2366 Clouds 12 1023 87 10000 4.1 330 07:18 03.09.2019
2367 Clouds 12 1023 87 10000 4.6 320 06:41 03.09.2019
2368 Clouds 13 1023 87 10000 5.1 320 04:41 03.09.2019
2369 Rain 13 1023 87 10000 5.1 320 03:33 03.09.2019
2370 Rain 14 1023 93 10000 3.6 320 02:40 03.09.2019
2371 Rain 13 1023 93 10000 3.6 320 02:22 03.09.2019
2372 Rain 14 1023 87 10000 4.6 310 01:46 03.09.2019
2373 Rain 14 1023 87 10000 4.6 310 01:27 03.09.2019
2374 Rain 14 1023 93 10000 5.1 310 00:37 03.09.2019
2375 Rain 14 1023 87 10000 5.1 320 23:59 02.09.2019
2376 Rain 14 1023 93 10000 5.7 320 23:39 02.09.2019
2377 Rain 14 1022 93 10000 5.7 310 23:19 02.09.2019
2378 Rain 14 1022 93 10000 5.7 310 23:19 02.09.2019
2379 -273 0 0 0 0 0 22:56 02.09.2019
2380 -273 0 0 0 0 0 22:56 02.09.2019
2381 Rain 14 1022 93 10000 6.7 320 22:37 02.09.2019
2382 Rain 15 1022 82 10000 6.7 320 22:19 02.09.2019
2383 Rain 15 1022 82 10000 6.7 320 21:56 02.09.2019
2384 Rain 15 1022 82 10000 6.7 320 21:56 02.09.2019
2385 Rain 15 1021 82 10000 6.2 320 21:38 02.09.2019
2386 Rain 15 1021 77 10000 6.2 320 21:19 02.09.2019
2387 Rain 15 1021 77 10000 6.2 320 20:54 02.09.2019
2388 Rain 15 1021 77 10000 6.2 320 20:54 02.09.2019
2389 Rain 16 1020 82 10000 6.2 330 20:36 02.09.2019
2390 Rain 16 1020 82 10000 5.1 330 20:18 02.09.2019
2391 Rain 16 1020 82 10000 5.1 330 19:54 02.09.2019
2392 Rain 16 1020 82 10000 5.1 330 19:36 02.09.2019
2393 Clouds 17 1020 82 10000 6.7 330 19:18 02.09.2019
2394 Clouds 17 1020 77 10000 7.2 330 18:38 02.09.2019
2395 Clouds 17 1020 77 10000 7.2 330 18:38 02.09.2019
2396 Clouds 17 1020 82 10000 7.7 320 18:19 02.09.2019
2397 Clouds 17 1019 82 10000 7.2 310 17:56 02.09.2019
2398 Clouds 17 1019 82 10000 7.2 310 17:37 02.09.2019
2399 Rain 17 1019 82 10000 6.7 310 17:19 02.09.2019
2400 Rain 18 1019 82 10000 8.2 320 16:41 02.09.2019
2401 Drizzle 18 1018 77 10000 7.7 320 16:21 02.09.2019
2402 Rain 18 1018 77 10000 7.7 320 15:55 02.09.2019
2403 Rain 18 1018 77 10000 9.8 320 15:37 02.09.2019
2404 Rain 18 1018 77 10000 6.7 320 15:18 02.09.2019
2405 Rain 18 1018 77 10000 6.7 320 14:55 02.09.2019
2406 Rain 18 1018 82 10000 7.2 310 14:36 02.09.2019
2407 Rain 18 1018 82 10000 7.2 310 14:18 02.09.2019
2408 Rain 18 1017 82 10000 6.7 310 13:43 02.09.2019
2409 Rain 19 1017 82 10000 6.7 310 13:24 02.09.2019
2410 Rain 19 1017 88 10000 5.1 310 12:47 02.09.2019
2411 Rain 19 1017 88 10000 5.1 310 12:27 02.09.2019
2412 Rain 19 1017 93 10000 4.1 310 12:00 02.09.2019
2413 Rain 18 1017 88 10000 6.7 300 11:41 02.09.2019
2414 Rain 19 1017 88 10000 6.7 290 11:22 02.09.2019
2415 Rain 18 1017 88 10000 6.7 290 10:59 02.09.2019
2416 Rain 18 1017 82 10000 7.2 290 10:41 02.09.2019
2417 Rain 18 1017 82 10000 7.2 290 10:22 02.09.2019
2418 Rain 18 1016 88 10000 6.7 280 09:58 02.09.2019
2419 Rain 18 1016 88 10000 6.2 290 09:38 02.09.2019
2420 Rain 18 1016 88 10000 6.7 300 09:19 02.09.2019
2421 Rain 18 1016 82 10000 7.2 290 08:42 02.09.2019
2422 Rain 18 1016 93 0 5.1 230 08:21 02.09.2019
2423 Rain 18 1015 77 10000 6.7 270 07:54 02.09.2019
2424 Rain 18 1015 77 10000 6.7 270 07:54 02.09.2019
2425 Rain 18 1015 77 10000 7.2 300 07:36 02.09.2019
2426 Rain 18 1014 77 6000 4.6 290 07:18 02.09.2019
2427 Rain 18 1014 77 10000 5.1 270 06:39 02.09.2019
2428 Clouds 19 1014 72 10000 5.1 300 05:53 02.09.2019
2429 Clouds 19 1014 68 10000 6.7 280 05:22 02.09.2019
2430 Clouds 19 1014 73 10000 4.6 300 04:47 02.09.2019
2431 Clouds 20 1014 72 10000 5.1 200 01:59 02.09.2019
2432 Clouds 20 1013 82 10000 3.1 160 01:28 02.09.2019
2433 Clouds 21 1013 73 10000 2.1 200 00:36 02.09.2019
2434 Clouds 21 1013 77 10000 1 0 00:18 02.09.2019
2435 Clear 21 1013 77 10000 3.1 200 23:39 01.09.2019
2436 Clear 21 1013 77 10000 3.1 180 23:19 01.09.2019
2437 Clear 21 1013 77 10000 3.1 180 22:56 01.09.2019
2438 Clear 21 1013 77 10000 2.1 190 22:38 01.09.2019
2439 Clear 22 1013 73 10000 2.6 210 22:18 01.09.2019
2440 Clear 22 1013 73 10000 2.6 200 21:42 01.09.2019
2441 Clear 22 1013 73 10000 2.6 200 21:23 01.09.2019
2442 Clear 23 1012 69 10000 3.6 190 20:58 01.09.2019
2443 Clear 23 1012 69 10000 3.6 190 20:39 01.09.2019
2444 Clear 23 1012 69 10000 2.1 180 20:19 01.09.2019
2445 Clear 24 1012 69 10000 2.1 180 19:59 01.09.2019
2446 Clear 24 1012 69 10000 2.1 180 19:59 01.09.2019
2447 Clear 24 1012 69 10000 2.1 180 19:59 01.09.2019
2448 Clear 24 1012 69 10000 2.1 180 19:40 01.09.2019
2449 Clear 25 1012 64 10000 3.1 210 19:21 01.09.2019
2450 Clouds 26 1012 61 10000 2.6 200 18:45 01.09.2019
2451 Clouds 26 1012 61 10000 2.6 200 18:45 01.09.2019
2452 Clouds 27 1012 61 10000 2.6 200 18:27 01.09.2019
2453 Clouds 27 1011 61 10000 3.1 230 17:59 01.09.2019
2454 Clouds 27 1012 61 10000 4.6 250 17:39 01.09.2019
2455 Clouds 27 1012 61 10000 4.6 250 17:39 01.09.2019
2456 Rain 26 1012 54 10000 5.7 270 17:20 01.09.2019
2457 Rain 27 1012 50 10000 5.7 280 16:41 01.09.2019
2458 Rain 27 1012 50 10000 5.7 280 16:41 01.09.2019
2459 Rain 27 1012 50 10000 5.7 280 16:41 01.09.2019
2460 Rain 27 1012 48 10000 5.1 280 16:21 01.09.2019
2461 Rain 27 1012 48 10000 5.1 280 15:59 01.09.2019
2462 Rain 27 1012 45 10000 3.6 160 15:41 01.09.2019
2463 Rain 28 1012 45 10000 3.6 160 15:22 01.09.2019
2464 Thunderstorm 29 1011 40 10000 3.1 160 14:44 01.09.2019
2465 Thunderstorm 29 1011 40 10000 3.1 160 14:26 01.09.2019
2466 Clouds 31 1012 40 10000 3.1 200 13:59 01.09.2019
2467 Clouds 31 1012 40 10000 3.1 140 13:40 01.09.2019
2468 Clouds 31 1012 40 10000 3.1 140 13:40 01.09.2019
2469 Clear 31 1012 43 10000 2.6 130 13:22 01.09.2019
2470 Clouds 31 1012 51 10000 2.6 170 12:44 01.09.2019
2471 Clouds 30 1012 51 10000 2.6 170 12:26 01.09.2019
2472 Clouds 30 1012 51 10000 2.6 170 12:26 01.09.2019
2473 Clouds 29 1013 54 10000 3.1 130 11:58 01.09.2019
2474 Clear 29 1013 54 10000 2.6 150 11:38 01.09.2019
2475 Clear 28 1013 57 10000 3.1 120 11:19 01.09.2019
2476 Clear 27 1013 61 10000 2.6 110 10:45 01.09.2019
2477 Clear 26 1013 61 10000 2.6 110 10:23 01.09.2019
2478 Clear 25 1013 64 10000 3.1 130 09:48 01.09.2019
2479 Clear 24 1013 64 10000 3.1 130 09:26 01.09.2019
2480 Clear 22 1013 69 10000 3.1 140 08:56 01.09.2019
2481 Clear 22 1013 69 10000 3.1 140 08:56 01.09.2019
2482 Clear 22 1013 73 10000 2.1 150 08:38 01.09.2019
2483 Clear 21 1013 77 10000 1 0 08:20 01.09.2019
2484 Clear 20 1013 73 10000 2.6 40 07:41 01.09.2019
2485 Clear 19 1013 77 10000 3.1 140 07:21 01.09.2019
2486 Clear 19 1013 82 10000 3.6 130 06:38 01.09.2019
2487 Clear 19 1013 82 10000 3.6 150 05:59 01.09.2019
2488 Clear 19 1013 82 10000 3.1 160 04:43 01.09.2019
2489 Clear 19 1013 77 10000 2.6 150 03:49 01.09.2019
2490 Clear 20 1013 77 10000 2.6 150 03:30 01.09.2019
2491 Clear 21 1014 82 10000 4.1 160 02:40 01.09.2019
2492 Clear 21 1014 82 10000 3.6 150 02:19 01.09.2019
2493 Clear 21 1014 77 10000 3.1 170 01:29 01.09.2019
2494 Clear 22 1015 73 10000 3.1 170 00:57 01.09.2019
2495 Clear 22 1015 73 10000 3.1 170 00:38 01.09.2019
2496 Clear 23 1015 69 10000 4.1 170 00:19 01.09.2019
2497 Clear 23 1015 73 10000 3.6 150 23:41 31.08.2019
2498 Clear 23 1015 73 10000 3.6 160 23:21 31.08.2019
2499 Clear 23 1015 73 10000 3.6 160 22:55 31.08.2019
2500 Clear 23 1015 73 10000 3.6 160 22:37 31.08.2019
2501 Clear 23 1015 69 10000 3.1 170 22:19 31.08.2019
2502 Clear 25 1015 69 10000 4.1 160 21:44 31.08.2019
2503 Clear 26 1015 61 10000 3.6 150 21:23 31.08.2019
2504 Clear 26 1015 61 10000 3.6 150 20:59 31.08.2019
2505 Clear 26 1015 51 10000 3.1 120 20:41 31.08.2019
2506 Clouds 27 1015 48 10000 2.6 100 20:23 31.08.2019
2507 Clouds 28 1015 45 10000 3.6 120 19:43 31.08.2019
2508 Clouds 28 1015 45 10000 3.6 120 19:22 31.08.2019
2509 Clouds 30 1015 40 10000 5.1 120 18:56 31.08.2019
2510 Clouds 30 1015 40 10000 5.1 120 18:37 31.08.2019
2511 Clouds 30 1015 40 10000 5.1 120 18:37 31.08.2019
2512 Clouds 30 1015 35 10000 5.1 140 18:19 31.08.2019
2513 Clouds 31 1015 35 10000 5.1 140 17:55 31.08.2019
2514 Clouds 31 1015 38 10000 4.1 140 17:36 31.08.2019
2515 Clouds 31 1016 38 10000 4.1 140 17:18 31.08.2019
2516 Clouds 31 1016 38 10000 4.1 140 16:55 31.08.2019
2517 Clouds 31 1016 38 10000 4.6 150 16:36 31.08.2019
2518 Clouds 31 1017 40 10000 4.1 130 16:18 31.08.2019
2519 Clouds 31 1017 38 10000 3.1 140 15:41 31.08.2019
2520 Clouds 31 1017 40 10000 4.1 120 15:18 31.08.2019
2521 Clouds 31 1018 42 10000 3.6 140 14:44 31.08.2019
2522 Clouds 31 1018 42 10000 3.6 140 14:26 31.08.2019
2523 Clouds 31 1018 48 10000 2.6 110 14:26 31.08.2019
2524 Clouds 31 1018 48 10000 2.6 110 13:59 31.08.2019
2525 Clouds 31 1018 48 10000 3.1 120 13:38 31.08.2019
2526 Clouds 30 1019 51 10000 2.6 90 13:19 31.08.2019
2527 Clouds 30 1019 51 10000 2.6 90 12:56 31.08.2019
2528 Clear 30 1019 48 10000 2.6 100 12:38 31.08.2019
2529 Clear 28 1019 54 10000 2.1 140 12:18 31.08.2019
2530 Clear 28 1019 61 0 2.6 60 11:44 31.08.2019
2531 Clear 28 1019 61 0 2.6 60 11:26 31.08.2019
2532 Clear 26 1019 61 10000 2.1 150 10:57 31.08.2019
2533 Clear 26 1020 64 10000 2.1 170 10:39 31.08.2019
2534 Clear 25 1020 69 10000 1 0 10:18 31.08.2019
2535 Clear 23 1020 73 10000 1 0 09:40 31.08.2019
2536 Clear 22 1020 83 10000 1 0 09:22 31.08.2019
2537 Clear 21 1020 83 10000 1 0 08:58 31.08.2019
2538 Clear 21 1020 83 10000 1 0 08:58 31.08.2019
2539 Clear 20 1020 82 10000 1 110 08:39 31.08.2019
2540 Clear 20 1020 88 10000 0.5 0 08:20 31.08.2019
2541 Clear 18 1020 88 10000 1 0 07:39 31.08.2019
2542 Clear 18 1020 88 10000 1.5 170 07:18 31.08.2019
2543 Clear 17 1020 88 10000 1 170 06:27 31.08.2019
2544 Clear 17 1020 88 10000 0.5 0 05:55 31.08.2019
2545 Clear 18 1020 88 10000 1.5 170 05:29 31.08.2019
2546 Clear 18 1020 88 10000 1 0 04:29 31.08.2019
2547 Clear 18 1020 88 10000 2.1 180 03:42 31.08.2019
2548 Clear 19 1020 88 10000 2.6 170 02:23 31.08.2019
2549 Clear 19 1020 82 10000 2.1 190 01:49 31.08.2019
2550 Clear 19 1020 82 10000 2.1 190 01:49 31.08.2019
2551 Clear 19 1020 82 10000 2.1 190 01:31 31.08.2019
2552 Clear 20 1021 73 10000 3.1 250 00:47 31.08.2019
2553 Clear 20 1021 73 10000 3.1 250 00:27 31.08.2019
2554 Clear 20 1021 73 10000 3.1 250 00:27 31.08.2019
2555 Clear 20 1021 73 10000 2.1 300 23:51 30.08.2019
2556 Clear 21 1021 73 10000 1.5 320 23:20 30.08.2019
2557 Clear 21 1021 73 10000 1.5 320 22:59 30.08.2019
2558 Clear 21 1021 69 10000 1 350 22:39 30.08.2019
2559 Clear 22 1021 69 10000 1.5 350 22:21 30.08.2019
2560 Clear 22 1021 73 10000 2.1 360 21:57 30.08.2019
2561 Clear 22 1021 73 10000 2.1 360 21:37 30.08.2019
2562 Clear 23 1021 65 10000 1.5 40 21:18 30.08.2019
2563 Clear 23 1021 65 10000 1.5 40 20:57 30.08.2019
2564 Clear 24 1020 57 10000 1.5 10 20:38 30.08.2019
2565 Clear 25 1020 61 10000 2.6 330 20:20 30.08.2019
2566 Clear 25 1020 61 10000 2.6 330 19:56 30.08.2019
2567 Clear 26 1020 61 10000 2.6 330 19:38 30.08.2019
2568 Clear 27 1020 51 10000 2.6 310 19:19 30.08.2019
2569 Clouds 28 1020 40 10000 3.1 310 18:45 30.08.2019
2570 Clouds 29 1020 40 10000 3.1 310 18:24 30.08.2019
2571 Clouds 29 1020 40 10000 3.1 310 17:57 30.08.2019
2572 Clear 30 1020 42 10000 3.1 340 17:39 30.08.2019
2573 Clear 30 1020 42 10000 3.6 340 17:19 30.08.2019
2574 Clear 29 1020 45 10000 3.1 360 16:57 30.08.2019
2575 Clear 29 1020 45 10000 3.1 360 16:39 30.08.2019
2576 Clear 29 1020 45 10000 3.1 360 16:20 30.08.2019
2577 Clear 29 1021 42 10000 3.6 360 15:42 30.08.2019
2578 Clear 29 1022 42 10000 3.6 350 15:21 30.08.2019
2579 Clouds 29 1022 48 10000 3.6 340 14:45 30.08.2019
2580 Clouds 29 1022 48 10000 3.6 340 14:26 30.08.2019
2581 Clouds 29 1022 48 10000 3.1 10 13:57 30.08.2019
2582 Clouds 29 1022 51 10000 3.6 330 13:39 30.08.2019
2583 Clouds 29 1022 51 10000 3.6 330 13:39 30.08.2019
2584 Clouds 29 1022 51 10000 3.6 330 13:39 30.08.2019
2585 Clouds 29 1022 54 10000 4.1 310 13:21 30.08.2019
2586 Clouds 28 1022 57 10000 3.6 330 12:45 30.08.2019
2587 Clouds 27 1022 57 10000 3.6 330 12:26 30.08.2019
2588 Clouds 27 1023 65 10000 4.6 330 11:58 30.08.2019
2589 Clouds 26 1023 61 10000 4.1 310 11:39 30.08.2019
2590 Clouds 26 1023 69 10000 4.1 330 11:21 30.08.2019
2591 Clouds 26 1023 69 10000 4.1 330 11:21 30.08.2019
2592 Clouds 25 1022 69 10000 3.6 330 10:39 30.08.2019
2593 Clouds 24 1022 69 10000 3.6 330 10:20 30.08.2019
2594 Clouds 23 1022 69 10000 3.1 330 09:56 30.08.2019
2595 Clouds 23 1022 69 10000 3.1 330 09:36 30.08.2019
2596 Clouds 23 1022 69 10000 3.1 330 09:36 30.08.2019
2597 Clouds 22 1022 73 10000 4.1 310 09:18 30.08.2019
2598 Clouds 21 1022 73 10000 5.1 310 08:44 30.08.2019
2599 Clouds 20 1022 73 10000 5.1 310 08:24 30.08.2019
2600 Thunderstorm 20 1022 73 10000 5.7 290 07:56 30.08.2019
2601 Thunderstorm 20 1022 77 10000 3.6 300 07:37 30.08.2019
2602 Clouds 19 1022 82 10000 3.1 310 07:18 30.08.2019
2603 Clouds 19 1021 82 10000 2.6 320 06:40 30.08.2019
2604 Clouds 18 1021 82 10000 2.6 320 06:21 30.08.2019
2605 Clear 19 1021 77 10000 3.6 310 05:32 30.08.2019
2606 Clouds 19 1020 82 10000 2.1 310 03:57 30.08.2019
2607 Clouds 19 1020 82 10000 4.1 310 03:37 30.08.2019
2608 Clouds 19 1020 82 10000 4.1 310 03:37 30.08.2019
2609 Clouds 20 1020 77 10000 4.6 270 02:44 30.08.2019
2610 Clouds 20 1020 83 10000 3.6 310 02:19 30.08.2019
2611 Rain 21 1021 69 10000 3.6 300 00:57 30.08.2019
2612 Rain 21 1021 69 10000 3.6 300 00:23 30.08.2019
2613 Rain 21 1021 73 0 3.1 200 23:49 29.08.2019
2614 Rain 21 1021 73 0 3.1 200 23:49 29.08.2019
2615 Rain 22 1021 73 0 3.1 200 23:23 29.08.2019
2616 Rain 22 1020 53 10000 6.2 290 23:23 29.08.2019
2617 Rain 22 1020 53 10000 6.7 280 22:59 29.08.2019
2618 Rain 22 1020 53 10000 6.7 280 22:41 29.08.2019
2619 Rain 22 1020 53 10000 6.7 280 22:22 29.08.2019
2620 Thunderstorm 23 1019 73 10000 4.6 310 21:42 29.08.2019
2621 Thunderstorm 23 1019 73 10000 4.6 310 21:22 29.08.2019
2622 Clouds 23 1018 65 10000 3.1 300 21:22 29.08.2019
2623 Clouds 23 1018 65 10000 3.1 300 20:59 29.08.2019
2624 Clouds 24 1018 65 10000 3.1 300 20:41 29.08.2019
2625 Rain 24 1018 69 10000 3.1 320 20:20 29.08.2019
2626 Thunderstorm 24 1018 53 10000 7.2 320 19:57 29.08.2019
2627 Thunderstorm 25 1018 53 10000 7.2 320 19:39 29.08.2019
2628 Thunderstorm 25 1018 44 10000 10.8 310 19:21 29.08.2019
2629 Thunderstorm 27 1017 54 10000 2.1 0 18:41 29.08.2019
2630 Thunderstorm 28 1017 51 10000 4.1 180 18:20 29.08.2019
2631 Thunderstorm 29 1017 51 10000 3.1 170 17:56 29.08.2019
2632 Clouds 29 1017 51 10000 4.1 180 17:38 29.08.2019
2633 Clouds 30 1017 51 10000 4.1 180 17:19 29.08.2019
2634 Clouds 31 1017 51 10000 2.1 70 16:55 29.08.2019
2635 Clouds 31 1017 51 10000 2.1 70 16:36 29.08.2019
2636 Clouds 31 1017 51 10000 3.6 80 16:18 29.08.2019
2637 Clouds 31 1018 48 10000 3.1 60 15:38 29.08.2019
2638 Clouds 31 1018 48 10000 2.6 60 15:20 29.08.2019
2639 Clear 31 1018 43 10000 2.1 0 14:50 29.08.2019
2640 Clear 31 1018 43 10000 2.1 0 14:23 29.08.2019
2641 Clouds 31 1018 48 10000 2.1 0 13:59 29.08.2019
2642 Clouds 30 1018 51 10000 2.6 60 13:39 29.08.2019
2643 Clouds 30 1018 48 10000 2.1 0 13:20 29.08.2019
2644 Clouds 30 1018 48 10000 2.1 0 12:59 29.08.2019
2645 Clear 30 1018 51 10000 1.5 0 12:39 29.08.2019
2646 Clear 28 1018 54 10000 2.1 350 12:21 29.08.2019
2647 Clear 28 1018 54 10000 2.1 350 11:58 29.08.2019
2648 Clear 28 1018 54 10000 3.1 320 11:38 29.08.2019
2649 Clear 27 1018 57 10000 3.6 330 11:19 29.08.2019
2650 Clear 27 1018 57 10000 3.1 320 10:44 29.08.2019
2651 Clear 26 1018 57 10000 3.1 320 10:25 29.08.2019
2652 Clear 25 1018 65 10000 1 0 09:54 29.08.2019
2653 Clear 24 1018 69 10000 1 0 09:36 29.08.2019
2654 Clear 23 1018 73 10000 2.1 200 09:18 29.08.2019
2655 Clear 22 1018 78 10000 2.1 190 08:40 29.08.2019
2656 Clear 21 1018 83 10000 1 0 08:22 29.08.2019
2657 Clear 20 1018 83 10000 1 0 07:50 29.08.2019
2658 Clear 19 1017 77 10000 2.1 230 07:27 29.08.2019
2659 Fog 18 1017 82 10000 1.5 160 06:48 29.08.2019
2660 Fog 18 1017 82 10000 1.5 160 06:30 29.08.2019
2661 Clear 18 1016 88 10000 2.1 140 05:43 29.08.2019
2662 Clear 18 1016 83 10000 0.5 0 04:51 29.08.2019
2663 Clear 19 1016 83 10000 0.5 0 04:29 29.08.2019
2664 Clear 19 1016 83 10000 4.1 160 03:35 29.08.2019
2665 Clear 20 1017 78 10000 3.1 170 01:50 29.08.2019
2666 Clear 21 1017 78 10000 3.1 170 01:30 29.08.2019
2667 Clear 21 1017 78 10000 3.1 170 00:45 29.08.2019
2668 Clear 22 1017 73 10000 3.6 170 00:21 29.08.2019
2669 Clear 22 1017 73 10000 3.6 170 00:21 29.08.2019
2670 Clear 22 1017 73 10000 3.6 160 23:44 28.08.2019
2671 Clear 22 1017 73 10000 3.6 160 23:26 28.08.2019
2672 Clear 22 1017 78 10000 3.6 170 22:59 28.08.2019
2673 Clear 23 1017 73 10000 4.1 170 22:39 28.08.2019
2674 Clear 23 1017 73 10000 3.1 160 22:19 28.08.2019
2675 Clear 23 1017 73 10000 3.1 160 21:59 28.08.2019
2676 Clear 24 1017 69 10000 1.5 150 21:39 28.08.2019
2677 Clear 24 1017 69 10000 1.5 150 21:39 28.08.2019
2678 Clear 25 1016 65 10000 2.1 120 21:21 28.08.2019
2679 Clear 26 1016 57 10000 3.1 140 20:46 28.08.2019
2680 Clear 26 1016 57 10000 3.1 140 20:27 28.08.2019
2681 Clear 27 1016 51 10000 3.1 140 19:59 28.08.2019
2682 Clear 28 1016 51 10000 3.1 140 19:40 28.08.2019
2683 Clear 28 1016 48 10000 3.1 140 19:21 28.08.2019
2684 Clear 29 1016 48 10000 3.1 140 18:56 28.08.2019
2685 Clear 29 1016 45 10000 4.6 150 18:36 28.08.2019
2686 Clear 30 1017 48 10000 6.2 150 18:18 28.08.2019
2687 Clear 30 1017 45 10000 4.6 150 17:37 28.08.2019
2688 Clear 30 1017 45 10000 5.7 150 17:19 28.08.2019
2689 Clear 30 1017 45 10000 6.7 160 16:43 28.08.2019
2690 Clear 30 1017 48 10000 6.7 150 16:21 28.08.2019
2691 Clear 30 1017 48 10000 6.7 150 15:59 28.08.2019
2692 Clear 30 1017 48 10000 7.2 140 15:37 28.08.2019
2693 Clear 30 1017 48 10000 6.7 140 15:19 28.08.2019
2694 Clear 30 1017 48 10000 6.7 140 14:56 28.08.2019
2695 Clear 30 1018 45 10000 6.7 140 14:38 28.08.2019
2696 Clear 30 1018 48 10000 6.7 140 14:19 28.08.2019
2697 Clear 30 1018 48 10000 6.7 140 13:57 28.08.2019
2698 Clear 30 1018 48 10000 5.7 130 13:37 28.08.2019
2699 Clear 30 1018 51 10000 5.7 140 13:18 28.08.2019
2700 Clear 29 1018 58 10000 5.1 130 12:41 28.08.2019
2701 Clear 29 1018 58 10000 5.1 130 12:23 28.08.2019
2702 Clear 29 1018 58 10000 5.1 130 12:23 28.08.2019
2703 Clear 28 1018 61 10000 5.1 130 11:55 28.08.2019
2704 Clear 28 1018 61 10000 4.6 130 11:36 28.08.2019
2705 Clear 27 1018 65 10000 4.6 120 11:18 28.08.2019
2706 Clear 27 1018 69 10000 4.1 100 10:41 28.08.2019
2707 Clear 26 1018 69 10000 4.1 100 10:21 28.08.2019
2708 Clear 25 1018 73 10000 4.1 120 09:59 28.08.2019
2709 Clear 24 1018 78 10000 4.6 120 09:40 28.08.2019
2710 Clear 23 1018 73 10000 4.6 140 09:19 28.08.2019
2711 Clear 21 1018 78 10000 3.1 120 08:39 28.08.2019
2712 Clear 21 1018 83 10000 3.6 110 08:20 28.08.2019
2713 Clear 20 1018 83 10000 3.1 100 07:43 28.08.2019
2714 Clear 20 1018 83 10000 3.1 100 07:24 28.08.2019
2715 Clear 19 1018 88 10000 2.1 130 06:55 28.08.2019
2716 Clear 19 1018 83 10000 3.1 130 06:36 28.08.2019
2717 Clear 19 1018 83 10000 1.5 110 05:43 28.08.2019
2718 Clear 20 1019 83 10000 3.6 110 03:32 28.08.2019
2719 Clear 21 1019 88 10000 3.1 160 01:37 28.08.2019
2720 Clear 21 1019 83 10000 3.6 160 01:18 28.08.2019
2721 Clear 22 1019 83 10000 2.6 140 00:41 28.08.2019
2722 Clear 22 1019 78 10000 2.6 150 23:59 27.08.2019
2723 Clear 23 1019 73 10000 4.1 140 23:39 27.08.2019
2724 Clear 23 1019 78 10000 3.1 150 23:21 27.08.2019
2725 Clear 23 1019 78 10000 3.1 150 22:54 27.08.2019
2726 Clear 23 1019 78 10000 3.1 140 22:36 27.08.2019
2727 Clear 23 1019 73 10000 3.1 140 22:18 27.08.2019
2728 Clear 24 1019 73 10000 3.1 140 21:54 27.08.2019
2729 Clear 24 1019 73 10000 2.1 120 21:36 27.08.2019
2730 Clear 25 1019 69 10000 2.1 120 21:18 27.08.2019
2731 Clear 25 1018 65 10000 2.1 110 20:41 27.08.2019
2732 Clear 25 1018 61 10000 2.6 110 20:21 27.08.2019
2733 Clear 26 1018 61 10000 2.6 110 19:57 27.08.2019
2734 Clear 26 1018 54 10000 4.6 130 19:39 27.08.2019
2735 Clear 26 1018 54 10000 4.6 130 19:39 27.08.2019
2736 Clear 27 1018 54 10000 4.6 130 19:20 27.08.2019
2737 Rain 28 1018 51 10000 5.7 140 18:42 27.08.2019
2738 Rain 29 1018 51 10000 5.1 140 18:19 27.08.2019
2739 Rain 29 1018 51 10000 5.1 140 17:59 27.08.2019
2740 Clouds 29 1018 51 10000 6.2 140 17:41 27.08.2019
2741 Rain 29 1018 51 10000 6.2 140 17:22 27.08.2019
2742 Rain 30 1018 51 10000 6.2 130 16:47 27.08.2019
2743 Clouds 30 1018 51 10000 6.2 130 16:28 27.08.2019
2744 Clouds 30 1019 48 10000 6.2 140 15:58 27.08.2019
2745 Clouds 30 1019 48 10000 6.2 140 15:39 27.08.2019
2746 Clouds 30 1019 51 10000 5.7 130 15:20 27.08.2019
2747 Clouds 30 1019 51 10000 5.7 130 14:55 27.08.2019
2748 Clouds 30 1020 54 10000 5.7 130 14:37 27.08.2019
2749 Clouds 29 1020 54 10000 5.1 140 14:18 27.08.2019
2750 Clouds 29 1020 61 10000 3.1 0 13:41 27.08.2019
2751 Clouds 28 1020 65 10000 4.6 120 13:21 27.08.2019
2752 Clouds 28 1020 65 10000 4.6 120 12:55 27.08.2019
2753 Clouds 28 1020 65 10000 3.6 130 12:36 27.08.2019
2754 Clouds 27 1020 65 10000 3.1 130 12:18 27.08.2019
2755 Clouds 27 1020 73 10000 3.6 110 11:42 27.08.2019
2756 Clouds 26 1020 73 10000 3.6 110 11:22 27.08.2019
2757 Clouds 25 1020 78 10000 3.6 110 10:41 27.08.2019
2758 Clouds 24 1020 78 10000 3.6 110 10:20 27.08.2019
2759 Clouds 23 1020 78 10000 3.6 110 09:57 27.08.2019
2760 Clouds 23 1020 83 10000 3.1 120 09:38 27.08.2019
2761 Clouds 22 1020 83 10000 3.1 120 09:19 27.08.2019
2762 Clouds 20 1019 88 10000 2.1 110 08:46 27.08.2019
2763 Clouds 20 1019 88 10000 2.1 110 08:26 27.08.2019
2764 Fog 19 1019 93 6000 2.1 150 07:56 27.08.2019
2765 Fog 19 1019 93 6000 2.1 150 07:37 27.08.2019
2766 Mist 19 1019 93 5000 2.6 110 07:18 27.08.2019
2767 Mist 19 1019 93 5000 2.1 140 06:48 27.08.2019
2768 Mist 18 1019 93 5000 2.1 140 06:20 27.08.2019
2769 Mist 18 1019 93 4200 1.5 90 05:29 27.08.2019
2770 Clouds 18 1019 88 7000 2.6 100 04:20 27.08.2019
2771 Clouds 19 1019 94 8000 3.6 100 03:31 27.08.2019
2772 Clear 19 1019 94 10000 1.5 90 01:55 27.08.2019
2773 Clear 19 1019 94 10000 1 0 01:30 27.08.2019
2774 Clear 20 1019 88 10000 0.5 0 00:50 27.08.2019
2775 Clear 20 1020 88 10000 1.5 140 00:29 27.08.2019
2776 Clear 20 1020 88 10000 2.1 130 23:54 26.08.2019
2777 Clear 21 1020 88 10000 2.1 110 23:36 26.08.2019
2778 Clear 21 1020 88 10000 2.1 110 23:18 26.08.2019
2779 Clear 21 1020 78 10000 2.1 110 22:38 26.08.2019
2780 Clear 21 1020 78 10000 2.1 110 22:19 26.08.2019
2781 Clear 21 1020 78 10000 2.1 120 21:55 26.08.2019
2782 Clear 21 1020 78 10000 2.1 120 21:37 26.08.2019
2783 Clear 22 1020 78 10000 2.6 110 21:18 26.08.2019
2784 Clear 22 1020 78 10000 3.1 120 20:41 26.08.2019
2785 Clear 23 1019 78 10000 3.1 120 20:22 26.08.2019
2786 Clear 23 1019 78 10000 3.1 120 19:59 26.08.2019
2787 Clear 23 1019 78 10000 3.1 120 19:41 26.08.2019
2788 Clear 24 1019 78 10000 3.6 130 19:41 26.08.2019
2789 Clear 24 1019 78 10000 3.6 130 19:19 26.08.2019
2790 Clear 24 1019 69 10000 3.6 130 18:55 26.08.2019
2791 Clear 26 1019 64 10000 4.6 130 18:37 26.08.2019
2792 Clear 26 1019 64 10000 4.6 130 18:18 26.08.2019
2793 Clear 26 1019 69 10000 5.1 130 17:43 26.08.2019
2794 Clear 27 1020 69 10000 4.6 150 17:19 26.08.2019
2795 Clouds 27 1020 69 10000 3.1 140 16:57 26.08.2019
2796 Clear 27 1020 64 10000 5.1 140 16:38 26.08.2019
2797 Clear 27 1020 64 10000 5.1 140 16:18 26.08.2019
2798 Clear 26 1020 61 0 2.1 50 15:42 26.08.2019
2799 Clouds 26 1020 78 10000 2.6 80 15:22 26.08.2019
2800 Clouds 27 1020 57 0 5.1 90 14:58 26.08.2019
2801 Clouds 27 1020 57 0 5.1 90 14:38 26.08.2019
2802 Clouds 27 1021 78 10000 4.1 70 14:19 26.08.2019
2803 Clouds 27 1020 57 0 5.1 130 13:43 26.08.2019
2804 Thunderstorm 27 1020 57 0 5.1 160 13:23 26.08.2019
2805 Thunderstorm 27 1021 61 0 5.1 140 12:56 26.08.2019
2806 Rain 26 1021 61 0 4.1 100 12:37 26.08.2019
2807 Rain 26 1021 61 0 4.1 100 12:19 26.08.2019
2808 Clouds 25 1022 78 10000 4.1 140 11:38 26.08.2019
2809 Clouds 25 1022 78 10000 1.5 110 11:20 26.08.2019
2810 Clear 25 1021 73 0 3.1 80 10:57 26.08.2019
2811 Rain 24 1021 83 10000 2.1 150 10:39 26.08.2019
2812 Thunderstorm 24 1022 83 10000 2.1 150 10:18 26.08.2019
2813 Thunderstorm 23 1022 83 10000 2.6 120 09:42 26.08.2019
2814 Clear 22 1021 83 10000 1.5 230 09:23 26.08.2019
2815 Clear 21 1021 83 10000 2.6 250 08:56 26.08.2019
2816 Clear 20 1021 88 10000 2.1 260 08:38 26.08.2019
2817 Clear 19 1021 88 10000 2.1 260 08:19 26.08.2019
2818 Clear 19 1021 93 10000 0.5 0 07:42 26.08.2019
2819 Fog 18 1021 100 4300 1.5 80 07:24 26.08.2019
2820 Fog 18 1021 100 3300 2.1 110 06:57 26.08.2019
2821 Fog 18 1020 93 3300 1.5 170 06:38 26.08.2019
2822 Fog 18 1020 93 3300 1.5 170 06:18 26.08.2019
2823 Clouds 18 1020 93 7000 1.5 200 04:36 26.08.2019
2824 Clouds 18 1020 100 9000 1 140 03:49 26.08.2019
2825 Clouds 19 1020 93 8000 1.5 120 02:38 26.08.2019
2826 Clouds 20 1020 94 10000 1 0 01:23 26.08.2019
2827 Clouds 20 1021 83 10000 1 0 00:44 26.08.2019
2828 Clouds 20 1021 83 10000 1 0 00:44 26.08.2019
2829 Clouds 20 1021 88 10000 0.5 0 00:25 26.08.2019
2830 Clouds 20 1021 88 10000 1.5 150 23:45 25.08.2019
2831 Clouds 21 1021 94 10000 2.1 110 23:20 25.08.2019
2832 Clouds 21 1021 94 10000 1.5 80 22:59 25.08.2019
2833 Rain 21 1021 88 10000 2.1 40 22:40 25.08.2019
2834 Rain 21 1021 88 10000 2.1 40 22:20 25.08.2019
2835 Rain 21 1021 83 10000 4.1 90 21:58 25.08.2019
2836 Rain 21 1021 83 10000 4.1 90 21:58 25.08.2019
2837 Rain 22 1021 83 10000 4.1 90 21:39 25.08.2019
2838 Clouds 22 1021 83 10000 2.1 60 21:19 25.08.2019
2839 Clouds 23 1020 83 10000 2.1 30 20:55 25.08.2019
2840 Clouds 23 1020 83 10000 2.1 30 20:55 25.08.2019
2841 Clear 23 1020 78 10000 2.1 40 20:36 25.08.2019
2842 Clear 23 1020 78 10000 2.1 40 20:18 25.08.2019
2843 Clear 24 1020 73 10000 2.6 60 19:40 25.08.2019
2844 Clear 25 1020 73 10000 2.6 60 19:21 25.08.2019
2845 Clouds 25 1020 69 10000 3.1 60 18:58 25.08.2019
2846 Clouds 25 1020 61 10000 3.6 60 18:40 25.08.2019
2847 Clouds 26 1020 61 10000 3.6 60 18:22 25.08.2019
2848 Clouds 26 1020 65 10000 3.6 60 17:56 25.08.2019
2849 Clouds 27 1020 65 10000 3.6 60 17:38 25.08.2019
2850 Clouds 27 1020 61 10000 3.1 90 17:19 25.08.2019
2851 Rain 27 1020 61 10000 3.1 70 16:40 25.08.2019
2852 Rain 27 1020 61 10000 3.1 70 16:22 25.08.2019
2853 Clouds 27 1020 61 10000 2.1 0 15:47 25.08.2019
2854 Clouds 27 1021 61 10000 2.6 60 15:26 25.08.2019
2855 Clouds 26 1021 69 10000 2.6 70 14:56 25.08.2019
2856 Clouds 26 1021 69 10000 2.6 70 14:38 25.08.2019
2857 Clouds 26 1021 69 10000 2.6 100 14:19 25.08.2019
2858 Clouds 26 1021 73 10000 2.1 0 13:43 25.08.2019
2859 Clouds 25 1021 78 10000 1.5 20 13:21 25.08.2019
2860 Clouds 25 1021 83 10000 1 0 12:54 25.08.2019
2861 Clouds 25 1021 78 0 2.1 70 12:36 25.08.2019
2862 Clouds 24 1021 78 0 2.1 70 12:18 25.08.2019
2863 Clouds 24 1021 83 10000 1.5 180 11:54 25.08.2019
2864 Clouds 23 1021 83 10000 1.5 180 11:36 25.08.2019
2865 Clouds 23 1021 83 10000 5.1 40 11:18 25.08.2019
2866 Clouds 22 1021 88 10000 2.1 240 10:40 25.08.2019
2867 Clouds 21 1021 88 10000 1 0 10:20 25.08.2019
2868 Rain 21 1021 82 10000 1.5 190 09:56 25.08.2019
2869 Rain 21 1021 82 10000 1.5 190 09:37 25.08.2019
2870 Rain 20 1022 88 10000 3.1 200 09:19 25.08.2019
2871 Rain 19 1022 88 10000 1.5 180 08:42 25.08.2019
2872 Rain 19 1021 88 10000 2.6 220 08:21 25.08.2019
2873 Rain 19 1021 93 10000 3.1 150 07:35 25.08.2019
2874 Rain 18 1021 93 10000 1.5 330 06:51 25.08.2019
2875 Rain 18 1020 93 10000 3.6 50 06:22 25.08.2019
2876 Rain 18 1021 88 10000 1 0 04:41 25.08.2019
2877 Rain 19 1021 88 10000 2.6 180 03:36 25.08.2019
2878 Rain 19 1021 88 10000 2.6 200 02:39 25.08.2019
2879 Rain 19 1020 88 10000 1.5 110 01:28 25.08.2019
2880 Rain 20 1021 82 10000 4.1 170 00:40 25.08.2019
2881 Rain 21 1021 82 10000 4.1 170 00:21 25.08.2019
2882 Rain 21 1021 72 10000 4.6 140 23:52 24.08.2019
2883 Thunderstorm 21 1022 64 10000 9.3 180 23:22 24.08.2019
2884 Clouds 22 1021 56 10000 7.7 220 22:56 24.08.2019
2885 Clouds 22 1021 68 10000 9.3 200 22:38 24.08.2019
2886 Clouds 22 1021 68 10000 9.3 200 22:19 24.08.2019
2887 Clouds 22 1021 68 10000 9.3 200 22:19 24.08.2019
2888 Clouds 22 1020 68 10000 3.1 200 21:56 24.08.2019
2889 Clouds 22 1020 68 10000 3.1 200 21:37 24.08.2019
2890 Clouds 23 1020 64 10000 2.6 210 21:19 24.08.2019
2891 Clouds 23 1020 64 10000 3.1 190 20:55 24.08.2019
2892 Clouds 23 1020 64 10000 3.1 190 20:55 24.08.2019
2893 Clouds 24 1020 64 10000 3.1 190 20:37 24.08.2019
2894 Clouds 24 1020 60 10000 4.1 180 20:18 24.08.2019
2895 Clouds 25 1020 54 10000 2.6 230 19:55 24.08.2019
2896 Clouds 25 1020 54 10000 2.6 230 19:37 24.08.2019
2897 Clouds 26 1020 54 10000 2.6 160 19:18 24.08.2019
2898 Clouds 27 1020 42 10000 3.6 120 18:41 24.08.2019
2899 Clouds 28 1020 42 10000 3.6 120 18:21 24.08.2019
2900 Clouds 29 1020 40 10000 4.1 100 17:45 24.08.2019
2901 Clouds 29 1020 38 10000 4.1 120 17:25 24.08.2019
2902 Clouds 30 1020 38 10000 4.6 140 16:51 24.08.2019
2903 Clouds 30 1020 40 10000 4.6 110 16:21 24.08.2019
2904 Clouds 30 1020 42 10000 4.6 100 15:59 24.08.2019
2905 Clouds 30 1020 42 10000 4.1 120 15:41 24.08.2019
2906 Clouds 30 1020 42 10000 4.1 120 15:23 24.08.2019
2907 Clouds 30 1021 42 10000 3.6 120 14:44 24.08.2019
2908 Clouds 30 1021 45 10000 4.1 130 14:23 24.08.2019
2909 Clouds 30 1021 45 10000 3.6 120 13:59 24.08.2019
2910 Clouds 30 1021 45 10000 3.6 120 13:40 24.08.2019
2911 Clouds 30 1021 48 10000 3.6 110 13:21 24.08.2019
2912 Clear 29 1022 54 10000 2.6 50 12:58 24.08.2019
2913 Clear 29 1022 54 10000 2.6 50 12:39 24.08.2019
2914 Clear 29 1022 51 10000 2.6 110 12:20 24.08.2019
2915 Clear 27 1022 65 10000 1.5 50 11:45 24.08.2019
2916 Clear 27 1022 65 10000 1.5 50 11:22 24.08.2019
2917 Clear 26 1023 65 10000 1.5 0 10:52 24.08.2019
2918 Clear 25 1023 64 10000 1 0 10:24 24.08.2019
2919 Clear 24 1023 69 10000 1 0 09:45 24.08.2019
2920 Clear 22 1023 73 10000 1 0 09:23 24.08.2019
2921 Clear 22 1023 77 10000 1 0 08:59 24.08.2019
2922 Clear 21 1023 77 10000 1 0 08:40 24.08.2019
2923 Clear 20 1023 82 10000 1 0 08:22 24.08.2019
2924 Clear 19 1023 82 10000 1 0 07:49 24.08.2019
2925 Clear 18 1022 93 10000 1 360 07:27 24.08.2019
2926 Clear 18 1022 93 10000 1 360 07:27 24.08.2019
2927 Clear 17 1022 88 10000 1.5 10 06:30 24.08.2019
2928 Clear 17 1022 88 10000 1 0 05:42 24.08.2019
2929 Clear 17 1023 88 10000 0.5 0 05:22 24.08.2019
2930 Clear 18 1023 82 10000 1.5 20 03:38 24.08.2019
2931 Rain 18 1023 82 10000 1.5 320 02:27 24.08.2019
2932 Clear 19 1023 82 10000 1.5 340 01:38 24.08.2019
2933 Clear 19 1023 73 10000 0.5 0 01:18 24.08.2019
2934 Clear 19 1023 77 10000 1.5 340 00:41 24.08.2019
2935 Clear 19 1023 73 10000 1 140 00:18 24.08.2019
2936 Clear 19 1023 77 10000 1.5 60 23:42 23.08.2019
2937 Clear 20 1023 68 10000 1.5 110 23:19 23.08.2019
2938 Clear 20 1023 68 10000 1.5 150 22:43 23.08.2019
2939 Clear 20 1023 73 10000 1 120 22:24 23.08.2019
2940 Clear 21 1024 68 10000 1.5 110 21:54 23.08.2019
2941 Clear 21 1024 68 10000 1.5 110 21:36 23.08.2019
2942 Clear 22 1023 60 10000 2.1 90 21:18 23.08.2019
2943 Rain 23 1023 60 10000 2.1 70 20:40 23.08.2019
2944 Rain 23 1023 57 10000 1.5 70 20:22 23.08.2019
2945 Clear 24 1023 50 10000 2.1 70 19:45 23.08.2019
2946 Clear 26 1023 47 10000 1.5 70 19:19 23.08.2019
2947 Clear 26 1023 47 10000 1.5 70 18:54 23.08.2019
2948 Clear 26 1023 47 10000 1 0 18:36 23.08.2019
2949 Clear 27 1023 47 10000 1 0 18:18 23.08.2019
2950 Clear 27 1023 47 10000 1.5 0 17:41 23.08.2019
2951 Clear 27 1023 47 10000 1 0 17:21 23.08.2019
2952 Clear 27 1024 47 10000 2.1 30 16:49 23.08.2019
2953 Clear 27 1024 44 10000 1 0 16:30 23.08.2019
2954 Clear 27 1024 47 10000 1.5 0 15:59 23.08.2019
2955 Clear 27 1024 47 10000 1.5 0 15:39 23.08.2019
2956 Clear 27 1025 47 10000 1.5 0 15:21 23.08.2019
2957 Clear 26 1025 47 10000 3.1 320 14:44 23.08.2019
2958 Clear 26 1025 47 10000 2.1 0 14:21 23.08.2019
2959 Clear 26 1025 50 10000 3.1 340 13:59 23.08.2019
2960 Clouds 26 1025 53 10000 2.6 320 13:41 23.08.2019
2961 Clouds 26 1025 53 10000 2.6 320 13:23 23.08.2019
2962 Clouds 25 1026 53 10000 2.1 0 12:58 23.08.2019
2963 Clouds 25 1026 53 10000 2.1 0 12:40 23.08.2019
2964 Rain 24 1026 56 10000 3.1 320 12:21 23.08.2019
2965 Rain 23 1026 60 10000 2.6 330 11:57 23.08.2019
2966 Rain 22 1026 60 10000 2.6 330 11:39 23.08.2019
2967 Clouds 23 1026 60 10000 3.1 320 11:19 23.08.2019
2968 Clouds 22 1026 64 10000 3.1 360 10:55 23.08.2019
2969 Clouds 22 1026 64 10000 3.1 360 10:37 23.08.2019
2970 Rain 21 1026 68 10000 2.6 360 10:18 23.08.2019
2971 Rain 20 1026 68 10000 3.1 350 09:43 23.08.2019
2972 Clouds 19 1026 68 10000 3.1 350 09:20 23.08.2019
2973 Clouds 18 1026 68 10000 2.1 360 08:45 23.08.2019
2974 Clouds 18 1026 72 10000 3.1 340 08:21 23.08.2019
2975 Clouds 18 1026 72 10000 2.6 330 07:57 23.08.2019
2976 Clouds 17 1026 72 10000 2.1 330 07:38 23.08.2019
2977 Clouds 17 1026 72 10000 2.1 330 07:20 23.08.2019
2978 Clouds 17 1026 77 10000 3.1 340 06:41 23.08.2019
2979 Clouds 16 1025 82 10000 2.1 340 06:22 23.08.2019
2980 Clouds 16 1025 77 10000 3.1 340 05:44 23.08.2019
2981 Clouds 17 1025 77 10000 3.1 340 05:24 23.08.2019
2982 Clouds 17 1025 77 10000 2.1 350 03:46 23.08.2019
2983 Clouds 18 1025 72 10000 2.6 330 02:38 23.08.2019
2984 Clouds 18 1025 72 10000 2.1 350 02:20 23.08.2019
2985 Clouds 18 1025 72 10000 2.1 350 02:20 23.08.2019
2986 Clouds 19 1025 72 10000 2.6 340 00:58 23.08.2019
2987 Clouds 19 1025 72 10000 3.1 340 00:39 23.08.2019
2988 Clouds 19 1025 72 10000 3.1 340 00:18 23.08.2019
2989 Clouds 19 1025 68 10000 2.6 330 23:41 22.08.2019
2990 Clouds 19 1025 68 10000 2.6 330 23:21 22.08.2019
2991 Clouds 20 1025 73 10000 2.6 330 22:42 22.08.2019
2992 Clouds 20 1025 73 10000 2.1 340 22:24 22.08.2019
2993 Clouds 20 1025 73 10000 2.1 340 22:24 22.08.2019
2994 Clouds 20 1025 73 10000 1.5 350 21:59 22.08.2019
2995 Clouds 20 1025 73 10000 1.5 350 21:40 22.08.2019
2996 Clouds 21 1025 68 10000 2.1 340 21:22 22.08.2019
2997 Clouds 21 1024 64 10000 2.1 340 20:58 22.08.2019
2998 Clouds 21 1024 64 10000 2.1 340 20:40 22.08.2019
2999 Clouds 21 1024 64 10000 2.1 330 20:20 22.08.2019
3000 Clouds 22 1024 64 10000 1.5 340 19:57 22.08.2019
3001 Clouds 23 1024 60 10000 2.1 340 19:38 22.08.2019
3002 Clouds 23 1024 60 10000 2.1 340 19:20 22.08.2019
3003 Clouds 23 1024 60 10000 2.6 340 18:57 22.08.2019
3004 Clouds 23 1024 60 10000 2.6 340 18:39 22.08.2019
3005 Clouds 23 1024 60 10000 2.6 340 18:19 22.08.2019
3006 Clouds 24 1024 57 10000 3.1 340 17:54 22.08.2019
3007 Clouds 24 1024 57 10000 2.6 360 17:36 22.08.2019
3008 Clouds 24 1024 56 10000 1.5 10 17:18 22.08.2019
3009 Clouds 24 1024 56 10000 1.5 10 16:56 22.08.2019
3010 Clouds 24 1024 56 10000 1.5 10 16:37 22.08.2019
3011 Clouds 24 1024 53 10000 1.5 0 16:18 22.08.2019
3012 Clouds 24 1024 53 10000 1.5 0 16:18 22.08.2019
3013 Clouds 24 1024 53 10000 1.5 0 16:18 22.08.2019
3014 Clouds 24 1024 57 10000 1.5 0 15:41 22.08.2019
3015 Clouds 24 1024 57 10000 1.5 0 15:41 22.08.2019
3016 Clouds 24 1024 57 10000 1.5 0 15:41 22.08.2019
3017 Clouds 24 1025 60 10000 2.6 340 15:22 22.08.2019
3018 Clouds 23 1025 60 10000 2.6 340 15:22 22.08.2019
3019 Clouds 23 1025 56 10000 3.1 310 14:57 22.08.2019
3020 Clouds 23 1025 56 10000 3.1 310 14:39 22.08.2019
3021 Clouds 23 1025 60 10000 2.1 20 14:19 22.08.2019
3022 Clouds 22 1025 64 10000 3.1 360 13:56 22.08.2019
3023 Clouds 22 1025 64 10000 3.1 360 13:38 22.08.2019
3024 Clouds 22 1025 64 10000 2.6 340 13:18 22.08.2019
3025 Clouds 21 1025 68 10000 2.6 350 12:40 22.08.2019
3026 Clouds 20 1026 68 10000 2.6 340 12:22 22.08.2019
3027 Clouds 20 1026 72 10000 2.6 340 11:58 22.08.2019
3028 Clouds 19 1026 72 10000 2.6 340 11:40 22.08.2019
3029 Clouds 19 1026 72 10000 2.6 320 11:19 22.08.2019
3030 Clouds 19 1026 72 10000 3.1 320 10:57 22.08.2019
3031 Clouds 18 1026 72 10000 3.1 320 10:38 22.08.2019
3032 Clouds 18 1025 77 10000 3.6 350 10:19 22.08.2019
3033 Clouds 17 1025 77 10000 4.6 340 09:54 22.08.2019
3034 Thunderstorm 17 1026 72 10000 4.1 320 09:36 22.08.2019
3035 Thunderstorm 16 1026 72 10000 4.1 320 09:18 22.08.2019
3036 Clouds 16 1026 77 10000 3.1 320 08:41 22.08.2019
3037 Clouds 16 1025 77 10000 4.6 330 08:21 22.08.2019
3038 Clouds 15 1025 77 10000 4.6 330 07:56 22.08.2019
3039 Clouds 15 1026 77 10000 3.6 320 07:38 22.08.2019
3040 Clouds 15 1026 77 10000 3.6 320 07:18 22.08.2019
3041 Rain 14 1025 77 10000 4.1 320 06:45 22.08.2019
3042 Rain 14 1025 77 10000 4.6 320 06:21 22.08.2019
3043 Clear 14 1026 77 10000 4.6 320 05:29 22.08.2019
3044 Clear 14 1026 77 10000 4.1 330 03:26 22.08.2019
3045 Clear 15 1026 72 10000 5.1 330 02:36 22.08.2019
3046 Clear 15 1027 72 10000 4.6 330 01:36 22.08.2019
3047 Clear 15 1027 72 10000 4.1 330 00:57 22.08.2019
3048 Clear 15 1027 72 10000 4.1 330 00:38 22.08.2019
3049 Clear 15 1027 72 10000 4.1 330 00:20 22.08.2019
3050 Clear 15 1027 72 10000 4.1 330 23:41 21.08.2019
3051 Clear 15 1027 72 10000 3.6 320 23:23 21.08.2019
3052 Clear 16 1027 72 10000 3.6 340 22:58 21.08.2019
3053 Clear 16 1027 72 10000 3.6 340 22:39 21.08.2019
3054 Clear 16 1027 72 10000 3.6 340 22:20 21.08.2019
3055 Clear 16 1027 68 10000 3.6 360 21:56 21.08.2019
3056 Clouds 17 1027 68 10000 4.1 340 21:38 21.08.2019
3057 Clouds 17 1027 68 10000 4.1 340 21:19 21.08.2019
3058 Clouds 18 1027 63 10000 4.1 330 20:56 21.08.2019
3059 Clouds 18 1027 63 10000 4.1 330 20:37 21.08.2019
3060 Clouds 19 1026 60 10000 4.6 340 20:19 21.08.2019
3061 Clouds 19 1026 60 10000 4.6 330 19:42 21.08.2019
3062 Clouds 20 1026 60 10000 5.1 340 19:24 21.08.2019
3063 Clouds 20 1026 60 10000 4.6 340 18:57 21.08.2019
3064 Clouds 20 1027 56 10000 5.1 340 18:38 21.08.2019
3065 Clouds 20 1027 56 10000 5.1 340 18:20 21.08.2019
3066 Clouds 20 1026 56 10000 6.2 340 17:45 21.08.2019
3067 Clouds 21 1026 60 10000 6.2 330 17:22 21.08.2019
3068 Clouds 21 1026 60 10000 6.2 330 16:58 21.08.2019
3069 Clouds 21 1026 60 10000 6.2 330 16:39 21.08.2019
3070 Clouds 21 1026 56 10000 6.7 330 16:20 21.08.2019
3071 Clouds 21 1027 60 10000 6.7 310 15:57 21.08.2019
3072 Clouds 21 1027 60 10000 6.7 310 15:57 21.08.2019
3073 Clouds 20 1027 60 10000 6.7 310 15:38 21.08.2019
3074 Clouds 20 1027 60 10000 6.2 310 15:19 21.08.2019
3075 Clouds 20 1027 63 10000 7.2 320 14:56 21.08.2019
3076 Clouds 20 1027 63 10000 7.2 320 14:38 21.08.2019
3077 Clouds 20 1027 63 10000 6.7 320 14:19 21.08.2019
3078 Clouds 19 1027 68 10000 6.7 320 13:43 21.08.2019
3079 Rain 19 1027 63 10000 8.2 320 13:21 21.08.2019
3080 Clouds 19 1027 60 10000 8.2 320 12:58 21.08.2019
3081 Clouds 19 1027 60 10000 8.2 320 12:40 21.08.2019
3082 Clouds 19 1027 60 10000 8.7 310 12:20 21.08.2019
3083 Clouds 19 1027 60 10000 8.7 310 12:20 21.08.2019
3084 Clouds 19 1027 60 10000 8.7 310 12:20 21.08.2019
3085 Clouds 19 1027 63 10000 8.7 320 11:56 21.08.2019
3086 Clouds 19 1027 63 10000 8.7 320 11:37 21.08.2019
3087 Clouds 19 1027 60 10000 9.3 320 11:19 21.08.2019
3088 Clouds 19 1026 63 10000 9.3 320 10:56 21.08.2019
3089 Clouds 19 1026 63 10000 9.3 320 10:37 21.08.2019
3090 Rain 19 1027 68 10000 8.2 310 10:19 21.08.2019
3091 Clouds 18 1026 68 10000 7.7 320 09:42 21.08.2019
3092 Clouds 18 1026 68 10000 8.2 310 09:23 21.08.2019
3093 Clouds 18 1026 68 10000 8.7 310 08:57 21.08.2019
3094 Clouds 18 1026 68 10000 8.7 310 08:38 21.08.2019
3095 Clouds 17 1026 68 10000 9.3 310 08:19 21.08.2019
3096 Clouds 17 1025 68 10000 9.3 310 07:40 21.08.2019
3097 Clouds 17 1025 68 10000 8.7 310 07:20 21.08.2019
3098 Clouds 17 1024 72 10000 9.3 310 06:47 21.08.2019
3099 Clouds 17 1024 72 10000 8.7 310 06:21 21.08.2019
3100 Clouds 17 1023 77 10000 8.7 310 05:38 21.08.2019
3101 Clouds 17 1023 77 10000 8.7 310 05:18 21.08.2019
3102 Clear 19 1020 68 10000 12.9 290 03:23 21.08.2019
3103 Clouds 21 1019 60 10000 9.8 290 01:42 21.08.2019
3104 Rain 22 1018 65 10000 9.3 280 00:44 21.08.2019
3105 Clear 23 1017 73 10000 2.1 120 00:23 21.08.2019
3106 Clear 23 1016 57 10000 5.7 170 23:56 20.08.2019
3107 Clear 23 1016 57 10000 5.7 170 23:38 20.08.2019
3108 Clear 23 1016 64 10000 3.6 170 23:18 20.08.2019
3109 Clear 23 1017 61 10000 3.1 150 22:55 20.08.2019
3110 Clear 23 1017 61 10000 3.1 150 22:36 20.08.2019
3111 Clear 24 1017 61 10000 4.1 150 22:18 20.08.2019
3112 Clear 24 1017 57 10000 3.1 150 21:56 20.08.2019
3113 Clear 25 1017 54 10000 4.6 160 21:37 20.08.2019
3114 Clear 25 1017 54 10000 4.6 160 21:18 20.08.2019
3115 Clear 26 1017 51 10000 4.6 150 20:42 20.08.2019
3116 Clear 26 1017 51 10000 4.6 150 20:42 20.08.2019
3117 Clear 26 1017 51 10000 4.6 150 20:42 20.08.2019
3118 Clear 26 1017 51 10000 4.1 150 20:24 20.08.2019
3119 Clear 27 1017 48 10000 3.1 120 19:54 20.08.2019
3120 Clear 27 1017 48 10000 3.1 120 19:36 20.08.2019
3121 Clear 27 1017 48 10000 3.1 120 19:36 20.08.2019
3122 Clear 27 1017 51 10000 2.6 70 19:18 20.08.2019
3123 Clouds 28 1017 45 10000 3.1 110 18:55 20.08.2019
3124 Clouds 28 1017 45 10000 3.1 110 18:55 20.08.2019
3125 Clouds 28 1017 45 10000 3.1 110 18:36 20.08.2019
3126 Clouds 29 1017 45 10000 3.1 110 18:18 20.08.2019
3127 Clouds 29 1018 45 10000 4.6 150 17:39 20.08.2019
3128 Clouds 29 1018 43 10000 5.7 130 17:20 20.08.2019
3129 Clouds 29 1018 48 10000 2.6 70 16:48 20.08.2019
3130 Clouds 29 1018 48 10000 2.6 70 16:28 20.08.2019
3131 Clouds 29 1018 51 10000 3.1 60 15:59 20.08.2019
3132 Clouds 29 1019 51 10000 2.6 60 15:41 20.08.2019
3133 Clouds 29 1019 51 10000 3.6 40 15:18 20.08.2019
3134 Clouds 28 1019 51 10000 2.1 0 14:55 20.08.2019
3135 Clouds 28 1019 51 10000 2.1 0 14:37 20.08.2019
3136 Clouds 28 1019 51 10000 2.1 0 14:37 20.08.2019
3137 Clouds 28 1019 54 10000 2.6 40 14:18 20.08.2019
3138 Clouds 28 1019 54 10000 2.6 40 14:18 20.08.2019
3139 Clouds 29 1019 54 10000 2.6 40 13:54 20.08.2019
3140 Clouds 28 1020 54 10000 2.1 350 13:36 20.08.2019
3141 Clouds 27 1020 61 10000 2.1 0 13:18 20.08.2019
3142 Clouds 27 1020 61 10000 2.6 20 12:44 20.08.2019
3143 Clouds 27 1020 61 10000 3.1 30 12:23 20.08.2019
3144 Clouds 26 1020 61 10000 3.1 30 11:55 20.08.2019
3145 Clouds 26 1020 61 10000 3.1 350 11:37 20.08.2019
3146 Clear 25 1020 64 10000 2.6 350 11:18 20.08.2019
3147 Clear 24 1020 64 10000 2.6 350 10:55 20.08.2019
3148 Clear 23 1020 69 10000 2.1 340 10:37 20.08.2019
3149 Clear 23 1020 73 10000 3.6 350 10:18 20.08.2019
3150 Clear 22 1020 73 10000 3.1 350 09:41 20.08.2019
3151 Rain 21 1020 77 10000 3.1 330 09:22 20.08.2019
3152 Rain 21 1020 77 10000 2.6 330 08:43 20.08.2019
3153 Rain 20 1020 77 10000 3.1 330 08:24 20.08.2019
3154 Rain 20 1020 77 10000 3.1 330 07:58 20.08.2019
3155 Clouds 20 1020 77 10000 2.1 330 07:40 20.08.2019
3156 Clouds 20 1020 77 10000 2.1 330 07:22 20.08.2019
3157 Clear 20 1019 82 10000 2.6 330 06:48 20.08.2019
3158 Clouds 19 1019 82 10000 3.1 330 06:22 20.08.2019
3159 Clouds 19 1019 73 10000 3.1 330 05:48 20.08.2019
3160 Clouds 19 1019 73 10000 2.1 330 04:45 20.08.2019
3161 Clouds 20 1019 77 10000 2.6 310 03:28 20.08.2019
3162 Clear 20 1019 68 10000 3.1 280 02:32 20.08.2019
3163 Clear 20 1019 77 10000 3.1 320 01:22 20.08.2019
3164 Clear 21 1019 69 10000 4.1 300 00:48 20.08.2019
3165 Clear 21 1019 69 10000 4.1 300 00:30 20.08.2019
3166 Clear 21 1019 73 10000 3.1 320 23:52 19.08.2019
3167 Clear 21 1019 73 10000 5.7 290 23:19 19.08.2019
3168 Clear 21 1019 73 10000 5.7 290 22:59 19.08.2019
3169 Rain 21 1018 60 10000 6.2 290 22:41 19.08.2019
3170 Rain 22 1018 50 10000 7.2 300 22:21 19.08.2019
3171 Rain 22 1018 50 10000 7.2 300 21:58 19.08.2019
3172 Rain 22 1018 47 10000 8.2 280 21:39 19.08.2019
3173 Clouds 24 1017 47 10000 3.1 310 21:20 19.08.2019
3174 Clouds 24 1018 47 10000 8.2 280 21:20 19.08.2019
3175 Clouds 25 1017 47 10000 3.1 310 20:59 19.08.2019
3176 Clouds 25 1017 50 10000 2.6 320 20:38 19.08.2019
3177 Clouds 26 1017 51 10000 2.6 320 20:20 19.08.2019
3178 Clouds 26 1017 51 10000 2.6 320 19:55 19.08.2019
3179 Clouds 26 1017 51 10000 2.6 320 19:55 19.08.2019
3180 Clouds 26 1017 51 10000 2.6 320 19:55 19.08.2019
3181 Clouds 27 1017 51 10000 2.6 320 19:37 19.08.2019
3182 Clouds 27 1017 35 10000 1 0 19:18 19.08.2019
3183 Clouds 27 1017 35 10000 1 0 19:18 19.08.2019
3184 Clouds 27 1017 35 10000 1 0 19:18 19.08.2019
3185 Clouds 29 1016 35 10000 2.1 340 18:44 19.08.2019
3186 Clouds 29 1016 35 10000 2.1 340 18:26 19.08.2019
3187 Clear 29 1016 33 10000 2.1 330 17:58 19.08.2019
3188 Clear 30 1016 33 10000 2.1 0 17:40 19.08.2019
3189 Clear 30 1016 33 10000 2.1 0 17:19 19.08.2019
3190 Clear 30 1017 37 10000 3.1 340 16:58 19.08.2019
3191 Clear 30 1017 37 10000 3.1 340 16:37 19.08.2019
3192 Clear 30 1017 35 10000 4.1 320 16:18 19.08.2019
3193 Clear 30 1017 35 10000 4.1 300 15:45 19.08.2019
3194 Clear 30 1017 37 10000 4.1 310 15:20 19.08.2019
3195 Clear 30 1017 37 10000 3.6 300 14:58 19.08.2019
3196 Clear 30 1017 37 10000 3.6 300 14:38 19.08.2019
3197 Clear 30 1017 42 10000 4.1 300 14:20 19.08.2019
3198 Clear 29 1017 42 10000 4.6 300 13:57 19.08.2019
3199 Clear 29 1017 42 10000 4.6 300 13:37 19.08.2019
3200 Clear 29 1017 42 10000 5.7 310 13:19 19.08.2019
3201 Clear 29 1017 45 10000 5.7 300 12:43 19.08.2019
3202 Clear 28 1017 42 10000 7.2 310 12:24 19.08.2019
3203 Clouds 28 1016 45 10000 7.2 300 11:57 19.08.2019
3204 Clouds 27 1016 45 10000 7.2 300 11:37 19.08.2019
3205 Clouds 27 1016 42 10000 8.2 310 11:18 19.08.2019
3206 Clouds 27 1016 47 10000 7.7 310 10:40 19.08.2019
3207 Clouds 26 1016 47 10000 9.8 310 10:19 19.08.2019
3208 Clear 25 1016 50 10000 7.2 310 09:57 19.08.2019
3209 Clear 25 1016 50 10000 7.2 310 09:39 19.08.2019
3210 Clear 25 1016 50 10000 7.2 310 09:39 19.08.2019
3211 Clear 24 1015 53 10000 7.7 310 09:21 19.08.2019
3212 Clear 23 1015 53 10000 7.7 310 08:46 19.08.2019
3213 Clear 22 1015 64 10000 3.6 310 08:25 19.08.2019
3214 Clear 21 1014 68 10000 4.1 310 07:59 19.08.2019
3215 Clear 21 1014 68 10000 4.1 310 07:40 19.08.2019
3216 Clear 20 1014 77 10000 2.6 290 07:21 19.08.2019
3217 Clear 19 1013 82 10000 1 150 06:42 19.08.2019
3218 Clear 18 1012 82 10000 4.1 120 05:54 19.08.2019
3219 Clear 19 1011 77 10000 3.6 120 04:35 19.08.2019
3220 Clear 19 1011 77 10000 4.1 120 03:59 19.08.2019
3221 Clear 20 1011 77 10000 4.1 120 03:19 19.08.2019
3222 Clear 21 1012 78 10000 4.6 120 01:46 19.08.2019
3223 Clear 22 1012 73 10000 4.6 160 00:59 19.08.2019
3224 Clear 22 1012 73 10000 4.6 150 00:37 19.08.2019
3225 Clear 22 1012 73 10000 4.6 150 00:18 19.08.2019
3226 Clear 23 1012 69 10000 4.6 160 23:40 18.08.2019
3227 Clear 23 1012 69 10000 5.1 160 23:20 18.08.2019
3228 Clear 23 1012 69 10000 5.1 160 23:20 18.08.2019
3229 Clear 24 1012 69 10000 5.7 150 22:40 18.08.2019
3230 Clear 25 1012 64 10000 5.1 150 22:22 18.08.2019
3231 Clear 26 1012 61 10000 5.1 150 21:58 18.08.2019
3232 Clear 26 1012 61 10000 5.1 150 21:40 18.08.2019
3233 Clear 27 1012 51 10000 4.6 150 21:20 18.08.2019
3234 Clear 28 1012 48 10000 4.6 140 20:58 18.08.2019
3235 Clear 28 1012 48 10000 4.6 140 20:40 18.08.2019
3236 Clear 29 1012 42 10000 5.7 140 20:22 18.08.2019
3237 Clear 31 1012 40 10000 5.7 150 19:42 18.08.2019
3238 Clear 31 1012 38 10000 6.7 150 19:24 18.08.2019
3239 Clear 32 1012 35 10000 8.2 150 18:59 18.08.2019
3240 Clear 32 1012 35 10000 8.2 150 18:40 18.08.2019
3241 Clear 33 1012 35 10000 7.7 150 18:21 18.08.2019
3242 Clear 33 1012 35 10000 7.7 150 18:21 18.08.2019
3243 Clear 33 1012 35 10000 6.7 140 17:55 18.08.2019
3244 Clear 33 1012 35 10000 6.7 140 17:37 18.08.2019
3245 Clear 33 1012 33 10000 6.2 140 17:18 18.08.2019
3246 Clear 33 1012 31 10000 5.1 130 16:55 18.08.2019
3247 Clear 33 1012 31 10000 5.1 130 16:37 18.08.2019
3248 Clear 33 1012 29 10000 4.6 130 16:18 18.08.2019
3249 Clear 32 1012 33 10000 5.7 130 15:40 18.08.2019
3250 Clear 32 1012 35 10000 5.1 130 15:20 18.08.2019
3251 Clear 32 1012 40 10000 4.6 130 14:58 18.08.2019
3252 Clear 32 1012 40 10000 4.6 130 14:40 18.08.2019
3253 Clear 31 1013 42 10000 4.1 140 14:19 18.08.2019
3254 Clear 31 1013 48 10000 4.1 150 13:57 18.08.2019
3255 Clear 29 1013 48 10000 4.1 150 13:39 18.08.2019
3256 Clear 29 1013 48 10000 4.6 130 13:20 18.08.2019
3257 Clear 28 1013 48 10000 4.6 140 12:54 18.08.2019
3258 Clear 27 1013 51 10000 4.1 120 12:36 18.08.2019
3259 Clear 27 1013 51 10000 4.1 120 12:18 18.08.2019
3260 Clear 26 1013 51 10000 3.6 120 11:41 18.08.2019
3261 Clear 25 1013 57 10000 3.1 90 11:22 18.08.2019
3262 Clear 23 1014 57 10000 2.1 120 10:56 18.08.2019
3263 Clear 23 1013 64 10000 2.6 110 10:38 18.08.2019
3264 Clear 22 1013 64 10000 2.6 110 10:18 18.08.2019
3265 Clear 20 1014 68 10000 2.6 110 09:42 18.08.2019
3266 Clear 20 1014 73 10000 2.6 90 09:19 18.08.2019
3267 Clear 19 1014 77 10000 3.1 110 08:43 18.08.2019
3268 Clear 19 1013 77 10000 1.5 70 08:25 18.08.2019
3269 Clear 19 1013 82 10000 2.1 130 07:53 18.08.2019
3270 Clear 19 1013 77 10000 1.5 140 07:29 18.08.2019
3271 Clear 18 1013 77 10000 1.5 180 06:19 18.08.2019
3272 Clear 18 1014 72 10000 2.1 190 04:59 18.08.2019
3273 Clear 19 1014 72 10000 2.6 180 03:46 18.08.2019
3274 Clear 18 1013 72 10000 1.5 160 02:50 18.08.2019
3275 Clear 19 1014 68 10000 1.5 0 02:32 18.08.2019
3276 Clear 19 1013 68 10000 2.1 150 01:53 18.08.2019
3277 Clear 19 1014 68 10000 1.5 190 01:25 18.08.2019
3278 Clear 19 1014 72 10000 3.6 160 00:40 18.08.2019
3279 Clear 19 1014 72 10000 1.5 170 00:19 18.08.2019
3280 Clear 19 1014 68 10000 1.5 140 23:57 17.08.2019
3281 Clear 19 1014 64 10000 3.1 170 23:37 17.08.2019
3282 Clear 19 1014 64 10000 3.1 170 23:19 17.08.2019
3283 Clear 20 1014 56 10000 2.6 170 22:57 17.08.2019
3284 Clear 20 1014 56 10000 2.6 170 22:38 17.08.2019
3285 Clear 20 1014 52 10000 2.1 170 22:20 17.08.2019
3286 Clear 21 1014 60 10000 1.5 100 21:43 17.08.2019
3287 Clear 22 1014 43 10000 0.5 0 21:25 17.08.2019
3288 Clear 22 1014 49 10000 1.5 0 20:58 17.08.2019
3289 Clear 24 1014 36 10000 2.1 0 20:37 17.08.2019
3290 Clear 24 1014 36 10000 2.1 0 20:18 17.08.2019
3291 Clear 25 1014 34 10000 2.6 310 19:43 17.08.2019
3292 Clear 25 1014 50 10000 1.5 360 19:24 17.08.2019
3293 Clear 25 1014 34 10000 3.1 140 18:58 17.08.2019
3294 Clear 25 1014 34 10000 3.1 140 18:38 17.08.2019
3295 Clear 25 1014 36 10000 2.1 20 18:18 17.08.2019
3296 Clear 26 1014 39 10000 2.6 30 17:43 17.08.2019
3297 Clear 26 1014 39 10000 2.6 30 17:22 17.08.2019
3298 Clear 26 1014 36 10000 2.1 70 16:57 17.08.2019
3299 Clear 26 1015 36 10000 3.1 20 16:38 17.08.2019
3300 Clear 26 1015 36 10000 3.1 20 16:20 17.08.2019
3301 Clear 26 1015 39 10000 1.5 0 15:54 17.08.2019
3302 Clear 26 1015 39 10000 2.1 120 15:36 17.08.2019
3303 Clear 26 1015 39 10000 2.1 120 15:18 17.08.2019
3304 Clear 26 1015 39 10000 2.1 0 14:40 17.08.2019
3305 Clear 25 1015 44 10000 2.1 130 14:22 17.08.2019
3306 Clouds 25 1016 44 10000 2.6 160 13:46 17.08.2019
3307 Clear 24 1016 50 10000 2.6 100 13:21 17.08.2019
3308 Clear 24 1016 53 10000 3.1 130 12:46 17.08.2019
3309 Clear 23 1016 53 10000 3.1 130 12:21 17.08.2019
3310 Clear 23 1017 56 10000 3.1 140 11:59 17.08.2019
3311 Clear 22 1017 56 10000 3.1 140 11:39 17.08.2019
3312 Clear 21 1017 56 10000 4.6 130 11:20 17.08.2019
3313 Clear 21 1016 56 10000 4.6 130 10:55 17.08.2019
3314 Clear 21 1016 56 10000 4.6 130 10:55 17.08.2019
3315 Clear 20 1017 64 10000 3.1 100 10:37 17.08.2019
3316 Clear 20 1017 64 10000 3.1 100 10:18 17.08.2019
3317 Clear 19 1017 63 10000 1.5 110 09:43 17.08.2019
3318 Clear 18 1017 59 10000 1.5 130 09:25 17.08.2019
3319 Fog 16 1017 59 10000 1 0 08:53 17.08.2019
3320 Fog 15 1017 72 10000 2.1 180 08:24 17.08.2019
3321 Clear 14 1017 77 10000 1.5 150 07:45 17.08.2019
3322 Clear 13 1017 82 10000 1.5 190 07:21 17.08.2019
3323 Fog 12 1017 87 10000 2.6 160 06:41 17.08.2019
3324 Clear 12 1017 87 10000 1.5 140 05:30 17.08.2019
3325 Clear 12 1017 87 10000 2.6 150 04:28 17.08.2019
3326 Clear 13 1017 82 10000 1.5 180 02:53 17.08.2019
3327 Clear 14 1018 77 10000 2.1 210 01:41 17.08.2019
3328 Clear 14 1018 72 10000 2.6 230 01:22 17.08.2019
3329 Clear 14 1018 72 10000 2.1 200 00:54 17.08.2019
3330 Clear 15 1018 67 10000 1.5 200 00:27 17.08.2019
3331 Clear 15 1018 77 10000 0.5 0 23:48 16.08.2019
3332 Clear 15 1018 82 10000 1.5 70 23:26 16.08.2019
3333 Clear 15 1018 63 10000 2.1 260 22:55 16.08.2019
3334 Clear 16 1018 63 10000 2.1 260 22:36 16.08.2019
3335 Clear 16 1018 63 10000 1.5 310 22:18 16.08.2019
3336 Clear 16 1018 63 10000 1.5 310 22:18 16.08.2019
3337 Clear 17 1018 63 10000 1.5 320 21:39 16.08.2019
3338 Clear 17 1018 60 10000 2.6 320 21:19 16.08.2019
3339 Clear 18 1017 60 10000 2.6 310 20:55 16.08.2019
3340 Clear 19 1017 56 10000 2.6 320 20:37 16.08.2019
3341 Clear 19 1017 56 10000 2.6 320 20:18 16.08.2019
3342 Clouds 20 1017 52 10000 3.6 330 19:40 16.08.2019
3343 Clouds 21 1017 49 10000 4.6 320 19:22 16.08.2019
3344 Clouds 21 1017 43 10000 5.7 310 18:43 16.08.2019
3345 Clouds 22 1017 46 10000 7.2 310 18:25 16.08.2019
3346 Clouds 22 1017 53 10000 5.7 300 17:56 16.08.2019
3347 Clouds 22 1017 44 10000 5.7 310 17:37 16.08.2019
3348 Clouds 22 1017 56 10000 5.7 320 17:18 16.08.2019
3349 Thunderstorm 21 1017 53 10000 8.7 310 16:41 16.08.2019
3350 Clouds 22 1017 46 10000 8.2 300 16:21 16.08.2019
3351 Clouds 21 1017 49 10000 8.7 290 15:57 16.08.2019
3352 Rain 20 1017 49 10000 8.7 290 15:39 16.08.2019
3353 Rain 21 1017 53 10000 7.7 300 15:21 16.08.2019
3354 Rain 22 1017 56 10000 6.7 310 14:57 16.08.2019
3355 Rain 22 1017 56 10000 6.7 310 14:38 16.08.2019
3356 Thunderstorm 23 1017 68 10000 5.1 320 14:19 16.08.2019
3357 Rain 22 1017 56 10000 6.7 310 13:41 16.08.2019
3358 Rain 22 1017 56 10000 6.7 310 13:41 16.08.2019
3359 Rain 22 1017 53 10000 3.6 320 13:23 16.08.2019
3360 Rain 22 1017 53 10000 5.7 320 12:56 16.08.2019
3361 Clouds 22 1018 56 10000 5.7 310 12:37 16.08.2019
3362 Clouds 22 1018 56 10000 5.7 310 12:19 16.08.2019
3363 Rain 21 1018 56 10000 6.2 300 11:42 16.08.2019
3364 Rain 21 1018 56 10000 7.7 310 11:23 16.08.2019
3365 Rain 21 1018 56 10000 7.7 310 11:23 16.08.2019
3366 Clouds 20 1018 60 10000 7.2 300 10:43 16.08.2019
3367 Clouds 20 1018 64 10000 6.2 300 10:25 16.08.2019
3368 Clouds 19 1017 64 10000 8.2 280 09:56 16.08.2019
3369 Clouds 19 1017 60 10000 6.2 290 09:37 16.08.2019
3370 Clouds 19 1017 60 10000 6.2 290 09:37 16.08.2019
3371 Clouds 19 1017 60 10000 6.2 290 09:37 16.08.2019
3372 Clouds 19 1017 60 10000 6.2 290 09:18 16.08.2019
3373 Clouds 18 1017 64 10000 7.2 290 08:41 16.08.2019
3374 Clouds 18 1017 68 10000 7.2 280 08:21 16.08.2019
3375 Clouds 18 1017 68 10000 6.2 270 07:54 16.08.2019
3376 Clouds 17 1017 68 10000 7.2 280 07:33 16.08.2019
3377 Clouds 17 1016 68 10000 6.7 280 06:57 16.08.2019
3378 Clouds 17 1016 68 10000 5.7 290 06:31 16.08.2019
3379 Rain 17 1016 68 10000 6.7 290 05:41 16.08.2019
3380 Rain 17 1016 60 10000 4.1 300 04:28 16.08.2019
3381 Clear 18 1016 63 10000 4.1 280 02:46 16.08.2019
3382 Clear 18 1016 52 10000 4.6 280 01:34 16.08.2019
3383 Clouds 18 1016 52 10000 4.1 270 00:59 16.08.2019
3384 Clouds 19 1016 52 10000 4.1 270 00:40 16.08.2019
3385 Clouds 19 1016 52 10000 4.6 270 00:21 16.08.2019
3386 Clouds 19 1016 46 10000 4.6 260 23:45 15.08.2019
3387 Clouds 19 1015 52 10000 3.1 300 23:22 15.08.2019
3388 Clouds 19 1015 49 10000 3.1 300 22:58 15.08.2019
3389 Clouds 19 1015 49 10000 2.6 260 22:39 15.08.2019
3390 Clouds 19 1015 49 10000 2.6 260 22:39 15.08.2019
3391 Clouds 19 1015 49 10000 3.1 300 22:39 15.08.2019
3392 Clouds 19 1015 49 10000 2.6 260 22:20 15.08.2019
3393 Clouds 20 1015 46 10000 2.6 210 21:54 15.08.2019
3394 Clouds 20 1015 46 10000 2.6 210 21:36 15.08.2019
3395 Clouds 20 1015 56 10000 2.6 170 21:18 15.08.2019
3396 Clouds 21 1014 52 10000 3.1 160 20:42 15.08.2019
3397 Clouds 21 1014 52 10000 3.1 160 20:42 15.08.2019
3398 Clouds 21 1014 46 10000 2.6 130 20:21 15.08.2019
3399 Clouds 21 1014 40 10000 3.1 130 19:57 15.08.2019
3400 Clouds 23 1014 38 10000 3.6 140 19:38 15.08.2019
3401 Clouds 23 1014 38 10000 3.6 140 19:20 15.08.2019
3402 Clouds 24 1014 36 10000 3.6 140 18:47 15.08.2019
3403 Clouds 24 1014 36 10000 3.6 140 18:23 15.08.2019
3404 Clouds 24 1014 36 10000 3.6 140 18:23 15.08.2019
3405 Clouds 25 1014 33 10000 4.1 140 17:57 15.08.2019
3406 Clouds 25 1014 33 10000 4.1 140 17:57 15.08.2019
3407 Clouds 25 1014 33 10000 4.1 140 17:38 15.08.2019
3408 Clouds 25 1014 33 10000 2.6 120 17:19 15.08.2019
3409 Clouds 25 1014 38 10000 3.1 140 16:56 15.08.2019
3410 Clouds 25 1014 38 10000 3.1 140 16:38 15.08.2019
3411 Clouds 25 1014 33 10000 3.6 150 16:20 15.08.2019
3412 Clouds 25 1014 33 10000 3.1 0 15:38 15.08.2019
3413 Clouds 25 1015 36 10000 2.6 0 15:19 15.08.2019
3414 Clouds 25 1015 36 10000 3.6 130 14:55 15.08.2019
3415 Clouds 25 1015 36 10000 3.6 140 14:36 15.08.2019
3416 Clouds 25 1015 36 10000 3.6 140 14:18 15.08.2019
3417 Clouds 25 1015 36 10000 3.6 110 13:55 15.08.2019
3418 Clouds 25 1015 36 10000 3.6 110 13:36 15.08.2019
3419 Clouds 24 1016 40 10000 3.6 0 13:18 15.08.2019
3420 Clouds 24 1016 38 10000 3.1 0 12:40 15.08.2019
3421 Clouds 23 1016 40 10000 2.1 0 12:20 15.08.2019
3422 Clouds 23 1017 49 10000 2.1 130 11:57 15.08.2019
3423 Clouds 22 1017 52 10000 1.5 140 11:37 15.08.2019
3424 Clouds 22 1017 52 10000 1.5 140 11:18 15.08.2019
3425 Clouds 22 1017 56 10000 1.5 100 10:58 15.08.2019
3426 Clouds 21 1017 56 10000 1.5 100 10:37 15.08.2019
3427 Clouds 20 1017 55 10000 1.5 0 10:18 15.08.2019
3428 Clear 19 1017 55 10000 1.5 110 09:43 15.08.2019
3429 Clear 17 1018 59 10000 1 0 09:22 15.08.2019
3430 Clear 15 1018 67 10000 1.5 140 08:39 15.08.2019
3431 Clear 15 1018 77 10000 2.1 120 08:21 15.08.2019
3432 Clear 14 1018 82 10000 1 0 07:56 15.08.2019
3433 Clear 14 1018 82 10000 1 0 07:38 15.08.2019
3434 Clear 12 1018 87 10000 1.5 160 07:20 15.08.2019
3435 Clear 12 1018 81 10000 1.5 200 06:47 15.08.2019
3436 Clear 11 1018 87 10000 2.6 190 06:25 15.08.2019
3437 Clear 11 1018 87 10000 1 170 05:30 15.08.2019
3438 Clear 12 1018 81 10000 1.5 220 04:57 15.08.2019
3439 Clear 12 1018 76 10000 0.5 0 03:53 15.08.2019
3440 Clear 13 1018 72 10000 1 330 03:19 15.08.2019
3441 Clear 13 1018 82 10000 1 0 02:26 15.08.2019
3442 Clear 14 1018 63 10000 2.6 270 01:41 15.08.2019
3443 Clear 15 1018 59 10000 3.1 260 00:56 15.08.2019
3444 Clear 15 1018 59 10000 3.1 260 00:36 15.08.2019
3445 Clear 15 1018 55 10000 4.1 270 00:18 15.08.2019
3446 Clear 16 1018 55 10000 4.6 280 23:55 14.08.2019
3447 Clear 16 1018 55 10000 3.6 270 23:36 14.08.2019
3448 Clear 16 1018 55 10000 3.6 270 23:18 14.08.2019
3449 Clear 16 1018 52 10000 3.6 270 22:41 14.08.2019
3450 Clear 16 1018 52 10000 4.6 280 22:22 14.08.2019
3451 Clear 17 1018 45 10000 4.1 280 21:57 14.08.2019
3452 Clear 17 1018 45 10000 4.1 280 21:39 14.08.2019
3453 Clear 17 1018 45 10000 4.1 280 21:39 14.08.2019
3454 Clear 18 1018 45 10000 4.1 300 21:20 14.08.2019
3455 Clear 18 1017 48 10000 3.1 310 20:56 14.08.2019
3456 Clear 18 1017 48 10000 3.1 310 20:56 14.08.2019
3457 Clear 19 1017 45 10000 2.6 330 20:37 14.08.2019
3458 Clear 19 1017 45 10000 2.6 330 20:18 14.08.2019
3459 Clear 22 1017 40 10000 3.6 330 19:41 14.08.2019
3460 Clear 22 1017 40 10000 3.6 330 19:22 14.08.2019
3461 Clear 23 1017 40 10000 4.6 330 18:59 14.08.2019
3462 Clear 23 1017 38 10000 5.7 340 18:39 14.08.2019
3463 Clear 23 1017 38 10000 5.7 340 18:21 14.08.2019
3464 Clouds 23 1017 38 10000 6.2 310 17:59 14.08.2019
3465 Clouds 23 1017 38 10000 6.2 310 17:40 14.08.2019
3466 Clouds 23 1017 40 10000 4.1 320 17:21 14.08.2019
3467 Clouds 23 1017 43 10000 6.2 320 16:56 14.08.2019
3468 Clouds 23 1017 43 10000 6.2 320 16:38 14.08.2019
3469 Clouds 23 1017 40 10000 5.7 330 16:19 14.08.2019
3470 Clouds 22 1017 38 10000 7.7 300 15:43 14.08.2019
3471 Clouds 22 1017 38 10000 7.7 300 15:43 14.08.2019
3472 Clouds 23 1017 43 10000 5.1 310 15:19 14.08.2019
3473 Clouds 23 1017 43 10000 5.1 310 15:19 14.08.2019
3474 Clouds 23 1017 43 10000 5.1 310 15:19 14.08.2019
3475 Clouds 22 1017 52 10000 6.2 320 14:56 14.08.2019
3476 Clouds 22 1017 52 10000 6.2 320 14:38 14.08.2019
3477 Clouds 23 1017 40 10000 5.1 320 14:18 14.08.2019
3478 Clouds 22 1017 46 10000 5.7 340 13:44 14.08.2019
3479 Clouds 22 1017 46 10000 5.1 330 13:24 14.08.2019
3480 Clouds 22 1017 49 10000 6.2 330 12:58 14.08.2019
3481 Clouds 22 1017 49 10000 6.2 330 12:39 14.08.2019
3482 Clouds 22 1017 53 10000 6.7 330 12:21 14.08.2019
3483 Clouds 21 1017 56 10000 7.2 330 11:57 14.08.2019
3484 Clouds 21 1017 56 10000 7.2 330 11:38 14.08.2019
3485 Clouds 21 1017 56 10000 7.2 330 11:38 14.08.2019
3486 Clouds 20 1017 60 10000 7.7 310 11:38 14.08.2019
3487 Clouds 20 1017 60 10000 7.7 310 11:38 14.08.2019
3488 Clouds 20 1017 60 10000 7.7 310 11:20 14.08.2019
3489 Clouds 19 1017 63 10000 7.2 330 10:45 14.08.2019
3490 Clouds 19 1017 63 10000 6.7 320 10:24 14.08.2019
3491 Clouds 17 1017 72 10000 6.7 310 09:57 14.08.2019
3492 Clouds 17 1017 72 10000 6.7 310 09:38 14.08.2019
3493 Clouds 17 1017 72 10000 6.2 310 09:19 14.08.2019
3494 Rain 16 1017 77 10000 6.7 300 08:40 14.08.2019
3495 Rain 16 1017 77 10000 6.7 300 08:21 14.08.2019
3496 Clear 16 1016 77 10000 8.2 300 07:51 14.08.2019
3497 Clear 16 1016 77 10000 6.2 310 07:32 14.08.2019
3498 Rain 15 1016 82 10000 6.2 310 06:46 14.08.2019
3499 Rain 17 1017 82 10000 5.1 310 05:54 14.08.2019
3500 Rain 16 1016 93 10000 2.1 10 05:28 14.08.2019
3501 Rain 16 1016 87 10000 3.6 320 03:38 14.08.2019
3502 Rain 17 1017 87 10000 5.7 320 02:34 14.08.2019
3503 Rain 19 1017 72 10000 6.7 310 01:54 14.08.2019
3504 Clouds 20 1016 68 10000 8.7 310 01:19 14.08.2019
3505 Clouds 19 1015 68 10000 6.7 310 23:55 13.08.2019
3506 Clear 19 1016 68 10000 7.7 300 23:37 13.08.2019
3507 Clear 19 1016 68 10000 7.7 300 23:18 13.08.2019
3508 Clear 19 1016 68 10000 6.2 300 22:42 13.08.2019
3509 Clear 19 1016 68 10000 5.7 300 22:24 13.08.2019
3510 Clear 18 1016 68 10000 5.7 300 21:59 13.08.2019
3511 Clear 19 1016 68 10000 5.7 300 21:39 13.08.2019
3512 Clear 19 1016 64 10000 4.6 310 21:19 13.08.2019
3513 Clear 19 1016 60 10000 4.1 300 20:58 13.08.2019
3514 Clear 19 1016 60 10000 4.1 300 20:39 13.08.2019
3515 Clouds 19 1016 60 10000 4.1 310 20:19 13.08.2019
3516 Clouds 19 1016 56 10000 5.7 320 19:54 13.08.2019
3517 Clouds 20 1016 60 10000 4.6 310 19:36 13.08.2019
3518 Clouds 20 1016 60 10000 4.6 310 19:18 13.08.2019
3519 Clouds 21 1016 60 10000 5.1 320 18:41 13.08.2019
3520 Clouds 22 1016 60 10000 5.1 320 18:21 13.08.2019
3521 Clouds 22 1016 60 10000 5.1 320 17:43 13.08.2019
3522 Clouds 22 1016 60 10000 5.1 320 17:43 13.08.2019
3523 Clouds 22 1016 60 10000 5.1 320 17:23 13.08.2019
3524 Clouds 22 1017 60 10000 4.6 320 16:58 13.08.2019
3525 Clouds 22 1017 60 10000 6.2 300 16:40 13.08.2019
3526 Clouds 22 1017 60 10000 6.2 300 16:21 13.08.2019
3527 Clouds 22 1017 53 10000 5.7 310 15:59 13.08.2019
3528 Clouds 23 1017 53 10000 5.7 310 15:38 13.08.2019
3529 Clouds 22 1017 50 10000 5.7 330 15:19 13.08.2019
3530 Clouds 22 1017 56 10000 4.6 330 14:43 13.08.2019
3531 Clouds 22 1017 60 10000 5.7 310 14:20 13.08.2019
3532 Clouds 22 1017 60 10000 6.7 330 13:58 13.08.2019
3533 Clouds 22 1017 60 10000 6.7 330 13:40 13.08.2019
3534 Clouds 22 1018 64 10000 5.1 320 13:20 13.08.2019
3535 Clouds 22 1018 60 10000 6.2 330 12:56 13.08.2019
3536 Clouds 22 1018 60 10000 6.2 330 12:38 13.08.2019
3537 Clouds 22 1018 64 10000 6.7 320 12:19 13.08.2019
3538 Clouds 21 1018 64 10000 7.2 320 11:42 13.08.2019
3539 Clouds 21 1018 68 10000 6.2 320 11:22 13.08.2019
3540 Clouds 21 1018 68 10000 6.7 320 10:57 13.08.2019
3541 Clouds 20 1018 68 10000 6.7 320 10:38 13.08.2019
3542 Clouds 20 1018 73 10000 5.7 310 10:19 13.08.2019
3543 Clouds 20 1017 73 10000 4.6 320 09:46 13.08.2019
3544 Clouds 19 1017 77 10000 5.1 310 09:25 13.08.2019
3545 Clouds 18 1017 82 10000 3.6 320 08:57 13.08.2019
3546 Clouds 18 1017 82 10000 3.6 320 08:39 13.08.2019
3547 Clouds 18 1017 88 10000 3.6 330 08:20 13.08.2019
3548 Clouds 18 1017 88 10000 3.1 340 07:46 13.08.2019
3549 Clouds 17 1017 88 10000 3.6 330 07:25 13.08.2019
3550 Clouds 17 1017 88 10000 4.1 320 06:44 13.08.2019
3551 Clouds 17 1016 88 10000 3.1 320 05:58 13.08.2019
3552 Clouds 17 1016 88 10000 3.6 320 05:20 13.08.2019
3553 Rain 18 1016 93 8000 3.1 350 02:22 13.08.2019
3554 Rain 18 1016 93 10000 5.1 320 01:38 13.08.2019
3555 Rain 18 1015 88 10000 8.7 310 00:52 13.08.2019
3556 Rain 18 1014 77 10000 4.1 310 00:22 13.08.2019
3557 Rain 19 1014 82 10000 3.6 320 23:44 12.08.2019
3558 Clouds 19 1014 82 10000 3.6 320 23:21 12.08.2019
3559 Clear 19 1014 77 10000 3.6 330 22:55 12.08.2019
3560 Clear 19 1014 77 10000 3.6 330 22:37 12.08.2019
3561 Clear 19 1015 77 10000 4.1 310 22:18 12.08.2019
3562 Clear 19 1015 82 10000 4.6 320 21:54 12.08.2019
3563 Clouds 20 1014 82 10000 4.6 330 21:36 12.08.2019
3564 Clouds 20 1014 82 10000 4.6 330 21:18 12.08.2019
3565 Clouds 20 1015 83 10000 5.7 330 20:41 12.08.2019
3566 Rain 20 1014 83 10000 8.2 310 20:21 12.08.2019
3567 Rain 21 1014 88 10000 8.7 320 19:58 12.08.2019
3568 Rain 21 1015 94 0 4.1 250 19:39 12.08.2019
3569 Rain 23 1013 51 10000 8.2 290 19:21 12.08.2019
3570 Rain 24 1011 54 10000 2.6 350 18:59 12.08.2019
3571 Rain 25 1011 54 10000 2.6 350 18:39 12.08.2019
3572 Clouds 28 1012 48 10000 3.1 340 18:21 12.08.2019
3573 Clouds 28 1012 48 10000 3.1 10 17:56 12.08.2019
3574 Clouds 28 1012 48 10000 3.1 10 17:38 12.08.2019
3575 Clouds 29 1013 45 10000 3.6 340 17:20 12.08.2019
3576 Clouds 29 1013 48 10000 2.6 350 16:55 12.08.2019
3577 Clouds 29 1013 48 10000 3.6 340 16:36 12.08.2019
3578 Clouds 29 1013 48 10000 3.6 340 16:18 12.08.2019
3579 Clouds 29 1014 45 10000 3.6 20 15:41 12.08.2019
3580 Clouds 29 1014 45 10000 3.6 20 15:41 12.08.2019
3581 Clouds 29 1014 45 10000 3.6 20 15:41 12.08.2019
3582 Clouds 29 1014 45 10000 3.1 10 15:22 12.08.2019
3583 Clouds 29 1014 45 10000 4.1 30 14:58 12.08.2019
3584 Clouds 29 1014 45 10000 4.6 10 14:39 12.08.2019
3585 Clouds 29 1014 45 10000 4.6 10 14:21 12.08.2019
3586 Clouds 29 1014 45 10000 4.1 340 13:57 12.08.2019
3587 Clouds 29 1014 45 10000 4.1 340 13:39 12.08.2019
3588 Clouds 29 1014 48 10000 5.1 340 13:20 12.08.2019
3589 Clouds 28 1015 48 10000 4.6 310 12:43 12.08.2019
3590 Clouds 28 1015 48 10000 4.6 310 12:43 12.08.2019
3591 Clouds 28 1015 48 10000 5.7 330 12:19 12.08.2019
3592 Clouds 28 1015 48 10000 5.1 310 11:45 12.08.2019
3593 Clouds 28 1015 48 10000 5.1 310 11:44 12.08.2019
3594 Clouds 28 1015 48 10000 5.1 310 11:44 12.08.2019
3595 Clouds 28 1015 48 10000 5.1 310 11:44 12.08.2019
3596 Clouds 27 1015 51 10000 5.7 320 11:25 12.08.2019
3597 -273 0 0 0 0 0 10:56 12.08.2019
3598 Clouds 27 1015 54 10000 6.2 330 10:56 12.08.2019
3599 Clouds 27 1015 54 10000 6.7 320 10:37 12.08.2019
3600 Clouds 26 1015 54 10000 6.7 320 10:19 12.08.2019
3601 Clear 25 1015 54 10000 6.2 300 09:42 12.08.2019
3602 Clear 24 1014 57 10000 6.7 290 09:21 12.08.2019
3603 Clear 23 1014 57 10000 6.7 300 08:59 12.08.2019
3604 Clear 23 1014 57 10000 6.7 300 08:58 12.08.2019
3605 Clear 23 1014 57 10000 6.2 290 08:39 12.08.2019
3606 Clear 22 1014 57 10000 6.2 290 08:21 12.08.2019
3607 Clear 21 1014 64 10000 3.6 310 07:55 12.08.2019
3608 Clear 21 1014 64 10000 4.6 310 07:33 12.08.2019
3609 Clear 20 1014 68 10000 3.6 320 06:53 12.08.2019
3610 Clear 19 1013 68 10000 4.1 300 05:41 12.08.2019
3611 Clear 20 1012 68 10000 4.1 170 03:30 12.08.2019
3612 Clear 21 1012 64 10000 5.7 160 02:42 12.08.2019
3613 Clear 22 1012 60 10000 6.7 150 01:23 12.08.2019
3614 Clear 22 1012 57 10000 6.7 160 00:58 12.08.2019
3615 Clear 22 1012 57 10000 6.7 160 00:40 12.08.2019
3616 Clear 22 1012 57 10000 5.1 150 00:20 12.08.2019
3617 Clear 22 1013 53 10000 5.1 130 23:57 11.08.2019
3618 Clear 22 1013 53 10000 5.1 130 23:38 11.08.2019
3619 Clear 23 1013 57 10000 4.6 140 23:19 11.08.2019
3620 Clear 23 1014 57 10000 3.6 130 22:55 11.08.2019
3621 Clear 23 1014 50 10000 4.1 130 22:36 11.08.2019
3622 Clear 23 1014 50 10000 4.1 130 22:18 11.08.2019
3623 Clear 23 1014 50 10000 3.6 120 21:54 11.08.2019
3624 Clear 23 1014 50 10000 3.6 120 21:36 11.08.2019
3625 Clear 24 1014 47 10000 3.1 100 21:18 11.08.2019
3626 Clear 25 1014 44 10000 3.1 110 20:41 11.08.2019
3627 Clear 25 1014 47 10000 3.6 120 20:22 11.08.2019
3628 Clear 26 1014 42 10000 4.6 130 19:45 11.08.2019
3629 Clear 27 1015 37 10000 5.1 130 19:22 11.08.2019
3630 Clear 28 1015 37 10000 6.2 140 18:58 11.08.2019
3631 Clear 28 1015 37 10000 6.2 140 18:38 11.08.2019
3632 Clear 28 1015 37 10000 5.7 150 18:19 11.08.2019
3633 Clear 28 1016 35 10000 5.1 140 17:41 11.08.2019
3634 Clear 28 1016 33 10000 4.6 150 17:20 11.08.2019
3635 Clear 28 1017 32 10000 4.1 40 16:59 11.08.2019
3636 Clear 28 1017 32 10000 4.1 40 16:59 11.08.2019
3637 Clear 28 1017 32 10000 4.1 40 16:40 11.08.2019
3638 Clear 28 1017 37 10000 4.6 40 16:20 11.08.2019
3639 Clear 28 1018 42 10000 3.1 40 15:56 11.08.2019
3640 Clear 28 1018 39 10000 3.1 20 15:38 11.08.2019
3641 Clear 28 1018 39 10000 3.1 20 15:19 11.08.2019
3642 Clear 28 1018 42 10000 2.1 0 14:40 11.08.2019
3643 Clear 27 1019 44 10000 2.6 110 14:22 11.08.2019
3644 Clear 27 1019 50 10000 2.6 90 13:46 11.08.2019
3645 Clear 26 1019 50 10000 2.1 0 13:26 11.08.2019
3646 Clear 26 1020 54 10000 2.1 0 12:59 11.08.2019
3647 Clear 26 1020 54 10000 2.1 0 12:41 11.08.2019
3648 Clear 25 1020 60 10000 3.1 30 12:20 11.08.2019
3649 Clear 25 1020 60 10000 3.6 20 11:40 11.08.2019
3650 Clear 25 1020 60 10000 3.6 20 11:40 11.08.2019
3651 Clear 24 1020 60 10000 4.1 350 11:22 11.08.2019
3652 Rain 23 1020 64 10000 3.6 360 10:56 11.08.2019
3653 Rain 23 1020 64 10000 3.6 360 10:38 11.08.2019
3654 Rain 22 1020 73 10000 3.1 350 10:19 11.08.2019
3655 Rain 22 1020 73 10000 3.1 350 10:19 11.08.2019
3656 Rain 21 1021 77 10000 2.1 360 09:54 11.08.2019
3657 Rain 21 1021 77 10000 2.1 360 09:36 11.08.2019
3658 Rain 21 1021 82 10000 2.6 10 09:36 11.08.2019
3659 Rain 20 1021 82 10000 2.6 10 09:18 11.08.2019
3660 Clear 20 1021 82 10000 2.6 360 08:40 11.08.2019
3661 Clear 20 1021 82 10000 2.6 10 08:22 11.08.2019
3662 Clear 19 1020 77 10000 3.6 350 07:46 11.08.2019
3663 Clear 19 1020 82 10000 2.1 10 07:19 11.08.2019
3664 Clear 19 1020 82 10000 3.1 330 06:38 11.08.2019
3665 Rain 19 1019 88 10000 2.6 330 05:28 11.08.2019
3666 Rain 19 1019 82 10000 3.1 340 02:54 11.08.2019
3667 Rain 19 1019 82 10000 3.6 340 02:25 11.08.2019
3668 Rain 19 1019 82 10000 2.6 10 01:33 11.08.2019
3669 Rain 19 1019 82 10000 4.1 350 00:56 11.08.2019
3670 Rain 19 1019 77 10000 5.1 340 00:36 11.08.2019
3671 Clouds 20 1019 77 10000 4.6 340 23:57 10.08.2019
3672 Clouds 20 1019 77 10000 4.6 340 23:37 10.08.2019
3673 Clouds 20 1019 73 10000 5.1 330 23:18 10.08.2019
3674 Clouds 20 1019 73 10000 5.7 320 22:40 10.08.2019
3675 Clouds 20 1018 68 10000 6.2 340 22:22 10.08.2019
3676 Clouds 21 1018 64 10000 7.7 330 21:55 10.08.2019
3677 Clouds 21 1018 64 10000 7.7 330 21:36 10.08.2019
3678 Clouds 22 1018 73 10000 6.2 320 21:18 10.08.2019
3679 Clouds 23 1017 73 10000 8.7 320 20:42 10.08.2019
3680 Clouds 23 1016 73 10000 8.7 310 20:21 10.08.2019
3681 Rain 23 1015 73 10000 9.3 310 19:56 10.08.2019
3682 Rain 23 1015 73 10000 9.3 310 19:37 10.08.2019
3683 Rain 24 1015 69 10000 8.2 320 19:19 10.08.2019
3684 Clouds 25 1014 46 10000 2.6 320 18:39 10.08.2019
3685 Clouds 29 1013 41 10000 2.1 30 18:20 10.08.2019
3686 Clouds 31 1014 41 10000 1.5 360 17:44 10.08.2019
3687 Clouds 31 1013 41 10000 2.1 30 17:24 10.08.2019
3688 Clouds 32 1014 40 10000 2.1 50 16:46 10.08.2019
3689 Clouds 32 1014 43 10000 3.1 80 16:28 10.08.2019
3690 Clear 32 1014 43 10000 2.1 40 15:54 10.08.2019
3691 Clear 32 1014 48 10000 2.6 0 15:25 10.08.2019
3692 Clear 32 1014 48 10000 2.1 0 14:45 10.08.2019
3693 Clear 32 1014 48 10000 2.1 0 14:22 10.08.2019
3694 Clear 32 1014 48 10000 2.6 50 13:55 10.08.2019
3695 Clear 32 1014 48 10000 2.6 50 13:37 10.08.2019
3696 Clear 31 1014 55 10000 2.6 40 13:18 10.08.2019
3697 Clear 30 1015 58 10000 2.6 30 12:41 10.08.2019
3698 Clear 29 1015 61 10000 2.6 20 12:21 10.08.2019
3699 Clear 29 1015 65 10000 2.1 50 11:54 10.08.2019
3700 Clear 29 1015 65 10000 2.1 50 11:54 10.08.2019
3701 Clear 29 1015 65 10000 2.1 50 11:36 10.08.2019
3702 Clear 29 1015 65 10000 2.1 10 11:36 10.08.2019
3703 Clear 28 1015 65 10000 2.1 10 11:18 10.08.2019
3704 Clear 27 1014 69 10000 2.1 0 10:38 10.08.2019
3705 Clear 27 1014 69 10000 1.5 0 10:20 10.08.2019
3706 Clear 26 1014 69 10000 1.5 0 10:20 10.08.2019
3707 Clear 25 1014 78 10000 2.1 120 09:44 10.08.2019
3708 Clear 24 1014 78 10000 1 0 09:25 10.08.2019
3709 Clear 23 1014 83 10000 1 0 08:59 10.08.2019
3710 Clear 23 1014 83 10000 1 0 08:38 10.08.2019
3711 Clear 22 1014 88 10000 1.5 120 08:18 10.08.2019
3712 Clear 21 1013 88 10000 2.1 130 07:46 10.08.2019
3713 Clear 20 1013 88 10000 2.1 130 07:25 10.08.2019
3714 Clear 20 1013 94 10000 1 130 06:47 10.08.2019
3715 Clear 20 1013 94 10000 1 130 06:47 10.08.2019
3716 Clear 19 1012 94 10000 1.5 100 06:18 10.08.2019
3717 Clear 19 1012 94 10000 1 110 05:22 10.08.2019
3718 Clear 20 1012 88 10000 1 50 04:18 10.08.2019
3719 Clear 20 1012 88 10000 2.6 140 02:52 10.08.2019
3720 Clear 21 1012 83 10000 2.6 150 01:57 10.08.2019
3721 Clear 21 1012 83 10000 2.6 150 01:38 10.08.2019
3722 Clear 21 1012 83 10000 2.6 150 01:19 10.08.2019
3723 Clear 21 1012 83 10000 3.1 160 00:43 10.08.2019
3724 Clear 22 1012 78 10000 2.1 140 00:21 10.08.2019
3725 Clear 22 1013 73 10000 2.6 140 23:42 09.08.2019
3726 Clear 22 1013 73 10000 3.1 140 23:22 09.08.2019
3727 Clear 23 1013 69 10000 3.1 140 22:56 09.08.2019
3728 Clear 23 1013 69 10000 3.1 140 22:38 09.08.2019
3729 Clear 23 1013 73 10000 4.1 160 22:19 09.08.2019
3730 Clear 24 1013 65 10000 4.1 150 21:41 09.08.2019
3731 Clear 24 1013 65 10000 4.1 150 21:41 09.08.2019
3732 Clear 25 1013 57 10000 3.6 140 21:22 09.08.2019
3733 Clear 25 1012 57 10000 3.6 130 20:58 09.08.2019
3734 Clear 26 1012 54 10000 4.1 130 20:39 09.08.2019
3735 Clear 27 1012 54 10000 4.1 130 20:20 09.08.2019
3736 -273 0 0 0 0 0 19:55 09.08.2019
3737 Clear 28 1012 51 10000 4.1 130 19:37 09.08.2019
3738 Clear 29 1012 48 10000 4.1 130 19:18 09.08.2019
3739 Clear 30 1012 40 10000 4.6 120 18:39 09.08.2019
3740 Clear 30 1013 35 10000 4.1 120 18:21 09.08.2019
3741 Clear 30 1013 35 10000 4.6 130 17:45 09.08.2019
3742 Clear 30 1013 35 10000 3.6 120 17:25 09.08.2019
3743 Clouds 30 1013 35 10000 3.6 140 16:58 09.08.2019
3744 Clouds 30 1013 35 10000 3.6 140 16:39 09.08.2019
3745 Clouds 30 1013 37 10000 4.6 150 16:20 09.08.2019
3746 Clouds 30 1013 37 10000 4.6 150 15:55 09.08.2019
3747 Clouds 31 1013 37 10000 4.6 150 15:36 09.08.2019
3748 Clouds 30 1014 39 10000 2.6 0 15:18 09.08.2019
3749 Clouds 30 1014 35 10000 4.1 150 14:43 09.08.2019
3750 -273 0 0 0 0 0 14:22 09.08.2019
3751 Clouds 29 1014 37 10000 3.6 120 14:22 09.08.2019
3752 Clouds 30 1014 39 10000 4.1 130 13:56 09.08.2019
3753 Clouds 29 1014 39 10000 4.1 130 13:38 09.08.2019
3754 Clouds 29 1015 39 10000 2.6 180 13:18 09.08.2019
3755 Clouds 28 1015 42 10000 3.1 0 12:43 09.08.2019
3756 Clear 28 1015 44 10000 2.1 0 12:22 09.08.2019
3757 Clear 27 1016 42 10000 1.5 0 11:42 09.08.2019
3758 Clear 27 1016 44 10000 2.1 0 11:21 09.08.2019
3759 Clear 26 1016 47 10000 1.5 130 10:59 09.08.2019
3760 Clear 25 1016 53 10000 1.5 0 10:39 09.08.2019
3761 Clear 25 1016 53 10000 1.5 0 10:21 09.08.2019
3762 Clear 24 1016 57 10000 1.5 0 09:42 09.08.2019
3763 Clear 22 1016 64 10000 1.5 0 09:19 09.08.2019
3764 Clear 21 1016 60 10000 1 0 08:54 09.08.2019
3765 Clear 20 1016 60 10000 1 0 08:36 09.08.2019
3766 Clear 19 1016 64 10000 1 0 08:18 09.08.2019
3767 Clear 18 1016 68 10000 2.1 240 07:42 09.08.2019
3768 Clear 17 1016 82 10000 2.1 190 07:21 09.08.2019
3769 Clear 16 1016 93 10000 2.6 160 06:52 09.08.2019
3770 Clear 15 1015 87 10000 1.5 230 06:26 09.08.2019
3771 Clear 15 1015 87 10000 1 0 05:46 09.08.2019
3772 Clear 17 1015 88 10000 2.1 160 02:33 09.08.2019
3773 Clear 18 1015 82 10000 0.5 0 01:41 09.08.2019
3774 Clear 18 1015 88 10000 2.6 170 00:43 09.08.2019
3775 Clear 19 1014 88 10000 3.1 170 00:24 09.08.2019
3776 Clear 19 1014 82 10000 2.6 160 23:59 08.08.2019
3777 Clear 19 1014 82 10000 2.6 160 23:38 08.08.2019
3778 Clear 20 1014 73 10000 3.1 190 23:19 08.08.2019
3779 Clear 20 1014 73 10000 3.1 180 22:56 08.08.2019
3780 Clear 20 1014 73 10000 3.1 180 22:36 08.08.2019
3781 Clear 21 1014 73 10000 3.6 190 22:18 08.08.2019
3782 Clear 21 1014 73 10000 4.1 180 21:43 08.08.2019
3783 Clear 21 1014 69 10000 3.6 180 21:24 08.08.2019
3784 Clear 22 1013 64 10000 3.6 160 20:59 08.08.2019
3785 Clear 23 1013 64 10000 3.6 160 20:41 08.08.2019
3786 Clear 24 1013 57 10000 2.6 140 20:20 08.08.2019
3787 Clear 24 1013 50 10000 3.6 130 19:56 08.08.2019
3788 Clouds 26 1013 50 10000 2.1 130 19:36 08.08.2019
3789 Clouds 26 1013 50 10000 2.1 130 19:18 08.08.2019
3790 Clouds 26 1013 44 10000 2.1 110 18:41 08.08.2019
3791 Clouds 27 1013 44 10000 2.6 120 18:20 08.08.2019
3792 Clouds 27 1013 44 10000 2.6 80 17:42 08.08.2019
3793 Clouds 27 1013 44 10000 3.6 60 17:24 08.08.2019
3794 Clouds 28 1013 42 10000 2.6 10 16:59 08.08.2019
3795 Clouds 27 1013 42 10000 2.6 10 16:41 08.08.2019
3796 Clouds 27 1013 42 10000 2.6 10 16:41 08.08.2019
3797 Clouds 27 1013 39 10000 1.5 0 16:23 08.08.2019
3798 Clouds 27 1013 39 10000 1.5 0 16:23 08.08.2019
3799 Clouds 27 1014 44 10000 3.1 320 15:57 08.08.2019
3800 Clouds 27 1014 42 10000 2.6 340 15:38 08.08.2019
3801 Clouds 27 1014 42 10000 2.6 340 15:20 08.08.2019
3802 Clouds 27 1014 42 10000 2.6 340 15:20 08.08.2019
3803 Clouds 27 1014 42 10000 2.6 340 15:20 08.08.2019
3804 Clouds 26 1014 44 10000 3.1 350 14:40 08.08.2019
3805 Clouds 26 1014 47 10000 3.6 340 14:22 08.08.2019
3806 Clouds 27 1014 47 10000 4.1 330 13:57 08.08.2019
3807 Clouds 26 1014 47 10000 4.1 330 13:36 08.08.2019
3808 Clouds 26 1014 47 10000 4.1 320 13:18 08.08.2019
3809 Clouds 26 1014 50 10000 4.6 340 12:39 08.08.2019
3810 Clouds 25 1014 53 10000 4.6 330 12:19 08.08.2019
3811 Clouds 25 1014 53 10000 4.6 330 12:19 08.08.2019
3812 Clouds 25 1014 53 10000 4.6 330 12:19 08.08.2019
3813 Clouds 24 1014 53 10000 3.6 330 11:47 08.08.2019
3814 Clouds 24 1014 53 10000 4.1 330 11:26 08.08.2019
3815 Clouds 24 1014 53 10000 4.1 330 11:26 08.08.2019
3816 Clouds 23 1014 50 10000 4.1 330 10:57 08.08.2019
3817 Clouds 23 1014 50 10000 4.1 330 10:39 08.08.2019
3818 Clouds 23 1014 53 10000 5.1 320 10:20 08.08.2019
3819 Clouds 22 1014 56 10000 4.1 330 09:43 08.08.2019
3820 Clouds 21 1014 64 10000 4.6 310 09:23 08.08.2019
3821 Rain 20 1014 68 10000 5.1 300 08:44 08.08.2019
3822 Rain 20 1014 77 10000 4.1 330 08:23 08.08.2019
3823 Clouds 19 1013 77 10000 4.1 320 07:58 08.08.2019
3824 Clouds 18 1013 77 10000 4.1 320 07:39 08.08.2019
3825 Clouds 18 1013 77 10000 4.1 300 07:19 08.08.2019
3826 Rain 18 1013 77 10000 3.1 320 06:46 08.08.2019
3827 Clear 17 1013 77 10000 4.1 310 06:18 08.08.2019
3828 Rain 17 1013 82 10000 3.1 280 05:42 08.08.2019
3829 Clear 18 1012 88 10000 4.1 280 04:39 08.08.2019
3830 Rain 18 1012 77 10000 7.7 290 03:48 08.08.2019
3831 Rain 19 1011 82 10000 4.1 280 01:59 08.08.2019
3832 Rain 19 1011 82 10000 3.1 250 01:24 08.08.2019
3833 Clouds 19 1010 88 10000 5.7 290 00:25 08.08.2019
3834 Rain 19 1011 88 10000 5.1 280 23:42 07.08.2019
3835 Rain 19 1011 88 10000 4.6 290 23:19 07.08.2019
3836 Rain 19 1011 88 10000 6.2 300 22:55 07.08.2019
3837 Rain 19 1011 88 10000 6.2 300 22:36 07.08.2019
3838 Rain 19 1010 94 9000 5.7 310 22:18 07.08.2019
3839 Rain 19 1010 83 10000 8.2 300 21:54 07.08.2019
3840 Rain 20 1008 64 10000 12.9 280 21:36 07.08.2019
3841 Rain 20 1008 64 10000 12.9 280 21:18 07.08.2019
3842 Rain 23 1006 51 10000 5.1 160 20:41 07.08.2019
3843 Clouds 26 1006 48 10000 5.1 150 20:22 07.08.2019
3844 Clouds 26 1006 45 10000 5.7 160 19:56 07.08.2019
3845 Clear 27 1006 42 10000 5.7 150 19:38 07.08.2019
3846 Clear 28 1006 42 10000 5.7 150 19:19 07.08.2019
3847 Clear 28 1006 40 10000 5.1 140 18:41 07.08.2019
3848 Clear 29 1007 40 10000 5.1 140 18:20 07.08.2019
3849 Clear 29 1007 40 10000 5.1 150 17:57 07.08.2019
3850 Clear 29 1007 40 10000 5.1 150 17:38 07.08.2019
3851 Clear 30 1008 42 10000 5.1 150 17:20 07.08.2019
3852 Clear 30 1008 40 10000 3.6 150 16:57 07.08.2019
3853 Clear 30 1008 40 10000 3.6 150 16:57 07.08.2019
3854 Clear 30 1008 40 10000 3.6 150 16:57 07.08.2019
3855 Clear 30 1008 38 10000 3.1 160 16:38 07.08.2019
3856 Clear 30 1008 38 10000 3.1 160 16:19 07.08.2019
3857 Clear 30 1009 40 10000 2.6 170 15:55 07.08.2019
3858 Clear 30 1009 40 10000 2.6 30 15:37 07.08.2019
3859 Clear 30 1009 40 10000 2.6 30 15:18 07.08.2019
3860 Clear 30 1010 39 10000 2.6 360 14:45 07.08.2019
3861 Clear 29 1010 39 10000 1 0 14:26 07.08.2019
3862 Clear 28 1010 42 10000 2.1 340 13:44 07.08.2019
3863 Clear 28 1010 42 10000 3.1 350 13:19 07.08.2019
3864 Clear 28 1010 42 10000 2.6 360 12:58 07.08.2019
3865 Clear 28 1010 42 10000 2.6 360 12:58 07.08.2019
3866 Clear 28 1010 42 10000 2.6 360 12:58 07.08.2019
3867 Clear 28 1010 42 10000 2.6 360 12:39 07.08.2019
3868 Clear 28 1010 42 10000 2.1 10 12:20 07.08.2019
3869 Clear 27 1010 45 10000 2.6 40 11:59 07.08.2019
3870 Clear 27 1010 45 10000 2.6 40 11:41 07.08.2019
3871 Clear 27 1010 51 10000 2.6 70 11:19 07.08.2019
3872 Clear 27 1010 57 10000 2.1 30 10:55 07.08.2019
3873 Clear 27 1010 57 10000 2.1 30 10:37 07.08.2019
3874 Clear 27 1010 57 10000 1.5 90 10:18 07.08.2019
3875 Clear 26 1010 61 10000 2.1 60 09:44 07.08.2019
3876 Clear 24 1010 61 10000 1.5 110 09:21 07.08.2019
3877 Clear 23 1010 73 10000 2.1 140 08:45 07.08.2019
3878 Clear 22 1011 78 10000 1.5 140 08:26 07.08.2019
3879 Clear 21 1011 88 10000 1.5 150 07:52 07.08.2019
3880 Clear 20 1011 88 10000 2.1 130 07:34 07.08.2019
3881 Clear 19 1010 88 10000 1.5 360 06:57 07.08.2019
3882 Clear 18 1010 88 10000 1 200 06:29 07.08.2019
3883 Clear 18 1010 88 10000 2.1 220 05:49 07.08.2019
3884 Clear 18 1010 88 10000 2.1 170 04:51 07.08.2019
3885 Clear 19 1010 88 10000 2.6 150 03:21 07.08.2019
3886 Clear 19 1010 82 10000 0.5 0 02:44 07.08.2019
3887 Clear 19 1011 77 10000 1 0 01:58 07.08.2019
3888 Clear 19 1011 77 10000 1 0 01:38 07.08.2019
3889 Clear 20 1011 77 10000 2.1 120 00:39 07.08.2019
3890 Clear 20 1011 73 10000 3.6 160 00:20 07.08.2019
3891 Clear 20 1011 69 10000 3.6 180 23:41 06.08.2019
3892 Clear 21 1011 69 10000 3.6 170 23:21 06.08.2019
3893 Clear 21 1011 68 10000 3.1 170 22:56 06.08.2019
3894 Clear 21 1011 73 10000 1 0 22:37 06.08.2019
3895 Clear 21 1011 73 10000 1 0 22:18 06.08.2019
3896 Clear 22 1012 69 10000 1 0 21:42 06.08.2019
3897 Clouds 23 1011 64 10000 1.5 150 21:24 06.08.2019
3898 Clouds 24 1012 57 10000 1 0 20:57 06.08.2019
3899 Clouds 25 1012 54 10000 3.1 150 20:39 06.08.2019
3900 Clouds 25 1012 54 10000 3.1 150 20:21 06.08.2019
3901 Clouds 26 1012 48 10000 4.1 170 19:43 06.08.2019
3902 Clouds 27 1012 48 10000 4.6 180 19:25 06.08.2019
3903 Clear 28 1011 45 10000 5.1 180 18:46 06.08.2019
3904 Clear 28 1011 40 10000 4.6 180 18:27 06.08.2019
3905 Clear 29 1012 35 10000 2.6 330 17:59 06.08.2019
3906 Clear 29 1012 35 10000 2.6 330 17:39 06.08.2019
3907 Clear 29 1012 37 10000 3.6 320 17:21 06.08.2019
3908 Clouds 29 1012 37 10000 6.2 330 16:59 06.08.2019
3909 Clouds 29 1013 37 10000 5.1 290 16:39 06.08.2019
3910 Clouds 29 1013 37 10000 5.1 290 16:20 06.08.2019
3911 Rain 28 1013 37 10000 7.2 280 15:57 06.08.2019
3912 Rain 28 1013 45 10000 6.7 290 15:38 06.08.2019
3913 Rain 28 1013 45 10000 6.7 290 15:19 06.08.2019
3914 Clear 27 1013 51 10000 4.1 310 14:44 06.08.2019
3915 Clear 26 1014 51 10000 5.1 290 14:25 06.08.2019
3916 Clear 26 1014 61 10000 3.1 250 13:58 06.08.2019
3917 Clear 26 1014 61 10000 3.1 250 13:39 06.08.2019
3918 Clear 25 1014 64 10000 2.1 260 13:20 06.08.2019
3919 Clear 25 1015 69 10000 1.5 260 12:57 06.08.2019
3920 Rain 24 1015 69 10000 1.5 260 12:38 06.08.2019
3921 Rain 23 1015 83 10000 3.1 300 12:20 06.08.2019
3922 Rain 22 1015 83 10000 3.1 310 11:41 06.08.2019
3923 Rain 22 1015 82 10000 4.1 290 11:19 06.08.2019
3924 Rain 23 1015 77 10000 5.1 260 10:42 06.08.2019
3925 Rain 23 1015 77 10000 5.1 260 10:42 06.08.2019
3926 Rain 23 1015 77 10000 5.1 260 10:42 06.08.2019
3927 Rain 22 1015 77 10000 3.6 250 10:23 06.08.2019
3928 Rain 22 1015 77 10000 2.6 240 09:58 06.08.2019
3929 Rain 22 1015 77 10000 2.6 240 09:38 06.08.2019
3930 Rain 20 1015 77 10000 2.1 210 09:19 06.08.2019
3931 Rain 19 1014 77 10000 3.6 250 08:42 06.08.2019
3932 Rain 19 1014 77 10000 2.6 220 08:24 06.08.2019
3933 Rain 19 1013 82 10000 0.5 0 07:36 06.08.2019
3934 Rain 18 1013 82 10000 1.5 180 06:53 06.08.2019
3935 Rain 18 1013 82 10000 1.5 180 06:35 06.08.2019
3936 Clouds 18 1013 77 10000 1 160 05:52 06.08.2019
3937 Clear 18 1013 72 10000 1 30 04:31 06.08.2019
3938 Clear 19 1013 72 10000 2.6 160 01:53 06.08.2019
3939 Clear 19 1013 60 10000 1.5 200 01:23 06.08.2019
3940 Clear 20 1013 60 10000 3.1 210 00:30 06.08.2019
3941 Rain 20 1013 68 0 1 250 23:46 05.08.2019
3942 Rain 21 1013 68 0 1 250 23:19 05.08.2019
3943 Clear 21 1013 50 10000 3.6 220 22:41 05.08.2019
3944 Clear 21 1013 47 10000 3.1 190 22:23 05.08.2019
3945 Clear 22 1013 50 10000 1.5 170 21:55 05.08.2019
3946 Clear 22 1013 50 10000 1.5 170 21:36 05.08.2019
3947 Clouds 23 1013 44 10000 1.5 280 21:18 05.08.2019
3948 Rain 23 1013 44 10000 3.1 250 20:55 05.08.2019
3949 Clouds 24 1012 53 0 1.84 219.151 20:37 05.08.2019
3950 Rain 24 1013 39 10000 5.1 240 20:18 05.08.2019
3951 Clear 25 1012 39 10000 3.1 210 19:43 05.08.2019
3952 Clouds 25 1012 39 0 3.1 220 19:23 05.08.2019
3953 Clear 26 1012 30 10000 4.1 210 18:57 05.08.2019
3954 Clear 27 1012 30 10000 4.1 210 18:39 05.08.2019
3955 Clear 27 1012 32 10000 2.1 150 18:18 05.08.2019
3956 Clear 28 1012 32 10000 3.1 140 17:41 05.08.2019
3957 Clear 29 1013 30 10000 2.1 90 17:22 05.08.2019
3958 Clear 29 1013 32 10000 2.6 60 16:46 05.08.2019
3959 Clear 29 1013 32 10000 2.6 30 16:25 05.08.2019
3960 Clear 29 1013 32 10000 3.1 90 15:46 05.08.2019
3961 Clear 29 1013 34 10000 1.5 140 15:28 05.08.2019
3962 Clear 29 1014 34 10000 2.6 60 14:59 05.08.2019
3963 Clear 29 1014 34 10000 2.6 60 14:38 05.08.2019
3964 Clear 28 1014 34 10000 2.6 80 14:19 05.08.2019
3965 Clear 28 1014 34 10000 2.1 0 13:43 05.08.2019
3966 Clear 28 1014 36 10000 3.1 20 13:22 05.08.2019
3967 Clear 27 1015 37 10000 3.1 40 12:46 05.08.2019
3968 Clear 27 1015 39 10000 1.5 0 12:20 05.08.2019
3969 Clear 26 1015 41 10000 2.1 0 11:47 05.08.2019
3970 Clear 26 1015 44 10000 2.1 10 11:27 05.08.2019
3971 Clear 26 1015 47 10000 2.1 50 10:59 05.08.2019
3972 Clear 25 1015 47 10000 2.1 50 10:41 05.08.2019
3973 Clear 24 1015 53 10000 2.1 40 10:21 05.08.2019
3974 Clear 23 1015 50 10000 1 0 09:43 05.08.2019
3975 Clear 21 1016 56 10000 1 0 09:24 05.08.2019
3976 Clear 19 1016 60 10000 1.5 160 08:50 05.08.2019
3977 Clear 18 1016 63 10000 1 0 08:28 05.08.2019
3978 Clear 17 1016 67 10000 1.5 240 07:59 05.08.2019
3979 Clear 17 1016 67 10000 1.5 240 07:41 05.08.2019
3980 Clear 15 1016 82 10000 1.5 180 07:20 05.08.2019
3981 Clear 14 1016 87 10000 1.5 170 06:30 05.08.2019
3982 Clear 14 1016 82 10000 2.1 160 05:51 05.08.2019
3983 Clear 14 1016 82 10000 1.5 170 05:19 05.08.2019
3984 Clear 14 1016 82 10000 2.6 160 04:24 05.08.2019
3985 Clear 15 1016 72 10000 1.5 190 03:30 05.08.2019
3986 Clear 15 1016 63 10000 1 0 02:34 05.08.2019
3987 Clear 16 1016 72 10000 2.6 170 01:33 05.08.2019
3988 Clear 17 1016 59 10000 1.5 170 00:41 05.08.2019
3989 Clear 17 1016 63 10000 1 0 00:21 05.08.2019
3990 Clear 17 1016 55 10000 0.5 0 23:57 04.08.2019
3991 Clear 17 1016 55 10000 0.5 0 23:39 04.08.2019
3992 Clear 18 1016 59 10000 1 0 23:19 04.08.2019
3993 Clear 18 1015 52 10000 1 0 22:54 04.08.2019
3994 Clear 18 1016 43 10000 2.6 240 22:36 04.08.2019
3995 Clear 19 1016 43 10000 2.6 250 22:18 04.08.2019
3996 Clear 19 1015 52 10000 2.1 310 21:42 04.08.2019
3997 Clear 20 1015 40 10000 3.1 300 21:20 04.08.2019
3998 Clear 21 1015 46 10000 3.1 310 20:45 04.08.2019
3999 Clear 22 1015 46 10000 2.1 330 20:21 04.08.2019
4000 Clear 23 1015 46 10000 2.6 340 19:58 04.08.2019
4001 Clear 24 1015 36 10000 2.6 350 19:38 04.08.2019
4002 Clear 24 1015 36 10000 2.6 350 19:20 04.08.2019
4003 Clear 25 1015 29 10000 4.1 320 18:42 04.08.2019
4004 Clear 25 1015 29 10000 4.1 320 18:20 04.08.2019
4005 Clear 25 1015 30 10000 4.6 320 17:45 04.08.2019
4006 Clear 26 1015 31 10000 2.6 330 17:26 04.08.2019
4007 Clear 26 1015 34 10000 2.6 320 16:59 04.08.2019
4008 Clear 26 1015 34 10000 3.1 320 16:39 04.08.2019
4009 Clear 26 1015 34 10000 3.1 320 16:20 04.08.2019
4010 Clear 25 1016 36 10000 3.6 0 15:43 04.08.2019
4011 Clear 25 1016 36 10000 2.1 330 15:22 04.08.2019
4012 Clear 25 1016 36 10000 2.6 0 14:45 04.08.2019
4013 Clear 25 1016 36 10000 3.1 300 14:26 04.08.2019
4014 Clear 25 1016 38 10000 3.1 0 13:56 04.08.2019
4015 Clear 25 1016 38 10000 3.1 0 13:38 04.08.2019
4016 Clouds 25 1016 40 10000 2.6 350 13:20 04.08.2019
4017 Clouds 24 1017 43 10000 3.1 350 12:44 04.08.2019
4018 Clouds 24 1017 43 10000 3.6 350 12:25 04.08.2019
4019 Clouds 23 1017 49 10000 3.6 360 11:56 04.08.2019
4020 Clouds 23 1017 53 10000 4.6 10 11:37 04.08.2019
4021 Clouds 22 1017 53 10000 4.6 10 11:18 04.08.2019
4022 Clouds 22 1017 56 10000 3.1 330 10:40 04.08.2019
4023 Clouds 21 1017 60 10000 3.1 350 10:19 04.08.2019
4024 Clouds 20 1017 60 10000 4.1 330 09:43 04.08.2019
4025 Clouds 19 1017 64 10000 4.1 320 09:22 04.08.2019
4026 Clouds 18 1016 68 10000 5.1 340 08:43 04.08.2019
4027 Clouds 17 1016 72 10000 5.1 320 08:25 04.08.2019
4028 Clouds 16 1016 72 10000 5.1 310 07:51 04.08.2019
4029 Clouds 15 1016 77 10000 3.6 320 06:51 04.08.2019
4030 Clouds 14 1016 82 10000 3.1 320 06:28 04.08.2019
4031 Clear 15 1015 77 10000 6.2 300 03:46 04.08.2019
4032 Clear 15 1015 77 10000 4.1 320 02:24 04.08.2019
4033 Clear 15 1015 77 10000 5.1 320 01:33 04.08.2019
4034 Clear 15 1015 77 10000 5.1 320 01:33 04.08.2019
4035 Clear 15 1015 77 10000 4.6 320 00:59 04.08.2019
4036 Clear 16 1015 77 10000 4.6 320 00:40 04.08.2019
4037 Clear 16 1015 77 10000 4.6 320 00:18 04.08.2019
4038 Clear 16 1015 77 10000 3.6 310 23:39 03.08.2019
4039 Clear 16 1014 77 10000 4.1 300 23:18 03.08.2019
4040 Clear 16 1014 72 10000 5.7 280 22:44 03.08.2019
4041 Clear 16 1014 72 10000 5.7 280 22:20 03.08.2019
4042 Clear 16 1014 72 10000 5.7 290 21:41 03.08.2019
4043 Clear 16 1013 68 10000 7.2 300 21:22 03.08.2019
4044 Clouds 16 1013 72 10000 3.1 290 20:58 03.08.2019
4045 Clouds 17 1013 72 10000 3.1 290 20:40 03.08.2019
4046 Clouds 17 1013 63 10000 5.7 300 20:20 03.08.2019
4047 Rain 17 1013 68 10000 5.7 300 19:41 03.08.2019
4048 Rain 17 1013 68 10000 4.6 310 19:23 03.08.2019
4049 Rain 17 1014 68 10000 6.7 340 18:50 03.08.2019
4050 Rain 19 1014 60 10000 7.7 330 18:27 03.08.2019
4051 Rain 20 1013 53 10000 6.7 340 17:48 03.08.2019
4052 Clouds 21 1013 60 10000 4.6 340 17:21 03.08.2019
4053 Rain 20 1012 64 10000 4.6 340 16:55 03.08.2019
4054 Rain 21 1012 64 10000 4.6 340 16:37 03.08.2019
4055 Rain 21 1012 64 10000 6.7 310 16:19 03.08.2019
4056 Rain 20 1013 56 10000 6.2 310 15:43 03.08.2019
4057 Rain 22 1012 53 10000 7.7 310 15:22 03.08.2019
4058 Thunderstorm 22 1012 49 10000 7.2 300 14:39 03.08.2019
4059 Thunderstorm 23 1012 49 10000 7.2 300 14:21 03.08.2019
4060 Thunderstorm 23 1012 49 10000 7.2 300 14:21 03.08.2019
4061 Clouds 24 1013 50 10000 7.2 300 13:51 03.08.2019
4062 Clouds 22 1013 56 10000 7.2 270 13:24 03.08.2019
4063 Clouds 23 1013 53 10000 5.7 320 12:57 03.08.2019
4064 Clouds 22 1013 53 10000 5.7 320 12:38 03.08.2019
4065 Rain 21 1013 53 10000 5.1 330 12:20 03.08.2019
4066 Clouds 21 1013 60 10000 6.2 340 11:47 03.08.2019
4067 Clouds 21 1013 56 10000 6.2 330 11:25 03.08.2019
4068 Clouds 20 1013 60 10000 7.2 340 10:40 03.08.2019
4069 Clear 20 1013 60 10000 6.2 330 10:22 03.08.2019
4070 Clear 20 1012 60 10000 6.7 320 09:39 03.08.2019
4071 Clear 20 1012 60 10000 6.7 310 09:21 03.08.2019
4072 Clear 20 1012 56 10000 6.7 300 08:46 03.08.2019
4073 Clear 18 1012 64 10000 6.2 300 07:49 03.08.2019
4074 Clear 18 1012 68 10000 6.7 300 07:30 03.08.2019
4075 Clear 17 1011 68 10000 5.1 310 06:23 03.08.2019
4076 Clear 17 1011 72 10000 1.5 30 03:58 03.08.2019
4077 Clear 17 1011 68 10000 4.1 300 02:29 03.08.2019
4078 Clear 17 1012 60 10000 4.6 300 01:36 03.08.2019
4079 Clear 18 1012 60 10000 5.7 310 00:38 03.08.2019
4080 Clear 18 1011 77 10000 0.5 250 23:57 02.08.2019
4081 Clear 18 1011 77 10000 0.5 250 23:38 02.08.2019
4082 Rain 18 1012 77 0 4.1 250 23:18 02.08.2019
4083 Clouds 18 1012 64 10000 3.1 240 22:56 02.08.2019
4084 Rain 19 1012 64 10000 3.1 240 22:37 02.08.2019
4085 Rain 19 1012 64 10000 1 0 22:18 02.08.2019
4086 Thunderstorm 19 1012 64 10000 2.1 50 21:42 02.08.2019
4087 Thunderstorm 20 1011 68 10000 4.1 30 21:22 02.08.2019
4088 Clouds 21 1011 64 10000 1 40 20:46 02.08.2019
4089 Clouds 21 1011 64 10000 1 20 20:28 02.08.2019
4090 Clouds 22 1011 57 10000 1 0 19:56 02.08.2019
4091 Clouds 22 1011 53 10000 2.1 40 19:35 02.08.2019
4092 Clouds 23 1011 50 10000 2.1 40 18:57 02.08.2019
4093 Clouds 23 1011 50 10000 2.1 40 18:39 02.08.2019
4094 Clouds 24 1011 50 10000 1.5 40 18:20 02.08.2019
4095 Clouds 24 1011 47 10000 2.1 70 17:42 02.08.2019
4096 Clouds 24 1012 50 10000 2.1 50 17:24 02.08.2019
4097 Clouds 24 1012 53 10000 1.5 60 16:56 02.08.2019
4098 Clouds 24 1012 53 10000 1.5 60 16:37 02.08.2019
4099 Clouds 25 1012 53 10000 1 0 16:18 02.08.2019
4100 Rain 24 1012 53 10000 1 0 15:38 02.08.2019
4101 Rain 25 1012 53 10000 2.1 30 15:19 02.08.2019
4102 Clouds 25 1013 53 10000 1.5 30 14:45 02.08.2019
4103 Clouds 25 1013 53 10000 1.5 30 14:45 02.08.2019
4104 Clouds 25 1013 53 10000 2.6 330 14:18 02.08.2019
4105 Clouds 25 1013 53 10000 2.6 330 14:18 02.08.2019
4106 Clouds 25 1013 50 10000 3.1 330 13:47 02.08.2019
4107 Clouds 25 1013 56 10000 2.1 360 13:23 02.08.2019
4108 Clouds 25 1013 56 10000 2.1 350 12:44 02.08.2019
4109 Clouds 24 1013 56 10000 2.1 360 12:21 02.08.2019
4110 Clouds 23 1013 53 10000 3.6 340 11:48 02.08.2019
4111 Clouds 23 1014 53 10000 3.1 340 11:26 02.08.2019
4112 Clouds 22 1014 56 10000 3.6 310 10:55 02.08.2019
4113 Clouds 22 1014 56 10000 3.6 310 10:55 02.08.2019
4114 Clouds 22 1014 56 10000 3.6 310 10:37 02.08.2019
4115 Clouds 22 1014 53 10000 3.6 250 10:19 02.08.2019
4116 Clouds 21 1014 64 10000 2.6 320 09:48 02.08.2019
4117 Clouds 20 1014 64 10000 3.1 330 09:24 02.08.2019
4118 Clouds 20 1013 64 10000 3.6 350 08:47 02.08.2019
4119 Clouds 19 1014 68 10000 3.1 330 08:21 02.08.2019
4120 Clear 19 1013 68 10000 3.1 340 07:48 02.08.2019
4121 Clear 18 1014 77 10000 2.1 330 07:29 02.08.2019
4122 Clear 18 1014 77 10000 0.5 0 06:44 02.08.2019
4123 Clear 17 1013 77 10000 1.5 10 05:52 02.08.2019
4124 Clear 17 1014 77 10000 2.1 40 04:19 02.08.2019
4125 Clear 18 1014 60 10000 1.5 230 03:25 02.08.2019
4126 Clear 18 1014 82 10000 1.5 40 02:33 02.08.2019
4127 Clear 19 1015 64 10000 2.6 180 00:38 02.08.2019
4128 Clear 20 1014 68 10000 1 30 23:46 01.08.2019
4129 Clear 20 1015 49 10000 3.1 190 23:28 01.08.2019
4130 Clear 21 1014 49 10000 1.5 170 22:59 01.08.2019
4131 Clear 21 1014 49 10000 1.5 170 22:39 01.08.2019
4132 Clear 21 1014 47 10000 1.5 160 22:20 01.08.2019
4133 Clear 22 1014 53 10000 1 0 21:43 01.08.2019
4134 Clear 23 1014 50 10000 1 350 21:24 01.08.2019
4135 Clear 24 1014 50 10000 1 10 20:55 01.08.2019
4136 Clear 24 1014 50 10000 1 10 20:37 01.08.2019
4137 Clear 25 1014 44 10000 1 350 20:19 01.08.2019
4138 Clear 26 1014 44 10000 2.1 340 19:41 01.08.2019
4139 Clear 27 1014 34 10000 3.6 330 19:19 01.08.2019
4140 Clear 27 1014 34 10000 3.1 350 18:44 01.08.2019
4141 Clear 27 1014 32 10000 2.6 310 18:24 01.08.2019
4142 Clouds 28 1015 34 10000 2.6 20 17:52 01.08.2019
4143 Clouds 28 1015 34 10000 3.6 320 17:33 01.08.2019
4144 Clouds 28 1015 30 10000 4.6 320 16:59 01.08.2019
4145 Clouds 28 1015 30 10000 4.6 320 16:40 01.08.2019
4146 Clear 28 1015 32 10000 3.1 320 16:20 01.08.2019
4147 Clouds 28 1016 37 10000 4.1 360 15:41 01.08.2019
4148 Clouds 28 1016 37 10000 4.1 360 15:20 01.08.2019
4149 Clouds 28 1016 39 10000 3.6 340 14:43 01.08.2019
4150 Clouds 27 1016 42 10000 4.1 320 14:20 01.08.2019
4151 Clouds 27 1016 44 10000 4.1 350 13:58 01.08.2019
4152 Clouds 27 1016 44 10000 4.1 350 13:40 01.08.2019
4153 Clouds 27 1017 44 10000 5.7 310 13:21 01.08.2019
4154 Clouds 27 1017 44 10000 4.1 330 12:49 01.08.2019
4155 Clouds 26 1017 47 10000 4.1 320 12:28 01.08.2019
4156 Clouds 26 1017 47 10000 4.1 320 12:28 01.08.2019
4157 Clouds 26 1017 53 10000 4.6 330 11:55 01.08.2019
4158 Clouds 25 1017 53 10000 5.7 320 11:36 01.08.2019
4159 Clouds 25 1017 53 10000 5.7 320 11:18 01.08.2019
4160 Clouds 24 1017 57 10000 5.1 310 10:41 01.08.2019
4161 Clouds 23 1017 60 10000 5.7 330 10:22 01.08.2019
4162 Clouds 23 1017 60 10000 6.7 320 09:48 01.08.2019
4163 Clouds 21 1017 64 10000 6.2 320 09:23 01.08.2019
4164 Rain 21 1017 68 10000 6.2 320 08:50 01.08.2019
4165 Rain 20 1017 73 10000 5.1 320 08:21 01.08.2019
4166 Clear 19 1017 68 10000 5.7 300 07:55 01.08.2019
4167 Clouds 19 1017 72 10000 6.2 310 07:29 01.08.2019
4168 Clouds 18 1017 72 10000 6.2 300 06:58 01.08.2019
4169 Clouds 18 1017 72 10000 6.2 300 06:36 01.08.2019
4170 Clear 18 1017 77 10000 6.2 300 05:32 01.08.2019
4171 Clouds 18 1017 77 10000 7.2 300 02:36 01.08.2019
4172 Rain 18 1017 82 10000 6.7 310 01:33 01.08.2019
4173 Rain 19 1017 82 10000 6.7 280 00:27 01.08.2019
4174 Rain 19 1017 82 10000 7.2 290 23:59 31.07.2019
4175 Rain 19 1017 82 10000 7.2 290 23:40 31.07.2019
4176 Rain 19 1017 82 10000 6.2 280 23:19 31.07.2019
4177 Rain 19 1017 77 10000 7.7 290 22:44 31.07.2019
4178 Rain 20 1017 73 10000 6.7 300 22:25 31.07.2019
4179 Rain 20 1016 73 10000 6.7 310 21:41 31.07.2019
4180 Clouds 20 1015 73 10000 5.7 320 21:23 31.07.2019
4181 Clouds 21 1014 64 10000 7.2 310 20:49 31.07.2019
4182 Clouds 21 1014 64 10000 10.3 300 20:24 31.07.2019
4183 Clouds 22 1014 64 10000 4.6 310 19:55 31.07.2019
4184 Clouds 22 1013 57 10000 4.1 330 19:37 31.07.2019
4185 Clouds 22 1013 57 10000 4.1 330 19:19 31.07.2019
4186 Rain 24 1013 54 10000 7.2 320 18:39 31.07.2019
4187 Rain 24 1013 54 10000 7.2 320 18:19 31.07.2019
4188 Rain 25 1013 51 10000 7.2 340 17:45 31.07.2019
4189 Clouds 25 1013 51 10000 10.3 330 17:20 31.07.2019
4190 Thunderstorm 26 1013 42 10000 5.7 330 16:54 31.07.2019
4191 Thunderstorm 28 1012 40 10000 6.2 320 16:34 31.07.2019
4192 Clouds 28 1012 45 10000 5.1 320 16:00 31.07.2019
4193 Clouds 29 1012 45 10000 5.1 320 15:40 31.07.2019
4194 Clouds 29 1013 45 10000 5.1 320 15:21 31.07.2019
4195 Clouds 29 1013 45 10000 5.7 310 14:42 31.07.2019
4196 Clouds 29 1013 45 10000 5.7 310 14:20 31.07.2019
4197 Clouds 29 1013 42 10000 5.1 290 13:56 31.07.2019
4198 Clouds 29 1013 42 10000 5.1 290 13:37 31.07.2019
4199 Thunderstorm 29 1013 48 10000 4.6 300 13:19 31.07.2019
4200 Clouds 29 1014 48 10000 5.7 310 12:42 31.07.2019
4201 Clouds 28 1014 48 10000 5.7 310 12:23 31.07.2019
4202 Clouds 28 1014 51 10000 6.7 310 11:40 31.07.2019
4203 Clear 27 1014 51 10000 4.6 310 11:21 31.07.2019
4204 Clouds 27 1014 51 10000 4.6 320 10:56 31.07.2019
4205 Clouds 27 1014 51 10000 4.6 320 10:38 31.07.2019
4206 Clouds 26 1014 54 10000 5.7 320 10:19 31.07.2019
4207 Clouds 25 1013 57 10000 5.7 320 09:43 31.07.2019
4208 Clear 25 1013 57 10000 6.2 310 09:23 31.07.2019
4209 Clear 24 1013 64 10000 2.6 330 08:44 31.07.2019
4210 Clear 23 1013 64 10000 3.6 320 08:24 31.07.2019
4211 Clear 22 1013 60 10000 4.6 300 07:50 31.07.2019
4212 Clear 22 1012 60 10000 4.6 280 07:31 31.07.2019
4213 Clear 21 1012 64 10000 2.6 270 05:24 31.07.2019
4214 Clear 21 1012 60 10000 5.1 300 04:21 31.07.2019
4215 Clear 22 1012 64 10000 4.1 260 00:41 31.07.2019
4216 Clear 23 1011 69 10000 4.6 290 23:51 30.07.2019
4217 Clear 23 1012 78 0 2.1 230 23:30 30.07.2019
4218 Clear 23 1012 57 10000 5.1 290 22:59 30.07.2019
4219 Clear 23 1012 57 10000 5.1 290 22:40 30.07.2019
4220 Clear 23 1012 57 10000 4.6 300 22:21 30.07.2019
4221 Clear 23 1012 57 10000 5.1 290 21:38 30.07.2019
4222 Clear 24 1011 57 10000 6.2 280 21:19 30.07.2019
4223 Clouds 25 1010 69 10000 5.7 290 20:56 30.07.2019
4224 Rain 25 1011 65 0 4.1 240 20:38 30.07.2019
4225 Rain 25 1011 65 0 4.1 240 20:19 30.07.2019
4226 Clear 25 1010 57 10000 6.7 280 19:47 30.07.2019
4227 Clouds 26 1010 57 10000 7.2 280 19:29 30.07.2019
4228 Clouds 26 1011 57 10000 7.2 290 18:48 30.07.2019
4229 Clouds 26 1011 57 10000 6.2 320 18:26 30.07.2019
4230 Rain 27 1011 61 10000 6.2 310 17:58 30.07.2019
4231 Rain 26 1011 61 10000 6.2 310 17:40 30.07.2019
4232 Clouds 27 1011 57 10000 7.2 290 17:18 30.07.2019
4233 Clouds 26 1011 54 10000 8.7 300 16:46 30.07.2019
4234 Clouds 26 1011 54 10000 8.7 300 16:46 30.07.2019
4235 Thunderstorm 26 1011 51 10000 8.2 300 16:19 30.07.2019
4236 Clouds 27 1011 54 10000 9.3 310 15:41 30.07.2019
4237 Clouds 27 1011 54 10000 8.7 290 15:22 30.07.2019
4238 -273 0 0 0 0 0 14:46 30.07.2019
4239 Clouds 27 1011 54 10000 8.7 300 14:26 30.07.2019
4240 Clouds 27 1011 54 10000 8.2 300 13:59 30.07.2019
4241 Clouds 27 1011 54 10000 8.2 300 13:39 30.07.2019
4242 Clouds 26 1011 54 10000 7.7 290 13:20 30.07.2019
4243 Clouds 26 1011 54 10000 7.2 300 12:46 30.07.2019
4244 Clouds 26 1011 57 10000 7.7 310 12:28 30.07.2019
4245 Clouds 26 1011 61 10000 7.7 290 11:56 30.07.2019
4246 Clouds 25 1011 61 10000 7.7 300 11:37 30.07.2019
4247 Clouds 25 1011 61 10000 7.7 300 11:18 30.07.2019
4248 Clouds 24 1011 61 10000 8.2 300 10:39 30.07.2019
4249 Clouds 24 1011 61 10000 8.2 300 10:20 30.07.2019
4250 Clear 24 1011 65 10000 7.2 300 09:48 30.07.2019
4251 Clear 23 1011 61 10000 8.2 300 09:29 30.07.2019
4252 Clear 22 1011 64 10000 7.7 290 08:43 30.07.2019
4253 Clear 21 1011 69 10000 6.7 300 08:20 30.07.2019
4254 Clear 21 1010 69 10000 6.2 290 07:46 30.07.2019
4255 Clear 21 1010 73 10000 6.2 280 07:23 30.07.2019
4256 Clear 20 1010 73 10000 6.2 280 06:46 30.07.2019
4257 Clear 20 1010 73 10000 6.2 280 06:46 30.07.2019
4258 Clear 20 1010 73 10000 7.2 280 05:52 30.07.2019
4259 Clear 20 1009 73 10000 6.7 280 05:32 30.07.2019
4260 Clouds 20 1009 73 10000 3.6 300 01:38 30.07.2019
4261 Clear 20 1009 73 10000 5.7 270 00:40 30.07.2019
4262 Clear 20 1009 73 10000 6.7 270 00:20 30.07.2019
4263 Clear 20 1009 73 10000 8.2 280 23:44 29.07.2019
4264 Clear 20 1009 73 10000 7.2 280 23:25 29.07.2019
4265 Clear 20 1009 73 10000 7.2 280 22:57 29.07.2019
4266 Clear 20 1009 73 10000 7.2 280 22:38 29.07.2019
4267 Clear 20 1009 73 10000 7.2 280 22:38 29.07.2019
4268 Clear 20 1009 73 10000 7.2 280 22:19 29.07.2019
4269 Clear 20 1009 73 10000 7.7 280 21:55 29.07.2019
4270 Clear 20 1008 68 10000 7.2 280 21:37 29.07.2019
4271 Clear 20 1008 68 10000 7.2 280 21:18 29.07.2019
4272 Clear 21 1008 68 10000 8.2 280 20:43 29.07.2019
4273 Clear 21 1008 68 10000 8.2 280 20:22 29.07.2019
4274 Clear 21 1008 64 10000 8.2 280 19:54 29.07.2019
4275 Clear 21 1007 64 10000 8.2 280 19:36 29.07.2019
4276 Clear 22 1007 64 10000 8.2 280 19:18 29.07.2019
4277 Clear 21 1007 64 10000 8.2 280 19:18 29.07.2019
4278 Clear 22 1007 57 10000 7.7 280 18:41 29.07.2019
4279 Clouds 24 1007 57 10000 7.7 280 18:21 29.07.2019
4280 Clouds 25 1007 57 10000 8.2 310 17:49 29.07.2019
4281 Clouds 25 1007 54 10000 8.2 310 17:31 29.07.2019
4282 Clouds 25 1007 54 10000 7.2 300 16:57 29.07.2019
4283 Clouds 26 1007 61 10000 5.7 310 16:38 29.07.2019
4284 Clouds 26 1007 61 10000 5.7 310 16:20 29.07.2019
4285 Clouds 26 1007 51 10000 5.1 320 15:49 29.07.2019
4286 Clouds 26 1007 54 10000 4.1 310 15:30 29.07.2019
4287 Clouds 26 1007 57 10000 4.1 310 14:44 29.07.2019
4288 Clouds 26 1007 61 10000 3.1 320 14:21 29.07.2019
4289 Clouds 26 1007 61 10000 3.6 300 13:57 29.07.2019
4290 Clouds 26 1007 61 10000 3.6 300 13:36 29.07.2019
4291 Clouds 26 1007 65 10000 2.6 330 13:18 29.07.2019
4292 Clouds 26 1008 65 10000 3.1 300 12:41 29.07.2019
4293 Clouds 25 1007 69 10000 3.6 320 12:21 29.07.2019
4294 Clouds 24 1007 69 10000 2.6 310 11:42 29.07.2019
4295 Clouds 23 1007 73 10000 2.1 310 11:21 29.07.2019
4296 Clouds 23 1007 73 10000 2.1 360 10:45 29.07.2019
4297 Clouds 22 1007 78 10000 2.1 30 10:23 29.07.2019
4298 Clouds 22 1007 78 10000 2.6 350 09:45 29.07.2019
4299 Clouds 21 1007 83 10000 2.1 10 09:25 29.07.2019
4300 Clouds 21 1006 83 10000 2.1 360 08:56 29.07.2019
4301 Mist 20 1006 94 10000 2.1 360 08:27 29.07.2019
4302 Mist 20 1006 94 10000 2.6 360 07:55 29.07.2019
4303 Clouds 20 1005 93 10000 2.1 350 07:32 29.07.2019
4304 Clouds 19 1005 93 10000 2.1 350 06:44 29.07.2019
4305 Clouds 19 1005 93 10000 1.5 350 05:39 29.07.2019
4306 Clouds 19 1005 93 10000 1.5 20 04:35 29.07.2019
4307 Rain 19 1004 94 10000 1.5 50 01:55 29.07.2019
4308 Rain 19 1004 94 9000 1.5 110 01:37 29.07.2019
4309 Rain 19 1004 94 10000 0.5 0 00:59 29.07.2019
4310 Rain 20 1003 88 10000 1.5 310 00:38 29.07.2019
4311 Thunderstorm 20 1003 88 10000 1.5 310 00:18 29.07.2019
4312 Thunderstorm 20 1002 88 10000 1.5 320 23:38 28.07.2019
4313 Thunderstorm 20 1002 88 10000 1.5 320 23:18 28.07.2019
4314 Rain 20 1002 88 10000 1.5 160 22:37 28.07.2019
4315 Rain 20 1002 88 10000 1.5 130 22:18 28.07.2019
4316 Rain 21 1002 83 10000 4.6 150 21:43 28.07.2019
4317 Rain 23 1001 78 10000 2.1 20 21:18 28.07.2019
4318 Rain 23 1001 73 10000 1.5 30 20:44 28.07.2019
4319 Clouds 24 1001 73 10000 1 20 20:26 28.07.2019
4320 Clouds 24 1000 73 10000 1.5 10 19:42 28.07.2019
4321 Clouds 24 1000 73 10000 1.5 10 19:42 28.07.2019
4322 Clouds 25 1000 65 10000 2.1 30 19:22 28.07.2019
4323 Thunderstorm 26 1000 65 10000 2.1 110 18:51 28.07.2019
4324 Rain 26 1000 61 10000 4.6 160 18:30 28.07.2019
4325 Clouds 26 1001 61 10000 4.1 110 17:58 28.07.2019
4326 Clouds 27 1001 61 10000 4.1 110 17:40 28.07.2019
4327 Thunderstorm 27 1000 57 10000 4.6 120 17:20 28.07.2019
4328 Clouds 27 1001 54 10000 4.1 110 16:47 28.07.2019
4329 Clouds 27 1001 54 10000 6.2 150 16:28 28.07.2019
4330 Clouds 27 1001 61 10000 5.1 100 15:57 28.07.2019
4331 Clouds 27 1001 61 10000 5.1 100 15:57 28.07.2019
4332 Clouds 27 1001 61 10000 5.1 100 15:39 28.07.2019
4333 Clouds 26 1001 61 10000 4.6 90 15:21 28.07.2019
4334 Clouds 26 1001 65 10000 4.1 120 14:37 28.07.2019
4335 Clouds 25 1002 69 10000 5.1 110 14:18 28.07.2019
4336 Rain 25 1001 69 10000 5.7 120 13:42 28.07.2019
4337 Rain 24 1002 78 10000 4.6 120 13:22 28.07.2019
4338 Clouds 24 1002 78 10000 3.1 140 12:59 28.07.2019
4339 Clouds 24 1002 78 10000 3.1 140 12:40 28.07.2019
4340 Clouds 23 1002 83 10000 4.6 130 12:22 28.07.2019
4341 Clouds 22 1002 88 10000 4.1 120 11:46 28.07.2019
4342 Clouds 22 1002 88 10000 5.7 130 11:27 28.07.2019
4343 Rain 21 1002 93 10000 5.1 130 10:40 28.07.2019
4344 Rain 21 1002 93 10000 6.7 130 10:21 28.07.2019
4345 Rain 20 1003 93 10000 5.7 130 09:41 28.07.2019
4346 Rain 20 1003 93 10000 6.2 130 09:23 28.07.2019
4347 Clouds 20 1002 88 10000 7.2 140 08:51 28.07.2019
4348 Clouds 20 1002 88 10000 5.7 140 08:28 28.07.2019
4349 Clouds 19 1002 88 10000 4.6 130 07:53 28.07.2019
4350 Clouds 19 1002 88 10000 5.7 120 07:35 28.07.2019
4351 Clouds 19 1002 93 10000 5.1 120 06:42 28.07.2019
4352 Clouds 18 1001 88 10000 3.1 110 05:27 28.07.2019
4353 Clear 18 1002 93 10000 3.1 110 03:30 28.07.2019
4354 Clear 18 1003 93 10000 2.6 110 02:24 28.07.2019
4355 Clouds 19 1003 93 10000 2.1 90 01:19 28.07.2019
4356 Clouds 19 1003 88 10000 1.5 90 00:45 28.07.2019
4357 Clouds 18 1003 88 10000 1.5 90 00:18 28.07.2019
4358 Clouds 18 1003 93 10000 1 0 23:46 27.07.2019
4359 Clouds 18 1002 88 10000 1.5 0 23:20 27.07.2019
4360 Clouds 19 1003 88 10000 2.1 360 22:41 27.07.2019
4361 Clouds 19 1003 93 10000 2.6 60 22:22 27.07.2019
4362 Rain 19 1004 93 10000 1.5 90 21:41 27.07.2019
4363 Rain 19 1005 88 10000 2.1 230 21:20 27.07.2019
4364 Rain 20 1005 82 10000 1.5 170 20:52 27.07.2019
4365 Clouds 20 1004 88 10000 1.5 220 20:26 27.07.2019
4366 Clouds 20 1004 93 10000 2.6 110 19:56 27.07.2019
4367 Clouds 20 1004 93 10000 2.6 110 19:38 27.07.2019
4368 Rain 20 1005 88 10000 1.5 160 19:18 27.07.2019
4369 Rain 20 1005 82 10000 1.5 240 18:42 27.07.2019
4370 Rain 20 1005 82 10000 5.1 260 18:24 27.07.2019
4371 Rain 20 1006 82 10000 2.1 70 17:42 27.07.2019
4372 Rain 20 1006 82 10000 2.1 70 17:23 27.07.2019
4373 Rain 21 1006 82 10000 3.6 110 16:50 27.07.2019
4374 Rain 22 1006 77 10000 3.6 100 16:32 27.07.2019
4375 Rain 22 1006 73 10000 4.1 100 15:54 27.07.2019
4376 Clouds 22 1006 68 10000 4.6 110 15:22 27.07.2019
4377 Clouds 23 1006 64 10000 4.1 80 14:51 27.07.2019
4378 Clouds 23 1006 68 10000 4.1 60 14:32 27.07.2019
4379 Rain 22 1006 68 10000 3.1 30 13:58 27.07.2019
4380 Rain 23 1006 68 10000 3.1 30 13:39 27.07.2019
4381 Rain 22 1006 77 10000 2.6 70 13:19 27.07.2019
4382 Rain 22 1005 77 10000 4.6 110 12:42 27.07.2019
4383 Rain 22 1005 73 10000 6.7 100 12:22 27.07.2019
4384 Thunderstorm 21 1006 83 10000 5.1 100 11:44 27.07.2019
4385 Rain 21 1006 88 10000 4.6 50 11:25 27.07.2019
4386 Thunderstorm 20 1006 88 7000 2.1 30 10:43 27.07.2019
4387 Thunderstorm 20 1006 73 10000 2.6 350 10:24 27.07.2019
4388 Thunderstorm 21 1005 73 10000 4.6 100 09:59 27.07.2019
4389 Thunderstorm 21 1005 73 10000 4.6 80 09:39 27.07.2019
4390 Thunderstorm 21 1005 73 10000 4.6 80 09:20 27.07.2019
4391 Clouds 21 1005 77 10000 4.1 70 08:42 27.07.2019
4392 Clouds 21 1005 77 10000 4.1 70 08:24 27.07.2019
4393 Clouds 21 1005 73 10000 3.1 90 07:42 27.07.2019
4394 Clouds 21 1005 73 10000 2.6 80 07:22 27.07.2019
4395 Clouds 20 1005 77 10000 2.1 80 06:52 27.07.2019
4396 Clouds 20 1004 73 10000 3.6 110 06:25 27.07.2019
4397 Clouds 20 1005 77 10000 4.1 120 05:42 27.07.2019
4398 Clear 20 1005 78 10000 4.1 120 04:52 27.07.2019
4399 Clear 20 1005 78 10000 4.1 110 03:55 27.07.2019
4400 Clear 21 1005 78 10000 3.6 100 02:43 27.07.2019
4401 Clear 22 1005 78 10000 3.1 110 02:20 27.07.2019
4402 Clear 22 1005 78 10000 2.6 120 01:41 27.07.2019
4403 Clear 23 1005 69 10000 2.1 20 00:51 27.07.2019
4404 Clear 23 1005 61 10000 2.1 80 00:31 27.07.2019
4405 Clear 24 1006 61 10000 3.1 60 23:49 26.07.2019
4406 Thunderstorm 25 1006 57 10000 3.1 40 23:26 26.07.2019
4407 Thunderstorm 25 1006 54 10000 3.1 190 22:45 26.07.2019
4408 Thunderstorm 25 1006 54 10000 3.1 190 22:45 26.07.2019
4409 Rain 26 1006 57 10000 2.1 100 22:26 26.07.2019
4410 Thunderstorm 28 1006 51 10000 4.1 180 21:56 26.07.2019
4411 Thunderstorm 28 1006 45 10000 5.1 190 21:37 26.07.2019
4412 Thunderstorm 28 1006 45 10000 5.1 190 21:18 26.07.2019
4413 Clear 29 1006 31 10000 4.6 170 20:40 26.07.2019
4414 Clear 30 1006 31 10000 4.6 170 20:21 26.07.2019
4415 Clear 31 1006 26 10000 1.5 150 19:41 26.07.2019
4416 Clear 32 1006 26 10000 1.5 150 19:22 26.07.2019
4417 Clear 33 1006 24 10000 2.1 140 18:46 26.07.2019
4418 Clear 34 1007 24 10000 1.5 70 18:22 26.07.2019
4419 Clear 34 1007 24 10000 1.5 0 17:58 26.07.2019
4420 Clear 34 1007 24 10000 1.5 0 17:39 26.07.2019
4421 Clear 34 1007 23 10000 2.6 20 17:18 26.07.2019
4422 Clouds 35 1008 23 10000 2.6 20 16:55 26.07.2019
4423 Clouds 35 1008 23 10000 2.6 20 16:37 26.07.2019
4424 Clouds 35 1008 23 10000 2.1 0 16:18 26.07.2019
4425 Clouds 35 1009 24 10000 3.1 0 15:45 26.07.2019
4426 Clear 34 1009 23 10000 3.1 50 15:22 26.07.2019
4427 Clear 34 1010 29 10000 2.1 40 14:58 26.07.2019
4428 Clear 34 1010 29 10000 2.1 40 14:40 26.07.2019
4429 Clouds 34 1010 31 10000 2.6 0 14:21 26.07.2019
4430 Clouds 34 1010 33 10000 3.1 150 13:39 26.07.2019
4431 Clear 34 1010 36 10000 2.6 0 13:21 26.07.2019
4432 Clear 32 1011 45 10000 1.5 0 12:43 26.07.2019
4433 Clear 32 1011 45 10000 1.5 0 12:19 26.07.2019
4434 Clear 31 1011 45 10000 2.6 110 11:39 26.07.2019
4435 Clear 30 1011 48 10000 2.1 120 11:19 26.07.2019
4436 Clear 29 1011 51 10000 2.1 70 10:52 26.07.2019
4437 Clear 29 1012 51 10000 2.1 110 10:34 26.07.2019
4438 Clear 27 1012 54 10000 2.1 140 09:55 26.07.2019
4439 Clear 27 1012 54 10000 2.1 140 09:34 26.07.2019
4440 Clear 24 1012 61 10000 1 0 08:43 26.07.2019
4441 Clear 23 1012 60 10000 1.5 110 08:22 26.07.2019
4442 Clear 23 1012 64 10000 1 0 07:58 26.07.2019
4443 Clear 21 1012 77 10000 0.5 0 07:28 26.07.2019
4444 Clear 20 1012 77 10000 1 130 06:52 26.07.2019
4445 Clear 19 1012 77 10000 1 70 05:22 26.07.2019
4446 Clear 20 1013 72 10000 1 0 04:22 26.07.2019
4447 Clear 21 1013 68 10000 0.96 39.264 02:45 26.07.2019
4448 Clear 21 1014 64 10000 0.5 0 01:43 26.07.2019
4449 Clear 22 1014 56 10000 2.1 170 00:45 26.07.2019
4450 Clear 24 1014 53 10000 3.1 170 23:57 25.07.2019
4451 Clear 24 1014 47 10000 4.1 170 23:24 25.07.2019
4452 Clear 23 1015 50 10000 3.1 160 22:56 25.07.2019
4453 Clear 24 1015 50 10000 3.1 160 22:37 25.07.2019
4454 Clear 24 1015 44 10000 3.1 170 22:19 25.07.2019
4455 Clear 26 1015 41 10000 3.1 160 21:44 25.07.2019
4456 Clear 27 1015 39 10000 1.5 110 21:21 25.07.2019
4457 Clear 27 1015 39 10000 1.5 110 21:21 25.07.2019
4458 Clear 29 1015 35 10000 1 100 20:47 25.07.2019
4459 Clear 30 1015 31 10000 1.5 100 20:23 25.07.2019
4460 Clear 30 1015 27 10000 2.1 80 19:44 25.07.2019
4461 Clear 30 1015 27 10000 2.1 80 19:44 25.07.2019
4462 Clear 32 1015 26 10000 2.1 60 19:26 25.07.2019
4463 Clear 33 1015 24 10000 1.5 40 18:58 25.07.2019
4464 Clear 33 1015 26 10000 2.6 90 18:39 25.07.2019
4465 Clear 33 1015 26 10000 2.6 90 18:20 25.07.2019
4466 Clear 34 1016 26 10000 2.6 50 17:44 25.07.2019
4467 Clear 33 1016 27 10000 3.1 50 17:24 25.07.2019
4468 Clear 34 1016 26 10000 3.1 40 16:45 25.07.2019
4469 Clear 34 1016 27 10000 3.6 30 16:26 25.07.2019
4470 Clear 34 1016 27 10000 3.6 20 15:56 25.07.2019
4471 Clear 33 1017 27 10000 3.6 40 15:21 25.07.2019
4472 Clear 33 1017 31 10000 4.1 20 14:59 25.07.2019
4473 Clear 33 1017 31 10000 4.1 20 14:40 25.07.2019
4474 Clear 33 1017 33 10000 4.1 50 14:21 25.07.2019
4475 Clear 33 1017 35 10000 2.1 0 13:43 25.07.2019
4476 Clouds 32 1018 35 10000 2.1 90 13:25 25.07.2019
4477 Clouds 32 1018 35 10000 2.6 0 12:46 25.07.2019
4478 Clouds 31 1018 37 10000 2.6 160 12:27 25.07.2019
4479 Clouds 30 1018 45 10000 3.1 90 11:43 25.07.2019
4480 Clouds 29 1019 45 10000 2.6 80 11:23 25.07.2019
4481 Clouds 29 1019 51 10000 1.5 0 10:46 25.07.2019
4482 Clear 28 1019 54 10000 2.6 30 10:26 25.07.2019
4483 Clear 27 1019 50 10000 2.1 60 09:57 25.07.2019
4484 Clear 26 1019 50 10000 2.1 60 09:39 25.07.2019
4485 Clear 24 1019 53 10000 1.5 150 08:55 25.07.2019
4486 Clear 23 1019 53 10000 1.5 150 08:37 25.07.2019
4487 Clear 22 1019 56 10000 0.5 0 07:51 25.07.2019
4488 Clear 21 1019 73 10000 0.5 0 07:27 25.07.2019
4489 Clear 19 1019 77 10000 1 0 06:41 25.07.2019
4490 Clear 18 1018 82 10000 0.5 0 05:37 25.07.2019
4491 Clear 18 1018 68 10000 1.5 140 04:56 25.07.2019
4492 Clear 19 1018 72 10000 1 120 04:19 25.07.2019
4493 Clear 20 1018 60 10000 2.1 200 01:31 25.07.2019
4494 Clear 21 1018 56 10000 2.1 150 00:45 25.07.2019
4495 Clear 22 1017 60 10000 2.1 150 00:19 25.07.2019
4496 Clear 22 1017 53 10000 2.1 180 23:44 24.07.2019
4497 Clear 23 1017 50 10000 2.1 150 23:25 24.07.2019
4498 Clear 23 1017 50 10000 2.1 160 22:47 24.07.2019
4499 Clear 24 1017 44 10000 1.5 130 22:25 24.07.2019
4500 Clear 24 1017 44 10000 2.1 160 21:59 24.07.2019
4501 Clear 25 1017 44 10000 2.1 160 21:41 24.07.2019
4502 Clear 26 1017 42 10000 2.1 150 21:20 24.07.2019
4503 Clear 27 1016 39 10000 2.1 100 20:48 24.07.2019
4504 Clear 29 1016 37 10000 2.6 90 20:29 24.07.2019
4505 Clear 30 1016 38 10000 2.6 70 19:59 24.07.2019
4506 Clear 30 1016 33 10000 2.6 50 19:41 24.07.2019
4507 Clear 30 1016 33 10000 2.6 50 19:21 24.07.2019
4508 Clear 31 1016 31 10000 2.1 20 18:45 24.07.2019
4509 Clear 32 1017 31 10000 2.6 10 18:25 24.07.2019
4510 Clear 32 1017 31 10000 2.1 0 17:49 24.07.2019
4511 Clear 32 1017 33 10000 2.6 340 17:25 24.07.2019
4512 Clear 32 1017 31 10000 3.1 350 16:59 24.07.2019
4513 Clear 32 1017 31 10000 3.1 350 16:39 24.07.2019
4514 Clear 32 1017 31 10000 3.1 330 16:21 24.07.2019
4515 Clear 32 1017 31 10000 3.1 330 15:38 24.07.2019
4516 Clear 32 1017 31 10000 3.6 330 15:20 24.07.2019
4517 Clear 32 1018 37 10000 2.6 310 14:47 24.07.2019
4518 Clear 31 1018 37 10000 3.1 0 14:22 24.07.2019
4519 Clouds 31 1018 45 10000 2.6 360 13:42 24.07.2019
4520 Clouds 31 1018 45 10000 2.6 360 13:24 24.07.2019
4521 Clouds 30 1018 48 10000 1.5 0 12:55 24.07.2019
4522 Clouds 30 1018 48 10000 1.5 0 12:37 24.07.2019
4523 Clear 29 1018 48 10000 1.5 0 12:18 24.07.2019
4524 Clear 28 1019 51 10000 2.1 30 11:37 24.07.2019
4525 Clear 28 1019 54 10000 2.6 30 11:18 24.07.2019
4526 Clear 27 1019 54 10000 2.1 50 10:42 24.07.2019
4527 Clear 26 1019 61 10000 2.1 10 10:24 24.07.2019
4528 Clear 25 1019 64 10000 2.1 30 09:44 24.07.2019
4529 Clear 26 1019 64 10000 2.1 30 09:44 24.07.2019
4530 Clear 24 1019 69 10000 2.1 40 09:23 24.07.2019
4531 Clear 23 1019 73 10000 1.5 60 08:53 24.07.2019
4532 Clear 22 1019 73 10000 2.1 40 08:27 24.07.2019
4533 Clear 21 1019 73 10000 2.1 30 07:50 24.07.2019
4534 Clear 19 1019 82 10000 1.5 40 07:23 24.07.2019
4535 Clear 18 1019 82 10000 1 310 06:28 24.07.2019
4536 Clear 18 1019 82 10000 2.1 340 05:26 24.07.2019
4537 Clear 20 1020 73 10000 2.1 10 01:58 24.07.2019
4538 Clear 20 1019 68 10000 1.5 70 01:28 24.07.2019
4539 Clear 21 1019 64 10000 2.1 60 00:54 24.07.2019
4540 Clear 22 1019 68 10000 1.5 70 00:22 24.07.2019
4541 Clear 23 1018 57 10000 1 10 23:41 23.07.2019
4542 Clear 23 1018 57 10000 1 10 23:22 23.07.2019
4543 Clear 23 1018 53 10000 0.5 0 22:39 23.07.2019
4544 Clear 24 1018 53 10000 1 10 22:19 23.07.2019
4545 Clear 25 1018 50 10000 1 10 21:57 23.07.2019
4546 Clear 26 1018 50 10000 1 10 21:39 23.07.2019
4547 Clear 26 1018 47 10000 1.5 360 21:21 23.07.2019
4548 Clear 28 1018 39 10000 2.1 350 20:44 23.07.2019
4549 Clear 29 1018 37 10000 3.1 350 20:21 23.07.2019
4550 Clear 30 1018 35 10000 3.1 350 19:41 23.07.2019
4551 Clear 28 1018 33 10000 4.6 350 19:19 23.07.2019
4552 Clear 29 1018 33 10000 3.6 350 18:43 23.07.2019
4553 Clear 32 1018 31 10000 5.1 340 18:23 23.07.2019
4554 Clear 32 1018 31 10000 6.2 340 17:44 23.07.2019
4555 Clear 32 1018 31 10000 5.7 330 17:25 23.07.2019
4556 Clear 32 1018 31 10000 6.2 310 16:57 23.07.2019
4557 Clear 32 1019 33 10000 4.6 330 16:39 23.07.2019
4558 Clear 32 1019 33 10000 4.6 330 16:18 23.07.2019
4559 Clear 32 1019 35 10000 5.1 320 15:43 23.07.2019
4560 Clear 31 1019 35 10000 4.6 330 15:23 23.07.2019
4561 Clear 31 1020 37 10000 5.1 310 14:39 23.07.2019
4562 Clear 31 1020 37 10000 5.1 310 14:20 23.07.2019
4563 Clear 31 1020 35 10000 5.7 330 13:57 23.07.2019
4564 Clear 31 1020 35 10000 5.7 330 13:38 23.07.2019
4565 Clear 30 1020 39 10000 6.7 340 13:20 23.07.2019
4566 Clear 30 1021 39 10000 5.1 330 12:47 23.07.2019
4567 Clear 29 1021 42 10000 6.7 340 12:25 23.07.2019
4568 Clear 28 1021 42 10000 6.7 310 11:47 23.07.2019
4569 Clear 28 1021 42 10000 6.2 310 11:29 23.07.2019
4570 Clear 28 1021 42 10000 5.7 330 10:57 23.07.2019
4571 Clear 27 1021 42 10000 5.7 330 10:38 23.07.2019
4572 Clear 27 1022 44 10000 4.1 320 10:19 23.07.2019
4573 Clear 25 1021 50 10000 4.6 310 09:40 23.07.2019
4574 Clear 24 1021 50 10000 4.6 310 09:18 23.07.2019
4575 Clear 23 1022 53 10000 5.1 320 08:40 23.07.2019
4576 Clear 23 1021 57 10000 4.6 320 08:19 23.07.2019
4577 Clear 22 1021 64 10000 3.6 330 07:53 23.07.2019
4578 Rain 21 1021 68 10000 1 0 07:33 23.07.2019
4579 Clear 20 1021 77 10000 1 0 06:38 23.07.2019
4580 Clear 19 1021 68 10000 2.1 10 05:57 23.07.2019
4581 Clear 21 1021 53 10000 3.1 270 02:25 23.07.2019
4582 Clear 21 1021 50 10000 3.1 260 01:31 23.07.2019
4583 Clear 21 1021 47 10000 3.1 260 00:30 23.07.2019
4584 Clear 21 1021 44 10000 3.1 270 23:43 22.07.2019
4585 Clouds 22 1021 60 0 1 210 23:22 22.07.2019
4586 Clear 22 1021 41 10000 4.1 280 22:59 22.07.2019
4587 Clear 23 1021 41 10000 4.1 280 22:41 22.07.2019
4588 Clear 23 1021 36 10000 4.6 270 22:20 22.07.2019
4589 Clear 24 1021 36 10000 5.1 280 21:42 22.07.2019
4590 Clear 25 1021 34 10000 6.2 280 21:21 22.07.2019
4591 Clear 26 1021 32 10000 5.7 280 20:48 22.07.2019
4592 Clear 27 1021 51 10000 2.1 310 20:30 22.07.2019
4593 Clear 27 1021 48 10000 2.1 320 19:55 22.07.2019
4594 Clear 28 1021 42 10000 2.6 340 19:37 22.07.2019
4595 Clear 28 1021 42 10000 2.6 340 19:18 22.07.2019
4596 Clear 29 1021 39 10000 2.1 20 18:41 22.07.2019
4597 Clear 29 1021 39 10000 2.1 20 18:23 22.07.2019
4598 Clear 29 1021 42 10000 2.1 20 17:43 22.07.2019
4599 Clear 30 1022 42 10000 2.6 20 17:25 22.07.2019
4600 Clear 29 1022 42 10000 2.6 360 16:54 22.07.2019
4601 Clear 29 1022 42 10000 2.6 360 16:36 22.07.2019
4602 Clear 29 1022 42 10000 3.1 10 16:18 22.07.2019
4603 Clear 29 1022 37 10000 3.1 350 15:38 22.07.2019
4604 Clear 29 1022 37 10000 3.6 340 15:19 22.07.2019
4605 Clear 29 1023 35 10000 3.1 20 14:43 22.07.2019
4606 Clouds 29 1023 39 10000 2.1 0 14:22 22.07.2019
4607 Clear 29 1023 39 10000 2.1 0 13:50 22.07.2019
4608 Clear 29 1024 42 10000 3.1 40 13:30 22.07.2019
4609 Clear 28 1024 42 10000 2.1 20 12:47 22.07.2019
4610 Clear 28 1024 47 10000 2.6 50 12:29 22.07.2019
4611 Clear 27 1024 51 10000 1.5 40 11:46 22.07.2019
4612 Clear 27 1024 54 10000 2.1 0 11:26 22.07.2019
4613 Clear 27 1024 57 10000 1.5 0 10:59 22.07.2019
4614 Clear 27 1024 61 10000 1.5 0 10:33 22.07.2019
4615 Clear 25 1024 64 10000 2.6 10 09:46 22.07.2019
4616 Clear 23 1024 64 10000 2.6 360 09:26 22.07.2019
4617 Clear 23 1024 68 10000 2.1 360 08:59 22.07.2019
4618 Clear 22 1024 68 10000 2.1 360 08:37 22.07.2019
4619 Clear 21 1024 73 10000 2.1 10 08:18 22.07.2019
4620 Clear 20 1023 72 10000 2.1 350 07:46 22.07.2019
4621 Clear 19 1024 77 10000 1 50 07:27 22.07.2019
4622 Clear 17 1023 82 10000 1 10 04:56 22.07.2019
4623 Clear 18 1023 72 10000 1 0 02:58 22.07.2019
4624 Clear 19 1023 64 10000 2.1 320 00:58 22.07.2019
4625 Clear 19 1023 64 10000 2.1 320 00:38 22.07.2019
4626 Clear 19 1022 64 10000 2.6 320 00:20 22.07.2019
4627 Clear 20 1022 68 10000 1 0 23:45 21.07.2019
4628 Clear 21 1022 64 10000 3.6 320 22:57 21.07.2019
4629 Clear 21 1022 64 10000 3.6 320 22:39 21.07.2019
4630 Clear 22 1022 60 10000 5.1 300 22:20 21.07.2019
4631 Clear 22 1021 53 10000 6.2 270 21:49 21.07.2019
4632 Clouds 23 1021 53 10000 5.1 250 21:26 21.07.2019
4633 Clouds 23 1021 50 10000 5.1 270 20:57 21.07.2019
4634 Clouds 24 1021 50 10000 5.1 270 20:39 21.07.2019
4635 Clouds 24 1021 50 10000 6.7 280 20:21 21.07.2019
4636 Clouds 25 1021 50 10000 5.7 280 19:48 21.07.2019
4637 Clear 25 1020 54 10000 4.1 310 19:28 21.07.2019
4638 Clear 26 1020 54 10000 4.6 310 18:49 21.07.2019
4639 Clear 26 1020 60 10000 2.1 350 18:26 21.07.2019
4640 Clear 26 1020 57 10000 3.1 340 17:55 21.07.2019
4641 Clear 26 1020 53 10000 5.1 320 17:36 21.07.2019
4642 Clear 26 1020 53 10000 5.1 320 17:18 21.07.2019
4643 Clear 26 1020 50 10000 6.7 310 16:40 21.07.2019
4644 Clear 26 1020 50 10000 6.7 310 16:22 21.07.2019
4645 Clear 26 1020 50 10000 6.7 310 16:22 21.07.2019
4646 Clouds 25 1020 53 10000 5.7 310 15:40 21.07.2019
4647 Clouds 24 1021 53 10000 5.7 310 15:20 21.07.2019
4648 Clouds 24 1021 53 10000 6.2 320 14:44 21.07.2019
4649 Clouds 24 1021 47 10000 10.3 300 14:24 21.07.2019
4650 Clouds 24 1020 51 10000 9.8 300 13:53 21.07.2019
4651 Clouds 25 1020 47 10000 9.3 300 13:33 21.07.2019
4652 Clouds 25 1020 47 10000 9.8 300 12:55 21.07.2019
4653 Clouds 25 1020 47 10000 9.8 300 12:37 21.07.2019
4654 Clouds 25 1020 45 10000 10.3 280 12:18 21.07.2019
4655 Clouds 26 1019 44 10000 9.8 280 11:44 21.07.2019
4656 Rain 26 1019 47 10000 4.6 310 11:25 21.07.2019
4657 Clouds 26 1018 51 10000 2.6 330 10:43 21.07.2019
4658 Clear 26 1018 57 10000 1.5 330 10:24 21.07.2019
4659 Clear 25 1018 57 10000 1 0 09:52 21.07.2019
4660 Clear 25 1018 57 10000 1 0 09:32 21.07.2019
4661 Clear 24 1017 69 10000 2.1 180 08:47 21.07.2019
4662 Clear 23 1017 73 10000 1.5 140 08:27 21.07.2019
4663 Clear 22 1017 73 10000 2.6 170 07:40 21.07.2019
4664 Clear 21 1017 77 10000 2.6 160 07:18 21.07.2019
4665 Clear 20 1016 72 10000 2.6 180 05:56 21.07.2019
4666 Clear 20 1016 82 10000 2.6 170 02:59 21.07.2019
4667 Clear 20 1016 77 10000 3.1 160 01:50 21.07.2019
4668 Clear 21 1016 64 10000 2.1 200 00:42 21.07.2019
4669 Clear 21 1016 64 10000 2.1 200 00:20 21.07.2019
4670 Rain 22 1016 60 10000 2.1 190 23:44 20.07.2019
4671 Rain 22 1015 57 10000 2.1 180 23:22 20.07.2019
4672 Clear 23 1015 60 10000 1 0 22:49 20.07.2019
4673 Clear 23 1015 50 10000 3.1 180 22:23 20.07.2019
4674 Clear 24 1015 50 10000 3.1 180 21:59 20.07.2019
4675 Clear 24 1015 50 10000 3.1 180 21:39 20.07.2019
4676 Clear 25 1015 54 10000 2.6 200 21:21 20.07.2019
4677 Rain 27 1015 48 10000 3.6 180 20:42 20.07.2019
4678 Rain 28 1015 45 10000 4.6 150 20:21 20.07.2019
4679 Rain 29 1015 42 10000 3.6 180 19:48 20.07.2019
4680 Rain 30 1014 38 10000 3.6 190 19:25 20.07.2019
4681 Rain 31 1014 35 10000 6.2 170 18:45 20.07.2019
4682 Rain 31 1014 33 10000 5.7 150 18:24 20.07.2019
4683 Rain 32 1014 29 10000 4.1 160 17:55 20.07.2019
4684 Rain 32 1015 31 10000 2.1 0 17:26 20.07.2019
4685 Clouds 32 1015 31 10000 3.1 0 16:46 20.07.2019
4686 Clouds 32 1015 31 10000 2.1 0 16:28 20.07.2019
4687 Rain 32 1015 35 10000 2.1 0 15:58 20.07.2019
4688 Rain 32 1015 35 10000 2.1 0 15:40 20.07.2019
4689 Clouds 32 1015 35 10000 1.5 0 15:20 20.07.2019
4690 Rain 31 1015 38 10000 2.6 190 14:49 20.07.2019
4691 Rain 30 1016 40 10000 3.1 50 14:29 20.07.2019
4692 Rain 31 1016 42 10000 3.1 40 13:57 20.07.2019
4693 Rain 30 1016 48 10000 2.6 0 13:37 20.07.2019
4694 Rain 29 1016 48 10000 2.6 0 13:19 20.07.2019
4695 Rain 29 1016 48 10000 3.6 40 12:44 20.07.2019
4696 Rain 28 1017 54 10000 3.1 40 12:18 20.07.2019
4697 Rain 27 1017 57 10000 3.1 40 11:41 20.07.2019
4698 Clear 26 1017 57 10000 2.6 50 11:20 20.07.2019
4699 Clear 25 1017 60 10000 1.5 100 10:41 20.07.2019
4700 Clear 24 1017 60 10000 1.5 100 10:22 20.07.2019
4701 Clear 23 1017 64 10000 2.1 90 09:48 20.07.2019
4702 Clear 22 1017 64 10000 1.5 80 09:25 20.07.2019
4703 Clear 21 1017 72 10000 1 0 08:49 20.07.2019
4704 Clear 20 1017 77 10000 1.5 20 08:23 20.07.2019
4705 Clear 19 1016 77 10000 1 0 07:35 20.07.2019
4706 Clear 17 1016 82 10000 1 0 06:46 20.07.2019
4707 Clear 16 1016 82 10000 0.5 0 05:25 20.07.2019
4708 Clear 17 1016 82 10000 1.5 350 04:31 20.07.2019
4709 Clear 18 1017 72 10000 1 0 01:55 20.07.2019
4710 Clear 19 1016 68 10000 0.5 0 00:53 20.07.2019
4711 Clear 19 1016 68 10000 1 340 00:33 20.07.2019
4712 Clear 19 1016 64 10000 2.6 320 23:59 19.07.2019
4713 Clear 20 1016 64 10000 2.6 320 23:39 19.07.2019
4714 Clear 20 1016 60 10000 2.1 270 23:20 19.07.2019
4715 Clear 21 1016 53 10000 2.6 260 22:41 19.07.2019
4716 Clear 21 1016 64 10000 2.1 160 22:22 19.07.2019
4717 Clear 22 1016 53 10000 3.1 190 21:44 19.07.2019
4718 Clear 22 1015 50 10000 4.1 210 21:26 19.07.2019
4719 Clear 23 1015 47 10000 5.1 220 20:44 19.07.2019
4720 Clear 24 1015 44 10000 4.6 230 20:26 19.07.2019
4721 Clear 24 1015 44 10000 4.6 230 20:26 19.07.2019
4722 Clear 25 1015 39 10000 4.6 210 19:45 19.07.2019
4723 Clear 26 1015 37 10000 5.7 210 19:20 19.07.2019
4724 Clear 26 1015 37 10000 5.7 210 19:20 19.07.2019
4725 Clear 27 1015 37 10000 5.1 220 18:42 19.07.2019
4726 Clouds 28 1015 39 10000 5.1 210 18:21 19.07.2019
4727 Clouds 28 1015 39 10000 5.1 210 18:21 19.07.2019
4728 Clear 28 1015 39 10000 6.2 220 17:50 19.07.2019
4729 Clouds 28 1015 42 10000 3.6 110 17:27 19.07.2019
4730 Thunderstorm 28 1015 42 10000 2.6 100 16:49 19.07.2019
4731 Thunderstorm 28 1015 39 10000 2.1 130 16:26 19.07.2019
4732 Thunderstorm 28 1015 42 10000 4.1 150 15:50 19.07.2019
4733 Clouds 28 1015 27 10000 5.1 290 15:31 19.07.2019
4734 Clouds 29 1015 27 10000 5.7 280 14:57 19.07.2019
4735 Clouds 29 1015 27 10000 5.7 280 14:38 19.07.2019
4736 Clouds 28 1015 26 10000 4.1 270 14:20 19.07.2019
4737 Clouds 29 1015 30 10000 4.1 210 13:44 19.07.2019
4738 Clouds 29 1015 30 10000 4.1 210 13:44 19.07.2019
4739 Clouds 29 1015 30 10000 4.1 210 13:44 19.07.2019
4740 Clouds 29 1015 30 10000 4.1 210 13:44 19.07.2019
4741 Clouds 29 1015 30 10000 4.1 210 13:44 19.07.2019
4742 Clouds 29 1015 35 10000 3.1 180 13:25 19.07.2019
4743 Clouds 28 1015 39 10000 1 0 12:55 19.07.2019
4744 Clouds 27 1016 39 10000 2.1 170 12:31 19.07.2019
4745 Rain 27 1016 41 10000 2.1 160 11:59 19.07.2019
4746 Rain 27 1016 41 10000 2.1 160 11:41 19.07.2019
4747 Clouds 26 1016 53 10000 3.1 140 11:18 19.07.2019
4748 Clouds 25 1015 57 0 2.1 240 10:42 19.07.2019
4749 Clouds 24 1015 57 0 2.1 240 10:22 19.07.2019
4750 Clear 23 1016 64 10000 1.5 170 09:57 19.07.2019
4751 Clear 22 1016 64 10000 1.5 170 09:39 19.07.2019
4752 Rain 21 1016 68 10000 2.1 150 09:20 19.07.2019
4753 Rain 20 1016 72 10000 3.1 130 08:42 19.07.2019
4754 Clouds 18 1015 77 10000 1.5 160 07:53 19.07.2019
4755 Clouds 18 1015 77 10000 1.5 160 07:53 19.07.2019
4756 Clouds 17 1015 82 10000 1.5 150 07:29 19.07.2019
4757 Clear 14 1015 87 10000 2.6 160 05:56 19.07.2019
4758 Clear 16 1014 77 10000 2.1 170 02:23 19.07.2019
4759 Clear 16 1014 72 10000 1 0 01:18 19.07.2019
4760 Clear 17 1014 68 10000 1 0 00:38 19.07.2019
4761 Clear 18 1014 72 10000 2.6 170 23:45 18.07.2019
4762 Clear 18 1014 72 10000 3.1 170 23:24 18.07.2019
4763 Clear 18 1014 68 10000 3.1 150 22:59 18.07.2019
4764 Clear 19 1014 68 10000 3.1 150 22:40 18.07.2019
4765 Clouds 19 1013 56 10000 2.6 200 22:19 18.07.2019
4766 Rain 21 1013 56 10000 3.1 200 21:44 18.07.2019
4767 Clear 21 1013 50 10000 2.6 190 21:26 18.07.2019
4768 Clear 23 1012 47 10000 2.1 190 20:51 18.07.2019
4769 Clear 24 1012 41 10000 1 120 20:29 18.07.2019
4770 Clear 24 1012 36 10000 0.5 0 19:59 18.07.2019
4771 Clear 24 1012 36 10000 0.5 0 19:40 18.07.2019
4772 Clear 25 1012 38 10000 3.1 310 19:18 18.07.2019
4773 Clear 25 1012 44 10000 3.1 330 18:42 18.07.2019
4774 Clear 26 1012 41 10000 2.6 360 18:20 18.07.2019
4775 Clouds 26 1012 39 10000 2.6 360 17:44 18.07.2019
4776 Clouds 26 1012 44 10000 1.5 360 17:24 18.07.2019
4777 Clouds 26 1012 44 10000 1.5 10 16:57 18.07.2019
4778 Clouds 26 1012 57 10000 3.1 10 16:39 18.07.2019
4779 Clouds 26 1012 57 10000 3.1 10 16:18 18.07.2019
4780 Thunderstorm 26 1012 57 10000 3.1 360 15:44 18.07.2019
4781 Clouds 25 1012 41 10000 2.6 70 15:25 18.07.2019
4782 Clouds 26 1013 41 10000 2.1 0 14:50 18.07.2019
4783 Clouds 26 1013 41 10000 3.1 60 14:32 18.07.2019
4784 Clouds 26 1013 44 10000 3.1 50 13:50 18.07.2019
4785 Clouds 26 1013 47 10000 3.1 20 13:24 18.07.2019
4786 Clouds 26 1013 50 10000 2.6 50 12:53 18.07.2019
4787 Clouds 25 1013 50 10000 2.6 0 12:22 18.07.2019
4788 Clouds 25 1013 49 10000 2.1 0 11:58 18.07.2019
4789 Clouds 24 1013 49 10000 2.1 0 11:39 18.07.2019
4790 Clear 23 1013 49 10000 2.1 60 11:21 18.07.2019
4791 Clear 23 1013 53 10000 2.6 20 10:49 18.07.2019
4792 Clear 22 1013 60 10000 1 0 09:50 18.07.2019
4793 Clear 20 1013 64 10000 1 0 09:27 18.07.2019
4794 Clear 20 1013 64 10000 1 0 09:27 18.07.2019
4795 Clear 19 1013 68 10000 1.5 220 08:53 18.07.2019
4796 Clear 18 1013 68 10000 1.5 320 08:25 18.07.2019
4797 Clear 17 1013 72 10000 1 0 07:57 18.07.2019
4798 Clear 17 1013 82 10000 2.1 340 07:35 18.07.2019
4799 Clear 15 1012 77 10000 2.1 220 06:48 18.07.2019
4800 Clouds 15 1012 82 10000 2.1 120 06:26 18.07.2019
4801 Clouds 16 1012 87 10000 3.1 360 03:41 18.07.2019
4802 Clouds 16 1012 77 10000 3.1 50 02:23 18.07.2019
4803 Clouds 17 1012 72 10000 1.5 70 01:36 18.07.2019
4804 Clouds 19 1012 60 10000 1.5 60 23:59 17.07.2019
4805 Clouds 19 1012 56 10000 2.1 100 23:22 17.07.2019
4806 Clouds 20 1012 56 10000 1.5 110 22:59 17.07.2019
4807 Clouds 20 1012 56 10000 1.5 110 22:41 17.07.2019
4808 Clouds 20 1012 53 10000 2.1 70 22:22 17.07.2019
4809 Clouds 20 1012 53 10000 1.5 80 21:56 17.07.2019
4810 Clouds 21 1011 53 10000 2.1 80 21:37 17.07.2019
4811 Clouds 22 1011 53 10000 2.1 80 21:19 17.07.2019
4812 Clear 22 1011 49 10000 3.6 40 20:55 17.07.2019
4813 Clouds 23 1011 47 10000 2.1 60 20:36 17.07.2019
4814 Clouds 24 1011 44 10000 3.1 60 20:18 17.07.2019
4815 Clouds 25 1011 41 10000 3.6 10 19:40 17.07.2019
4816 Clouds 25 1011 41 10000 4.6 360 19:19 17.07.2019
4817 Clear 25 1011 41 10000 4.1 360 18:44 17.07.2019
4818 Clear 26 1011 41 10000 4.1 360 18:21 17.07.2019
4819 Clear 26 1011 41 10000 4.1 360 18:21 17.07.2019
4820 Clear 27 1012 41 10000 5.7 360 17:56 17.07.2019
4821 Clear 27 1012 41 10000 5.7 360 17:56 17.07.2019
4822 Clear 27 1012 41 10000 5.7 360 17:38 17.07.2019
4823 Clear 27 1012 41 10000 3.1 10 17:19 17.07.2019
4824 Clear 27 1012 41 10000 3.6 10 16:40 17.07.2019
4825 Clear 27 1012 44 10000 3.6 360 16:19 17.07.2019
4826 Clear 27 1013 41 10000 3.1 330 15:51 17.07.2019
4827 Clear 26 1013 41 10000 3.1 330 15:29 17.07.2019
4828 Clear 26 1013 44 10000 5.7 340 14:56 17.07.2019
4829 Rain 26 1013 44 10000 6.2 330 14:38 17.07.2019
4830 Rain 26 1013 47 10000 4.1 350 14:19 17.07.2019
4831 Rain 26 1013 47 10000 4.6 330 13:48 17.07.2019
4832 Rain 25 1013 47 10000 4.6 330 13:30 17.07.2019
4833 Clouds 24 1014 49 10000 3.6 310 12:44 17.07.2019
4834 Clouds 24 1014 49 10000 4.1 320 12:24 17.07.2019
4835 Rain 23 1014 49 10000 4.1 320 11:59 17.07.2019
4836 Rain 23 1014 52 10000 4.1 310 11:39 17.07.2019
4837 Rain 22 1014 52 10000 4.1 310 11:19 17.07.2019
4838 Clouds 21 1015 56 10000 4.1 340 10:43 17.07.2019
4839 Clouds 21 1015 56 10000 4.1 350 10:20 17.07.2019
4840 Clouds 20 1015 55 10000 4.1 340 09:44 17.07.2019
4841 Clouds 19 1015 55 10000 4.1 340 09:26 17.07.2019
4842 Clear 18 1015 59 10000 4.1 320 08:44 17.07.2019
4843 Clear 17 1015 63 10000 2.6 290 08:22 17.07.2019
4844 Clear 16 1015 72 10000 3.6 270 07:51 17.07.2019
4845 Clear 15 1015 72 10000 3.6 270 07:28 17.07.2019
4846 Clear 14 1015 77 10000 2.6 260 06:59 17.07.2019
4847 Clear 14 1015 72 10000 2.6 310 06:37 17.07.2019
4848 Clear 13 1015 72 10000 2.6 310 06:18 17.07.2019
4849 Clear 12 1015 72 10000 3.1 330 05:32 17.07.2019
4850 Clear 13 1015 67 10000 3.1 330 04:49 17.07.2019
4851 Clear 13 1015 72 10000 3.1 320 03:50 17.07.2019
4852 Clear 14 1015 76 10000 1.5 360 02:32 17.07.2019
4853 Clear 15 1015 63 10000 2.1 30 01:41 17.07.2019
4854 Clear 15 1014 63 10000 2.6 10 01:20 17.07.2019
4855 Clear 16 1014 59 10000 3.6 20 00:38 17.07.2019
4856 Clear 16 1014 59 10000 3.6 20 00:38 17.07.2019
4857 Clear 17 1014 59 10000 2.1 40 00:20 17.07.2019
4858 Clear 17 1014 59 10000 2.1 40 23:44 16.07.2019
4859 Clear 18 1014 59 10000 2.6 40 23:22 16.07.2019
4860 Clear 18 1014 56 10000 3.1 30 22:43 16.07.2019
4861 Clear 18 1013 60 10000 2.1 10 22:25 16.07.2019
4862 Clear 19 1013 60 10000 2.1 10 21:57 16.07.2019
4863 Clear 19 1013 56 10000 2.6 10 21:39 16.07.2019
4864 Clear 21 1013 49 10000 4.6 10 21:19 16.07.2019
4865 Clear 22 1012 44 10000 5.1 310 20:41 16.07.2019
4866 Clear 22 1012 44 10000 5.1 310 20:41 16.07.2019
4867 Clear 23 1011 41 10000 6.7 340 20:23 16.07.2019
4868 Clear 23 1011 41 10000 6.7 340 20:23 16.07.2019
4869 Clear 23 1012 39 10000 7.2 300 19:54 16.07.2019
4870 Clear 24 1012 39 10000 7.2 300 19:30 16.07.2019
4871 Clear 24 1012 39 10000 7.7 300 18:59 16.07.2019
4872 Clear 24 1012 36 10000 8.2 280 18:41 16.07.2019
4873 Clear 26 1012 36 10000 7.7 300 18:21 16.07.2019
4874 Clear 26 1012 36 10000 7.7 300 17:54 16.07.2019
4875 Clouds 25 1012 36 10000 7.7 280 17:36 16.07.2019
4876 Clouds 26 1013 41 10000 8.2 280 16:53 16.07.2019
4877 Clouds 25 1013 41 10000 8.2 280 16:28 16.07.2019
4878 Rain 25 1013 47 10000 6.2 270 15:58 16.07.2019
4879 Rain 25 1013 44 10000 4.6 320 15:39 16.07.2019
4880 Rain 25 1013 41 10000 6.7 310 15:20 16.07.2019
4881 Clear 25 1013 41 10000 6.7 310 14:56 16.07.2019
4882 Clouds 25 1013 50 10000 3.6 350 14:38 16.07.2019
4883 Clouds 25 1013 47 10000 4.1 330 14:19 16.07.2019
4884 Clouds 26 1013 47 10000 3.6 330 13:44 16.07.2019
4885 Clouds 25 1014 50 10000 3.6 340 13:19 16.07.2019
4886 Clouds 25 1014 49 10000 4.1 330 12:44 16.07.2019
4887 Clouds 24 1014 49 10000 4.1 330 12:20 16.07.2019
4888 Clouds 23 1014 49 10000 4.1 330 11:55 16.07.2019
4889 Clouds 23 1014 56 10000 3.6 330 11:36 16.07.2019
4890 Clouds 23 1014 53 10000 2.6 350 11:18 16.07.2019
4891 Clear 22 1015 56 10000 2.6 10 10:44 16.07.2019
4892 Clear 22 1015 56 10000 2.6 10 10:22 16.07.2019
4893 Clear 20 1015 68 10000 2.6 350 09:44 16.07.2019
4894 Clear 19 1015 68 10000 2.6 350 09:22 16.07.2019
4895 Clear 18 1015 72 10000 3.1 340 08:58 16.07.2019
4896 Clear 17 1015 72 10000 2.6 340 08:40 16.07.2019
4897 Clear 17 1015 77 10000 1 0 08:18 16.07.2019
4898 Clear 16 1014 68 10000 0.5 0 07:41 16.07.2019
4899 Clear 14 1015 87 10000 1 140 07:22 16.07.2019
4900 Clear 14 1014 87 10000 1.5 160 06:45 16.07.2019
4901 Clear 13 1015 87 10000 2.1 170 06:22 16.07.2019
4902 Clear 12 1015 87 10000 1.5 160 05:32 16.07.2019
4903 Clear 12 1015 87 10000 1.5 120 04:57 16.07.2019
4904 Clear 13 1014 77 10000 2.6 260 03:54 16.07.2019
4905 Clear 13 1015 72 10000 3.1 260 03:18 16.07.2019
4906 Clear 14 1015 77 10000 3.1 260 02:30 16.07.2019
4907 Clear 14 1015 82 10000 1.5 350 01:43 16.07.2019
4908 Clear 15 1015 63 10000 2.1 320 00:47 16.07.2019
4909 Clear 15 1015 67 10000 0.5 0 00:20 16.07.2019
4910 Clear 16 1014 63 10000 0.5 0 23:47 15.07.2019
4911 Clear 16 1014 63 10000 0.5 0 23:29 15.07.2019
4912 Clear 17 1014 63 10000 2.1 10 22:48 15.07.2019
4913 Rain 17 1014 63 10000 2.1 10 22:22 15.07.2019
4914 Clear 18 1014 56 10000 2.1 360 21:59 15.07.2019
4915 Clear 19 1014 56 10000 2.6 30 21:40 15.07.2019
4916 Clear 19 1013 52 10000 2.6 350 21:20 15.07.2019
4917 Clear 20 1013 52 10000 2.6 350 20:56 15.07.2019
4918 Clear 21 1013 49 10000 3.1 350 20:38 15.07.2019
4919 Clear 21 1013 46 10000 3.1 20 20:19 15.07.2019
4920 Clear 22 1013 44 10000 3.1 10 19:40 15.07.2019
4921 Clear 23 1013 41 10000 3.6 350 19:21 15.07.2019
4922 Clear 23 1013 38 10000 4.6 330 18:55 15.07.2019
4923 Clear 23 1013 38 10000 4.6 330 18:36 15.07.2019
4924 Clear 24 1013 38 10000 4.1 360 18:18 15.07.2019
4925 Clear 24 1014 38 10000 4.1 340 17:42 15.07.2019
4926 Clear 24 1014 38 10000 4.1 340 17:23 15.07.2019
4927 Clear 24 1014 41 10000 4.6 350 16:59 15.07.2019
4928 Clear 24 1014 41 10000 4.1 330 16:38 15.07.2019
4929 Clear 24 1014 41 10000 4.1 330 16:20 15.07.2019
4930 Clear 24 1014 38 10000 5.1 320 15:55 15.07.2019
4931 Clouds 24 1014 41 10000 3.6 300 15:36 15.07.2019
4932 Clouds 24 1014 36 10000 3.6 340 15:18 15.07.2019
4933 Clouds 24 1014 40 10000 3.6 10 14:41 15.07.2019
4934 Clouds 24 1014 46 10000 4.6 320 14:23 15.07.2019
4935 Clouds 23 1015 49 10000 4.6 330 13:50 15.07.2019
4936 Clouds 23 1015 49 10000 4.6 330 13:50 15.07.2019
4937 Clouds 23 1015 53 10000 4.1 340 13:22 15.07.2019
4938 Clouds 23 1015 53 10000 4.1 340 12:58 15.07.2019
4939 Clouds 23 1015 56 10000 4.6 320 12:39 15.07.2019
4940 Clouds 22 1015 56 10000 4.6 340 12:20 15.07.2019
4941 Clouds 22 1015 64 10000 4.1 320 11:41 15.07.2019
4942 Clouds 21 1015 60 10000 4.1 350 11:22 15.07.2019
4943 Clouds 21 1015 63 10000 4.6 330 10:45 15.07.2019
4944 Clouds 20 1015 63 10000 4.1 330 10:26 15.07.2019
4945 Clouds 19 1015 63 10000 4.1 330 09:48 15.07.2019
4946 Clouds 18 1015 68 10000 4.6 320 09:26 15.07.2019
4947 Clouds 17 1015 72 10000 5.1 320 08:58 15.07.2019
4948 Clouds 17 1015 77 10000 3.6 300 08:40 15.07.2019
4949 Clouds 16 1015 77 10000 3.6 300 08:22 15.07.2019
4950 Clear 15 1014 87 10000 4.1 320 07:37 15.07.2019
4951 Fog 14 1014 87 10000 3.6 320 06:55 15.07.2019
4952 Fog 13 1014 93 10000 2.6 340 06:33 15.07.2019
4953 Clear 12 1014 93 10000 2.6 330 05:44 15.07.2019
4954 Clear 13 1014 93 10000 2.6 330 05:22 15.07.2019
4955 Clear 13 1014 93 10000 1 320 04:41 15.07.2019
4956 Clear 13 1014 87 10000 3.6 300 03:39 15.07.2019
4957 Clear 14 1014 87 10000 3.1 320 02:37 15.07.2019
4958 Clear 14 1014 87 10000 2.6 340 01:41 15.07.2019
4959 Clear 14 1014 87 10000 2.6 340 01:23 15.07.2019
4960 Clear 14 1014 87 10000 1.5 20 00:48 15.07.2019
4961 Clear 14 1014 82 10000 1.5 20 00:19 15.07.2019
4962 Clear 14 1014 82 10000 1.5 20 23:54 14.07.2019
4963 Clear 15 1014 82 10000 3.1 340 23:36 14.07.2019
4964 Clear 15 1014 82 10000 3.1 340 23:18 14.07.2019
4965 Clouds 15 1014 77 10000 6.2 300 22:40 14.07.2019
4966 Clouds 15 1013 77 10000 5.1 300 22:22 14.07.2019
4967 Clouds 15 1013 77 10000 5.1 300 21:58 14.07.2019
4968 Clouds 15 1013 77 10000 5.1 300 21:39 14.07.2019
4969 Clouds 16 1013 72 10000 4.6 290 21:18 14.07.2019
4970 Rain 16 1013 77 10000 5.1 300 20:54 14.07.2019
4971 Rain 16 1013 77 10000 5.1 300 20:36 14.07.2019
4972 Rain 16 1013 77 10000 5.1 300 20:18 14.07.2019
4973 Rain 16 1013 77 10000 4.6 310 19:42 14.07.2019
4974 Rain 16 1013 77 10000 4.6 310 19:24 14.07.2019
4975 Rain 17 1013 82 10000 4.1 290 18:56 14.07.2019
4976 Rain 18 1013 82 10000 4.1 290 18:37 14.07.2019
4977 Rain 19 1013 82 10000 6.7 280 18:18 14.07.2019
4978 Rain 20 1013 77 10000 9.3 300 17:42 14.07.2019
4979 Rain 20 1013 64 10000 5.1 310 17:19 14.07.2019
4980 Thunderstorm 20 1013 64 10000 4.6 320 16:46 14.07.2019
4981 Thunderstorm 21 1013 68 10000 4.1 320 16:23 14.07.2019
4982 Thunderstorm 21 1013 68 10000 4.1 320 15:50 14.07.2019
4983 Rain 21 1013 72 10000 3.6 330 15:27 14.07.2019
4984 Rain 22 1013 53 10000 7.2 300 14:48 14.07.2019
4985 Rain 22 1013 49 10000 4.1 310 14:21 14.07.2019
4986 Clouds 23 1013 49 10000 5.7 320 13:49 14.07.2019
4987 Clouds 22 1013 53 10000 4.6 310 13:25 14.07.2019
4988 Clouds 23 1013 53 10000 4.6 310 12:58 14.07.2019
4989 Clouds 22 1013 53 10000 6.2 310 12:40 14.07.2019
4990 Clouds 22 1013 60 10000 5.7 310 12:19 14.07.2019
4991 Clouds 22 1014 60 10000 5.7 320 11:51 14.07.2019
4992 Clouds 22 1014 64 10000 6.2 330 11:22 14.07.2019
4993 Clouds 21 1014 64 10000 5.7 320 10:49 14.07.2019
4994 Clouds 20 1014 64 10000 5.7 320 10:23 14.07.2019
4995 Clouds 20 1013 68 10000 7.2 320 09:51 14.07.2019
4996 Clouds 19 1013 68 10000 7.2 320 09:30 14.07.2019
4997 Clouds 18 1013 68 10000 6.7 320 08:57 14.07.2019
4998 Clouds 17 1013 72 10000 6.2 320 08:39 14.07.2019
4999 Clouds 16 1013 77 10000 6.2 310 07:47 14.07.2019
5000 Clouds 16 1013 77 10000 6.2 310 07:22 14.07.2019
5001 Clouds 15 1012 82 10000 6.7 310 05:47 14.07.2019
5002 Clouds 15 1012 82 10000 6.7 310 05:25 14.07.2019
5003 Clouds 15 1012 82 10000 6.7 300 03:44 14.07.2019
5004 Clouds 15 1012 82 10000 6.7 300 03:25 14.07.2019
5005 Clouds 16 1012 87 10000 7.2 310 02:25 14.07.2019
5006 Rain 16 1012 87 10000 6.7 300 01:57 14.07.2019
5007 Rain 16 1012 87 10000 6.7 300 01:30 14.07.2019
5008 Rain 16 1012 82 10000 6.7 290 00:42 14.07.2019
5009 Rain 16 1012 82 10000 6.7 280 00:21 14.07.2019
5010 Rain 16 1012 82 10000 6.7 280 23:59 13.07.2019
5011 Rain 16 1012 77 10000 7.7 280 23:41 13.07.2019
5012 Rain 16 1012 77 10000 7.7 280 23:22 13.07.2019
5013 Clouds 16 1012 82 10000 7.7 290 22:42 13.07.2019
5014 Clouds 16 1012 82 10000 7.7 290 22:22 13.07.2019
5015 Rain 16 1012 82 10000 7.2 290 21:49 13.07.2019
5016 Rain 16 1012 82 10000 7.2 290 21:22 13.07.2019
5017 Rain 16 1012 82 10000 5.1 290 20:53 13.07.2019
5018 Rain 16 1012 82 10000 6.2 290 20:34 13.07.2019
5019 Rain 17 1012 87 10000 4.6 300 19:53 13.07.2019
5020 Rain 17 1012 87 10000 7.2 290 19:31 13.07.2019
5021 Rain 16 1012 93 3100 11.8 310 18:59 13.07.2019
5022 Rain 17 1011 77 10000 6.2 280 18:39 13.07.2019
5023 Rain 18 1011 82 10000 6.2 290 18:19 13.07.2019
5024 Rain 19 1011 88 10000 6.7 300 17:37 13.07.2019
5025 Rain 19 1011 82 10000 5.7 310 17:19 13.07.2019
5026 Rain 19 1011 82 10000 5.7 310 17:19 13.07.2019
5027 Rain 19 1011 72 10000 8.2 300 16:44 13.07.2019
5028 Rain 19 1011 72 10000 8.2 300 16:25 13.07.2019
5029 Rain 19 1011 72 10000 9.3 300 15:48 13.07.2019
5030 Rain 19 1011 72 10000 9.3 300 15:24 13.07.2019
5031 Rain 18 1011 68 10000 7.7 280 14:57 13.07.2019
5032 Rain 18 1012 72 10000 7.7 270 14:38 13.07.2019
5033 Rain 18 1012 72 10000 5.7 310 14:19 13.07.2019
5034 Rain 18 1012 72 10000 5.7 300 13:43 13.07.2019
5035 Rain 18 1012 77 10000 5.7 300 13:19 13.07.2019
5036 Rain 17 1012 88 10000 5.7 310 12:41 13.07.2019
5037 Rain 17 1012 88 10000 5.7 310 12:23 13.07.2019
5038 Rain 17 1012 88 10000 6.2 300 11:57 13.07.2019
5039 Rain 16 1012 93 6000 4.6 300 11:20 13.07.2019
5040 Rain 16 1012 93 6000 4.6 300 11:20 13.07.2019
5041 Rain 16 1012 93 6000 4.6 300 11:20 13.07.2019
5042 Rain 16 1012 93 6000 4.6 300 10:58 13.07.2019
5043 Rain 16 1012 93 5000 3.1 320 10:39 13.07.2019
5044 Rain 16 1012 77 8000 6.7 280 10:21 13.07.2019
5045 Rain 16 1011 82 10000 5.7 300 09:41 13.07.2019
5046 Rain 15 1011 82 10000 5.7 300 09:23 13.07.2019
5047 Rain 16 1011 87 10000 5.7 280 08:48 13.07.2019
5048 Rain 15 1011 87 10000 5.7 280 08:27 13.07.2019
5049 Rain 15 1011 77 10000 4.1 280 07:42 13.07.2019
5050 Rain 15 1011 87 10000 1.5 210 07:20 13.07.2019
5051 Rain 15 1011 93 0 3.1 240 06:29 13.07.2019
5052 Clouds 15 1010 87 10000 1.5 170 05:43 13.07.2019
5053 Fog 14 1010 93 10000 1 170 04:39 13.07.2019
5054 Clear 14 1010 87 10000 1.5 160 04:18 13.07.2019
5055 Clear 14 1010 93 10000 1 70 03:40 13.07.2019
5056 Clouds 14 1010 93 10000 1 120 02:52 13.07.2019
5057 Clouds 15 1011 87 10000 1 0 01:52 13.07.2019
5058 Clouds 15 1012 77 10000 1.5 0 01:21 13.07.2019
5059 Clouds 16 1012 77 10000 1.5 0 00:58 13.07.2019
5060 Fog 16 1012 72 10000 2.6 220 00:21 13.07.2019
5061 Fog 16 1011 63 10000 2.6 210 23:49 12.07.2019
5062 Fog 16 1011 63 10000 2.6 210 23:30 12.07.2019
5063 Clouds 16 1012 59 10000 3.1 250 22:57 12.07.2019
5064 Rain 17 1012 63 10000 2.6 230 22:38 12.07.2019
5065 Rain 17 1011 60 10000 2.1 310 22:20 12.07.2019
5066 Clouds 17 1011 56 10000 4.6 320 21:41 12.07.2019
5067 Clouds 18 1011 77 10000 1 0 21:19 12.07.2019
5068 Clouds 18 1011 56 10000 4.1 260 20:44 12.07.2019
5069 Clouds 19 1011 56 10000 4.1 260 20:23 12.07.2019
5070 Rain 19 1011 56 10000 5.1 210 19:43 12.07.2019
5071 Rain 19 1011 56 10000 5.1 210 19:25 12.07.2019
5072 Clouds 20 1011 53 10000 0.5 0 18:56 12.07.2019
5073 Clouds 21 1011 60 10000 1.5 10 18:36 12.07.2019
5074 Rain 21 1011 53 10000 2.6 340 18:18 12.07.2019
5075 Rain 21 1011 53 10000 3.1 360 17:42 12.07.2019
5076 Rain 22 1011 53 10000 3.1 330 17:23 12.07.2019
5077 Thunderstorm 22 1012 56 10000 3.1 320 16:37 12.07.2019
5078 Thunderstorm 22 1012 56 10000 3.1 320 16:37 12.07.2019
5079 Clouds 21 1012 60 10000 4.1 290 16:18 12.07.2019
5080 Clouds 22 1012 56 10000 4.1 310 15:39 12.07.2019
5081 Rain 21 1012 60 10000 4.1 320 15:20 12.07.2019
5082 Clouds 21 1012 60 10000 4.6 290 14:45 12.07.2019
5083 Rain 21 1013 64 10000 5.7 260 14:21 12.07.2019
5084 Rain 21 1013 64 10000 5.7 260 13:54 12.07.2019
5085 Rain 20 1013 72 10000 4.1 260 13:34 12.07.2019
5086 Rain 19 1013 82 10000 3.1 260 12:44 12.07.2019
5087 Rain 18 1013 82 10000 3.1 260 12:24 12.07.2019
5088 Rain 18 1013 88 10000 2.6 260 11:59 12.07.2019
5089 Rain 17 1014 88 10000 3.1 260 11:40 12.07.2019
5090 Rain 17 1014 88 10000 4.6 280 11:19 12.07.2019
5091 Rain 17 1014 88 10000 4.1 270 10:42 12.07.2019
5092 Rain 16 1014 88 10000 3.6 270 10:23 12.07.2019
5093 Rain 16 1014 88 10000 3.6 270 09:53 12.07.2019
5094 Rain 16 1014 87 10000 3.6 260 09:29 12.07.2019
5095 Rain 16 1014 87 10000 4.6 270 08:56 12.07.2019
5096 Rain 15 1013 77 10000 4.6 270 08:26 12.07.2019
5097 Rain 16 1013 72 10000 4.6 260 07:55 12.07.2019
5098 Rain 16 1013 72 10000 4.6 260 07:32 12.07.2019
5099 Rain 16 1013 77 10000 4.1 260 06:51 12.07.2019
5100 Rain 16 1013 77 10000 5.1 280 06:26 12.07.2019
5101 Rain 16 1013 77 10000 6.7 270 05:42 12.07.2019
5102 Clear 17 1013 52 10000 6.2 290 03:21 12.07.2019
5103 Clear 18 1013 45 10000 3.6 280 01:39 12.07.2019
5104 Clear 18 1013 45 10000 3.6 260 00:54 12.07.2019
5105 Clear 19 1013 40 10000 3.1 250 00:20 12.07.2019
5106 Clear 19 1013 40 10000 2.6 240 23:47 11.07.2019
5107 Clear 19 1013 40 10000 2.6 240 23:26 11.07.2019
5108 Clear 19 1013 37 10000 2.6 260 22:52 11.07.2019
5109 Clear 19 1013 37 10000 3.1 280 22:27 11.07.2019
5110 Clear 20 1012 37 10000 4.1 280 21:59 11.07.2019
5111 Clear 20 1012 35 10000 3.6 300 21:40 11.07.2019
5112 Clear 20 1012 33 10000 4.6 300 21:18 11.07.2019
5113 Clear 21 1012 33 10000 4.1 300 20:42 11.07.2019
5114 Clear 21 1012 33 10000 4.1 300 20:24 11.07.2019
5115 Clear 22 1012 31 10000 6.2 290 19:58 11.07.2019
5116 Clear 22 1012 31 10000 6.2 290 19:39 11.07.2019
5117 Clear 22 1012 33 10000 6.7 280 19:21 11.07.2019
5118 Clear 22 1012 33 10000 7.2 270 18:43 11.07.2019
5119 Clear 23 1012 33 10000 7.2 270 18:24 11.07.2019
5120 Clear 23 1012 31 10000 5.7 320 17:50 11.07.2019
5121 Clear 23 1012 31 10000 5.7 320 17:31 11.07.2019
5122 Clear 24 1012 33 10000 3.6 310 16:56 11.07.2019
5123 Clear 24 1012 31 10000 6.2 300 16:37 11.07.2019
5124 Clear 24 1013 31 10000 5.7 310 16:18 11.07.2019
5125 Clear 24 1013 33 10000 6.2 310 15:40 11.07.2019
5126 Clouds 24 1013 31 10000 5.7 320 15:21 11.07.2019
5127 Clouds 24 1013 33 10000 5.1 310 14:46 11.07.2019
5128 Clouds 24 1013 33 10000 5.1 310 14:25 11.07.2019
5129 Clear 24 1013 33 10000 3.6 330 13:59 11.07.2019
5130 Clear 24 1014 33 10000 4.1 330 13:41 11.07.2019
5131 Clear 24 1014 31 10000 4.6 320 13:23 11.07.2019
5132 Clear 23 1014 35 10000 5.7 320 12:38 11.07.2019
5133 Clear 23 1014 35 10000 4.6 330 12:19 11.07.2019
5134 Clear 23 1014 37 10000 4.6 320 11:45 11.07.2019
5135 Clear 23 1014 37 10000 4.6 320 11:27 11.07.2019
5136 Clear 23 1014 37 10000 3.1 310 10:52 11.07.2019
5137 Clouds 21 1014 45 10000 2.6 320 10:20 11.07.2019
5138 Clouds 21 1014 45 10000 2.6 320 10:20 11.07.2019
5139 Clouds 21 1014 45 10000 2.6 320 09:54 11.07.2019
5140 Clear 20 1015 42 10000 3.6 340 09:36 11.07.2019
5141 Clear 19 1015 48 10000 3.1 320 09:18 11.07.2019
5142 Clear 18 1015 52 10000 2.1 320 08:42 11.07.2019
5143 Clear 17 1015 55 10000 1.5 10 08:20 11.07.2019
5144 Clear 16 1015 62 10000 0.5 0 07:45 11.07.2019
5145 Clear 15 1015 66 10000 2.6 60 07:23 11.07.2019
5146 Clear 12 1014 71 10000 2.1 260 06:19 11.07.2019
5147 Clear 11 1014 71 10000 1 0 05:32 11.07.2019
5148 Clear 11 1014 71 10000 1.5 210 04:56 11.07.2019
5149 Clear 11 1015 66 10000 1 0 03:58 11.07.2019
5150 Clear 12 1015 54 10000 2.6 270 02:31 11.07.2019
5151 Clear 13 1016 48 10000 3.6 250 00:42 11.07.2019
5152 Clear 14 1015 45 10000 3.1 250 23:51 10.07.2019
5153 Clear 14 1016 45 10000 3.1 260 23:28 10.07.2019
5154 Clear 14 1016 45 10000 1.5 290 22:58 10.07.2019
5155 Clear 15 1016 48 10000 2.6 360 22:26 10.07.2019
5156 Clear 16 1015 45 10000 2.6 350 21:59 10.07.2019
5157 Clear 17 1015 45 10000 2.6 330 21:39 10.07.2019
5158 Clear 18 1015 42 10000 3.1 320 21:21 10.07.2019
5159 Clear 19 1015 37 10000 3.6 320 20:48 10.07.2019
5160 Clear 20 1015 37 10000 3.6 320 20:27 10.07.2019
5161 Clear 21 1015 33 10000 5.7 310 19:59 10.07.2019
5162 Clear 21 1015 33 10000 5.7 310 19:40 10.07.2019
5163 Clear 21 1015 33 10000 5.7 310 19:21 10.07.2019
5164 Clear 21 1015 31 10000 7.2 310 18:46 10.07.2019
5165 Clear 22 1016 35 10000 6.2 310 18:24 10.07.2019
5166 Clear 22 1016 30 10000 7.7 320 17:50 10.07.2019
5167 Clear 22 1016 30 10000 7.7 320 17:30 10.07.2019
5168 Clear 22 1016 35 10000 4.6 330 16:58 10.07.2019
5169 Clear 22 1016 33 10000 6.7 310 16:22 10.07.2019
5170 Clear 22 1016 33 10000 6.2 310 15:54 10.07.2019
5171 Clear 22 1016 33 10000 6.7 320 15:36 10.07.2019
5172 Clear 21 1016 35 10000 7.7 310 15:18 10.07.2019
5173 Clear 21 1016 35 10000 7.7 310 15:18 10.07.2019
5174 Clear 21 1017 35 10000 7.7 310 14:39 10.07.2019
5175 Clear 21 1017 35 10000 8.2 310 14:19 10.07.2019
5176 Clear 21 1017 39 10000 6.2 340 13:43 10.07.2019
5177 Clear 20 1017 42 10000 5.7 310 13:19 10.07.2019
5178 Clouds 19 1017 42 10000 5.7 350 12:42 10.07.2019
5179 Clouds 19 1017 40 10000 6.2 350 12:22 10.07.2019
5180 Clouds 19 1017 42 10000 6.7 310 11:56 10.07.2019
5181 Clouds 19 1017 42 10000 6.7 310 11:38 10.07.2019
5182 Clouds 19 1017 42 10000 6.7 310 11:20 10.07.2019
5183 Clouds 19 1017 48 10000 5.7 310 10:40 10.07.2019
5184 Clouds 18 1017 51 10000 5.1 310 10:19 10.07.2019
5185 Clouds 18 1017 51 10000 6.2 320 09:42 10.07.2019
5186 Clouds 17 1017 55 10000 5.7 330 09:20 10.07.2019
5187 Clear 16 1017 55 10000 6.2 320 08:49 10.07.2019
5188 Clear 16 1017 55 10000 6.2 320 08:28 10.07.2019
5189 Clear 15 1017 54 10000 6.2 320 07:53 10.07.2019
5190 Clear 14 1017 54 10000 5.1 320 07:28 10.07.2019
5191 Clear 13 1017 58 10000 5.7 320 06:41 10.07.2019
5192 Clear 13 1017 54 10000 4.6 330 05:42 10.07.2019
5193 Clear 13 1017 58 10000 3.6 330 04:34 10.07.2019
5194 Clear 14 1017 54 10000 2.6 330 02:40 10.07.2019
5195 Clear 15 1016 51 10000 2.6 350 00:45 10.07.2019
5196 Clear 16 1016 45 10000 3.6 350 23:58 09.07.2019
5197 Clear 16 1016 48 10000 3.1 350 23:39 09.07.2019
5198 Clear 16 1016 48 10000 3.1 350 23:39 09.07.2019
5199 Clear 17 1016 42 10000 3.6 350 23:20 09.07.2019
5200 Clear 17 1016 39 10000 4.1 360 22:40 09.07.2019
5201 Clear 17 1016 39 10000 4.1 360 22:22 09.07.2019
5202 Clear 17 1015 45 10000 2.6 360 21:54 09.07.2019
5203 Clear 17 1014 42 10000 3.1 350 21:54 09.07.2019
5204 Clear 18 1014 42 10000 3.1 350 21:36 09.07.2019
5205 Clear 18 1014 42 10000 3.1 340 21:18 09.07.2019
5206 Clear 19 1014 40 10000 3.1 340 20:42 09.07.2019
5207 Clear 19 1014 45 10000 3.1 350 20:24 09.07.2019
5208 Clear 20 1014 35 10000 4.1 300 19:39 09.07.2019
5209 Clear 21 1014 35 10000 4.6 310 19:20 09.07.2019
5210 Clear 21 1014 33 10000 4.6 280 18:44 09.07.2019
5211 Clear 22 1014 35 10000 3.6 270 18:23 09.07.2019
5212 Clear 22 1014 35 10000 3.6 270 17:54 09.07.2019
5213 Clear 22 1015 37 10000 3.6 320 17:36 09.07.2019
5214 Clear 22 1015 40 10000 4.1 330 17:18 09.07.2019
5215 Clear 22 1015 35 10000 4.1 330 16:41 09.07.2019
5216 Clear 22 1015 35 10000 4.1 330 16:23 09.07.2019
5217 Clear 22 1015 33 10000 4.6 310 15:44 09.07.2019
5218 Clear 22 1015 33 10000 4.6 310 15:26 09.07.2019
5219 Clear 22 1016 35 10000 5.1 340 14:47 09.07.2019
5220 Clear 22 1016 37 10000 4.6 340 14:24 09.07.2019
5221 Clear 22 1016 37 10000 4.6 340 13:59 09.07.2019
5222 Clear 22 1016 37 10000 4.6 320 13:40 09.07.2019
5223 Clear 22 1016 37 10000 3.6 340 13:21 09.07.2019
5224 Clear 21 1016 37 10000 4.1 340 12:40 09.07.2019
5225 Clear 21 1016 37 10000 3.1 330 12:19 09.07.2019
5226 Clear 20 1016 37 10000 3.1 330 11:57 09.07.2019
5227 Clear 20 1016 40 10000 3.6 330 11:38 09.07.2019
5228 Clear 20 1016 40 10000 4.6 360 11:20 09.07.2019
5229 Clear 20 1016 39 10000 5.1 10 10:49 09.07.2019
5230 Clear 19 1016 39 10000 5.1 10 10:27 09.07.2019
5231 Clear 18 1017 45 10000 4.1 10 09:40 09.07.2019
5232 Clear 18 1017 45 10000 3.1 330 09:21 09.07.2019
5233 Clear 18 1017 45 10000 3.1 330 09:21 09.07.2019
5234 Clear 17 1017 48 10000 3.6 330 08:45 09.07.2019
5235 Clear 16 1017 51 10000 3.1 330 08:22 09.07.2019
5236 Clear 14 1017 76 10000 2.1 170 03:57 05.07.2019
5237 Clear 15 1017 63 10000 2.1 160 03:37 05.07.2019
5238 Clear 15 1017 55 10000 2.1 200 03:18 05.07.2019
5239 Clear 15 1017 55 10000 1.5 220 02:37 05.07.2019
5240 Clear 16 1018 59 10000 3.1 150 01:38 05.07.2019
5241 Clear 16 1018 63 10000 3.6 160 01:18 05.07.2019
5242 Clear 17 1018 59 10000 3.6 170 00:40 05.07.2019
5243 Clear 18 1018 55 10000 2.6 160 23:51 04.07.2019
5244 Clear 18 1018 55 10000 2.6 160 23:21 04.07.2019
5245 Clear 19 1018 49 10000 1.5 100 22:44 04.07.2019
5246 Clear 19 1018 49 10000 1.5 100 22:24 04.07.2019
5247 Clear 21 1018 46 10000 2.1 70 21:57 04.07.2019
5248 Clear 21 1018 46 10000 2.6 80 21:39 04.07.2019
5249 Clear 21 1018 46 10000 2.6 80 21:21 04.07.2019
5250 Clear 24 1018 36 10000 2.6 80 20:40 04.07.2019
5251 Clear 24 1018 34 10000 2.6 50 20:22 04.07.2019
5252 Clear 25 1018 34 10000 2.6 50 19:57 04.07.2019
5253 Clear 25 1018 34 10000 3.1 50 19:38 04.07.2019
5254 Clear 25 1018 31 10000 3.1 60 19:20 04.07.2019
5255 Clear 26 1019 31 10000 3.1 40 18:43 04.07.2019
5256 Clear 27 1019 31 10000 3.1 20 18:25 04.07.2019
5257 Clear 27 1019 31 10000 3.1 50 17:46 04.07.2019
5258 Clear 27 1020 31 10000 3.1 30 17:19 04.07.2019
5259 Clear 27 1020 31 10000 2.6 0 15:59 04.07.2019
5260 Clear 27 1021 29 10000 2.1 0 15:40 04.07.2019
5261 Clear 26 1021 31 10000 1.5 0 15:22 04.07.2019
5262 Clear 26 1021 31 10000 2.1 0 14:56 04.07.2019
5263 Clear 26 1021 31 10000 2.1 0 14:37 04.07.2019
5264 Clear 26 1022 31 10000 1.5 0 14:18 04.07.2019
5265 Clear 26 1022 31 10000 1.5 0 14:18 04.07.2019
5266 Clear 26 1022 31 10000 1.5 0 13:54 04.07.2019
5267 Clear 26 1022 31 10000 1.5 0 13:54 04.07.2019
5268 Clear 25 1022 31 10000 2.1 0 13:36 04.07.2019
5269 Rain 25 1022 31 10000 1.5 0 13:18 04.07.2019
5270 Clear 24 1022 31 10000 2.1 0 12:37 04.07.2019
5271 Rain 24 1022 33 10000 2.6 330 12:19 04.07.2019
5272 Clear 23 1022 33 10000 2.6 350 11:39 04.07.2019
5273 Clear 23 1022 40 10000 3.1 10 11:19 04.07.2019
5274 Clear 23 1022 40 10000 3.1 10 11:19 04.07.2019
5275 Rain 22 1022 37 10000 3.1 10 10:40 04.07.2019
5276 Rain 22 1022 42 10000 3.1 360 10:22 04.07.2019
5277 Rain 21 1022 45 10000 3.1 10 09:45 04.07.2019
5278 Clear 20 1022 45 10000 3.1 10 09:26 04.07.2019
5279 Clear 19 1022 52 10000 2.6 350 08:57 04.07.2019
5280 Clear 18 1022 55 10000 2.6 350 08:28 04.07.2019
5281 Clear 17 1022 62 10000 2.1 340 07:46 04.07.2019
5282 Clear 15 1022 67 10000 2.1 340 07:23 04.07.2019
5283 Clear 15 1022 67 10000 2.1 340 06:55 04.07.2019
5284 Clear 13 1021 71 10000 3.1 340 05:55 04.07.2019
5285 Clear 13 1021 71 10000 3.1 350 05:36 04.07.2019
5286 Clear 14 1021 67 10000 2.1 330 03:30 04.07.2019
5287 Clear 16 1020 59 10000 2.1 340 01:45 04.07.2019
5288 Clear 16 1020 59 10000 2.1 340 01:23 04.07.2019
5289 Clear 17 1021 59 10000 2.6 10 00:28 04.07.2019
5290 Clear 18 1020 59 10000 2.1 10 23:47 03.07.2019
5291 Clear 19 1020 52 10000 2.1 10 23:20 03.07.2019
5292 Clear 19 1020 52 10000 2.1 10 22:55 03.07.2019
5293 Clear 19 1020 52 10000 2.1 30 22:36 03.07.2019
5294 Clear 19 1020 49 10000 2.1 70 22:18 03.07.2019
5295 Clear 21 1019 46 10000 1.5 90 21:46 03.07.2019
5296 Clear 21 1019 46 10000 1.5 90 21:28 03.07.2019
5297 Clear 22 1019 38 10000 2.1 90 20:46 03.07.2019
5298 Clear 23 1019 38 10000 2.1 90 20:27 03.07.2019
5299 Clear 23 1019 38 10000 2.1 100 19:54 03.07.2019
5300 Clear 23 1019 38 10000 2.1 90 19:36 03.07.2019
5301 Clear 25 1018 36 10000 3.6 50 18:55 03.07.2019
5302 Clear 25 1019 36 10000 3.6 10 18:37 03.07.2019
5303 Clear 25 1019 36 10000 3.6 20 18:18 03.07.2019
5304 Clear 25 1019 36 10000 3.1 350 17:45 03.07.2019
5305 Clear 25 1019 36 10000 3.1 350 17:18 03.07.2019
5306 Clear 26 1019 36 10000 3.6 350 16:44 03.07.2019
5307 Clear 26 1019 36 10000 3.6 350 16:23 03.07.2019
5308 Clear 26 1019 36 10000 4.1 350 15:52 03.07.2019
5309 Clear 26 1019 36 10000 4.1 350 15:52 03.07.2019
5310 Clear 26 1019 36 10000 4.1 30 15:32 03.07.2019
5311 Clear 26 1020 36 10000 4.6 350 14:59 03.07.2019
5312 Clear 26 1020 36 10000 4.6 350 14:41 03.07.2019
5313 Clear 25 1020 36 10000 4.6 360 14:19 03.07.2019
5314 Clear 25 1020 36 10000 3.6 20 13:43 03.07.2019
5315 Clear 25 1020 38 10000 4.6 10 13:24 03.07.2019
5316 Clear 25 1020 38 10000 4.6 360 12:46 03.07.2019
5317 Clear 24 1020 40 10000 4.1 10 12:18 03.07.2019
5318 Clear 24 1020 43 10000 4.6 10 11:43 03.07.2019
5319 Clear 23 1020 43 10000 4.6 10 11:23 03.07.2019
5320 Clear 22 1020 46 10000 5.1 360 10:57 03.07.2019
5321 Clear 22 1020 46 10000 5.1 360 10:36 03.07.2019
5322 Clear 22 1020 49 10000 5.1 350 10:18 03.07.2019
5323 Clear 21 1020 52 10000 4.6 360 09:39 03.07.2019
5324 Clear 20 1020 52 10000 4.6 360 09:20 03.07.2019
5325 Clear 19 1020 52 10000 5.7 360 08:50 03.07.2019
5326 Clear 19 1020 59 10000 5.1 340 08:26 03.07.2019
5327 Clear 18 1020 59 10000 4.6 330 07:40 03.07.2019
5328 Clear 17 1019 63 10000 4.1 320 07:20 03.07.2019
5329 Clear 16 1019 63 10000 3.6 330 06:25 03.07.2019
5330 Clear 15 1018 63 10000 4.1 330 05:34 03.07.2019
5331 Clear 15 1018 67 10000 4.1 340 04:38 03.07.2019
5332 Clear 17 1018 77 10000 3.1 350 03:24 03.07.2019
5333 Clear 17 1017 72 10000 2.1 340 01:59 03.07.2019
5334 Clear 18 1017 72 10000 1 0 01:21 03.07.2019
5335 Clear 19 1017 73 10000 1.5 330 00:45 03.07.2019
5336 Clear 19 1017 68 10000 1 0 00:18 03.07.2019
5337 Clouds 20 1017 88 0 1 50 23:38 02.07.2019
5338 Clear 20 1017 60 10000 0.5 0 23:20 02.07.2019
5339 Clear 20 1017 60 10000 2.6 250 22:56 02.07.2019
5340 Clear 20 1017 60 10000 2.6 250 22:38 02.07.2019
5341 Clear 21 1017 56 10000 1 340 22:19 02.07.2019
5342 Clear 21 1017 56 10000 1 340 21:44 02.07.2019
5343 Clouds 22 1016 53 10000 1.5 320 21:23 02.07.2019
5344 Clouds 22 1016 53 10000 1.5 320 20:58 02.07.2019
5345 Clouds 23 1016 47 10000 2.1 320 20:40 02.07.2019
5346 Clouds 23 1016 53 10000 1 330 20:21 02.07.2019
5347 Clouds 24 1016 47 10000 2.6 320 19:44 02.07.2019
5348 Clouds 24 1016 50 10000 1.5 340 19:23 02.07.2019
5349 Clouds 25 1017 47 10000 3.1 330 18:58 02.07.2019
5350 Clouds 26 1017 44 10000 3.1 360 18:19 02.07.2019
5351 Clouds 27 1017 42 10000 4.6 310 17:45 02.07.2019
5352 Clouds 27 1017 42 10000 4.6 310 17:45 02.07.2019
5353 Clouds 27 1017 42 10000 4.6 310 17:25 02.07.2019
5354 Clouds 27 1017 47 10000 4.1 340 16:57 02.07.2019
5355 Clear 27 1017 54 10000 3.1 340 16:39 02.07.2019
5356 Clear 26 1017 60 10000 2.1 340 16:21 02.07.2019
5357 Clear 26 1018 57 10000 3.1 320 15:40 02.07.2019
5358 Clouds 25 1018 60 10000 3.1 330 15:21 02.07.2019
5359 Rain 25 1018 60 10000 3.1 330 14:46 02.07.2019
5360 Rain 25 1018 60 10000 3.1 330 14:27 02.07.2019
5361 Clouds 25 1018 60 10000 3.6 330 13:44 02.07.2019
5362 Rain 25 1018 57 10000 4.6 320 13:19 02.07.2019
5363 Clouds 25 1018 57 10000 5.1 340 12:45 02.07.2019
5364 Clouds 25 1017 57 10000 4.6 320 12:24 02.07.2019
5365 Clouds 25 1017 57 10000 6.2 320 11:55 02.07.2019
5366 Clouds 25 1017 57 10000 6.2 320 11:37 02.07.2019
5367 Clouds 25 1017 54 10000 6.2 310 11:18 02.07.2019
5368 Clear 25 1017 60 10000 6.7 310 10:42 02.07.2019
5369 Clear 24 1017 60 10000 6.2 320 10:23 02.07.2019
5370 Clear 24 1017 60 10000 6.2 320 10:23 02.07.2019
5371 Clear 23 1017 60 10000 5.7 320 09:43 02.07.2019
5372 Clear 22 1017 60 10000 6.2 320 09:20 02.07.2019
5373 Clear 22 1017 60 10000 5.1 320 08:41 02.07.2019
5374 Clear 22 1016 69 10000 1.5 330 08:20 02.07.2019
5375 Clear 21 1016 69 10000 1.5 330 07:53 02.07.2019
5376 Clear 21 1016 60 10000 3.6 310 07:21 02.07.2019
5377 Clear 21 1016 60 10000 3.6 310 07:21 02.07.2019
5378 Clear 20 1016 64 10000 3.1 320 06:47 02.07.2019
5379 Clear 20 1016 64 10000 2.6 310 06:25 02.07.2019
5380 Clear 19 1015 82 10000 2.6 210 04:39 02.07.2019
5381 Rain 20 1015 77 10000 1.5 70 01:27 02.07.2019
5382 Rain 20 1016 88 0 2.1 180 23:49 01.07.2019
5383 Rain 20 1016 88 0 2.1 180 23:22 01.07.2019
5384 Thunderstorm 20 1016 69 10000 4.1 250 22:46 01.07.2019
5385 Thunderstorm 20 1016 69 10000 4.1 250 22:27 01.07.2019
5386 Rain 21 1016 73 10000 4.6 10 21:47 01.07.2019
5387 Rain 21 1016 73 10000 4.6 10 21:26 01.07.2019
5388 Rain 21 1018 64 10000 5.7 320 20:51 01.07.2019
5389 Rain 22 1014 64 10000 6.7 20 20:22 01.07.2019
5390 Rain 22 1014 64 10000 6.7 20 20:22 01.07.2019
5391 Rain 22 1014 64 10000 6.7 20 19:59 01.07.2019
5392 Rain 23 1014 64 10000 6.7 20 19:40 01.07.2019
5393 Rain 24 1015 42 10000 5.1 360 19:22 01.07.2019
5394 Rain 26 1014 34 10000 4.1 0 18:53 01.07.2019
5395 Clouds 28 1014 34 10000 4.1 0 18:31 01.07.2019
5396 Clouds 31 1013 30 10000 2.6 150 17:58 01.07.2019
5397 Clouds 32 1013 32 10000 4.6 160 17:40 01.07.2019
5398 Clouds 33 1013 32 10000 4.6 160 17:21 01.07.2019
5399 Clouds 35 1013 30 10000 4.1 160 16:46 01.07.2019
5400 Clouds 35 1013 30 10000 4.1 160 16:25 01.07.2019
5401 Clouds 35 1013 32 10000 4.1 160 15:47 01.07.2019
5402 Clouds 36 1013 34 10000 3.6 140 15:28 01.07.2019
5403 Clouds 36 1014 36 10000 3.1 160 14:59 01.07.2019
5404 Clouds 36 1014 36 10000 3.1 160 14:39 01.07.2019
5405 Clouds 36 1014 36 10000 4.1 110 14:19 01.07.2019
5406 Clear 35 1015 41 10000 3.6 100 13:40 01.07.2019
5407 Clear 35 1015 41 10000 3.6 100 13:21 01.07.2019
5408 Clear 34 1015 43 10000 4.1 100 12:44 01.07.2019
5409 Clear 34 1016 43 10000 3.1 100 12:23 01.07.2019
5410 Clear 33 1016 45 10000 3.1 90 11:58 01.07.2019
5411 Clear 33 1016 45 10000 3.1 90 11:38 01.07.2019
5412 Clear 32 1016 45 10000 3.1 90 11:18 01.07.2019
5413 Clear 30 1016 48 10000 2.1 130 10:45 01.07.2019
5414 Clear 30 1016 48 10000 2.1 130 10:21 01.07.2019
5415 Clear 28 1016 54 10000 2.1 140 09:45 01.07.2019
5416 Clear 27 1016 54 10000 2.1 140 09:26 01.07.2019
5417 Clear 27 1016 54 10000 2.1 140 09:26 01.07.2019
5418 Clear 26 1016 57 10000 2.1 150 08:58 01.07.2019
5419 Clear 25 1016 60 10000 2.1 100 08:35 01.07.2019
5420 Clear 22 1016 73 10000 2.6 150 07:35 01.07.2019
5421 Clear 21 1016 77 10000 2.1 130 06:51 01.07.2019
5422 Clouds 20 1015 82 10000 2.6 150 05:23 01.07.2019
5423 Clear 22 1016 73 10000 2.6 130 01:22 01.07.2019
5424 Clear 22 1016 68 10000 1.5 210 00:43 01.07.2019
5425 Clear 23 1016 64 10000 1.5 180 00:21 01.07.2019
5426 Clear 24 1016 64 10000 3.1 150 23:27 30.06.2019
5427 Clear 24 1016 60 10000 2.6 140 22:58 30.06.2019
5428 Clear 25 1016 57 10000 3.1 140 22:38 30.06.2019
5429 Clear 25 1016 57 10000 3.1 140 22:18 30.06.2019
5430 Clear 26 1016 54 10000 4.1 140 21:41 30.06.2019
5431 Clear 27 1015 51 10000 4.6 150 21:19 30.06.2019
5432 Clear 29 1015 48 10000 5.7 150 20:54 30.06.2019
5433 Clear 30 1016 42 10000 5.7 140 20:36 30.06.2019
5434 Clear 30 1016 42 10000 5.7 140 20:18 30.06.2019
5435 Clear 31 1016 40 10000 4.1 140 19:42 30.06.2019
5436 Clear 31 1016 38 10000 4.1 130 19:24 30.06.2019
5437 Clear 33 1016 29 10000 6.2 140 18:26 30.06.2019
5438 Clear 33 1016 31 10000 6.7 140 17:56 30.06.2019
5439 Clear 34 1016 24 10000 7.7 150 17:37 30.06.2019
5440 Clear 34 1016 24 10000 7.7 150 17:18 30.06.2019
5441 Clear 34 1017 24 10000 6.7 140 16:44 30.06.2019
5442 Clear 34 1017 24 10000 7.2 140 16:25 30.06.2019
5443 Rain 35 1017 24 10000 7.7 140 15:37 30.06.2019
5444 Rain 34 1017 26 10000 7.2 150 15:18 30.06.2019
5445 Rain 34 1017 27 10000 8.2 140 14:50 30.06.2019
5446 Rain 33 1017 27 10000 8.2 140 14:29 30.06.2019
5447 Clear 33 1018 29 10000 6.7 140 13:47 30.06.2019
5448 Clear 32 1018 33 10000 7.2 140 13:28 30.06.2019
5449 Clear 32 1018 33 10000 7.7 150 12:52 30.06.2019
5450 Clear 30 1018 33 10000 7.2 150 12:28 30.06.2019
5451 Clear 30 1018 35 10000 8.2 160 11:57 30.06.2019
5452 Clear 29 1019 37 10000 7.2 150 11:38 30.06.2019
5453 Clear 29 1019 37 10000 7.2 150 11:19 30.06.2019
5454 Clear 28 1019 39 10000 6.7 150 10:44 30.06.2019
5455 Clear 27 1019 39 10000 7.7 150 10:19 30.06.2019
5456 Clear 26 1019 44 10000 6.2 150 09:57 30.06.2019
5457 Fog 24 1019 50 10000 6.7 140 09:37 30.06.2019
5458 Fog 24 1019 50 10000 6.7 140 09:18 30.06.2019
5459 Clear 22 1019 53 10000 5.1 130 08:40 30.06.2019
5460 Clear 21 1019 56 10000 3.1 140 08:20 30.06.2019
5461 Clear 19 1019 68 10000 2.6 140 07:41 30.06.2019
5462 Clear 18 1019 72 10000 2.6 140 07:22 30.06.2019
5463 Clear 16 1019 77 10000 1.5 140 06:31 30.06.2019
5464 Clear 16 1020 63 10000 1 0 03:27 30.06.2019
5465 Clear 17 1020 72 10000 3.6 170 01:52 30.06.2019
5466 Clear 18 1020 63 10000 2.1 160 00:45 30.06.2019
5467 Clear 18 1020 63 10000 2.1 160 00:23 30.06.2019
5468 Clear 19 1020 59 10000 3.1 180 23:43 29.06.2019
5469 Clear 19 1020 59 10000 3.1 180 23:21 29.06.2019
5470 Clear 19 1020 56 10000 3.1 180 22:46 29.06.2019
5471 Clear 20 1020 52 10000 3.1 200 22:22 29.06.2019
5472 Clear 21 1020 40 10000 2.1 180 21:55 29.06.2019
5473 Clear 23 1020 38 10000 2.6 160 21:25 29.06.2019
5474 Clear 25 1020 41 10000 1.5 130 20:47 29.06.2019
5475 Clear 25 1020 34 10000 2.1 120 20:29 29.06.2019
5476 Clear 26 1020 34 10000 2.1 80 19:59 29.06.2019
5477 Clear 26 1020 34 10000 2.1 80 19:41 29.06.2019
5478 Clear 27 1020 30 10000 2.1 70 19:20 29.06.2019
5479 Clear 27 1020 30 10000 2.1 50 18:47 29.06.2019
5480 Clear 28 1020 30 10000 2.1 60 18:24 29.06.2019
5481 Clear 29 1020 28 10000 2.1 0 17:38 29.06.2019
5482 Clear 29 1020 28 10000 2.1 0 17:19 29.06.2019
5483 Clear 29 1021 26 10000 2.1 30 16:43 29.06.2019
5484 Clear 29 1021 28 10000 3.1 20 16:19 29.06.2019
5485 Clear 28 1021 30 10000 3.1 20 15:33 29.06.2019
5486 Clear 28 1021 30 10000 3.6 360 14:55 29.06.2019
5487 Clear 28 1022 29 10000 3.6 10 14:37 29.06.2019
5488 Clear 28 1022 29 10000 3.6 10 14:18 29.06.2019
5489 Clear 27 1022 29 10000 3.1 30 13:41 29.06.2019
5490 Clear 27 1022 36 10000 2.6 0 13:23 29.06.2019
5491 Clear 26 1023 38 10000 2.6 0 12:41 29.06.2019
5492 Clear 26 1023 38 10000 2.6 0 12:22 29.06.2019
5493 Rain 25 1023 41 10000 3.1 70 11:46 29.06.2019
5494 Rain 25 1023 41 10000 2.1 40 11:28 29.06.2019
5495 Clear 25 1023 46 10000 2.1 10 10:52 29.06.2019
5496 Clear 24 1023 53 10000 2.6 50 10:26 29.06.2019
5497 Clear 23 1023 52 10000 2.1 40 09:58 29.06.2019
5498 Clear 22 1023 56 10000 1.5 10 09:22 29.06.2019
5499 Clear 20 1023 56 10000 1 0 08:36 29.06.2019
5500 Clear 18 1023 59 10000 0.5 0 07:46 29.06.2019
5501 Clear 16 1023 67 10000 1 0 07:18 29.06.2019
5502 Clear 15 1023 82 10000 1 170 06:40 29.06.2019
5503 Clear 14 1023 82 10000 1.5 130 06:19 29.06.2019
5504 Clear 15 1023 63 10000 2.6 310 01:56 29.06.2019
5505 Clear 16 1022 59 10000 2.1 320 00:57 29.06.2019
5506 Clear 18 1022 67 10000 2.6 360 23:55 28.06.2019
5507 Clear 19 1022 52 10000 1.5 340 23:22 28.06.2019
5508 Clear 17 1022 55 10000 1 20 22:50 28.06.2019
5509 Clear 18 1021 52 10000 1.5 20 22:27 28.06.2019
5510 Clear 19 1021 49 10000 1.5 20 21:46 28.06.2019
5511 Clear 22 1021 46 10000 3.6 30 21:20 28.06.2019
5512 Clear 23 1020 40 10000 4.1 20 20:43 28.06.2019
5513 Clear 24 1020 41 10000 4.6 20 20:20 28.06.2019
5514 Clear 25 1020 38 10000 5.7 20 19:43 28.06.2019
5515 Clear 25 1020 36 10000 5.7 360 19:24 28.06.2019
5516 Clear 26 1020 36 10000 6.2 20 18:43 28.06.2019
5517 Clear 27 1020 36 10000 6.2 10 18:22 28.06.2019
5518 Clear 27 1020 36 10000 5.1 30 17:54 28.06.2019
5519 Clear 28 1020 36 10000 5.7 30 17:29 28.06.2019
5520 Clear 28 1020 36 10000 5.7 20 16:48 28.06.2019
5521 Clear 27 1020 36 10000 5.1 10 16:23 28.06.2019
5522 Clear 27 1020 34 10000 6.2 350 15:48 28.06.2019
5523 Clear 27 1020 39 10000 5.7 10 15:19 28.06.2019
5524 Clear 27 1021 39 10000 5.1 350 14:42 28.06.2019
5525 Clear 27 1021 39 10000 5.1 340 14:22 28.06.2019
5526 Clear 27 1021 36 10000 5.1 360 13:50 28.06.2019
5527 Clear 26 1021 36 10000 7.2 340 13:30 28.06.2019
5528 Clear 26 1021 38 10000 6.7 360 12:58 28.06.2019
5529 Clear 26 1021 36 10000 6.2 340 12:40 28.06.2019
5530 Clear 25 1021 41 10000 5.7 350 11:50 28.06.2019
5531 Clear 25 1021 41 10000 5.7 310 11:22 28.06.2019
5532 Clear 24 1021 43 10000 4.6 330 10:44 28.06.2019
5533 Clear 24 1021 43 10000 4.6 330 10:44 28.06.2019
5534 Clear 24 1021 43 10000 4.6 350 10:21 28.06.2019
5535 Clear 23 1021 46 10000 5.7 340 09:47 28.06.2019
5536 Clear 22 1022 49 10000 5.1 340 09:29 28.06.2019
5537 Clear 21 1021 46 10000 4.6 360 08:45 28.06.2019
5538 Clear 20 1021 49 10000 3.1 340 08:25 28.06.2019
5539 Clear 19 1021 52 10000 3.1 330 07:46 28.06.2019
5540 Clear 17 1021 55 10000 2.6 330 06:57 28.06.2019
5541 Clear 16 1021 55 10000 3.6 320 05:42 28.06.2019
5542 Clear 17 1020 37 10000 5.7 330 01:22 28.06.2019
5543 Clear 19 1020 33 10000 5.1 330 00:33 28.06.2019
5544 Clear 21 1019 27 10000 5.1 330 23:48 27.06.2019
5545 Clear 21 1019 25 10000 6.2 330 23:25 27.06.2019
5546 Clear 22 1019 25 10000 5.7 340 22:55 27.06.2019
5547 Clear 23 1019 29 10000 4.1 330 22:36 27.06.2019
5548 Clear 24 1019 29 10000 4.1 330 22:18 27.06.2019
5549 Clear 24 1018 29 10000 5.1 350 21:47 27.06.2019
5550 Clear 25 1017 27 10000 5.7 350 21:29 27.06.2019
5551 Clear 26 1017 28 10000 6.2 350 20:55 27.06.2019
5552 Clear 27 1017 32 10000 4.6 360 20:36 27.06.2019
5553 Clear 27 1017 32 10000 4.6 360 20:18 27.06.2019
5554 Clear 26 1017 32 10000 5.1 350 19:41 27.06.2019
5555 Clear 28 1017 33 10000 5.7 360 19:23 27.06.2019
5556 Clouds 27 1017 35 10000 5.7 360 18:42 27.06.2019
5557 Thunderstorm 30 1016 40 10000 6.7 340 18:19 27.06.2019
5558 Clouds 31 1016 43 10000 7.2 340 17:43 27.06.2019
5559 Clouds 31 1017 45 10000 6.2 340 17:22 27.06.2019
5560 Clouds 31 1017 45 10000 6.2 340 16:40 27.06.2019
5561 Clouds 31 1016 46 10000 6.7 350 16:19 27.06.2019
5562 Clouds 31 1016 46 10000 6.7 350 16:19 27.06.2019
5563 Clouds 32 1016 46 10000 7.2 340 15:55 27.06.2019
5564 Clear 32 1017 41 10000 7.2 310 15:35 27.06.2019
5565 Clear 33 1018 41 10000 6.2 320 14:58 27.06.2019
5566 Clouds 33 1018 43 10000 5.1 320 14:38 27.06.2019
5567 Clouds 33 1018 43 10000 5.1 320 14:18 27.06.2019
5568 Clouds 33 1018 43 10000 5.7 310 13:42 27.06.2019
5569 Clouds 33 1019 43 10000 5.7 310 13:42 27.06.2019
5570 Clouds 33 1019 43 10000 5.7 310 13:24 27.06.2019
5571 Clouds 33 1019 49 10000 5.7 320 12:49 27.06.2019
5572 Clouds 33 1019 49 10000 5.7 320 12:49 27.06.2019
5573 Clear 32 1019 48 10000 5.1 320 12:28 27.06.2019
5574 Clear 32 1019 46 10000 6.2 320 11:47 27.06.2019
5575 Clear 31 1019 52 10000 7.2 320 11:24 27.06.2019
5576 Clear 31 1019 48 10000 6.2 310 10:58 27.06.2019
5577 Clear 31 1019 48 10000 6.2 320 10:40 27.06.2019
5578 Rain 31 1019 48 10000 6.2 320 10:19 27.06.2019
5579 Rain 29 1019 51 10000 3.6 320 09:40 27.06.2019
5580 Clear 29 1019 51 10000 3.6 320 09:20 27.06.2019
5581 Clear 28 1019 54 10000 5.1 320 08:48 27.06.2019
5582 Clear 28 1019 58 10000 5.1 320 08:27 27.06.2019
5583 Clear 26 1019 54 10000 2.1 330 07:45 27.06.2019
5584 Clear 24 1019 73 10000 2.1 180 06:57 27.06.2019
5585 Clear 23 1019 73 10000 2.1 170 06:32 27.06.2019
5586 Clear 22 1019 83 10000 2.1 170 03:51 27.06.2019
5587 Clear 23 1019 83 10000 0.5 0 02:42 27.06.2019
5588 Clear 23 1020 73 10000 3.1 190 01:29 27.06.2019
5589 Clear 24 1020 78 10000 2.1 170 00:50 27.06.2019
5590 Clear 24 1020 78 10000 2.6 160 00:26 27.06.2019
5591 Clear 25 1021 73 10000 2.1 170 23:51 26.06.2019
5592 Clear 25 1021 73 10000 3.6 160 23:23 26.06.2019
5593 Clear 25 1021 73 10000 3.1 160 22:58 26.06.2019
5594 Clear 25 1021 73 10000 3.1 160 22:40 26.06.2019
5595 Clear 25 1021 73 10000 3.1 160 22:40 26.06.2019
5596 Clear 26 1020 73 10000 4.1 160 22:19 26.06.2019
5597 Clear 28 1020 69 10000 3.6 160 21:42 26.06.2019
5598 Clear 28 1020 61 10000 3.1 140 21:21 26.06.2019
5599 Clear 29 1020 51 10000 3.1 140 20:57 26.06.2019
5600 Clear 30 1020 45 10000 2.6 140 20:38 26.06.2019
5601 Clear 30 1020 45 10000 2.6 140 20:20 26.06.2019
5602 Clear 31 1020 43 10000 3.6 140 19:43 26.06.2019
5603 Clear 32 1020 41 10000 4.1 140 19:25 26.06.2019
5604 Clear 33 1021 38 10000 4.6 130 18:46 26.06.2019
5605 Clear 34 1021 34 10000 4.6 130 18:23 26.06.2019
5606 Clear 35 1021 36 10000 5.1 150 17:58 26.06.2019
5607 Clear 35 1021 36 10000 5.1 140 17:38 26.06.2019
5608 Clear 35 1021 36 10000 5.1 140 17:19 26.06.2019
5609 Clear 35 1022 36 10000 5.1 160 16:46 26.06.2019
5610 Clear 35 1022 36 10000 4.6 130 16:22 26.06.2019
5611 Clear 35 1022 36 10000 5.1 150 15:40 26.06.2019
5612 Rain 34 1022 36 10000 5.1 150 15:22 26.06.2019
5613 Rain 34 1023 38 10000 5.7 140 14:38 26.06.2019
5614 Clear 33 1023 38 10000 5.7 140 14:19 26.06.2019
5615 Clear 33 1023 38 10000 4.6 150 13:43 26.06.2019
5616 Clear 33 1023 41 10000 5.7 160 13:20 26.06.2019
5617 Clear 32 1023 43 10000 6.7 150 12:42 26.06.2019
5618 Clear 32 1023 43 10000 6.7 150 12:42 26.06.2019
5619 Clear 32 1023 43 10000 6.7 150 12:23 26.06.2019
5620 Clear 31 1024 43 10000 6.2 170 11:49 26.06.2019
5621 Clear 31 1024 45 10000 6.7 160 11:21 26.06.2019
5622 Clear 30 1024 55 10000 6.2 150 10:46 26.06.2019
5623 Clear 29 1024 55 10000 5.7 170 10:27 26.06.2019
5624 Clear 28 1024 58 10000 5.1 180 09:49 26.06.2019
5625 Clear 27 1023 65 10000 4.6 140 09:24 26.06.2019
5626 Clear 26 1023 65 10000 5.1 150 08:49 26.06.2019
5627 Clear 24 1023 73 10000 5.1 140 08:20 26.06.2019
5628 Clear 24 1023 78 10000 5.1 140 07:46 26.06.2019
5629 Clear 22 1023 78 10000 3.6 130 07:25 26.06.2019
5630 Fog 21 1023 83 10000 1.5 120 06:32 26.06.2019
5631 Clear 22 1024 78 10000 2.6 160 01:31 26.06.2019
5632 Clear 23 1024 78 10000 4.1 160 00:25 26.06.2019
5633 Clear 24 1024 83 10000 3.6 160 23:48 25.06.2019
5634 Clear 24 1024 78 10000 3.6 150 23:28 25.06.2019
5635 Clear 24 1024 73 10000 3.6 140 22:58 25.06.2019
5636 Clear 25 1024 65 10000 4.1 140 22:39 25.06.2019
5637 Rain 25 1024 65 10000 4.1 140 22:21 25.06.2019
5638 Rain 26 1023 61 10000 2.6 140 21:45 25.06.2019
5639 Rain 26 1023 61 10000 2.6 140 21:24 25.06.2019
5640 Clouds 28 1023 54 10000 3.6 130 20:48 25.06.2019
5641 Clear 28 1023 58 10000 3.1 130 20:47 25.06.2019
5642 Clouds 28 1023 54 10000 3.6 130 20:23 25.06.2019
5643 Clouds 29 1023 51 10000 4.1 140 19:55 25.06.2019
5644 Clouds 29 1023 48 10000 5.1 140 19:37 25.06.2019
5645 Clouds 29 1023 48 10000 5.1 140 19:18 25.06.2019
5646 Clouds 30 1023 48 10000 5.7 140 18:41 25.06.2019
5647 Clouds 30 1023 45 10000 5.7 150 18:22 25.06.2019
5648 -273 0 0 0 0 0 17:43 25.06.2019
5649 -273 0 0 0 0 0 17:43 25.06.2019
5650 Clouds 31 1023 45 10000 5.7 140 17:22 25.06.2019
5651 Clouds 31 1023 45 10000 5.7 140 17:22 25.06.2019
5652 Clouds 31 1023 45 10000 5.7 140 17:22 25.06.2019
5653 Clouds 31 1023 45 10000 6.2 150 16:43 25.06.2019
5654 Clouds 31 1023 45 10000 5.7 130 16:25 25.06.2019
5655 Clouds 31 1024 48 10000 5.7 140 15:43 25.06.2019
5656 Clouds 31 1024 48 10000 5.7 130 15:25 25.06.2019
5657 Clouds 31 1024 48 10000 5.7 140 14:57 25.06.2019
5658 Clouds 31 1024 51 10000 6.2 150 14:38 25.06.2019
5659 Clouds 31 1024 51 10000 6.2 150 14:20 25.06.2019
5660 Clouds 30 1024 54 10000 5.1 150 13:41 25.06.2019
5661 Clouds 30 1024 54 10000 5.1 140 13:19 25.06.2019
5662 Clouds 30 1024 54 10000 5.1 130 12:41 25.06.2019
5663 Clouds 29 1024 54 10000 4.6 130 12:23 25.06.2019
5664 Clouds 28 1024 61 10000 4.1 110 11:44 25.06.2019
5665 Clouds 28 1024 61 10000 5.1 130 11:23 25.06.2019
5666 Clouds 28 1024 57 10000 5.1 120 10:55 25.06.2019
5667 Clouds 27 1024 61 10000 4.6 140 10:36 25.06.2019
5668 Clouds 27 1024 61 10000 4.6 140 10:18 25.06.2019
5669 Clear 26 1023 65 10000 3.1 100 09:39 25.06.2019
5670 Clear 25 1023 65 10000 4.1 120 09:21 25.06.2019
5671 Clear 24 1023 69 10000 3.1 130 08:50 25.06.2019
5672 Clear 23 1023 69 10000 1 0 08:30 25.06.2019
5673 Clear 21 1023 77 10000 1.5 160 07:43 25.06.2019
5674 Clear 20 1023 82 10000 1.5 140 07:23 25.06.2019
5675 Clear 19 1023 88 10000 2.1 120 06:42 25.06.2019
5676 Clear 17 1023 93 10000 1.5 170 05:47 25.06.2019
5677 Clear 19 1022 73 10000 2.1 310 02:37 25.06.2019
5678 Clear 20 1022 73 10000 2.1 350 00:38 25.06.2019
5679 Clear 20 1022 73 10000 2.1 350 00:19 25.06.2019
5680 Clear 20 1022 73 10000 2.6 340 23:51 24.06.2019
5681 Clear 21 1022 68 10000 3.1 340 23:32 24.06.2019
5682 Clear 21 1022 68 10000 3.1 340 22:46 24.06.2019
5683 Clear 22 1022 64 10000 3.1 330 22:20 24.06.2019
5684 Clear 22 1022 60 10000 3.1 340 21:54 24.06.2019
5685 Clear 23 1021 60 10000 3.1 340 21:36 24.06.2019
5686 Clear 24 1021 60 10000 3.1 340 21:18 24.06.2019
5687 Clear 25 1021 54 10000 3.6 350 20:42 24.06.2019
5688 Rain 26 1021 51 10000 3.6 350 20:22 24.06.2019
5689 Rain 27 1021 54 10000 3.1 360 19:48 24.06.2019
5690 Rain 28 1021 48 10000 3.1 360 19:26 24.06.2019
5691 Clear 28 1020 48 10000 3.6 350 18:56 24.06.2019
5692 Clear 28 1021 45 10000 3.6 350 18:37 24.06.2019
5693 Rain 28 1021 45 10000 3.6 350 18:18 24.06.2019
5694 Rain 29 1021 45 10000 3.1 360 17:37 24.06.2019
5695 Rain 29 1021 48 10000 3.6 10 16:57 24.06.2019
5696 Rain 29 1021 48 10000 4.1 350 16:39 24.06.2019
5697 Rain 29 1021 48 10000 4.1 350 16:19 24.06.2019
5698 Clouds 29 1021 51 10000 4.1 10 15:40 24.06.2019
5699 Clouds 28 1021 51 10000 4.1 10 15:22 24.06.2019
5700 Clouds 28 1021 51 10000 4.1 360 14:35 24.06.2019
5701 Rain 27 1021 54 10000 4.1 340 13:58 24.06.2019
5702 Rain 27 1021 53 10000 5.7 340 13:32 24.06.2019
5703 Rain 27 1021 50 10000 5.7 310 12:54 24.06.2019
5704 Rain 26 1021 53 10000 5.1 310 12:36 24.06.2019
5705 Rain 25 1021 53 10000 5.1 310 12:18 24.06.2019
5706 Rain 25 1021 56 10000 5.7 310 11:43 24.06.2019
5707 Rain 24 1021 56 10000 5.7 310 11:23 24.06.2019
5708 Clouds 24 1021 56 10000 6.2 310 10:51 24.06.2019
5709 Clouds 23 1021 56 10000 5.1 310 10:28 24.06.2019
5710 Clouds 22 1021 56 10000 1.5 270 09:49 24.06.2019
5711 Rain 21 1021 56 10000 4.6 320 09:23 24.06.2019
5712 Rain 20 1021 60 10000 4.6 310 08:53 24.06.2019
5713 Clear 20 1021 60 10000 5.1 310 08:32 24.06.2019
5714 Clear 19 1021 68 10000 4.1 320 07:47 24.06.2019
5715 Clear 18 1020 72 10000 3.6 320 07:27 24.06.2019
5716 Clear 17 1020 72 10000 3.6 310 06:52 24.06.2019
5717 Clear 17 1020 72 10000 4.1 320 06:22 24.06.2019
5718 Clouds 16 1020 72 10000 3.1 330 05:29 24.06.2019
5719 Clouds 17 1020 72 10000 4.1 340 04:31 24.06.2019
5720 Clouds 18 1020 72 10000 3.6 330 03:32 24.06.2019
5721 Clear 18 1019 72 10000 3.6 340 02:33 24.06.2019
5722 Clear 18 1019 72 10000 3.6 340 01:54 24.06.2019
5723 Clear 19 1019 77 10000 4.1 330 01:27 24.06.2019
5724 Clouds 19 1019 77 10000 3.1 320 00:42 24.06.2019
5725 Clouds 19 1019 82 10000 3.1 330 00:19 24.06.2019
5726 Clouds 19 1019 82 10000 3.6 330 23:46 23.06.2019
5727 Clouds 19 1018 82 10000 3.1 330 23:27 23.06.2019
5728 Clouds 19 1018 82 10000 4.1 330 22:44 23.06.2019
5729 Clouds 19 1018 82 10000 4.6 320 22:21 23.06.2019
5730 Clouds 19 1017 82 10000 4.6 320 21:58 23.06.2019
5731 Clouds 19 1017 82 10000 4.6 320 21:40 23.06.2019
5732 Rain 20 1017 82 10000 3.6 320 21:21 23.06.2019
5733 Rain 20 1017 83 10000 3.6 320 20:43 23.06.2019
5734 Rain 20 1017 83 10000 4.1 330 20:25 23.06.2019
5735 Clouds 20 1017 83 10000 3.6 320 19:45 23.06.2019
5736 Clouds 20 1017 83 10000 3.6 330 19:21 23.06.2019
5737 Rain 20 1017 78 10000 4.6 300 18:54 23.06.2019
5738 Rain 20 1017 88 10000 4.1 300 18:25 23.06.2019
5739 Rain 20 1017 82 10000 4.1 320 17:54 23.06.2019
5740 Rain 20 1017 88 10000 3.1 350 17:28 23.06.2019
5741 Rain 22 1017 88 3200 5.1 360 16:59 23.06.2019
5742 Rain 22 1017 88 3200 5.1 360 16:41 23.06.2019
5743 Rain 23 1017 83 10000 4.1 320 16:22 23.06.2019
5744 Clouds 23 1017 78 10000 4.6 340 15:41 23.06.2019
5745 Clouds 22 1017 78 10000 4.6 340 15:22 23.06.2019
5746 Rain 22 1017 78 10000 5.1 350 14:42 23.06.2019
5747 Thunderstorm 22 1017 78 10000 4.6 340 14:24 23.06.2019
5748 Thunderstorm 22 1017 78 10000 4.6 350 13:59 23.06.2019
5749 Rain 22 1017 83 10000 4.1 340 13:40 23.06.2019
5750 Rain 22 1017 83 10000 4.1 340 13:19 23.06.2019
5751 Rain 22 1017 83 10000 4.1 340 13:19 23.06.2019
5752 Rain 22 1017 83 10000 4.1 340 13:19 23.06.2019
5753 Rain 21 1017 83 10000 4.1 350 12:46 23.06.2019
5754 Rain 21 1017 88 10000 4.1 360 12:23 23.06.2019
5755 Rain 20 1017 88 10000 4.6 20 11:57 23.06.2019
5756 Rain 20 1017 88 10000 3.1 20 11:38 23.06.2019
5757 Rain 20 1017 88 10000 3.1 20 11:19 23.06.2019
5758 Rain 20 1017 93 10000 3.6 10 10:44 23.06.2019
5759 Rain 19 1017 93 10000 3.6 10 10:19 23.06.2019
5760 Rain 19 1016 88 10000 3.6 10 09:42 23.06.2019
5761 Rain 19 1016 88 10000 3.6 10 09:21 23.06.2019
5762 Rain 19 1016 88 10000 4.1 20 08:45 23.06.2019
5763 Rain 19 1016 93 10000 4.1 20 08:27 23.06.2019
5764 Rain 19 1016 93 10000 3.1 10 07:54 23.06.2019
5765 Rain 19 1016 93 9000 2.6 350 07:21 23.06.2019
5766 Rain 18 1016 93 10000 2.1 360 06:54 23.06.2019
5767 Rain 18 1015 93 10000 2.6 320 05:55 23.06.2019
5768 Rain 18 1015 93 10000 2.6 320 05:55 23.06.2019
5769 Clouds 18 1016 93 10000 1 0 04:38 23.06.2019
5770 Clouds 18 1015 88 10000 2.1 330 01:57 23.06.2019
5771 Clouds 18 1016 93 10000 1.5 350 01:36 23.06.2019
5772 Clouds 19 1016 93 10000 1.5 340 00:36 23.06.2019
5773 Clouds 19 1016 93 10000 1.5 20 23:55 22.06.2019
5774 Clouds 19 1016 93 10000 1.5 20 23:55 22.06.2019
5775 Rain 19 1016 88 10000 1 0 23:37 22.06.2019
5776 Rain 19 1016 88 10000 1 0 23:18 22.06.2019
5777 Rain 19 1015 88 10000 2.1 10 22:38 22.06.2019
5778 Rain 19 1015 88 10000 2.1 10 22:19 22.06.2019
5779 Rain 19 1016 88 10000 3.1 60 21:38 22.06.2019
5780 Rain 20 1016 88 10000 3.1 60 21:19 22.06.2019
5781 Clouds 20 1016 82 10000 3.1 60 20:50 22.06.2019
5782 Clouds 20 1015 77 10000 2.6 50 20:25 22.06.2019
5783 Clouds 20 1015 77 10000 5.1 40 19:47 22.06.2019
5784 Clouds 21 1016 73 10000 5.1 40 19:23 22.06.2019
5785 Clouds 21 1016 73 10000 6.2 50 18:50 22.06.2019
5786 Clouds 23 1016 60 10000 6.2 80 18:32 22.06.2019
5787 Thunderstorm 24 1016 54 10000 0.5 0 17:57 22.06.2019
5788 Thunderstorm 24 1015 54 10000 2.1 300 17:36 22.06.2019
5789 Thunderstorm 25 1015 54 10000 2.1 300 17:18 22.06.2019
5790 Thunderstorm 26 1016 57 10000 2.1 0 16:39 22.06.2019
5791 Thunderstorm 26 1016 57 10000 2.1 0 16:20 22.06.2019
5792 Clouds 26 1017 57 10000 1.5 0 15:40 22.06.2019
5793 Clouds 27 1017 57 10000 1.5 0 15:22 22.06.2019
5794 Clear 26 1017 61 10000 2.1 0 14:41 22.06.2019
5795 Clouds 25 1017 64 10000 4.1 350 14:20 22.06.2019
5796 Clouds 25 1018 69 10000 2.1 0 13:42 22.06.2019
5797 Clouds 25 1018 69 10000 2.6 340 13:23 22.06.2019
5798 Rain 24 1019 73 10000 2.6 360 12:54 22.06.2019
5799 Rain 23 1019 77 10000 2.1 360 12:35 22.06.2019
5800 Rain 22 1019 77 10000 3.1 360 11:59 22.06.2019
5801 Rain 22 1019 77 10000 3.1 340 11:34 22.06.2019
5802 Clouds 21 1019 73 10000 2.6 320 10:54 22.06.2019
5803 Clouds 21 1019 73 10000 2.6 350 10:21 22.06.2019
5804 Clouds 21 1019 77 10000 3.6 10 09:55 22.06.2019
5805 Clouds 20 1019 77 10000 3.6 360 09:23 22.06.2019
5806 Rain 20 1018 77 10000 4.6 340 08:44 22.06.2019
5807 Rain 20 1018 77 10000 4.6 340 08:25 22.06.2019
5808 Clouds 20 1019 82 10000 2.6 330 07:36 22.06.2019
5809 Clouds 19 1018 82 10000 3.1 350 06:56 22.06.2019
5810 Clouds 19 1018 82 10000 1 0 05:31 22.06.2019
5811 Rain 20 1018 73 10000 1 0 02:34 22.06.2019
5812 Clear 20 1018 68 10000 2.1 240 01:35 22.06.2019
5813 Clear 21 1017 60 10000 2.6 260 00:47 22.06.2019
5814 Clear 21 1017 64 10000 2.6 230 00:22 22.06.2019
5815 Clouds 21 1017 68 10000 1 0 23:45 21.06.2019
5816 Clouds 21 1017 64 10000 1 40 23:22 21.06.2019
5817 Clouds 22 1017 60 10000 1 30 22:53 21.06.2019
5818 Rain 22 1017 60 10000 2.1 40 22:25 21.06.2019
5819 Rain 23 1016 53 10000 1.5 40 21:55 21.06.2019
5820 Clouds 22 1016 53 10000 1.5 40 21:37 21.06.2019
5821 Clouds 23 1016 53 10000 2.1 340 21:18 21.06.2019
5822 Clouds 25 1016 53 10000 2.6 330 20:45 21.06.2019
5823 Rain 26 1015 44 10000 3.1 320 20:22 21.06.2019
5824 Clouds 27 1015 42 10000 2.6 350 19:37 21.06.2019
5825 Clouds 27 1015 42 10000 2.1 10 18:54 21.06.2019
5826 Clouds 28 1015 39 10000 2.6 310 18:34 21.06.2019
5827 Rain 29 1015 39 10000 4.1 330 17:48 21.06.2019
5828 Rain 29 1015 42 10000 5.1 320 17:30 21.06.2019
5829 Clear 29 1015 42 10000 5.7 330 16:42 21.06.2019
5830 Clear 29 1015 42 10000 5.7 330 16:23 21.06.2019
5831 Rain 29 1016 39 10000 5.1 310 15:45 21.06.2019
5832 Rain 28 1016 42 10000 5.1 320 15:24 21.06.2019
5833 Rain 28 1016 39 10000 5.1 320 14:53 21.06.2019
5834 Rain 28 1016 42 10000 4.1 330 14:31 21.06.2019
5835 Rain 28 1016 42 10000 4.6 330 13:59 21.06.2019
5836 Rain 27 1017 44 10000 4.1 320 13:36 21.06.2019
5837 Rain 27 1017 44 10000 4.1 320 13:18 21.06.2019
5838 Rain 27 1017 47 10000 5.1 320 12:42 21.06.2019
5839 Rain 26 1017 47 10000 3.6 330 12:22 21.06.2019
5840 Rain 26 1017 57 10000 3.6 330 11:48 21.06.2019
5841 Clouds 25 1017 57 10000 4.1 340 11:27 21.06.2019
5842 Clouds 25 1017 53 10000 4.1 320 10:56 21.06.2019
5843 Clouds 24 1017 53 10000 4.1 320 10:38 21.06.2019
5844 Rain 24 1017 60 10000 4.1 320 10:19 21.06.2019
5845 Rain 22 1017 64 10000 4.1 330 09:41 21.06.2019
5846 Clouds 22 1017 64 10000 4.1 320 09:21 21.06.2019
5847 Clear 20 1017 68 10000 3.1 320 08:44 21.06.2019
5848 Clear 20 1017 77 10000 3.6 270 08:24 21.06.2019
5849 Clear 19 1016 77 10000 4.1 290 07:54 21.06.2019
5850 Clear 18 1016 77 10000 4.1 270 07:36 21.06.2019
5851 Clear 17 1016 82 10000 4.6 270 06:54 21.06.2019
5852 Rain 17 1016 82 10000 5.1 280 06:23 21.06.2019
5853 Rain 17 1016 82 10000 3.6 290 05:30 21.06.2019
5854 Rain 17 1016 82 10000 2.6 250 04:30 21.06.2019
5855 Rain 17 1016 82 10000 6.7 280 03:34 21.06.2019
5856 Rain 17 1016 77 10000 5.7 280 02:53 21.06.2019
5857 Rain 17 1015 72 10000 4.6 300 01:56 21.06.2019
5858 Clouds 18 1015 72 10000 7.2 280 00:58 21.06.2019
5859 Thunderstorm 18 1015 68 10000 6.2 290 00:27 21.06.2019
5860 Thunderstorm 18 1015 68 10000 6.7 290 23:49 20.06.2019
5861 Rain 18 1015 64 10000 8.7 280 23:24 20.06.2019
5862 Rain 19 1014 68 10000 2.6 270 22:58 20.06.2019
5863 Clouds 19 1013 64 10000 1 0 22:39 20.06.2019
5864 Clouds 20 1013 64 10000 1 0 22:21 20.06.2019
5865 Clouds 21 1012 73 10000 1 40 21:49 20.06.2019
5866 Rain 22 1012 68 10000 1.5 360 21:19 20.06.2019
5867 Rain 23 1013 68 10000 2.1 30 20:58 20.06.2019
5868 Rain 23 1013 68 10000 2.1 30 20:39 20.06.2019
5869 Rain 24 1012 78 10000 2.6 10 20:19 20.06.2019
5870 Rain 25 1012 73 10000 4.1 290 19:39 20.06.2019
5871 Rain 25 1012 73 10000 4.1 290 19:18 20.06.2019
5872 Rain 26 1012 54 10000 3.1 250 18:43 20.06.2019
5873 Rain 27 1011 54 10000 3.6 190 18:23 20.06.2019
5874 Thunderstorm 27 1011 54 10000 3.6 180 17:59 20.06.2019
5875 Thunderstorm 28 1011 54 10000 3.6 180 17:41 20.06.2019
5876 Clouds 29 1011 48 10000 1.5 0 16:58 20.06.2019
5877 Clouds 29 1011 51 10000 2.1 60 16:40 20.06.2019
5878 Clouds 29 1011 51 10000 2.1 60 16:19 20.06.2019
5879 Rain 29 1011 51 10000 2.6 360 15:43 20.06.2019
5880 Rain 29 1011 51 10000 2.1 0 15:23 20.06.2019
5881 Rain 29 1012 51 10000 2.6 60 14:54 20.06.2019
5882 Clouds 29 1012 54 10000 2.6 70 14:36 20.06.2019
5883 Clouds 29 1012 54 10000 2.6 70 14:18 20.06.2019
5884 Clouds 29 1013 61 10000 2.6 60 13:38 20.06.2019
5885 Clouds 29 1013 61 10000 2.6 60 13:18 20.06.2019
5886 Clouds 28 1013 61 10000 2.6 50 12:41 20.06.2019
5887 Clouds 27 1013 61 10000 3.1 60 12:21 20.06.2019
5888 Clouds 26 1013 61 10000 1.5 0 11:41 20.06.2019
5889 Clouds 26 1013 64 10000 2.1 70 11:22 20.06.2019
5890 Clouds 25 1013 69 10000 2.1 20 10:45 20.06.2019
5891 Clouds 24 1013 78 10000 2.6 110 10:24 20.06.2019
5892 Clouds 23 1013 83 10000 2.1 150 09:55 20.06.2019
5893 Clouds 22 1013 83 10000 2.1 150 09:37 20.06.2019
5894 Clouds 21 1013 88 10000 2.1 210 09:19 20.06.2019
5895 Clouds 20 1013 88 10000 2.6 140 08:44 20.06.2019
5896 Clouds 20 1013 88 10000 2.6 140 08:23 20.06.2019
5897 Clouds 19 1012 93 10000 2.1 130 07:47 20.06.2019
5898 Clouds 18 1012 88 10000 1 0 07:25 20.06.2019
5899 Clouds 18 1012 88 10000 1 0 07:25 20.06.2019
5900 Clouds 17 1012 93 10000 0.5 0 06:20 20.06.2019
5901 Rain 17 1011 93 10000 1.5 170 03:41 20.06.2019
5902 Rain 17 1012 88 10000 0.5 0 02:28 20.06.2019
5903 Clouds 18 1012 77 10000 1 0 00:33 20.06.2019
5904 Clouds 19 1012 82 10000 1.5 90 23:48 19.06.2019
5905 Thunderstorm 19 1012 82 10000 2.6 20 23:29 19.06.2019
5906 Thunderstorm 20 1012 77 10000 3.6 40 22:49 19.06.2019
5907 Clouds 20 1012 73 10000 3.6 10 22:25 19.06.2019
5908 Thunderstorm 21 1011 78 10000 1.5 90 21:58 19.06.2019
5909 Thunderstorm 21 1011 78 10000 1.5 90 21:58 19.06.2019
5910 Thunderstorm 21 1011 73 10000 3.6 140 21:39 19.06.2019
5911 Thunderstorm 22 1011 73 10000 3.6 140 21:21 19.06.2019
5912 Clouds 24 1011 69 10000 4.1 150 20:42 19.06.2019
5913 Clouds 24 1011 69 10000 4.1 150 20:21 19.06.2019
5914 Clouds 25 1011 65 10000 5.1 120 19:46 19.06.2019
5915 Clouds 25 1010 61 10000 4.6 120 19:28 19.06.2019
5916 Clouds 26 1010 57 10000 4.6 150 18:57 19.06.2019
5917 Clouds 27 1010 54 10000 6.2 160 18:26 19.06.2019
5918 Clouds 28 1010 54 10000 6.7 150 17:53 19.06.2019
5919 Clouds 28 1010 51 10000 7.2 150 17:33 19.06.2019
5920 Clouds 29 1011 48 10000 5.1 150 16:56 19.06.2019
5921 Clouds 29 1011 45 10000 5.1 130 16:38 19.06.2019
5922 Clouds 29 1011 45 10000 5.1 130 16:19 19.06.2019
5923 Clouds 29 1011 45 10000 5.1 130 15:46 19.06.2019
5924 Clouds 29 1011 45 10000 5.7 110 15:25 19.06.2019
5925 Rain 29 1012 45 10000 4.6 120 14:50 19.06.2019
5926 Clouds 29 1012 48 10000 4.1 140 14:29 19.06.2019
5927 Clouds 29 1012 51 10000 5.1 130 13:59 19.06.2019
5928 Clouds 29 1012 51 10000 5.1 130 13:38 19.06.2019
5929 Clouds 29 1012 51 10000 4.6 150 13:20 19.06.2019
5930 Clouds 29 1013 54 10000 5.1 140 12:42 19.06.2019
5931 Clouds 28 1013 54 10000 5.1 130 12:20 19.06.2019
5932 Clouds 27 1013 57 10000 5.1 120 11:44 19.06.2019
5933 Clouds 27 1013 57 10000 4.1 140 11:25 19.06.2019
5934 Clouds 27 1013 65 10000 3.6 110 10:57 19.06.2019
5935 Clouds 27 1013 65 10000 3.6 110 10:38 19.06.2019
5936 Clouds 26 1014 69 10000 4.1 120 10:19 19.06.2019
5937 Clouds 24 1014 73 10000 2.6 120 09:39 19.06.2019
5938 Clouds 24 1014 73 10000 2.6 120 09:19 19.06.2019
5939 Rain 23 1014 73 10000 3.6 130 08:48 19.06.2019
5940 Rain 22 1014 73 10000 3.6 130 08:28 19.06.2019
5941 Clear 20 1014 77 10000 3.1 130 07:47 19.06.2019
5942 Clear 20 1014 77 10000 3.1 130 07:47 19.06.2019
5943 Clouds 19 1013 82 10000 2.1 140 07:23 19.06.2019
5944 Clouds 18 1013 88 10000 1 160 06:52 19.06.2019
5945 Clouds 17 1013 88 10000 0.5 0 06:26 19.06.2019
5946 Clouds 17 1013 88 10000 1.5 110 05:49 19.06.2019
5947 Clear 17 1014 93 10000 2.1 150 04:19 19.06.2019
5948 Clear 17 1014 88 10000 2.6 180 03:27 19.06.2019
5949 Clear 18 1014 82 10000 2.1 160 01:53 19.06.2019
5950 Clear 19 1014 82 10000 3.6 160 01:18 19.06.2019
5951 Clear 19 1014 82 10000 3.1 160 00:43 19.06.2019
5952 Clear 20 1014 82 10000 3.1 140 00:20 19.06.2019
5953 Clear 20 1015 73 10000 3.1 150 23:52 18.06.2019
5954 Clear 20 1015 73 10000 3.1 140 23:27 18.06.2019
5955 Clouds 21 1015 64 10000 3.1 130 22:46 18.06.2019
5956 Clouds 21 1015 64 10000 2.6 120 22:24 18.06.2019
5957 Rain 22 1015 60 10000 2.1 110 21:57 18.06.2019
5958 Rain 22 1014 57 10000 1.5 100 21:38 18.06.2019
5959 Rain 23 1014 57 10000 1.5 100 21:20 18.06.2019
5960 Clouds 24 1014 57 10000 1.5 80 20:43 18.06.2019
5961 Clouds 25 1014 54 10000 2.1 120 20:25 18.06.2019
5962 Clouds 26 1014 47 10000 3.1 90 19:42 18.06.2019
5963 Clouds 26 1014 47 10000 3.1 90 19:23 18.06.2019
5964 Clouds 27 1014 48 10000 2.1 110 18:59 18.06.2019
5965 Clouds 28 1014 45 10000 3.1 130 18:38 18.06.2019
5966 Clouds 28 1014 45 10000 3.1 130 18:20 18.06.2019
5967 Clouds 28 1015 45 10000 3.1 130 17:39 18.06.2019
5968 Clouds 28 1015 45 10000 3.1 130 17:19 18.06.2019
5969 Clouds 28 1015 45 10000 3.1 160 16:43 18.06.2019
5970 Clouds 28 1015 45 10000 3.1 160 16:43 18.06.2019
5971 Clouds 28 1015 42 10000 4.1 170 16:24 18.06.2019
5972 Clouds 28 1016 42 10000 2.6 0 15:43 18.06.2019
5973 Clouds 28 1016 44 10000 3.1 120 15:25 18.06.2019
5974 Clouds 28 1016 44 10000 3.6 120 14:59 18.06.2019
5975 Clouds 28 1016 42 10000 3.1 140 14:41 18.06.2019
5976 Clouds 28 1016 42 10000 3.1 140 14:21 18.06.2019
5977 Clouds 28 1017 44 10000 3.1 180 13:52 18.06.2019
5978 Clouds 28 1017 47 10000 1.5 0 13:31 18.06.2019
5979 Clouds 27 1017 53 10000 2.1 100 12:56 18.06.2019
5980 Clouds 26 1017 50 10000 1.5 0 12:36 18.06.2019
5981 Clouds 26 1017 50 10000 1.5 0 12:18 18.06.2019
5982 Clouds 25 1018 53 10000 1.5 0 11:42 18.06.2019
5983 Clouds 25 1018 53 10000 1.5 0 11:21 18.06.2019
5984 Clouds 24 1018 56 10000 2.1 120 10:56 18.06.2019
5985 Clear 24 1018 56 10000 1.5 0 10:36 18.06.2019
5986 Clear 24 1018 56 10000 1.5 0 10:18 18.06.2019
5987 Clear 23 1018 60 10000 2.1 110 09:37 18.06.2019
5988 Clear 22 1018 64 10000 1 0 09:18 18.06.2019
5989 Clear 21 1018 68 10000 1 0 08:42 18.06.2019
5990 Clear 20 1018 72 10000 1.5 350 08:21 18.06.2019
5991 Clear 19 1018 72 10000 1 10 07:37 18.06.2019
5992 Clear 18 1018 72 10000 1 10 07:18 18.06.2019
5993 Clear 16 1018 82 10000 1.5 320 05:39 18.06.2019
5994 Clear 16 1017 82 10000 2.1 340 04:24 18.06.2019
5995 Clear 17 1018 82 10000 1.5 330 02:52 18.06.2019
5996 Clear 17 1018 77 10000 2.6 330 01:54 18.06.2019
5997 Clear 18 1018 72 10000 1.5 330 01:24 18.06.2019
5998 Clear 18 1018 72 10000 1.5 330 01:24 18.06.2019
5999 Clear 18 1018 72 10000 2.1 340 00:54 18.06.2019
6000 Clear 19 1018 72 10000 1 350 00:24 18.06.2019
6001 Clear 19 1018 72 10000 2.1 350 23:41 17.06.2019
6002 Clear 20 1018 68 10000 1.5 350 23:19 17.06.2019
6003 Clear 20 1018 68 10000 2.1 10 22:54 17.06.2019
6004 Clear 20 1018 68 10000 2.6 10 22:36 17.06.2019
6005 Clear 20 1018 68 10000 2.6 10 22:18 17.06.2019
6006 Clear 21 1018 64 10000 2.1 10 21:41 17.06.2019
6007 Clear 22 1018 64 10000 3.1 360 21:21 17.06.2019
6008 Clear 23 1018 56 10000 3.6 360 20:37 17.06.2019
6009 Clear 23 1018 56 10000 3.6 360 20:18 17.06.2019
6010 Clouds 24 1018 57 10000 4.6 350 19:42 17.06.2019
6011 Clouds 24 1018 57 10000 4.6 350 19:23 17.06.2019
6012 Clouds 24 1018 53 10000 4.6 360 18:58 17.06.2019
6013 Clouds 25 1018 53 10000 4.1 350 18:37 17.06.2019
6014 Clouds 25 1018 53 10000 4.1 350 18:18 17.06.2019
6015 Clouds 25 1018 53 10000 4.1 350 18:18 17.06.2019
6016 Clear 26 1017 54 10000 5.1 90 17:46 17.06.2019
6017 Clear 26 1017 54 10000 5.1 90 17:28 17.06.2019
6018 Clouds 26 1019 53 10000 4.6 340 16:48 17.06.2019
6019 Clouds 26 1019 53 10000 4.6 340 16:29 17.06.2019
6020 Clouds 26 1019 53 10000 5.1 350 15:58 17.06.2019
6021 Clouds 26 1019 53 10000 5.1 350 15:38 17.06.2019
6022 Clouds 26 1019 53 10000 5.1 360 15:19 17.06.2019
6023 Clouds 26 1019 53 10000 5.1 360 14:51 17.06.2019
6024 Clouds 26 1019 53 10000 5.7 350 14:32 17.06.2019
6025 Clouds 26 1020 53 10000 4.6 350 13:56 17.06.2019
6026 Clouds 26 1020 53 10000 4.6 350 13:38 17.06.2019
6027 Clouds 25 1020 53 10000 5.7 10 13:19 17.06.2019
6028 Clouds 25 1020 57 10000 5.1 360 12:33 17.06.2019
6029 Clouds 25 1020 57 10000 5.7 360 11:58 17.06.2019
6030 Clouds 24 1020 57 10000 6.2 350 11:38 17.06.2019
6031 Clear 24 1020 60 10000 6.2 360 11:18 17.06.2019
6032 Clear 24 1020 60 10000 6.2 360 10:44 17.06.2019
6033 Clear 23 1020 60 10000 6.2 340 10:25 17.06.2019
6034 Clear 22 1020 60 10000 6.2 340 09:55 17.06.2019
6035 Clear 22 1020 64 10000 5.7 320 09:32 17.06.2019
6036 Clouds 21 1019 60 10000 3.1 340 08:45 17.06.2019
6037 Clouds 20 1020 68 10000 6.2 320 08:24 17.06.2019
6038 Clouds 19 1020 68 10000 6.2 320 07:52 17.06.2019
6039 Clouds 19 1020 68 10000 6.2 320 07:32 17.06.2019
6040 Clouds 17 1020 68 10000 4.6 310 06:50 17.06.2019
6041 Clouds 17 1020 68 10000 5.1 310 05:55 17.06.2019
6042 Clouds 17 1019 72 10000 5.1 320 05:20 17.06.2019
6043 Rain 17 1020 68 10000 5.1 320 04:23 17.06.2019
6044 Rain 17 1020 68 10000 4.6 320 03:30 17.06.2019
6045 Clouds 17 1020 63 10000 5.7 320 02:43 17.06.2019
6046 Clouds 18 1020 63 10000 5.7 330 02:24 17.06.2019
6047 Clouds 18 1020 60 10000 6.7 320 01:35 17.06.2019
6048 Clouds 19 1019 60 10000 6.2 310 00:48 17.06.2019
6049 Clouds 19 1019 60 10000 6.2 310 00:28 17.06.2019
6050 Clouds 19 1020 64 10000 5.7 310 23:58 16.06.2019
6051 Clouds 19 1020 64 10000 5.1 320 23:39 16.06.2019
6052 Clouds 20 1019 56 10000 6.2 320 23:19 16.06.2019
6053 Clouds 20 1019 56 10000 6.2 320 23:19 16.06.2019
6054 Clouds 20 1019 56 10000 7.7 320 22:44 16.06.2019
6055 Clouds 20 1018 60 10000 6.2 310 22:20 16.06.2019
6056 Clouds 20 1018 60 10000 6.2 310 22:20 16.06.2019
6057 Clouds 20 1018 60 10000 6.2 310 21:57 16.06.2019
6058 Clouds 21 1018 56 10000 6.7 310 21:39 16.06.2019
6059 Clouds 21 1018 56 10000 6.7 320 21:20 16.06.2019
6060 Rain 22 1018 60 10000 6.7 320 20:39 16.06.2019
6061 Clouds 22 1018 57 10000 6.7 310 20:19 16.06.2019
6062 Clouds 22 1018 57 10000 6.7 310 20:19 16.06.2019
6063 Clouds 23 1018 57 10000 6.7 310 19:58 16.06.2019
6064 Clouds 23 1018 57 10000 7.7 310 19:58 16.06.2019
6065 Clouds 23 1018 57 10000 7.7 310 19:39 16.06.2019
6066 Rain 23 1017 60 10000 9.3 310 19:21 16.06.2019
6067 Clouds 23 1017 57 10000 7.7 320 18:42 16.06.2019
6068 Clouds 24 1017 60 10000 8.7 310 18:21 16.06.2019
6069 Clouds 24 1017 60 10000 8.7 310 17:57 16.06.2019
6070 Clouds 24 1017 60 10000 8.7 310 17:57 16.06.2019
6071 Clouds 24 1017 64 10000 8.2 310 17:38 16.06.2019
6072 Clouds 24 1017 64 10000 8.2 310 17:20 16.06.2019
6073 Clouds 24 1017 57 10000 8.7 310 16:54 16.06.2019
6074 Clouds 24 1017 57 10000 8.7 310 16:36 16.06.2019
6075 Clouds 24 1017 53 10000 10.8 300 16:18 16.06.2019
6076 Clouds 24 1017 54 10000 9.3 300 15:38 16.06.2019
6077 Clouds 24 1017 54 10000 8.7 300 15:20 16.06.2019
6078 Clouds 24 1017 54 10000 8.7 290 14:40 16.06.2019
6079 Clouds 24 1016 65 10000 8.2 300 14:21 16.06.2019
6080 Rain 24 1017 57 10000 8.7 310 13:50 16.06.2019
6081 Clouds 24 1017 54 10000 7.7 290 13:25 16.06.2019
6082 Rain 24 1017 60 10000 8.2 280 12:46 16.06.2019
6083 Clouds 24 1017 57 10000 8.2 290 12:23 16.06.2019
6084 Rain 24 1017 60 10000 8.2 280 12:23 16.06.2019
6085 Clouds 24 1017 57 10000 8.2 290 11:59 16.06.2019
6086 Clouds 24 1017 60 10000 7.7 280 11:38 16.06.2019
6087 Thunderstorm 23 1017 64 10000 7.7 300 11:19 16.06.2019
6088 Thunderstorm 23 1017 68 10000 5.7 310 10:45 16.06.2019
6089 Thunderstorm 23 1016 64 10000 7.2 310 10:20 16.06.2019
6090 Rain 22 1016 64 10000 6.7 310 09:46 16.06.2019
6091 Rain 22 1015 68 10000 6.2 320 09:25 16.06.2019
6092 Clouds 22 1015 64 10000 7.7 310 08:50 16.06.2019
6093 Clouds 21 1014 68 10000 7.2 300 08:22 16.06.2019
6094 Clouds 21 1014 68 10000 7.7 300 07:50 16.06.2019
6095 Clouds 21 1014 68 10000 7.7 300 07:32 16.06.2019
6096 -273 0 0 0 0 0 06:57 16.06.2019
6097 Clear 20 1013 73 10000 3.6 320 06:21 16.06.2019
6098 Rain 19 1013 73 10000 3.6 320 05:28 16.06.2019
6099 Clear 19 1013 68 10000 3.1 310 04:33 16.06.2019
6100 Clear 20 1013 68 10000 1.5 280 03:51 16.06.2019
6101 Clear 20 1013 68 10000 1.5 280 03:30 16.06.2019
6102 Clear 21 1013 57 10000 3.1 300 01:57 16.06.2019
6103 Clear 21 1013 57 10000 2.1 280 01:37 16.06.2019
6104 Clear 21 1013 53 10000 5.1 280 01:18 16.06.2019
6105 Clear 22 1013 50 10000 4.6 280 00:39 16.06.2019
6106 Clear 23 1013 50 10000 3.1 260 00:19 16.06.2019
6107 Clear 24 1012 50 10000 4.1 280 23:40 15.06.2019
6108 Clear 24 1012 47 10000 4.6 270 23:21 15.06.2019
6109 Clear 23 1012 69 10000 4.1 250 22:49 15.06.2019
6110 Clear 24 1012 69 10000 4.1 250 22:26 15.06.2019
6111 Clear 26 1011 65 10000 6.2 150 21:45 15.06.2019
6112 Clear 26 1010 58 10000 5.1 140 21:27 15.06.2019
6113 Clear 27 1011 58 10000 5.1 140 20:46 15.06.2019
6114 Clear 28 1011 54 10000 5.7 150 20:27 15.06.2019
6115 Clear 29 1011 54 10000 5.7 150 19:57 15.06.2019
6116 Clear 30 1011 51 10000 5.7 150 19:38 15.06.2019
6117 Clear 30 1011 48 10000 6.7 150 19:20 15.06.2019
6118 Clear 31 1011 48 10000 5.1 150 18:37 15.06.2019
6119 Clear 32 1011 48 10000 4.6 140 18:19 15.06.2019
6120 Clear 31 1012 48 10000 5.1 130 17:43 15.06.2019
6121 Clear 32 1012 45 10000 6.2 140 17:21 15.06.2019
6122 Clear 31 1012 48 10000 6.2 150 16:46 15.06.2019
6123 Clear 31 1012 45 10000 6.7 140 16:19 15.06.2019
6124 Clear 31 1012 43 10000 6.7 150 15:43 15.06.2019
6125 Clear 32 1012 43 10000 8.2 150 15:23 15.06.2019
6126 Clear 32 1013 45 10000 7.2 140 14:42 15.06.2019
6127 Clear 32 1013 45 10000 7.2 130 14:19 15.06.2019
6128 Clear 32 1013 45 10000 7.2 130 13:56 15.06.2019
6129 Clear 31 1013 45 10000 7.2 150 13:38 15.06.2019
6130 Clear 31 1013 51 10000 7.2 140 13:18 15.06.2019
6131 Clear 31 1013 51 10000 5.7 140 12:47 15.06.2019
6132 Clear 30 1013 55 10000 7.2 160 12:23 15.06.2019
6133 Clear 30 1014 58 10000 7.2 150 11:51 15.06.2019
6134 Clear 29 1014 58 10000 7.2 150 11:32 15.06.2019
6135 Clear 29 1013 58 10000 6.2 140 10:47 15.06.2019
6136 Clear 28 1013 58 10000 6.2 140 10:26 15.06.2019
6137 Clear 27 1013 58 10000 8.2 150 09:56 15.06.2019
6138 Clear 27 1013 61 10000 7.2 150 09:38 15.06.2019
6139 Clear 26 1013 69 10000 6.2 140 09:18 15.06.2019
6140 Clear 25 1013 73 10000 5.7 150 08:43 15.06.2019
6141 Clear 25 1013 73 10000 5.7 150 08:24 15.06.2019
6142 Clear 23 1013 73 10000 6.2 130 07:27 15.06.2019
6143 Clear 23 1014 78 10000 4.1 140 06:49 15.06.2019
6144 Clear 22 1014 78 10000 4.1 140 06:30 15.06.2019
6145 Clear 21 1014 83 10000 3.6 130 05:41 15.06.2019
6146 Clear 21 1014 78 10000 4.6 150 04:59 15.06.2019
6147 Clear 21 1014 78 10000 3.1 120 04:30 15.06.2019
6148 Clear 21 1015 73 10000 2.6 120 03:33 15.06.2019
6149 Clear 21 1015 73 10000 2.6 120 03:33 15.06.2019
6150 Clear 22 1015 83 10000 3.6 150 02:37 15.06.2019
6151 Clear 22 1015 78 10000 4.1 140 01:58 15.06.2019
6152 Clear 22 1015 73 10000 4.1 130 01:25 15.06.2019
6153 Clear 23 1016 69 10000 3.6 130 00:43 15.06.2019
6154 Clear 23 1016 65 10000 4.1 140 00:25 15.06.2019
6155 Clear 23 1016 69 10000 2.1 120 23:51 14.06.2019
6156 Clear 24 1016 65 10000 1.5 120 23:23 14.06.2019
6157 Clear 24 1016 61 10000 2.6 100 22:42 14.06.2019
6158 Clear 25 1016 61 10000 2.6 110 22:22 14.06.2019
6159 Clear 25 1016 57 10000 3.1 130 21:49 14.06.2019
6160 Clear 26 1016 57 10000 3.1 130 21:30 14.06.2019
6161 Clear 27 1016 54 10000 2.6 130 20:58 14.06.2019
6162 Rain 28 1016 51 10000 3.1 120 20:39 14.06.2019
6163 Rain 28 1016 48 10000 3.1 120 20:18 14.06.2019
6164 Clear 29 1016 48 10000 2.6 130 19:43 14.06.2019
6165 Clear 30 1016 45 10000 3.6 140 19:23 14.06.2019
6166 Clear 30 1016 45 10000 3.6 140 18:56 14.06.2019
6167 Clear 31 1016 48 10000 3.6 130 18:37 14.06.2019
6168 Clear 31 1017 43 10000 3.1 150 18:19 14.06.2019
6169 Clear 31 1017 45 10000 2.6 140 17:46 14.06.2019
6170 Clear 32 1017 43 10000 3.1 150 17:25 14.06.2019
6171 Clear 31 1017 43 10000 3.1 150 16:55 14.06.2019
6172 Clear 31 1017 45 10000 3.1 60 16:37 14.06.2019
6173 Clear 31 1017 42 10000 3.6 60 16:18 14.06.2019
6174 Rain 31 1018 48 10000 3.1 30 15:39 14.06.2019
6175 Rain 31 1018 51 10000 2.1 70 15:20 14.06.2019
6176 Rain 31 1018 51 10000 2.1 70 14:50 14.06.2019
6177 Clear 31 1018 48 10000 2.6 70 14:31 14.06.2019
6178 Clear 31 1018 48 10000 2.6 70 14:31 14.06.2019
6179 Clear 30 1018 51 10000 2.6 0 13:54 14.06.2019
6180 Clear 30 1018 51 10000 2.6 0 13:36 14.06.2019
6181 Clouds 30 1019 54 10000 3.1 340 13:18 14.06.2019
6182 Clear 29 1019 61 10000 2.6 330 12:40 14.06.2019
6183 Clear 29 1019 61 10000 3.6 340 12:22 14.06.2019
6184 Clear 28 1019 65 10000 3.6 340 11:44 14.06.2019
6185 Clear 28 1019 65 10000 3.6 340 11:24 14.06.2019
6186 Clear 27 1019 65 10000 4.1 330 10:50 14.06.2019
6187 Clouds 26 1019 61 0 3.1 280 10:23 14.06.2019
6188 Clouds 26 1018 73 10000 5.7 330 09:58 14.06.2019
6189 Clouds 25 1018 73 10000 5.7 330 09:39 14.06.2019
6190 Clouds 24 1018 73 10000 5.7 310 09:20 14.06.2019
6191 Clouds 23 1018 73 10000 6.2 320 08:41 14.06.2019
6192 Clouds 23 1017 78 10000 6.2 310 08:18 14.06.2019
6193 Clouds 22 1017 78 10000 5.1 310 07:46 14.06.2019
6194 Clouds 22 1017 78 10000 4.6 320 07:19 14.06.2019
6195 Fog 20 1016 83 10000 5.1 320 06:27 14.06.2019
6196 Fog 20 1016 83 10000 5.1 320 05:55 14.06.2019
6197 Fog 20 1016 83 10000 5.1 320 05:55 14.06.2019
6198 Clouds 20 1015 73 10000 5.7 330 04:57 14.06.2019
6199 Clouds 20 1015 64 10000 5.7 320 04:36 14.06.2019
6200 Clear 21 1014 60 10000 6.7 270 03:49 14.06.2019
6201 Clear 21 1014 64 10000 4.1 270 03:24 14.06.2019
6202 Clear 21 1014 64 10000 4.1 290 02:45 14.06.2019
6203 Clear 21 1014 69 10000 2.6 230 01:57 14.06.2019
6204 Clouds 22 1013 64 10000 3.1 110 00:49 14.06.2019
6205 Clear 23 1012 73 10000 2.6 150 00:22 14.06.2019
6206 Clear 23 1012 64 10000 3.1 140 23:53 13.06.2019
6207 Clear 23 1012 64 10000 3.1 140 23:27 13.06.2019
6208 Clear 24 1012 61 10000 4.1 130 22:59 13.06.2019
6209 Clear 24 1012 57 10000 4.6 140 22:39 13.06.2019
6210 Clear 24 1012 57 10000 5.1 140 22:20 13.06.2019
6211 Clear 25 1011 57 10000 4.1 130 21:39 13.06.2019
6212 Clear 26 1011 54 10000 4.6 140 21:20 13.06.2019
6213 Clear 27 1010 54 10000 6.7 160 20:45 13.06.2019
6214 Clear 28 1010 54 10000 6.7 160 20:22 13.06.2019
6215 Clouds 28 1011 48 10000 7.2 150 19:59 13.06.2019
6216 Clouds 29 1011 51 10000 6.2 150 19:40 13.06.2019
6217 Thunderstorm 29 1011 51 10000 5.7 150 19:21 13.06.2019
6218 Thunderstorm 30 1011 51 10000 5.7 150 18:54 13.06.2019
6219 Thunderstorm 30 1011 43 10000 7.2 150 18:36 13.06.2019
6220 -273 0 0 0 0 0 18:18 13.06.2019
6221 Clouds 31 1011 48 10000 4.6 130 17:41 13.06.2019
6222 Clouds 30 1011 58 10000 2.1 90 17:20 13.06.2019
6223 Clouds 30 1012 58 10000 3.1 60 16:46 13.06.2019
6224 Clouds 30 1012 58 10000 3.1 80 16:21 13.06.2019
6225 Clouds 30 1012 58 10000 2.6 30 15:57 13.06.2019
6226 Clouds 30 1012 58 10000 2.6 30 15:38 13.06.2019
6227 Thunderstorm 30 1012 61 10000 2.1 30 15:18 13.06.2019
6228 Clouds 29 1013 61 10000 2.1 10 14:44 13.06.2019
6229 Clouds 29 1013 61 10000 2.6 0 14:25 13.06.2019
6230 Clouds 29 1013 61 10000 2.6 360 13:46 13.06.2019
6231 Clear 29 1013 61 10000 2.6 10 13:21 13.06.2019
6232 Clear 28 1014 65 10000 3.1 360 12:44 13.06.2019
6233 Clear 27 1014 65 10000 3.1 360 12:24 13.06.2019
6234 Clear 26 1014 65 10000 3.6 10 11:59 13.06.2019
6235 Clear 26 1014 61 10000 3.1 350 11:41 13.06.2019
6236 Clouds 26 1014 61 10000 3.1 330 11:21 13.06.2019
6237 Clear 25 1014 64 10000 3.1 320 10:46 13.06.2019
6238 Clear 25 1014 64 10000 3.1 320 10:27 13.06.2019
6239 Clear 25 1014 64 10000 3.1 320 10:27 13.06.2019
6240 Clear 23 1013 69 10000 3.1 330 09:45 13.06.2019
6241 Clear 23 1013 69 10000 3.1 330 09:25 13.06.2019
6242 Clear 22 1013 73 10000 3.1 340 08:50 13.06.2019
6243 Clear 22 1013 73 10000 3.1 340 08:29 13.06.2019
6244 Clear 21 1013 83 10000 3.1 330 07:59 13.06.2019
6245 Clear 20 1012 78 10000 1.5 50 07:31 13.06.2019
6246 Clear 19 1012 77 10000 1.5 140 06:52 13.06.2019
6247 Clear 19 1012 77 10000 1.5 110 06:24 13.06.2019
6248 Clear 19 1012 77 10000 1.5 110 05:57 13.06.2019
6249 Clear 19 1011 77 10000 2.6 120 05:37 13.06.2019
6250 Clear 19 1011 73 10000 2.1 80 05:18 13.06.2019
6251 Clear 20 1011 78 10000 2.6 130 03:36 13.06.2019
6252 Clear 22 1012 78 10000 2.6 110 01:43 13.06.2019
6253 Clear 23 1012 73 10000 3.1 130 00:30 13.06.2019
6254 Clear 24 1012 69 10000 4.6 130 23:26 12.06.2019
6255 Clear 24 1011 69 10000 4.1 140 22:58 12.06.2019
6256 Clear 24 1011 69 10000 4.6 150 22:39 12.06.2019
6257 Clear 24 1011 69 10000 4.6 150 22:39 12.06.2019
6258 Clear 25 1011 61 10000 5.1 140 22:21 12.06.2019
6259 Clear 25 1011 61 10000 4.1 140 21:42 12.06.2019
6260 Clear 25 1011 61 10000 4.1 140 21:42 12.06.2019
6261 Clear 26 1010 61 10000 5.1 150 21:22 12.06.2019
6262 Clear 27 1010 61 10000 4.6 140 20:48 12.06.2019
6263 Clear 27 1010 61 10000 4.6 140 20:48 12.06.2019
6264 Clear 27 1010 61 10000 4.6 140 20:29 12.06.2019
6265 Clear 28 1010 54 10000 5.7 150 19:57 12.06.2019
6266 Clear 28 1010 51 10000 7.7 150 19:38 12.06.2019
6267 Clear 28 1010 48 10000 7.2 150 19:19 12.06.2019
6268 Clear 29 1010 45 10000 6.7 150 18:44 12.06.2019
6269 Clear 30 1010 45 10000 8.2 150 18:25 12.06.2019
6270 Clear 31 1011 48 10000 7.2 150 17:47 12.06.2019
6271 Clear 31 1011 48 10000 7.2 150 17:23 12.06.2019
6272 Clear 31 1011 45 10000 8.7 160 16:44 12.06.2019
6273 Clear 31 1011 45 10000 8.2 140 16:25 12.06.2019
6274 Clear 31 1011 45 10000 8.2 140 15:58 12.06.2019
6275 Clear 31 1011 45 10000 9.3 160 15:34 12.06.2019
6276 Clear 31 1011 45 10000 8.7 150 14:58 12.06.2019
6277 Clear 31 1011 45 10000 8.7 150 14:34 12.06.2019
6278 Clear 31 1012 45 10000 8.7 150 13:58 12.06.2019
6279 Clear 30 1012 48 10000 9.3 140 13:39 12.06.2019
6280 Clear 30 1012 48 10000 9.8 150 13:19 12.06.2019
6281 Clear 30 1012 48 10000 9.3 150 12:44 12.06.2019
6282 Clear 29 1012 51 10000 8.7 150 12:22 12.06.2019
6283 Clear 29 1012 51 10000 8.7 150 11:58 12.06.2019
6284 Clear 29 1012 51 10000 7.7 140 11:38 12.06.2019
6285 Clear 28 1012 54 10000 6.7 140 11:20 12.06.2019
6286 Clear 28 1012 51 10000 6.7 140 10:44 12.06.2019
6287 Clouds 28 1010 45 0 5.1 150 10:20 12.06.2019
6288 Clear 26 1012 60 10000 4.6 130 09:43 12.06.2019
6289 Clear 25 1012 60 10000 5.7 150 09:22 12.06.2019
6290 Clear 24 1012 64 10000 6.7 140 08:38 12.06.2019
6291 Clear 23 1011 73 10000 6.2 140 08:19 12.06.2019
6292 Clear 22 1011 73 10000 4.6 130 07:25 12.06.2019
6293 Clear 21 1011 77 10000 4.6 150 06:40 12.06.2019
6294 Clear 20 1010 73 10000 5.1 130 05:25 12.06.2019
6295 Clear 21 1010 78 10000 5.1 140 03:41 12.06.2019
6296 Clear 23 1012 73 10000 4.1 140 00:54 12.06.2019
6297 Clouds 23 1012 78 10000 5.1 150 00:35 12.06.2019
6298 Clear 24 1012 73 10000 4.6 150 23:44 11.06.2019
6299 Clear 24 1012 73 10000 4.6 150 23:26 11.06.2019
6300 Clear 25 1012 65 10000 5.7 140 22:43 11.06.2019
6301 Clear 25 1012 65 10000 4.6 130 22:18 11.06.2019
6302 Clear 25 1012 65 10000 4.6 130 21:57 11.06.2019
6303 Clear 25 1012 65 10000 4.6 130 21:37 11.06.2019
6304 Clear 26 1011 65 10000 4.1 130 21:19 11.06.2019
6305 Clear 26 1012 61 10000 4.1 140 20:47 11.06.2019
6306 Clear 27 1012 61 10000 4.1 140 20:24 11.06.2019
6307 Clear 27 1012 57 10000 4.1 150 19:53 11.06.2019
6308 -273 0 0 0 0 0 19:31 11.06.2019
6309 Clear 28 1011 48 10000 6.7 160 18:55 11.06.2019
6310 Clear 30 1011 48 10000 6.7 160 18:21 11.06.2019
6311 Clear 30 1011 42 10000 6.7 150 17:42 11.06.2019
6312 Clear 30 1011 42 10000 6.7 150 17:22 11.06.2019
6313 Clear 31 1011 45 10000 7.2 140 16:56 11.06.2019
6314 -273 0 0 0 0 0 16:37 11.06.2019
6315 Clouds 31 1011 48 10000 7.7 130 16:19 11.06.2019
6316 Clouds 31 1011 45 10000 7.7 140 15:42 11.06.2019
6317 Clouds 31 1011 45 10000 7.7 140 15:42 11.06.2019
6318 Clouds 31 1011 45 10000 7.7 140 15:22 11.06.2019
6319 Clouds 31 1012 48 10000 8.2 160 14:47 11.06.2019
6320 Clouds 31 1012 45 10000 7.7 140 14:21 11.06.2019
6321 Clouds 31 1012 51 10000 7.7 140 13:51 11.06.2019
6322 Clouds 30 1012 54 10000 7.7 140 13:24 11.06.2019
6323 Clouds 30 1012 54 10000 7.2 140 12:55 11.06.2019
6324 Clouds 30 1012 54 10000 7.7 140 12:55 11.06.2019
6325 Clouds 30 1012 54 10000 7.2 140 12:37 11.06.2019
6326 Clouds 30 1012 54 10000 7.2 150 12:18 11.06.2019
6327 Clouds 29 1012 58 10000 6.7 140 11:39 11.06.2019
6328 Clouds 29 1012 58 10000 6.2 140 11:19 11.06.2019
6329 Clouds 29 1012 65 10000 6.2 140 10:46 11.06.2019
6330 Clouds 29 1012 65 10000 6.2 140 10:46 11.06.2019
6331 Clouds 28 1012 65 10000 6.2 140 10:25 11.06.2019
6332 Clear 27 1012 73 10000 5.1 130 09:49 11.06.2019
6333 Clear 26 1012 73 10000 5.1 130 09:24 11.06.2019
6334 Clear 25 1012 78 10000 5.1 150 08:45 11.06.2019
6335 Clear 24 1012 73 10000 4.6 140 08:26 11.06.2019
6336 Clear 23 1011 73 10000 4.1 140 07:38 11.06.2019
6337 Clear 22 1011 78 10000 5.1 140 06:56 11.06.2019
6338 Clear 21 1011 78 10000 5.7 140 06:34 11.06.2019
6339 Clear 20 1011 77 10000 4.1 150 04:55 11.06.2019
6340 Clear 21 1011 78 10000 4.6 140 03:42 11.06.2019
6341 Rain 22 1012 78 10000 4.1 140 01:40 11.06.2019
6342 Clear 22 1012 78 10000 4.6 150 00:47 11.06.2019
6343 Rain 23 1012 69 10000 5.7 140 23:48 10.06.2019
6344 Rain 24 1012 69 10000 5.7 140 23:25 10.06.2019
6345 Clear 24 1012 69 10000 5.7 140 22:56 10.06.2019
6346 Clear 24 1013 65 10000 6.2 150 22:37 10.06.2019
6347 Clear 24 1012 61 10000 6.2 140 22:19 10.06.2019
6348 Clear 25 1012 61 10000 4.6 150 21:41 10.06.2019
6349 Clear 25 1012 61 10000 4.6 150 21:22 10.06.2019
6350 Rain 26 1012 54 10000 4.6 130 20:46 10.06.2019
6351 Rain 27 1012 54 10000 5.7 140 20:25 10.06.2019
6352 Clear 27 1012 51 10000 6.7 150 19:57 10.06.2019
6353 Clear 27 1012 51 10000 6.7 150 19:38 10.06.2019
6354 Clear 28 1012 51 10000 6.7 130 19:20 10.06.2019
6355 Clear 28 1012 51 10000 6.7 130 18:55 10.06.2019
6356 Clear 29 1012 48 10000 7.7 140 18:37 10.06.2019
6357 Clear 29 1012 45 10000 7.7 140 18:18 10.06.2019
6358 Clear 30 1012 48 10000 8.2 130 17:40 10.06.2019
6359 Clear 30 1012 48 10000 8.2 130 17:21 10.06.2019
6360 Clear 30 1013 45 10000 8.2 140 16:45 10.06.2019
6361 Clear 30 1013 45 10000 8.2 140 16:27 10.06.2019
6362 Clouds 30 1014 48 10000 9.8 140 15:43 10.06.2019
6363 Clouds 30 1014 48 10000 9.8 140 15:24 10.06.2019
6364 Clouds 30 1015 51 10000 9.3 140 14:59 10.06.2019
6365 Clouds 30 1015 51 10000 9.3 140 14:38 10.06.2019
6366 Clouds 30 1015 54 10000 7.7 140 14:20 10.06.2019
6367 Clouds 30 1015 54 10000 9.8 160 13:43 10.06.2019
6368 Clouds 29 1015 58 10000 9.8 150 13:22 10.06.2019
6369 Clouds 29 1015 58 10000 9.8 150 13:22 10.06.2019
6370 Rain 29 1015 57 10000 9.3 150 12:45 10.06.2019
6371 Rain 28 1016 61 10000 7.7 140 12:26 10.06.2019
6372 Clear 28 1016 57 10000 7.7 150 11:46 10.06.2019
6373 Clear 28 1016 57 10000 7.7 150 11:46 10.06.2019
6374 Clear 27 1016 57 10000 7.7 140 11:28 10.06.2019
6375 Clear 27 1016 61 10000 7.2 130 10:46 10.06.2019
6376 Clear 26 1016 61 10000 7.2 130 10:22 10.06.2019
6377 Clear 25 1016 64 10000 6.2 120 09:58 10.06.2019
6378 Clear 25 1016 64 10000 6.2 130 09:39 10.06.2019
6379 Clear 24 1016 64 10000 4.6 130 09:19 10.06.2019
6380 Rain 23 1016 68 10000 5.1 140 08:45 10.06.2019
6381 Rain 22 1016 68 10000 5.1 140 08:25 10.06.2019
6382 Clear 19 1017 77 10000 3.6 140 07:21 10.06.2019
6383 Clear 17 1017 82 10000 3.1 130 04:41 10.06.2019
6384 Clear 18 1018 82 10000 3.1 170 01:59 10.06.2019
6385 Clear 18 1018 82 10000 3.1 160 01:27 10.06.2019
6386 Clear 18 1019 72 10000 2.6 170 00:58 10.06.2019
6387 Clear 19 1019 72 10000 3.1 160 00:23 10.06.2019
6388 Clear 19 1019 72 10000 3.6 160 23:44 09.06.2019
6389 Clear 19 1019 72 10000 3.6 160 23:20 09.06.2019
6390 Clear 20 1019 68 10000 3.1 160 22:45 09.06.2019
6391 Clear 20 1019 64 10000 3.1 140 22:25 09.06.2019
6392 Clear 21 1019 60 10000 3.6 130 21:46 09.06.2019
6393 Clear 21 1019 60 10000 3.6 130 21:46 09.06.2019
6394 Clear 22 1019 60 10000 3.6 130 21:27 09.06.2019
6395 Clear 22 1019 60 10000 3.6 130 21:27 09.06.2019
6396 Clear 23 1019 57 10000 2.6 150 20:45 09.06.2019
6397 Clear 24 1019 57 10000 2.6 150 20:24 09.06.2019
6398 Clear 25 1019 44 10000 3.1 140 19:59 09.06.2019
6399 Clear 25 1020 44 10000 4.1 160 19:41 09.06.2019
6400 Clear 26 1020 44 10000 4.1 140 19:18 09.06.2019
6401 Clear 27 1020 47 10000 4.1 130 18:42 09.06.2019
6402 Clear 27 1020 51 10000 3.1 70 18:24 09.06.2019
6403 Clear 27 1020 47 10000 3.1 90 17:48 09.06.2019
6404 Clear 27 1020 47 10000 3.1 90 17:29 09.06.2019
6405 Clear 27 1021 51 10000 3.1 50 16:57 09.06.2019
6406 Clear 27 1021 51 10000 1.5 0 16:38 09.06.2019
6407 Clear 27 1022 51 10000 1.5 0 16:19 09.06.2019
6408 Clear 27 1022 54 10000 2.6 0 15:47 09.06.2019
6409 Clear 27 1022 54 10000 2.6 0 15:28 09.06.2019
6410 Clear 26 1022 53 10000 2.6 40 14:46 09.06.2019
6411 Clear 26 1022 53 10000 2.6 40 14:46 09.06.2019
6412 Clouds 26 1022 57 10000 3.1 120 14:26 09.06.2019
6413 Clear 26 1023 53 10000 3.1 40 13:56 09.06.2019
6414 Clear 26 1023 53 10000 2.6 40 13:35 09.06.2019
6415 Clear 25 1023 53 10000 3.1 360 12:44 09.06.2019
6416 Clear 25 1023 53 10000 3.1 360 12:26 09.06.2019
6417 Clear 24 1024 56 10000 3.6 360 11:48 09.06.2019
6418 Clear 24 1024 56 10000 3.6 360 11:29 09.06.2019
6419 Clear 23 1024 53 10000 4.1 350 10:47 09.06.2019
6420 Clear 23 1024 56 10000 3.6 360 10:24 09.06.2019
6421 Clear 21 1025 56 10000 4.1 350 09:42 09.06.2019
6422 Clear 20 1025 60 10000 3.1 350 09:24 09.06.2019
6423 Clear 20 1025 60 10000 3.1 350 08:58 09.06.2019
6424 Clear 19 1025 56 10000 3.6 330 08:40 09.06.2019
6425 Clear 18 1025 63 10000 2.6 350 07:50 09.06.2019
6426 Clear 15 1024 67 10000 3.1 350 06:30 09.06.2019
6427 Clear 15 1025 67 10000 3.1 290 05:35 09.06.2019
6428 Clear 17 1025 63 10000 2.1 330 02:52 09.06.2019
6429 Clear 16 1025 67 10000 2.1 10 01:36 09.06.2019
6430 Clear 17 1025 72 10000 2.6 20 01:18 09.06.2019
6431 Clear 17 1025 72 10000 2.6 20 01:18 09.06.2019
6432 Clear 17 1024 63 10000 2.1 340 00:22 09.06.2019
6433 Clear 17 1024 59 10000 2.6 10 23:40 08.06.2019
6434 Clear 17 1023 59 10000 3.6 10 23:22 08.06.2019
6435 Clear 17 1024 52 10000 3.6 310 22:44 08.06.2019
6436 Clear 18 1023 52 10000 3.6 320 22:25 08.06.2019
6437 Clear 18 1023 52 10000 3.6 320 21:56 08.06.2019
6438 Clear 19 1023 49 10000 2.6 310 21:38 08.06.2019
6439 Clear 19 1023 49 10000 2.6 310 21:38 08.06.2019
6440 Clear 20 1023 46 10000 1.5 350 21:19 08.06.2019
6441 Clear 21 1023 46 10000 2.1 340 20:42 08.06.2019
6442 Clear 21 1023 46 10000 2.1 340 20:21 08.06.2019
6443 Clear 23 1023 38 10000 3.6 340 19:43 08.06.2019
6444 Clear 23 1023 38 10000 5.1 340 19:23 08.06.2019
6445 Clear 23 1023 38 10000 5.1 340 18:59 08.06.2019
6446 Clear 24 1023 38 10000 5.7 340 18:40 08.06.2019
6447 Clear 24 1023 41 10000 5.1 330 18:20 08.06.2019
6448 Clear 24 1023 41 10000 6.7 310 17:42 08.06.2019
6449 Clear 24 1023 41 10000 7.7 320 17:19 08.06.2019
6450 Clouds 24 1023 38 10000 7.7 320 16:45 08.06.2019
6451 Clouds 24 1023 38 10000 7.7 320 16:26 08.06.2019
6452 Clouds 24 1023 41 10000 9.3 310 15:49 08.06.2019
6453 Clouds 24 1023 41 10000 9.3 310 15:30 08.06.2019
6454 Clouds 24 1022 43 10000 7.2 310 14:47 08.06.2019
6455 Clouds 23 1022 43 10000 7.2 310 14:28 08.06.2019
6456 Clouds 23 1022 43 10000 8.2 310 13:44 08.06.2019
6457 Clouds 23 1021 43 10000 9.3 300 12:52 08.06.2019
6458 Clouds 22 1021 43 10000 9.3 300 12:32 08.06.2019
6459 Clouds 22 1021 43 10000 9.3 310 11:44 08.06.2019
6460 Clouds 22 1021 46 10000 8.2 310 11:26 08.06.2019
6461 Clouds 22 1020 46 10000 8.2 300 10:47 08.06.2019
6462 Clouds 21 1020 46 10000 8.2 300 10:24 08.06.2019
6463 Clouds 21 1019 46 10000 9.8 300 09:52 08.06.2019
6464 Clouds 20 1019 46 10000 9.8 300 09:28 08.06.2019
6465 Clouds 19 1018 52 10000 10.8 300 08:39 08.06.2019
6466 Clouds 19 1018 55 10000 7.7 300 08:18 08.06.2019
6467 Clouds 18 1016 68 10000 9.8 290 06:51 08.06.2019
6468 Clear 17 1016 88 10000 2.1 300 05:56 08.06.2019
6469 Clear 16 1013 72 10000 5.1 140 03:35 08.06.2019
6470 Clear 18 1013 72 10000 1.5 120 01:59 08.06.2019
6471 Clear 19 1013 72 10000 4.1 130 00:29 08.06.2019
6472 Clear 20 1013 68 10000 4.6 110 23:53 07.06.2019
6473 Clear 20 1013 68 10000 4.1 110 23:21 07.06.2019
6474 Clear 20 1013 64 10000 5.1 110 22:50 07.06.2019
6475 Clear 21 1013 64 10000 5.1 110 22:32 07.06.2019
6476 Clear 21 1013 64 10000 4.6 110 21:54 07.06.2019
6477 Rain 22 1013 64 10000 4.1 110 21:31 07.06.2019
6478 Rain 23 1013 60 10000 4.6 110 20:59 07.06.2019
6479 Rain 23 1013 57 10000 4.1 110 20:41 07.06.2019
6480 Rain 24 1013 57 10000 4.1 110 20:22 07.06.2019
6481 Clouds 25 1013 54 10000 4.1 130 19:38 07.06.2019
6482 Clouds 25 1013 54 10000 5.7 130 19:19 07.06.2019
6483 Clouds 26 1013 50 10000 5.7 130 18:38 07.06.2019
6484 Clouds 26 1013 50 10000 5.7 130 18:38 07.06.2019
6485 Clouds 26 1013 54 10000 5.1 140 18:20 07.06.2019
6486 Clouds 26 1013 54 10000 5.7 130 17:42 07.06.2019
6487 Clouds 26 1014 57 10000 6.2 140 17:19 07.06.2019
6488 Clouds 26 1014 57 10000 6.2 130 16:41 07.06.2019
6489 Clouds 26 1014 61 10000 4.6 130 15:56 07.06.2019
6490 Clouds 26 1014 57 10000 4.6 150 15:38 07.06.2019
6491 Clouds 25 1014 60 10000 5.1 130 15:18 07.06.2019
6492 Clouds 25 1015 69 10000 3.1 60 14:39 07.06.2019
6493 Clouds 25 1015 69 10000 2.6 60 14:19 07.06.2019
6494 Clouds 24 1015 69 10000 2.6 80 13:27 07.06.2019
6495 Clouds 24 1016 73 10000 0.5 0 12:51 07.06.2019
6496 Clouds 23 1016 73 10000 0.5 0 12:29 07.06.2019
6497 Clouds 23 1016 73 10000 2.1 0 11:57 07.06.2019
6498 Clouds 23 1016 73 10000 3.1 40 11:34 07.06.2019
6499 Clouds 22 1015 73 10000 3.1 10 10:59 07.06.2019
6500 Clouds 22 1016 82 10000 2.6 20 10:41 07.06.2019
6501 Clouds 21 1016 72 10000 5.1 320 10:19 07.06.2019
6502 Clouds 20 1015 72 10000 4.1 310 09:46 07.06.2019
6503 Clouds 19 1015 77 10000 4.1 300 09:21 07.06.2019
6504 Clouds 18 1015 77 10000 4.1 280 08:45 07.06.2019
6505 Clouds 17 1015 77 10000 4.1 280 08:26 07.06.2019
6506 Clouds 17 1015 77 10000 5.7 300 07:48 07.06.2019
6507 Clouds 16 1015 87 10000 3.1 310 07:22 07.06.2019
6508 Clouds 16 1014 82 10000 5.1 280 06:47 07.06.2019
6509 Clouds 16 1014 82 10000 5.1 270 06:23 07.06.2019
6510 Clouds 16 1014 82 10000 5.1 270 06:23 07.06.2019
6511 Clouds 16 1014 82 10000 4.6 300 05:43 07.06.2019
6512 Rain 17 1012 93 10000 2.1 40 02:41 07.06.2019
6513 Rain 17 1012 93 10000 1 0 01:37 07.06.2019
6514 Rain 18 1012 82 10000 2.1 100 00:46 07.06.2019
6515 Clouds 18 1012 88 10000 0.5 0 23:46 06.06.2019
6516 Clouds 19 1012 88 10000 1.5 50 23:25 06.06.2019
6517 Clouds 19 1012 88 10000 1.5 50 22:57 06.06.2019
6518 Clouds 19 1012 88 10000 3.6 160 22:37 06.06.2019
6519 Clouds 19 1011 82 10000 2.1 150 22:19 06.06.2019
6520 Clouds 20 1011 77 10000 2.6 80 21:45 06.06.2019
6521 Clouds 20 1011 77 10000 1.5 140 21:22 06.06.2019
6522 Clouds 20 1011 77 10000 1.5 140 20:55 06.06.2019
6523 Clouds 21 1011 77 10000 2.1 120 20:33 06.06.2019
6524 Clouds 22 1012 83 10000 2.6 150 19:59 06.06.2019
6525 Clouds 22 1011 73 10000 4.1 170 19:37 06.06.2019
6526 Clouds 22 1011 73 10000 2.1 120 19:19 06.06.2019
6527 Clouds 23 1011 69 10000 4.6 180 18:44 06.06.2019
6528 Clouds 23 1011 69 10000 4.1 160 18:24 06.06.2019
6529 Clouds 23 1011 69 10000 5.1 180 17:49 06.06.2019
6530 Clouds 24 1011 69 10000 5.1 180 17:26 06.06.2019
6531 Clouds 24 1011 69 10000 5.1 140 16:56 06.06.2019
6532 Clouds 24 1011 64 10000 5.1 130 16:38 06.06.2019
6533 Clouds 24 1011 69 10000 4.6 140 16:20 06.06.2019
6534 Clouds 24 1011 69 10000 5.7 130 15:40 06.06.2019
6535 Clouds 24 1011 64 10000 6.7 140 15:21 06.06.2019
6536 Clouds 24 1011 69 10000 6.2 140 14:43 06.06.2019
6537 Clouds 24 1011 69 10000 6.2 130 14:20 06.06.2019
6538 Clouds 23 1011 73 10000 5.1 130 13:50 06.06.2019
6539 Clouds 23 1011 73 10000 5.1 130 13:30 06.06.2019
6540 Clouds 22 1011 73 10000 5.1 150 12:48 06.06.2019
6541 Clouds 22 1011 73 10000 5.1 150 12:29 06.06.2019
6542 Clouds 22 1011 82 10000 4.6 120 11:57 06.06.2019
6543 Clouds 22 1011 77 10000 5.7 110 11:39 06.06.2019
6544 Clouds 21 1011 77 10000 5.7 110 11:20 06.06.2019
6545 Clouds 21 1011 77 10000 5.7 110 11:20 06.06.2019
6546 Clouds 21 1010 82 10000 4.6 130 10:45 06.06.2019
6547 Clouds 21 1010 82 10000 4.6 130 10:25 06.06.2019
6548 Clouds 21 1010 82 10000 4.6 130 10:25 06.06.2019
6549 Clouds 20 1010 82 10000 5.7 140 09:44 06.06.2019
6550 Clouds 20 1010 82 10000 5.7 140 09:24 06.06.2019
6551 Clouds 19 1009 88 10000 5.1 140 08:50 06.06.2019
6552 Clouds 19 1009 88 10000 5.1 140 08:24 06.06.2019
6553 Mist 19 1009 88 10000 6.2 130 07:53 06.06.2019
6554 Mist 18 1009 88 10000 6.2 130 07:25 06.06.2019
6555 Clouds 18 1009 88 10000 6.7 130 06:48 06.06.2019
6556 Clouds 17 1008 88 10000 5.7 140 05:39 06.06.2019
6557 Clear 17 1008 88 10000 6.2 130 04:34 06.06.2019
6558 Clear 18 1009 82 10000 4.1 110 02:22 06.06.2019
6559 Clear 18 1009 82 10000 4.1 130 01:51 06.06.2019
6560 Clear 19 1009 77 10000 4.1 130 00:51 06.06.2019
6561 Clear 19 1009 77 10000 4.1 130 00:30 06.06.2019
6562 Clear 20 1009 77 10000 6.2 150 23:41 05.06.2019
6563 Clear 21 1010 73 10000 4.6 130 23:20 05.06.2019
6564 Clear 21 1009 73 10000 3.6 120 22:42 05.06.2019
6565 Clear 21 1009 73 10000 3.6 120 22:22 05.06.2019
6566 Clear 22 1009 73 10000 3.6 120 21:56 05.06.2019
6567 Rain 22 1009 64 10000 5.1 120 21:37 05.06.2019
6568 Rain 22 1009 64 10000 5.7 110 21:18 05.06.2019
6569 Rain 24 1009 57 10000 5.7 110 20:44 05.06.2019
6570 Clear 24 1009 57 10000 5.7 110 20:24 05.06.2019
6571 Clouds 24 1008 54 10000 5.7 130 19:43 05.06.2019
6572 Clouds 25 1008 57 10000 6.2 140 19:19 05.06.2019
6573 Clouds 26 1008 57 10000 6.2 130 18:43 05.06.2019
6574 Clouds 27 1008 47 10000 4.6 110 18:24 05.06.2019
6575 Clear 28 1008 42 10000 3.6 90 17:49 05.06.2019
6576 Clouds 28 1008 48 10000 3.6 140 17:23 05.06.2019
6577 Clouds 28 1008 45 10000 3.6 100 16:42 05.06.2019
6578 Clouds 28 1009 45 10000 2.6 120 16:20 05.06.2019
6579 Clouds 28 1009 45 10000 3.1 0 15:51 05.06.2019
6580 Clouds 28 1009 47 10000 3.1 70 15:27 05.06.2019
6581 -273 0 0 0 0 0 14:59 05.06.2019
6582 Clouds 28 1009 51 10000 2.1 130 14:38 05.06.2019
6583 Clouds 28 1010 47 10000 2.6 130 14:19 05.06.2019
6584 Clouds 28 1010 54 10000 2.1 90 13:41 05.06.2019
6585 Clouds 28 1010 54 10000 1.5 0 13:22 05.06.2019
6586 Clouds 28 1010 54 10000 2.1 90 13:22 05.06.2019
6587 Clouds 28 1010 54 10000 2.1 0 12:49 05.06.2019
6588 Clouds 27 1010 54 10000 2.1 0 12:26 05.06.2019
6589 Clouds 27 1010 61 10000 2.1 150 11:57 05.06.2019
6590 Clouds 27 1010 61 10000 2.6 140 11:38 05.06.2019
6591 Clouds 26 1010 64 10000 1 0 11:19 05.06.2019
6592 Clouds 25 1010 64 10000 1.5 100 10:43 05.06.2019
6593 Clouds 25 1010 64 10000 1.5 100 10:22 05.06.2019
6594 Clouds 24 1011 68 10000 1 0 09:43 05.06.2019
6595 Clear 23 1011 73 10000 1.5 110 09:24 05.06.2019
6596 Clear 21 1010 68 10000 2.6 40 08:32 05.06.2019
6597 Clear 19 1011 77 10000 1 0 07:43 05.06.2019
6598 Clear 17 1010 88 10000 1.5 140 06:56 05.06.2019
6599 Clear 16 1010 87 10000 1 150 06:31 05.06.2019
6600 Clear 16 1010 82 10000 1.5 190 05:50 05.06.2019
6601 Clear 16 1011 88 10000 2.6 120 03:33 05.06.2019
6602 Clear 18 1011 72 10000 1 0 01:34 05.06.2019
6603 Rain 18 1011 77 10000 2.6 150 00:52 05.06.2019
6604 Rain 19 1011 77 10000 2.6 150 00:29 05.06.2019
6605 Clear 19 1012 77 10000 2.6 140 23:46 04.06.2019
6606 Clear 20 1012 77 10000 2.6 140 23:25 04.06.2019
6607 Clear 20 1011 73 10000 2.1 140 22:58 04.06.2019
6608 Clear 20 1011 73 10000 3.1 170 22:38 04.06.2019
6609 Clear 21 1011 64 10000 2.6 160 22:19 04.06.2019
6610 Clear 22 1011 64 10000 2.6 120 21:49 04.06.2019
6611 Clear 22 1011 64 10000 2.6 120 21:27 04.06.2019
6612 Clear 23 1011 64 10000 2.6 140 20:59 04.06.2019
6613 Clear 25 1011 50 10000 3.6 100 20:37 04.06.2019
6614 Clear 25 1011 47 10000 4.1 110 20:18 04.06.2019
6615 Clouds 25 1011 39 10000 1.5 130 19:44 04.06.2019
6616 Clear 26 1011 39 10000 1.5 70 19:23 04.06.2019
6617 Clear 27 1011 39 10000 1 0 18:48 04.06.2019
6618 Clear 28 1011 39 10000 1 0 18:25 04.06.2019
6619 Clouds 28 1011 39 10000 1.5 60 17:48 04.06.2019
6620 Clouds 28 1011 39 10000 1.5 60 17:28 04.06.2019
6621 Clear 29 1012 42 10000 1 0 16:50 04.06.2019
6622 Clear 29 1012 42 10000 1 0 16:26 04.06.2019
6623 Clear 29 1012 42 10000 1.5 200 15:45 04.06.2019
6624 Clear 29 1012 45 0 2.1 10 15:27 04.06.2019
6625 Clouds 28 1012 48 10000 1.5 170 14:50 04.06.2019
6626 Rain 28 1013 42 10000 2.1 80 14:22 04.06.2019
6627 Rain 28 1014 47 10000 2.1 70 13:58 04.06.2019
6628 Rain 29 1014 42 0 1 200 13:40 04.06.2019
6629 Clouds 28 1014 47 10000 2.1 70 13:19 04.06.2019
6630 Clouds 28 1014 50 10000 1.5 70 12:39 04.06.2019
6631 Clouds 27 1014 57 10000 1.5 0 12:21 04.06.2019
6632 Clear 26 1014 47 0 3.1 260 11:42 04.06.2019
6633 Clear 26 1014 60 10000 2.1 70 11:20 04.06.2019
6634 Clear 26 1014 57 0 4.1 220 10:46 04.06.2019
6635 Clear 25 1014 64 10000 2.1 20 10:20 04.06.2019
6636 Clear 23 1014 64 10000 1 0 09:43 04.06.2019
6637 Clear 22 1014 68 10000 2.1 40 09:21 04.06.2019
6638 Clear 21 1015 68 10000 1 0 08:50 04.06.2019
6639 Clear 20 1015 68 10000 1 0 08:31 04.06.2019
6640 Clear 19 1015 77 10000 1.5 140 07:58 04.06.2019
6641 Clear 18 1014 77 10000 2.1 150 07:39 04.06.2019
6642 Clear 17 1014 77 10000 1.5 160 07:18 04.06.2019
6643 Clear 15 1014 77 10000 2.6 260 06:41 04.06.2019
6644 Clear 15 1014 77 10000 2.6 250 06:22 04.06.2019
6645 Clear 14 1014 77 10000 3.6 260 05:39 04.06.2019
6646 Rain 15 1014 67 10000 2.6 230 04:40 04.06.2019
6647 Clear 15 1014 82 10000 2.6 160 03:56 04.06.2019
6648 Clear 16 1014 77 10000 2.1 230 02:50 04.06.2019
6649 Clear 16 1014 77 10000 2.1 230 02:29 04.06.2019
6650 Clear 16 1015 77 10000 2.1 150 01:34 04.06.2019
6651 Clear 17 1014 74 0 1.5 322.557 00:42 04.06.2019
6652 Clear 18 1015 60 10000 3.1 250 23:59 03.06.2019
6653 Thunderstorm 18 1015 56 10000 1.5 210 23:37 03.06.2019
6654 Clear 18 1015 68 10000 1 120 23:19 03.06.2019
6655 Clear 19 1015 56 10000 0.5 0 22:45 03.06.2019
6656 Clear 20 1015 56 10000 1 130 22:25 03.06.2019
6657 Clear 20 1015 56 10000 1 130 21:55 03.06.2019
6658 Clear 20 1015 56 10000 1 130 21:55 03.06.2019
6659 Rain 21 1014 44 10000 1 110 21:37 03.06.2019
6660 Rain 22 1014 41 10000 1.5 150 21:18 03.06.2019
6661 Rain 24 1014 44 10000 1.5 150 20:40 03.06.2019
6662 Clear 25 1014 44 10000 1.5 130 20:22 03.06.2019
6663 Clear 25 1014 44 10000 1.5 130 19:57 03.06.2019
6664 Clear 26 1014 39 10000 1.5 150 19:38 03.06.2019
6665 Clear 26 1014 42 10000 1.5 180 19:19 03.06.2019
6666 Clear 27 1014 39 10000 1 0 18:47 03.06.2019
6667 Clear 28 1014 39 10000 1 0 18:25 03.06.2019
6668 Clear 28 1015 36 10000 2.1 100 17:54 03.06.2019
6669 Clear 28 1015 36 10000 2.1 100 17:36 03.06.2019
6670 Clear 28 1015 36 10000 2.1 110 17:18 03.06.2019
6671 Clear 28 1015 36 10000 1.5 130 16:42 03.06.2019
6672 Clouds 28 1016 39 10000 2.1 150 16:18 03.06.2019
6673 Clouds 28 1016 39 10000 2.1 40 15:45 03.06.2019
6674 Clouds 28 1016 39 10000 2.1 40 15:25 03.06.2019
6675 Clouds 28 1017 47 10000 2.6 70 14:50 03.06.2019
6676 Rain 28 1017 47 10000 2.1 50 14:27 03.06.2019
6677 Rain 28 1017 47 10000 1.5 40 13:44 03.06.2019
6678 Clouds 27 1017 47 10000 1.5 40 13:22 03.06.2019
6679 Clear 27 1017 50 0 2.1 50 12:58 03.06.2019
6680 Clear 27 1017 50 0 2.1 50 12:37 03.06.2019
6681 Clouds 26 1017 57 10000 1 0 12:19 03.06.2019
6682 Clear 25 1018 57 0 1 320 11:43 03.06.2019
6683 Clouds 25 1018 60 10000 1.5 0 11:22 03.06.2019
6684 Clouds 24 1018 60 10000 1 0 10:46 03.06.2019
6685 Clouds 23 1018 60 10000 0.5 0 10:24 03.06.2019
6686 Clouds 23 1018 60 10000 0.5 0 09:58 03.06.2019
6687 Clouds 22 1018 64 10000 0.5 0 09:40 03.06.2019
6688 Clear 20